<?xml version="1.0" encoding="UTF-8" standalone="no" ?>
<gpx xmlns="http://www.topografix.com/GPX/1/1" xmlns:xsi="http://www.w3.org/2001/XMLSchema-instance" xsi:schemaLocation="http://www.topografix.com/GPX/1/1 http://www.topografix.com/GPX/1/1/gpx.xsd" version="1.1" creator="VisuGPX - https://www.visugpx.com">
  <metadata>
    <name>sophie et pierre 3</name>
    <desc><![CDATA[dddddddddddddddddddddddddddddd]]></desc>
  </metadata>
  <trk>
    <name><![CDATA[180603151754]]></name>
    <trkseg>
      <trkpt lat="50.61342" lon="3.06459">
        <ele>40.4</ele>
        <time>2018-06-03T13:20:47Z</time>
      </trkpt>
      <trkpt lat="50.61346" lon="3.06427">
        <ele>40.6</ele>
        <time>2018-06-03T13:20:51Z</time>
      </trkpt>
      <trkpt lat="50.6135" lon="3.06393">
        <ele>40</ele>
        <time>2018-06-03T13:20:55Z</time>
      </trkpt>
      <trkpt lat="50.61354" lon="3.0636">
        <ele>39.8</ele>
        <time>2018-06-03T13:20:59Z</time>
      </trkpt>
      <trkpt lat="50.61368" lon="3.06337">
        <ele>39.6</ele>
        <time>2018-06-03T13:21:03Z</time>
      </trkpt>
      <trkpt lat="50.61381" lon="3.06317">
        <ele>40.4</ele>
        <time>2018-06-03T13:21:07Z</time>
      </trkpt>
      <trkpt lat="50.6139" lon="3.06296">
        <ele>40.4</ele>
        <time>2018-06-03T13:21:11Z</time>
      </trkpt>
      <trkpt lat="50.6139" lon="3.06296">
        <ele>40</ele>
        <time>2018-06-03T13:21:15Z</time>
      </trkpt>
      <trkpt lat="50.6139" lon="3.06296">
        <ele>40</ele>
        <time>2018-06-03T13:21:19Z</time>
      </trkpt>
      <trkpt lat="50.6139" lon="3.06296">
        <ele>40</ele>
        <time>2018-06-03T13:21:23Z</time>
      </trkpt>
      <trkpt lat="50.6139" lon="3.06296">
        <ele>40</ele>
        <time>2018-06-03T13:21:27Z</time>
      </trkpt>
      <trkpt lat="50.6139" lon="3.06296">
        <ele>40.2</ele>
        <time>2018-06-03T13:21:31Z</time>
      </trkpt>
      <trkpt lat="50.6139" lon="3.06296">
        <ele>40.2</ele>
        <time>2018-06-03T13:21:35Z</time>
      </trkpt>
      <trkpt lat="50.61387" lon="3.06278">
        <ele>39.6</ele>
        <time>2018-06-03T13:21:39Z</time>
      </trkpt>
      <trkpt lat="50.6139" lon="3.06264">
        <ele>40</ele>
        <time>2018-06-03T13:21:43Z</time>
      </trkpt>
      <trkpt lat="50.61395" lon="3.06244">
        <ele>40.4</ele>
        <time>2018-06-03T13:21:47Z</time>
      </trkpt>
      <trkpt lat="50.61405" lon="3.06239">
        <ele>40.8</ele>
        <time>2018-06-03T13:21:51Z</time>
      </trkpt>
      <trkpt lat="50.61407" lon="3.06233">
        <ele>40.8</ele>
        <time>2018-06-03T13:21:55Z</time>
      </trkpt>
      <trkpt lat="50.61409" lon="3.06216">
        <ele>40.6</ele>
        <time>2018-06-03T13:21:59Z</time>
      </trkpt>
      <trkpt lat="50.61411" lon="3.06195">
        <ele>41</ele>
        <time>2018-06-03T13:22:03Z</time>
      </trkpt>
      <trkpt lat="50.61412" lon="3.06174">
        <ele>41</ele>
        <time>2018-06-03T13:22:07Z</time>
      </trkpt>
      <trkpt lat="50.61414" lon="3.06151">
        <ele>41.2</ele>
        <time>2018-06-03T13:22:11Z</time>
      </trkpt>
      <trkpt lat="50.61418" lon="3.06125">
        <ele>41.4</ele>
        <time>2018-06-03T13:22:15Z</time>
      </trkpt>
      <trkpt lat="50.61422" lon="3.06099">
        <ele>41.2</ele>
        <time>2018-06-03T13:22:19Z</time>
      </trkpt>
      <trkpt lat="50.61426" lon="3.06072">
        <ele>40.8</ele>
        <time>2018-06-03T13:22:23Z</time>
      </trkpt>
      <trkpt lat="50.6143" lon="3.06044">
        <ele>40.4</ele>
        <time>2018-06-03T13:22:27Z</time>
      </trkpt>
      <trkpt lat="50.61434" lon="3.06015">
        <ele>40.4</ele>
        <time>2018-06-03T13:22:31Z</time>
      </trkpt>
      <trkpt lat="50.61438" lon="3.05985">
        <ele>40.4</ele>
        <time>2018-06-03T13:22:35Z</time>
      </trkpt>
      <trkpt lat="50.61442" lon="3.05955">
        <ele>40.2</ele>
        <time>2018-06-03T13:22:39Z</time>
      </trkpt>
      <trkpt lat="50.61445" lon="3.05927">
        <ele>40</ele>
        <time>2018-06-03T13:22:43Z</time>
      </trkpt>
      <trkpt lat="50.61447" lon="3.05898">
        <ele>40.4</ele>
        <time>2018-06-03T13:22:47Z</time>
      </trkpt>
      <trkpt lat="50.61448" lon="3.05871">
        <ele>40.4</ele>
        <time>2018-06-03T13:22:51Z</time>
      </trkpt>
      <trkpt lat="50.61449" lon="3.05843">
        <ele>40.2</ele>
        <time>2018-06-03T13:22:55Z</time>
      </trkpt>
      <trkpt lat="50.61451" lon="3.05814">
        <ele>40.6</ele>
        <time>2018-06-03T13:22:59Z</time>
      </trkpt>
      <trkpt lat="50.61453" lon="3.05784">
        <ele>40.8</ele>
        <time>2018-06-03T13:23:03Z</time>
      </trkpt>
      <trkpt lat="50.61454" lon="3.05754">
        <ele>41</ele>
        <time>2018-06-03T13:23:07Z</time>
      </trkpt>
      <trkpt lat="50.61456" lon="3.05724">
        <ele>40.4</ele>
        <time>2018-06-03T13:23:11Z</time>
      </trkpt>
      <trkpt lat="50.61458" lon="3.05695">
        <ele>41.2</ele>
        <time>2018-06-03T13:23:15Z</time>
      </trkpt>
      <trkpt lat="50.6146" lon="3.05665">
        <ele>41</ele>
        <time>2018-06-03T13:23:19Z</time>
      </trkpt>
      <trkpt lat="50.61462" lon="3.05636">
        <ele>40.8</ele>
        <time>2018-06-03T13:23:23Z</time>
      </trkpt>
      <trkpt lat="50.61464" lon="3.05605">
        <ele>40.6</ele>
        <time>2018-06-03T13:23:27Z</time>
      </trkpt>
      <trkpt lat="50.61467" lon="3.05573">
        <ele>40.8</ele>
        <time>2018-06-03T13:23:31Z</time>
      </trkpt>
      <trkpt lat="50.6147" lon="3.05541">
        <ele>41</ele>
        <time>2018-06-03T13:23:35Z</time>
      </trkpt>
      <trkpt lat="50.61473" lon="3.05509">
        <ele>41</ele>
        <time>2018-06-03T13:23:39Z</time>
      </trkpt>
      <trkpt lat="50.61473" lon="3.05478">
        <ele>40.4</ele>
        <time>2018-06-03T13:23:43Z</time>
      </trkpt>
      <trkpt lat="50.61475" lon="3.05447">
        <ele>40.4</ele>
        <time>2018-06-03T13:23:47Z</time>
      </trkpt>
      <trkpt lat="50.61478" lon="3.05418">
        <ele>40.6</ele>
        <time>2018-06-03T13:23:51Z</time>
      </trkpt>
      <trkpt lat="50.61481" lon="3.05388">
        <ele>40.8</ele>
        <time>2018-06-03T13:23:55Z</time>
      </trkpt>
      <trkpt lat="50.61484" lon="3.05357">
        <ele>40.8</ele>
        <time>2018-06-03T13:23:59Z</time>
      </trkpt>
      <trkpt lat="50.61486" lon="3.05325">
        <ele>40</ele>
        <time>2018-06-03T13:24:03Z</time>
      </trkpt>
      <trkpt lat="50.61489" lon="3.05307">
        <ele>39.6</ele>
        <time>2018-06-03T13:24:07Z</time>
      </trkpt>
      <trkpt lat="50.61493" lon="3.05303">
        <ele>39.6</ele>
        <time>2018-06-03T13:24:11Z</time>
      </trkpt>
      <trkpt lat="50.615" lon="3.05298">
        <ele>40</ele>
        <time>2018-06-03T13:24:15Z</time>
      </trkpt>
      <trkpt lat="50.61511" lon="3.05296">
        <ele>40.4</ele>
        <time>2018-06-03T13:24:19Z</time>
      </trkpt>
      <trkpt lat="50.61525" lon="3.05295">
        <ele>39.8</ele>
        <time>2018-06-03T13:24:23Z</time>
      </trkpt>
      <trkpt lat="50.61541" lon="3.053">
        <ele>40.2</ele>
        <time>2018-06-03T13:24:27Z</time>
      </trkpt>
      <trkpt lat="50.61543" lon="3.05292">
        <ele>40.2</ele>
        <time>2018-06-03T13:24:31Z</time>
      </trkpt>
      <trkpt lat="50.61547" lon="3.05273">
        <ele>40</ele>
        <time>2018-06-03T13:24:35Z</time>
      </trkpt>
      <trkpt lat="50.61551" lon="3.05254">
        <ele>40.6</ele>
        <time>2018-06-03T13:24:39Z</time>
      </trkpt>
      <trkpt lat="50.61555" lon="3.05234">
        <ele>40.4</ele>
        <time>2018-06-03T13:24:43Z</time>
      </trkpt>
      <trkpt lat="50.6156" lon="3.05218">
        <ele>40.4</ele>
        <time>2018-06-03T13:24:47Z</time>
      </trkpt>
      <trkpt lat="50.6156" lon="3.05188">
        <ele>40.6</ele>
        <time>2018-06-03T13:24:51Z</time>
      </trkpt>
      <trkpt lat="50.61562" lon="3.05164">
        <ele>40.6</ele>
        <time>2018-06-03T13:24:55Z</time>
      </trkpt>
      <trkpt lat="50.61567" lon="3.05146">
        <ele>40.8</ele>
        <time>2018-06-03T13:24:59Z</time>
      </trkpt>
      <trkpt lat="50.61566" lon="3.05117">
        <ele>41.2</ele>
        <time>2018-06-03T13:25:03Z</time>
      </trkpt>
      <trkpt lat="50.61568" lon="3.05094">
        <ele>41.2</ele>
        <time>2018-06-03T13:25:07Z</time>
      </trkpt>
      <trkpt lat="50.61575" lon="3.05078">
        <ele>41.2</ele>
        <time>2018-06-03T13:25:11Z</time>
      </trkpt>
      <trkpt lat="50.61586" lon="3.05078">
        <ele>42</ele>
        <time>2018-06-03T13:25:15Z</time>
      </trkpt>
      <trkpt lat="50.61596" lon="3.05076">
        <ele>43</ele>
        <time>2018-06-03T13:25:19Z</time>
      </trkpt>
      <trkpt lat="50.61605" lon="3.05075">
        <ele>43.6</ele>
        <time>2018-06-03T13:25:23Z</time>
      </trkpt>
      <trkpt lat="50.6161" lon="3.05067">
        <ele>43.8</ele>
        <time>2018-06-03T13:25:27Z</time>
      </trkpt>
      <trkpt lat="50.61613" lon="3.05053">
        <ele>43.8</ele>
        <time>2018-06-03T13:25:31Z</time>
      </trkpt>
      <trkpt lat="50.61614" lon="3.0504">
        <ele>43.8</ele>
        <time>2018-06-03T13:25:35Z</time>
      </trkpt>
      <trkpt lat="50.61616" lon="3.05029">
        <ele>43.8</ele>
        <time>2018-06-03T13:25:39Z</time>
      </trkpt>
      <trkpt lat="50.61619" lon="3.0501">
        <ele>44</ele>
        <time>2018-06-03T13:25:43Z</time>
      </trkpt>
      <trkpt lat="50.61621" lon="3.04989">
        <ele>44.2</ele>
        <time>2018-06-03T13:25:47Z</time>
      </trkpt>
      <trkpt lat="50.61623" lon="3.04966">
        <ele>44.2</ele>
        <time>2018-06-03T13:25:51Z</time>
      </trkpt>
      <trkpt lat="50.61625" lon="3.04943">
        <ele>44.4</ele>
        <time>2018-06-03T13:25:55Z</time>
      </trkpt>
      <trkpt lat="50.61626" lon="3.04918">
        <ele>44.4</ele>
        <time>2018-06-03T13:25:59Z</time>
      </trkpt>
      <trkpt lat="50.61628" lon="3.04895">
        <ele>44.2</ele>
        <time>2018-06-03T13:26:03Z</time>
      </trkpt>
      <trkpt lat="50.6163" lon="3.04873">
        <ele>44.8</ele>
        <time>2018-06-03T13:26:07Z</time>
      </trkpt>
      <trkpt lat="50.61635" lon="3.04853">
        <ele>45.2</ele>
        <time>2018-06-03T13:26:11Z</time>
      </trkpt>
      <trkpt lat="50.61643" lon="3.0484">
        <ele>45.4</ele>
        <time>2018-06-03T13:26:15Z</time>
      </trkpt>
      <trkpt lat="50.61657" lon="3.04836">
        <ele>45.4</ele>
        <time>2018-06-03T13:26:19Z</time>
      </trkpt>
      <trkpt lat="50.61672" lon="3.04831">
        <ele>44.8</ele>
        <time>2018-06-03T13:26:23Z</time>
      </trkpt>
      <trkpt lat="50.61688" lon="3.04829">
        <ele>44.6</ele>
        <time>2018-06-03T13:26:27Z</time>
      </trkpt>
      <trkpt lat="50.61706" lon="3.04838">
        <ele>44.2</ele>
        <time>2018-06-03T13:26:31Z</time>
      </trkpt>
      <trkpt lat="50.61723" lon="3.04854">
        <ele>43.8</ele>
        <time>2018-06-03T13:26:35Z</time>
      </trkpt>
      <trkpt lat="50.61737" lon="3.04877">
        <ele>43.4</ele>
        <time>2018-06-03T13:26:39Z</time>
      </trkpt>
      <trkpt lat="50.6175" lon="3.04901">
        <ele>42.4</ele>
        <time>2018-06-03T13:26:43Z</time>
      </trkpt>
      <trkpt lat="50.61763" lon="3.04929">
        <ele>41.4</ele>
        <time>2018-06-03T13:26:47Z</time>
      </trkpt>
      <trkpt lat="50.61776" lon="3.04955">
        <ele>40.4</ele>
        <time>2018-06-03T13:26:51Z</time>
      </trkpt>
      <trkpt lat="50.61788" lon="3.0497">
        <ele>39</ele>
        <time>2018-06-03T13:26:55Z</time>
      </trkpt>
      <trkpt lat="50.61794" lon="3.04964">
        <ele>39.2</ele>
        <time>2018-06-03T13:26:59Z</time>
      </trkpt>
      <trkpt lat="50.61801" lon="3.04952">
        <ele>39.4</ele>
        <time>2018-06-03T13:27:03Z</time>
      </trkpt>
      <trkpt lat="50.61809" lon="3.04941">
        <ele>39</ele>
        <time>2018-06-03T13:27:07Z</time>
      </trkpt>
      <trkpt lat="50.61821" lon="3.04935">
        <ele>38.2</ele>
        <time>2018-06-03T13:27:11Z</time>
      </trkpt>
      <trkpt lat="50.61831" lon="3.04934">
        <ele>38.4</ele>
        <time>2018-06-03T13:27:15Z</time>
      </trkpt>
      <trkpt lat="50.6184" lon="3.04934">
        <ele>38.4</ele>
        <time>2018-06-03T13:27:19Z</time>
      </trkpt>
      <trkpt lat="50.6185" lon="3.0494">
        <ele>38.8</ele>
        <time>2018-06-03T13:27:23Z</time>
      </trkpt>
      <trkpt lat="50.6186" lon="3.04947">
        <ele>38</ele>
        <time>2018-06-03T13:27:27Z</time>
      </trkpt>
      <trkpt lat="50.61869" lon="3.04956">
        <ele>38</ele>
        <time>2018-06-03T13:27:31Z</time>
      </trkpt>
      <trkpt lat="50.61882" lon="3.04957">
        <ele>37.8</ele>
        <time>2018-06-03T13:27:35Z</time>
      </trkpt>
      <trkpt lat="50.61895" lon="3.04939">
        <ele>38.2</ele>
        <time>2018-06-03T13:27:39Z</time>
      </trkpt>
      <trkpt lat="50.61909" lon="3.04921">
        <ele>38.4</ele>
        <time>2018-06-03T13:27:43Z</time>
      </trkpt>
      <trkpt lat="50.61923" lon="3.04901">
        <ele>38</ele>
        <time>2018-06-03T13:27:47Z</time>
      </trkpt>
      <trkpt lat="50.61938" lon="3.04879">
        <ele>38</ele>
        <time>2018-06-03T13:27:51Z</time>
      </trkpt>
      <trkpt lat="50.61954" lon="3.04859">
        <ele>38</ele>
        <time>2018-06-03T13:27:55Z</time>
      </trkpt>
      <trkpt lat="50.61971" lon="3.04843">
        <ele>38</ele>
        <time>2018-06-03T13:27:59Z</time>
      </trkpt>
      <trkpt lat="50.61988" lon="3.04823">
        <ele>38.2</ele>
        <time>2018-06-03T13:28:03Z</time>
      </trkpt>
      <trkpt lat="50.62004" lon="3.04805">
        <ele>38.2</ele>
        <time>2018-06-03T13:28:07Z</time>
      </trkpt>
      <trkpt lat="50.62021" lon="3.04788">
        <ele>38</ele>
        <time>2018-06-03T13:28:11Z</time>
      </trkpt>
      <trkpt lat="50.62034" lon="3.04763">
        <ele>37.8</ele>
        <time>2018-06-03T13:28:15Z</time>
      </trkpt>
      <trkpt lat="50.62048" lon="3.04737">
        <ele>37.8</ele>
        <time>2018-06-03T13:28:19Z</time>
      </trkpt>
      <trkpt lat="50.62064" lon="3.04712">
        <ele>37.8</ele>
        <time>2018-06-03T13:28:23Z</time>
      </trkpt>
      <trkpt lat="50.6208" lon="3.04694">
        <ele>38</ele>
        <time>2018-06-03T13:28:27Z</time>
      </trkpt>
      <trkpt lat="50.62098" lon="3.04673">
        <ele>37.8</ele>
        <time>2018-06-03T13:28:31Z</time>
      </trkpt>
      <trkpt lat="50.62117" lon="3.04653">
        <ele>38.2</ele>
        <time>2018-06-03T13:28:35Z</time>
      </trkpt>
      <trkpt lat="50.62135" lon="3.04634">
        <ele>37.4</ele>
        <time>2018-06-03T13:28:39Z</time>
      </trkpt>
      <trkpt lat="50.62152" lon="3.04613">
        <ele>37.6</ele>
        <time>2018-06-03T13:28:43Z</time>
      </trkpt>
      <trkpt lat="50.62164" lon="3.04597">
        <ele>36.6</ele>
        <time>2018-06-03T13:28:47Z</time>
      </trkpt>
      <trkpt lat="50.62169" lon="3.04586">
        <ele>36.2</ele>
        <time>2018-06-03T13:28:51Z</time>
      </trkpt>
      <trkpt lat="50.62169" lon="3.04586">
        <ele>36.6</ele>
        <time>2018-06-03T13:28:55Z</time>
      </trkpt>
      <trkpt lat="50.62169" lon="3.04586">
        <ele>36.2</ele>
        <time>2018-06-03T13:28:59Z</time>
      </trkpt>
      <trkpt lat="50.62173" lon="3.04584">
        <ele>36.4</ele>
        <time>2018-06-03T13:29:03Z</time>
      </trkpt>
      <trkpt lat="50.62179" lon="3.04575">
        <ele>36.8</ele>
        <time>2018-06-03T13:29:07Z</time>
      </trkpt>
      <trkpt lat="50.62191" lon="3.04561">
        <ele>37</ele>
        <time>2018-06-03T13:29:11Z</time>
      </trkpt>
      <trkpt lat="50.62204" lon="3.04542">
        <ele>36.8</ele>
        <time>2018-06-03T13:29:15Z</time>
      </trkpt>
      <trkpt lat="50.62218" lon="3.04521">
        <ele>37.2</ele>
        <time>2018-06-03T13:29:19Z</time>
      </trkpt>
      <trkpt lat="50.62235" lon="3.04504">
        <ele>36.6</ele>
        <time>2018-06-03T13:29:23Z</time>
      </trkpt>
      <trkpt lat="50.62253" lon="3.04484">
        <ele>37.2</ele>
        <time>2018-06-03T13:29:27Z</time>
      </trkpt>
      <trkpt lat="50.62268" lon="3.04458">
        <ele>36.6</ele>
        <time>2018-06-03T13:29:31Z</time>
      </trkpt>
      <trkpt lat="50.62285" lon="3.04435">
        <ele>36.2</ele>
        <time>2018-06-03T13:29:35Z</time>
      </trkpt>
      <trkpt lat="50.62305" lon="3.04412">
        <ele>36.4</ele>
        <time>2018-06-03T13:29:39Z</time>
      </trkpt>
      <trkpt lat="50.62323" lon="3.04389">
        <ele>36</ele>
        <time>2018-06-03T13:29:43Z</time>
      </trkpt>
      <trkpt lat="50.62344" lon="3.04373">
        <ele>36.4</ele>
        <time>2018-06-03T13:29:47Z</time>
      </trkpt>
      <trkpt lat="50.62362" lon="3.04349">
        <ele>36</ele>
        <time>2018-06-03T13:29:51Z</time>
      </trkpt>
      <trkpt lat="50.6238" lon="3.04324">
        <ele>36.4</ele>
        <time>2018-06-03T13:29:55Z</time>
      </trkpt>
      <trkpt lat="50.62401" lon="3.04301">
        <ele>35.2</ele>
        <time>2018-06-03T13:29:59Z</time>
      </trkpt>
      <trkpt lat="50.62421" lon="3.04275">
        <ele>35.2</ele>
        <time>2018-06-03T13:30:03Z</time>
      </trkpt>
      <trkpt lat="50.62441" lon="3.04247">
        <ele>35</ele>
        <time>2018-06-03T13:30:07Z</time>
      </trkpt>
      <trkpt lat="50.62459" lon="3.04218">
        <ele>35.6</ele>
        <time>2018-06-03T13:30:11Z</time>
      </trkpt>
      <trkpt lat="50.6248" lon="3.04189">
        <ele>34.2</ele>
        <time>2018-06-03T13:30:15Z</time>
      </trkpt>
      <trkpt lat="50.62502" lon="3.04165">
        <ele>34.6</ele>
        <time>2018-06-03T13:30:19Z</time>
      </trkpt>
      <trkpt lat="50.62524" lon="3.04142">
        <ele>34</ele>
        <time>2018-06-03T13:30:23Z</time>
      </trkpt>
      <trkpt lat="50.62545" lon="3.04118">
        <ele>33.6</ele>
        <time>2018-06-03T13:30:27Z</time>
      </trkpt>
      <trkpt lat="50.62561" lon="3.04092">
        <ele>33.2</ele>
        <time>2018-06-03T13:30:31Z</time>
      </trkpt>
      <trkpt lat="50.62581" lon="3.04064">
        <ele>33.2</ele>
        <time>2018-06-03T13:30:35Z</time>
      </trkpt>
      <trkpt lat="50.62602" lon="3.04042">
        <ele>32.6</ele>
        <time>2018-06-03T13:30:39Z</time>
      </trkpt>
      <trkpt lat="50.62609" lon="3.04026">
        <ele>32.8</ele>
        <time>2018-06-03T13:30:43Z</time>
      </trkpt>
      <trkpt lat="50.62609" lon="3.04026">
        <ele>32.8</ele>
        <time>2018-06-03T13:30:47Z</time>
      </trkpt>
      <trkpt lat="50.62609" lon="3.04026">
        <ele>32.2</ele>
        <time>2018-06-03T13:30:51Z</time>
      </trkpt>
      <trkpt lat="50.62609" lon="3.04026">
        <ele>32</ele>
        <time>2018-06-03T13:30:55Z</time>
      </trkpt>
      <trkpt lat="50.62609" lon="3.04026">
        <ele>32.2</ele>
        <time>2018-06-03T13:30:59Z</time>
      </trkpt>
      <trkpt lat="50.62609" lon="3.04026">
        <ele>32.4</ele>
        <time>2018-06-03T13:31:03Z</time>
      </trkpt>
      <trkpt lat="50.62611" lon="3.04015">
        <ele>32.8</ele>
        <time>2018-06-03T13:31:07Z</time>
      </trkpt>
      <trkpt lat="50.62618" lon="3.04009">
        <ele>32.8</ele>
        <time>2018-06-03T13:31:11Z</time>
      </trkpt>
      <trkpt lat="50.62631" lon="3.03995">
        <ele>32.8</ele>
        <time>2018-06-03T13:31:15Z</time>
      </trkpt>
      <trkpt lat="50.62646" lon="3.03977">
        <ele>33.2</ele>
        <time>2018-06-03T13:31:19Z</time>
      </trkpt>
      <trkpt lat="50.62663" lon="3.03958">
        <ele>33</ele>
        <time>2018-06-03T13:31:23Z</time>
      </trkpt>
      <trkpt lat="50.6268" lon="3.03939">
        <ele>33.2</ele>
        <time>2018-06-03T13:31:27Z</time>
      </trkpt>
      <trkpt lat="50.62695" lon="3.03916">
        <ele>34</ele>
        <time>2018-06-03T13:31:31Z</time>
      </trkpt>
      <trkpt lat="50.62712" lon="3.03895">
        <ele>33</ele>
        <time>2018-06-03T13:31:35Z</time>
      </trkpt>
      <trkpt lat="50.62731" lon="3.03874">
        <ele>34</ele>
        <time>2018-06-03T13:31:39Z</time>
      </trkpt>
      <trkpt lat="50.62746" lon="3.03847">
        <ele>33.6</ele>
        <time>2018-06-03T13:31:43Z</time>
      </trkpt>
      <trkpt lat="50.62763" lon="3.03823">
        <ele>34.2</ele>
        <time>2018-06-03T13:31:47Z</time>
      </trkpt>
      <trkpt lat="50.6278" lon="3.03801">
        <ele>34</ele>
        <time>2018-06-03T13:31:51Z</time>
      </trkpt>
      <trkpt lat="50.62796" lon="3.03778">
        <ele>33.2</ele>
        <time>2018-06-03T13:31:55Z</time>
      </trkpt>
      <trkpt lat="50.62815" lon="3.0376">
        <ele>33.2</ele>
        <time>2018-06-03T13:31:59Z</time>
      </trkpt>
      <trkpt lat="50.62833" lon="3.03739">
        <ele>32.8</ele>
        <time>2018-06-03T13:32:03Z</time>
      </trkpt>
      <trkpt lat="50.62851" lon="3.03719">
        <ele>33</ele>
        <time>2018-06-03T13:32:07Z</time>
      </trkpt>
      <trkpt lat="50.62869" lon="3.03697">
        <ele>33.2</ele>
        <time>2018-06-03T13:32:11Z</time>
      </trkpt>
      <trkpt lat="50.62888" lon="3.03674">
        <ele>33.4</ele>
        <time>2018-06-03T13:32:15Z</time>
      </trkpt>
      <trkpt lat="50.62908" lon="3.03653">
        <ele>33.6</ele>
        <time>2018-06-03T13:32:19Z</time>
      </trkpt>
      <trkpt lat="50.62927" lon="3.03632">
        <ele>33.4</ele>
        <time>2018-06-03T13:32:23Z</time>
      </trkpt>
      <trkpt lat="50.62946" lon="3.0361">
        <ele>33.4</ele>
        <time>2018-06-03T13:32:27Z</time>
      </trkpt>
      <trkpt lat="50.62965" lon="3.03589">
        <ele>33.4</ele>
        <time>2018-06-03T13:32:31Z</time>
      </trkpt>
      <trkpt lat="50.62983" lon="3.03567">
        <ele>33.2</ele>
        <time>2018-06-03T13:32:35Z</time>
      </trkpt>
      <trkpt lat="50.63" lon="3.03548">
        <ele>33.2</ele>
        <time>2018-06-03T13:32:39Z</time>
      </trkpt>
      <trkpt lat="50.63014" lon="3.03532">
        <ele>33.2</ele>
        <time>2018-06-03T13:32:43Z</time>
      </trkpt>
      <trkpt lat="50.63026" lon="3.03529">
        <ele>33</ele>
        <time>2018-06-03T13:32:47Z</time>
      </trkpt>
      <trkpt lat="50.63026" lon="3.03529">
        <ele>33</ele>
        <time>2018-06-03T13:32:51Z</time>
      </trkpt>
      <trkpt lat="50.63026" lon="3.03529">
        <ele>33</ele>
        <time>2018-06-03T13:32:55Z</time>
      </trkpt>
      <trkpt lat="50.63026" lon="3.03529">
        <ele>33.2</ele>
        <time>2018-06-03T13:32:59Z</time>
      </trkpt>
      <trkpt lat="50.63026" lon="3.03529">
        <ele>32.8</ele>
        <time>2018-06-03T13:33:03Z</time>
      </trkpt>
      <trkpt lat="50.63026" lon="3.03529">
        <ele>33</ele>
        <time>2018-06-03T13:33:07Z</time>
      </trkpt>
      <trkpt lat="50.63026" lon="3.03529">
        <ele>33</ele>
        <time>2018-06-03T13:33:11Z</time>
      </trkpt>
      <trkpt lat="50.63031" lon="3.03529">
        <ele>33</ele>
        <time>2018-06-03T13:33:15Z</time>
      </trkpt>
      <trkpt lat="50.63038" lon="3.03522">
        <ele>33.6</ele>
        <time>2018-06-03T13:33:19Z</time>
      </trkpt>
      <trkpt lat="50.63048" lon="3.03506">
        <ele>34</ele>
        <time>2018-06-03T13:33:23Z</time>
      </trkpt>
      <trkpt lat="50.63058" lon="3.03487">
        <ele>34.6</ele>
        <time>2018-06-03T13:33:27Z</time>
      </trkpt>
      <trkpt lat="50.63069" lon="3.03465">
        <ele>34.6</ele>
        <time>2018-06-03T13:33:31Z</time>
      </trkpt>
      <trkpt lat="50.6308" lon="3.03443">
        <ele>35.4</ele>
        <time>2018-06-03T13:33:35Z</time>
      </trkpt>
      <trkpt lat="50.63089" lon="3.03424">
        <ele>35.4</ele>
        <time>2018-06-03T13:33:39Z</time>
      </trkpt>
      <trkpt lat="50.63097" lon="3.03406">
        <ele>36.2</ele>
        <time>2018-06-03T13:33:43Z</time>
      </trkpt>
      <trkpt lat="50.63106" lon="3.03388">
        <ele>37.2</ele>
        <time>2018-06-03T13:33:47Z</time>
      </trkpt>
      <trkpt lat="50.63114" lon="3.03372">
        <ele>37.6</ele>
        <time>2018-06-03T13:33:51Z</time>
      </trkpt>
      <trkpt lat="50.63126" lon="3.03352">
        <ele>38.4</ele>
        <time>2018-06-03T13:33:55Z</time>
      </trkpt>
      <trkpt lat="50.63137" lon="3.03332">
        <ele>39.2</ele>
        <time>2018-06-03T13:33:59Z</time>
      </trkpt>
      <trkpt lat="50.63149" lon="3.0331">
        <ele>39.4</ele>
        <time>2018-06-03T13:34:03Z</time>
      </trkpt>
      <trkpt lat="50.6316" lon="3.03289">
        <ele>39.4</ele>
        <time>2018-06-03T13:34:07Z</time>
      </trkpt>
      <trkpt lat="50.63173" lon="3.03265">
        <ele>38.4</ele>
        <time>2018-06-03T13:34:11Z</time>
      </trkpt>
      <trkpt lat="50.63189" lon="3.03245">
        <ele>37.8</ele>
        <time>2018-06-03T13:34:15Z</time>
      </trkpt>
      <trkpt lat="50.6321" lon="3.03231">
        <ele>37.8</ele>
        <time>2018-06-03T13:34:19Z</time>
      </trkpt>
      <trkpt lat="50.63232" lon="3.03214">
        <ele>37.4</ele>
        <time>2018-06-03T13:34:23Z</time>
      </trkpt>
      <trkpt lat="50.63253" lon="3.03197">
        <ele>36.6</ele>
        <time>2018-06-03T13:34:27Z</time>
      </trkpt>
      <trkpt lat="50.63273" lon="3.0318">
        <ele>36.2</ele>
        <time>2018-06-03T13:34:31Z</time>
      </trkpt>
      <trkpt lat="50.63289" lon="3.03166">
        <ele>34.4</ele>
        <time>2018-06-03T13:34:35Z</time>
      </trkpt>
      <trkpt lat="50.63299" lon="3.03158">
        <ele>33.6</ele>
        <time>2018-06-03T13:34:39Z</time>
      </trkpt>
      <trkpt lat="50.63299" lon="3.03158">
        <ele>33</ele>
        <time>2018-06-03T13:34:43Z</time>
      </trkpt>
      <trkpt lat="50.63299" lon="3.03158">
        <ele>33.4</ele>
        <time>2018-06-03T13:34:47Z</time>
      </trkpt>
      <trkpt lat="50.63304" lon="3.03154">
        <ele>33.4</ele>
        <time>2018-06-03T13:34:51Z</time>
      </trkpt>
      <trkpt lat="50.63312" lon="3.03148">
        <ele>33.4</ele>
        <time>2018-06-03T13:34:55Z</time>
      </trkpt>
      <trkpt lat="50.63324" lon="3.03142">
        <ele>33.4</ele>
        <time>2018-06-03T13:34:59Z</time>
      </trkpt>
      <trkpt lat="50.63334" lon="3.03133">
        <ele>33.2</ele>
        <time>2018-06-03T13:35:03Z</time>
      </trkpt>
      <trkpt lat="50.63344" lon="3.03125">
        <ele>34</ele>
        <time>2018-06-03T13:35:07Z</time>
      </trkpt>
      <trkpt lat="50.63356" lon="3.03115">
        <ele>34.2</ele>
        <time>2018-06-03T13:35:11Z</time>
      </trkpt>
      <trkpt lat="50.6337" lon="3.03101">
        <ele>34.8</ele>
        <time>2018-06-03T13:35:15Z</time>
      </trkpt>
      <trkpt lat="50.63388" lon="3.03089">
        <ele>34.8</ele>
        <time>2018-06-03T13:35:19Z</time>
      </trkpt>
      <trkpt lat="50.63405" lon="3.03076">
        <ele>34.4</ele>
        <time>2018-06-03T13:35:23Z</time>
      </trkpt>
      <trkpt lat="50.63421" lon="3.03058">
        <ele>34.4</ele>
        <time>2018-06-03T13:35:27Z</time>
      </trkpt>
      <trkpt lat="50.63438" lon="3.03042">
        <ele>34.8</ele>
        <time>2018-06-03T13:35:31Z</time>
      </trkpt>
      <trkpt lat="50.63455" lon="3.03027">
        <ele>34.4</ele>
        <time>2018-06-03T13:35:35Z</time>
      </trkpt>
      <trkpt lat="50.63475" lon="3.03014">
        <ele>34.4</ele>
        <time>2018-06-03T13:35:39Z</time>
      </trkpt>
      <trkpt lat="50.63495" lon="3.03002">
        <ele>34</ele>
        <time>2018-06-03T13:35:43Z</time>
      </trkpt>
      <trkpt lat="50.63513" lon="3.02984">
        <ele>34.4</ele>
        <time>2018-06-03T13:35:47Z</time>
      </trkpt>
      <trkpt lat="50.63524" lon="3.02956">
        <ele>35.2</ele>
        <time>2018-06-03T13:35:51Z</time>
      </trkpt>
      <trkpt lat="50.63533" lon="3.02926">
        <ele>34.8</ele>
        <time>2018-06-03T13:35:55Z</time>
      </trkpt>
      <trkpt lat="50.63542" lon="3.02896">
        <ele>34.2</ele>
        <time>2018-06-03T13:35:59Z</time>
      </trkpt>
      <trkpt lat="50.63551" lon="3.02867">
        <ele>34.8</ele>
        <time>2018-06-03T13:36:03Z</time>
      </trkpt>
      <trkpt lat="50.6356" lon="3.02838">
        <ele>34.2</ele>
        <time>2018-06-03T13:36:07Z</time>
      </trkpt>
      <trkpt lat="50.63571" lon="3.02804">
        <ele>34.2</ele>
        <time>2018-06-03T13:36:11Z</time>
      </trkpt>
      <trkpt lat="50.63585" lon="3.02769">
        <ele>33.4</ele>
        <time>2018-06-03T13:36:15Z</time>
      </trkpt>
      <trkpt lat="50.63597" lon="3.02736">
        <ele>33.2</ele>
        <time>2018-06-03T13:36:19Z</time>
      </trkpt>
      <trkpt lat="50.63608" lon="3.02704">
        <ele>33.6</ele>
        <time>2018-06-03T13:36:23Z</time>
      </trkpt>
      <trkpt lat="50.63621" lon="3.0268">
        <ele>33.8</ele>
        <time>2018-06-03T13:36:27Z</time>
      </trkpt>
      <trkpt lat="50.6363" lon="3.02652">
        <ele>33</ele>
        <time>2018-06-03T13:36:31Z</time>
      </trkpt>
      <trkpt lat="50.63639" lon="3.02622">
        <ele>33.6</ele>
        <time>2018-06-03T13:36:35Z</time>
      </trkpt>
      <trkpt lat="50.63648" lon="3.02593">
        <ele>33.4</ele>
        <time>2018-06-03T13:36:39Z</time>
      </trkpt>
      <trkpt lat="50.6366" lon="3.02568">
        <ele>33.8</ele>
        <time>2018-06-03T13:36:43Z</time>
      </trkpt>
      <trkpt lat="50.63671" lon="3.02544">
        <ele>33.6</ele>
        <time>2018-06-03T13:36:47Z</time>
      </trkpt>
      <trkpt lat="50.63683" lon="3.02522">
        <ele>33.6</ele>
        <time>2018-06-03T13:36:51Z</time>
      </trkpt>
      <trkpt lat="50.63697" lon="3.02503">
        <ele>33</ele>
        <time>2018-06-03T13:36:55Z</time>
      </trkpt>
      <trkpt lat="50.6371" lon="3.0248">
        <ele>32.8</ele>
        <time>2018-06-03T13:36:59Z</time>
      </trkpt>
      <trkpt lat="50.63725" lon="3.02458">
        <ele>33.2</ele>
        <time>2018-06-03T13:37:03Z</time>
      </trkpt>
      <trkpt lat="50.63739" lon="3.02436">
        <ele>32.8</ele>
        <time>2018-06-03T13:37:07Z</time>
      </trkpt>
      <trkpt lat="50.63754" lon="3.02417">
        <ele>33</ele>
        <time>2018-06-03T13:37:11Z</time>
      </trkpt>
      <trkpt lat="50.63766" lon="3.02393">
        <ele>33</ele>
        <time>2018-06-03T13:37:15Z</time>
      </trkpt>
      <trkpt lat="50.63779" lon="3.02372">
        <ele>32.8</ele>
        <time>2018-06-03T13:37:19Z</time>
      </trkpt>
      <trkpt lat="50.63788" lon="3.02358">
        <ele>32.8</ele>
        <time>2018-06-03T13:37:23Z</time>
      </trkpt>
      <trkpt lat="50.63792" lon="3.02351">
        <ele>32.8</ele>
        <time>2018-06-03T13:37:27Z</time>
      </trkpt>
      <trkpt lat="50.63799" lon="3.02343">
        <ele>33.2</ele>
        <time>2018-06-03T13:37:31Z</time>
      </trkpt>
      <trkpt lat="50.63806" lon="3.02325">
        <ele>33.6</ele>
        <time>2018-06-03T13:37:35Z</time>
      </trkpt>
      <trkpt lat="50.63818" lon="3.02306">
        <ele>34</ele>
        <time>2018-06-03T13:37:39Z</time>
      </trkpt>
      <trkpt lat="50.63829" lon="3.02281">
        <ele>33.8</ele>
        <time>2018-06-03T13:37:43Z</time>
      </trkpt>
      <trkpt lat="50.6384" lon="3.02256">
        <ele>33.6</ele>
        <time>2018-06-03T13:37:47Z</time>
      </trkpt>
      <trkpt lat="50.6385" lon="3.02226">
        <ele>33</ele>
        <time>2018-06-03T13:37:51Z</time>
      </trkpt>
      <trkpt lat="50.63863" lon="3.02199">
        <ele>33.8</ele>
        <time>2018-06-03T13:37:55Z</time>
      </trkpt>
      <trkpt lat="50.63875" lon="3.0217">
        <ele>33.6</ele>
        <time>2018-06-03T13:37:59Z</time>
      </trkpt>
      <trkpt lat="50.63886" lon="3.02138">
        <ele>33.4</ele>
        <time>2018-06-03T13:38:03Z</time>
      </trkpt>
      <trkpt lat="50.63897" lon="3.02107">
        <ele>33.4</ele>
        <time>2018-06-03T13:38:07Z</time>
      </trkpt>
      <trkpt lat="50.63909" lon="3.02077">
        <ele>33.6</ele>
        <time>2018-06-03T13:38:11Z</time>
      </trkpt>
      <trkpt lat="50.63921" lon="3.02047">
        <ele>33.4</ele>
        <time>2018-06-03T13:38:15Z</time>
      </trkpt>
      <trkpt lat="50.63933" lon="3.02019">
        <ele>33.8</ele>
        <time>2018-06-03T13:38:19Z</time>
      </trkpt>
      <trkpt lat="50.63947" lon="3.01992">
        <ele>34</ele>
        <time>2018-06-03T13:38:23Z</time>
      </trkpt>
      <trkpt lat="50.63961" lon="3.01965">
        <ele>34.6</ele>
        <time>2018-06-03T13:38:27Z</time>
      </trkpt>
      <trkpt lat="50.63977" lon="3.01941">
        <ele>34</ele>
        <time>2018-06-03T13:38:31Z</time>
      </trkpt>
      <trkpt lat="50.63997" lon="3.01924">
        <ele>35.2</ele>
        <time>2018-06-03T13:38:35Z</time>
      </trkpt>
      <trkpt lat="50.64016" lon="3.01909">
        <ele>35</ele>
        <time>2018-06-03T13:38:39Z</time>
      </trkpt>
      <trkpt lat="50.64036" lon="3.01896">
        <ele>34.8</ele>
        <time>2018-06-03T13:38:43Z</time>
      </trkpt>
      <trkpt lat="50.64057" lon="3.01883">
        <ele>35</ele>
        <time>2018-06-03T13:38:47Z</time>
      </trkpt>
      <trkpt lat="50.64078" lon="3.01867">
        <ele>34.8</ele>
        <time>2018-06-03T13:38:51Z</time>
      </trkpt>
      <trkpt lat="50.64099" lon="3.01852">
        <ele>34.8</ele>
        <time>2018-06-03T13:38:55Z</time>
      </trkpt>
      <trkpt lat="50.64119" lon="3.01837">
        <ele>35.2</ele>
        <time>2018-06-03T13:38:59Z</time>
      </trkpt>
      <trkpt lat="50.64138" lon="3.01818">
        <ele>35.2</ele>
        <time>2018-06-03T13:39:03Z</time>
      </trkpt>
      <trkpt lat="50.64154" lon="3.01795">
        <ele>34.6</ele>
        <time>2018-06-03T13:39:07Z</time>
      </trkpt>
      <trkpt lat="50.64172" lon="3.01773">
        <ele>35.4</ele>
        <time>2018-06-03T13:39:11Z</time>
      </trkpt>
      <trkpt lat="50.64188" lon="3.01751">
        <ele>35.6</ele>
        <time>2018-06-03T13:39:15Z</time>
      </trkpt>
      <trkpt lat="50.64204" lon="3.01729">
        <ele>35.6</ele>
        <time>2018-06-03T13:39:19Z</time>
      </trkpt>
      <trkpt lat="50.64218" lon="3.0171">
        <ele>35.2</ele>
        <time>2018-06-03T13:39:23Z</time>
      </trkpt>
      <trkpt lat="50.64232" lon="3.01692">
        <ele>35</ele>
        <time>2018-06-03T13:39:27Z</time>
      </trkpt>
      <trkpt lat="50.64243" lon="3.01677">
        <ele>36.8</ele>
        <time>2018-06-03T13:39:31Z</time>
      </trkpt>
      <trkpt lat="50.64255" lon="3.01663">
        <ele>37.6</ele>
        <time>2018-06-03T13:39:35Z</time>
      </trkpt>
      <trkpt lat="50.64268" lon="3.01649">
        <ele>36</ele>
        <time>2018-06-03T13:39:39Z</time>
      </trkpt>
      <trkpt lat="50.64281" lon="3.01632">
        <ele>36.4</ele>
        <time>2018-06-03T13:39:43Z</time>
      </trkpt>
      <trkpt lat="50.64294" lon="3.01611">
        <ele>36.6</ele>
        <time>2018-06-03T13:39:47Z</time>
      </trkpt>
      <trkpt lat="50.64309" lon="3.01592">
        <ele>36.6</ele>
        <time>2018-06-03T13:39:51Z</time>
      </trkpt>
      <trkpt lat="50.64325" lon="3.01572">
        <ele>36.8</ele>
        <time>2018-06-03T13:39:55Z</time>
      </trkpt>
      <trkpt lat="50.6434" lon="3.01554">
        <ele>36.4</ele>
        <time>2018-06-03T13:39:59Z</time>
      </trkpt>
      <trkpt lat="50.64356" lon="3.01534">
        <ele>36</ele>
        <time>2018-06-03T13:40:03Z</time>
      </trkpt>
      <trkpt lat="50.64373" lon="3.01515">
        <ele>36.6</ele>
        <time>2018-06-03T13:40:07Z</time>
      </trkpt>
      <trkpt lat="50.64388" lon="3.01495">
        <ele>36.8</ele>
        <time>2018-06-03T13:40:11Z</time>
      </trkpt>
      <trkpt lat="50.64405" lon="3.01473">
        <ele>36.6</ele>
        <time>2018-06-03T13:40:15Z</time>
      </trkpt>
      <trkpt lat="50.64418" lon="3.01448">
        <ele>37</ele>
        <time>2018-06-03T13:40:19Z</time>
      </trkpt>
      <trkpt lat="50.64429" lon="3.01421">
        <ele>37</ele>
        <time>2018-06-03T13:40:23Z</time>
      </trkpt>
      <trkpt lat="50.64442" lon="3.01396">
        <ele>37</ele>
        <time>2018-06-03T13:40:27Z</time>
      </trkpt>
      <trkpt lat="50.64454" lon="3.01372">
        <ele>37.2</ele>
        <time>2018-06-03T13:40:31Z</time>
      </trkpt>
      <trkpt lat="50.64465" lon="3.01343">
        <ele>37.6</ele>
        <time>2018-06-03T13:40:35Z</time>
      </trkpt>
      <trkpt lat="50.64477" lon="3.01316">
        <ele>37.6</ele>
        <time>2018-06-03T13:40:39Z</time>
      </trkpt>
      <trkpt lat="50.64489" lon="3.01288">
        <ele>38</ele>
        <time>2018-06-03T13:40:43Z</time>
      </trkpt>
      <trkpt lat="50.64499" lon="3.01261">
        <ele>39.4</ele>
        <time>2018-06-03T13:40:47Z</time>
      </trkpt>
      <trkpt lat="50.64512" lon="3.01235">
        <ele>38.8</ele>
        <time>2018-06-03T13:40:51Z</time>
      </trkpt>
      <trkpt lat="50.64524" lon="3.0121">
        <ele>39</ele>
        <time>2018-06-03T13:40:55Z</time>
      </trkpt>
      <trkpt lat="50.64535" lon="3.01184">
        <ele>39.4</ele>
        <time>2018-06-03T13:40:59Z</time>
      </trkpt>
      <trkpt lat="50.64546" lon="3.01158">
        <ele>40</ele>
        <time>2018-06-03T13:41:03Z</time>
      </trkpt>
      <trkpt lat="50.64558" lon="3.01134">
        <ele>40</ele>
        <time>2018-06-03T13:41:07Z</time>
      </trkpt>
      <trkpt lat="50.64569" lon="3.01109">
        <ele>39</ele>
        <time>2018-06-03T13:41:11Z</time>
      </trkpt>
      <trkpt lat="50.6458" lon="3.01083">
        <ele>39</ele>
        <time>2018-06-03T13:41:15Z</time>
      </trkpt>
      <trkpt lat="50.64591" lon="3.01056">
        <ele>39.4</ele>
        <time>2018-06-03T13:41:19Z</time>
      </trkpt>
      <trkpt lat="50.646" lon="3.01029">
        <ele>39.8</ele>
        <time>2018-06-03T13:41:23Z</time>
      </trkpt>
      <trkpt lat="50.6461" lon="3.01001">
        <ele>40.2</ele>
        <time>2018-06-03T13:41:27Z</time>
      </trkpt>
      <trkpt lat="50.64619" lon="3.00973">
        <ele>40.6</ele>
        <time>2018-06-03T13:41:31Z</time>
      </trkpt>
      <trkpt lat="50.6463" lon="3.00948">
        <ele>40.6</ele>
        <time>2018-06-03T13:41:35Z</time>
      </trkpt>
      <trkpt lat="50.64639" lon="3.00922">
        <ele>41.2</ele>
        <time>2018-06-03T13:41:39Z</time>
      </trkpt>
      <trkpt lat="50.64647" lon="3.00896">
        <ele>41.2</ele>
        <time>2018-06-03T13:41:43Z</time>
      </trkpt>
      <trkpt lat="50.64655" lon="3.00873">
        <ele>40.4</ele>
        <time>2018-06-03T13:41:47Z</time>
      </trkpt>
      <trkpt lat="50.64663" lon="3.0085">
        <ele>41.4</ele>
        <time>2018-06-03T13:41:51Z</time>
      </trkpt>
      <trkpt lat="50.64669" lon="3.00828">
        <ele>41.8</ele>
        <time>2018-06-03T13:41:55Z</time>
      </trkpt>
      <trkpt lat="50.64677" lon="3.00809">
        <ele>40.8</ele>
        <time>2018-06-03T13:41:59Z</time>
      </trkpt>
      <trkpt lat="50.64693" lon="3.00799">
        <ele>41.4</ele>
        <time>2018-06-03T13:42:03Z</time>
      </trkpt>
      <trkpt lat="50.6471" lon="3.00791">
        <ele>41.2</ele>
        <time>2018-06-03T13:42:07Z</time>
      </trkpt>
      <trkpt lat="50.64728" lon="3.0078">
        <ele>41.2</ele>
        <time>2018-06-03T13:42:11Z</time>
      </trkpt>
      <trkpt lat="50.64744" lon="3.00769">
        <ele>41.8</ele>
        <time>2018-06-03T13:42:15Z</time>
      </trkpt>
      <trkpt lat="50.64758" lon="3.00756">
        <ele>41.8</ele>
        <time>2018-06-03T13:42:19Z</time>
      </trkpt>
      <trkpt lat="50.64776" lon="3.00746">
        <ele>41.8</ele>
        <time>2018-06-03T13:42:23Z</time>
      </trkpt>
      <trkpt lat="50.64793" lon="3.0074">
        <ele>42</ele>
        <time>2018-06-03T13:42:27Z</time>
      </trkpt>
      <trkpt lat="50.64809" lon="3.00731">
        <ele>42.4</ele>
        <time>2018-06-03T13:42:31Z</time>
      </trkpt>
      <trkpt lat="50.64825" lon="3.00722">
        <ele>42.8</ele>
        <time>2018-06-03T13:42:35Z</time>
      </trkpt>
      <trkpt lat="50.64842" lon="3.00714">
        <ele>42.6</ele>
        <time>2018-06-03T13:42:39Z</time>
      </trkpt>
      <trkpt lat="50.64859" lon="3.00708">
        <ele>42.2</ele>
        <time>2018-06-03T13:42:43Z</time>
      </trkpt>
      <trkpt lat="50.64876" lon="3.007">
        <ele>42.8</ele>
        <time>2018-06-03T13:42:47Z</time>
      </trkpt>
      <trkpt lat="50.64893" lon="3.00693">
        <ele>42.4</ele>
        <time>2018-06-03T13:42:51Z</time>
      </trkpt>
      <trkpt lat="50.6491" lon="3.00684">
        <ele>42.6</ele>
        <time>2018-06-03T13:42:55Z</time>
      </trkpt>
      <trkpt lat="50.64925" lon="3.00673">
        <ele>42.6</ele>
        <time>2018-06-03T13:42:59Z</time>
      </trkpt>
      <trkpt lat="50.64937" lon="3.00653">
        <ele>43.4</ele>
        <time>2018-06-03T13:43:03Z</time>
      </trkpt>
      <trkpt lat="50.64949" lon="3.00629">
        <ele>43.8</ele>
        <time>2018-06-03T13:43:07Z</time>
      </trkpt>
      <trkpt lat="50.64962" lon="3.00607">
        <ele>44.2</ele>
        <time>2018-06-03T13:43:11Z</time>
      </trkpt>
      <trkpt lat="50.64975" lon="3.00587">
        <ele>44.2</ele>
        <time>2018-06-03T13:43:15Z</time>
      </trkpt>
      <trkpt lat="50.64988" lon="3.00565">
        <ele>44.6</ele>
        <time>2018-06-03T13:43:19Z</time>
      </trkpt>
      <trkpt lat="50.65003" lon="3.00547">
        <ele>45</ele>
        <time>2018-06-03T13:43:23Z</time>
      </trkpt>
      <trkpt lat="50.65016" lon="3.00527">
        <ele>45.6</ele>
        <time>2018-06-03T13:43:27Z</time>
      </trkpt>
      <trkpt lat="50.65029" lon="3.00509">
        <ele>45.8</ele>
        <time>2018-06-03T13:43:31Z</time>
      </trkpt>
      <trkpt lat="50.65042" lon="3.00489">
        <ele>45.8</ele>
        <time>2018-06-03T13:43:35Z</time>
      </trkpt>
      <trkpt lat="50.65057" lon="3.00469">
        <ele>45.8</ele>
        <time>2018-06-03T13:43:39Z</time>
      </trkpt>
      <trkpt lat="50.65071" lon="3.0045">
        <ele>46</ele>
        <time>2018-06-03T13:43:43Z</time>
      </trkpt>
      <trkpt lat="50.65085" lon="3.0043">
        <ele>46.6</ele>
        <time>2018-06-03T13:43:47Z</time>
      </trkpt>
      <trkpt lat="50.65098" lon="3.00411">
        <ele>46.8</ele>
        <time>2018-06-03T13:43:51Z</time>
      </trkpt>
      <trkpt lat="50.65112" lon="3.00392">
        <ele>47</ele>
        <time>2018-06-03T13:43:55Z</time>
      </trkpt>
      <trkpt lat="50.65125" lon="3.00372">
        <ele>47</ele>
        <time>2018-06-03T13:43:59Z</time>
      </trkpt>
      <trkpt lat="50.65139" lon="3.00353">
        <ele>47.2</ele>
        <time>2018-06-03T13:44:03Z</time>
      </trkpt>
      <trkpt lat="50.65154" lon="3.00336">
        <ele>47.2</ele>
        <time>2018-06-03T13:44:07Z</time>
      </trkpt>
      <trkpt lat="50.6517" lon="3.0032">
        <ele>47.6</ele>
        <time>2018-06-03T13:44:11Z</time>
      </trkpt>
      <trkpt lat="50.65187" lon="3.00305">
        <ele>47.6</ele>
        <time>2018-06-03T13:44:15Z</time>
      </trkpt>
      <trkpt lat="50.65205" lon="3.00291">
        <ele>47.8</ele>
        <time>2018-06-03T13:44:19Z</time>
      </trkpt>
      <trkpt lat="50.65222" lon="3.00276">
        <ele>48</ele>
        <time>2018-06-03T13:44:23Z</time>
      </trkpt>
      <trkpt lat="50.65239" lon="3.00263">
        <ele>48.2</ele>
        <time>2018-06-03T13:44:27Z</time>
      </trkpt>
      <trkpt lat="50.65256" lon="3.00254">
        <ele>48.4</ele>
        <time>2018-06-03T13:44:31Z</time>
      </trkpt>
      <trkpt lat="50.65273" lon="3.00251">
        <ele>49.2</ele>
        <time>2018-06-03T13:44:35Z</time>
      </trkpt>
      <trkpt lat="50.65287" lon="3.00232">
        <ele>49.2</ele>
        <time>2018-06-03T13:44:39Z</time>
      </trkpt>
      <trkpt lat="50.65299" lon="3.00209">
        <ele>49.6</ele>
        <time>2018-06-03T13:44:43Z</time>
      </trkpt>
      <trkpt lat="50.65315" lon="3.0019">
        <ele>49</ele>
        <time>2018-06-03T13:44:47Z</time>
      </trkpt>
      <trkpt lat="50.6533" lon="3.00171">
        <ele>48.4</ele>
        <time>2018-06-03T13:44:51Z</time>
      </trkpt>
      <trkpt lat="50.65346" lon="3.00152">
        <ele>49</ele>
        <time>2018-06-03T13:44:55Z</time>
      </trkpt>
      <trkpt lat="50.65363" lon="3.00133">
        <ele>48.8</ele>
        <time>2018-06-03T13:44:59Z</time>
      </trkpt>
      <trkpt lat="50.6538" lon="3.00115">
        <ele>48.2</ele>
        <time>2018-06-03T13:45:03Z</time>
      </trkpt>
      <trkpt lat="50.65398" lon="3.00094">
        <ele>48</ele>
        <time>2018-06-03T13:45:07Z</time>
      </trkpt>
      <trkpt lat="50.65418" lon="3.00071">
        <ele>47.2</ele>
        <time>2018-06-03T13:45:11Z</time>
      </trkpt>
      <trkpt lat="50.65438" lon="3.00047">
        <ele>45.6</ele>
        <time>2018-06-03T13:45:15Z</time>
      </trkpt>
      <trkpt lat="50.65459" lon="3.00021">
        <ele>46.6</ele>
        <time>2018-06-03T13:45:19Z</time>
      </trkpt>
      <trkpt lat="50.65479" lon="2.99997">
        <ele>45.6</ele>
        <time>2018-06-03T13:45:23Z</time>
      </trkpt>
      <trkpt lat="50.65498" lon="2.99973">
        <ele>45.6</ele>
        <time>2018-06-03T13:45:27Z</time>
      </trkpt>
      <trkpt lat="50.65517" lon="2.9995">
        <ele>45.6</ele>
        <time>2018-06-03T13:45:31Z</time>
      </trkpt>
      <trkpt lat="50.65536" lon="2.99925">
        <ele>45.2</ele>
        <time>2018-06-03T13:45:35Z</time>
      </trkpt>
      <trkpt lat="50.65553" lon="2.99898">
        <ele>45.2</ele>
        <time>2018-06-03T13:45:39Z</time>
      </trkpt>
      <trkpt lat="50.65569" lon="2.99869">
        <ele>45.2</ele>
        <time>2018-06-03T13:45:43Z</time>
      </trkpt>
      <trkpt lat="50.65583" lon="2.99838">
        <ele>45.6</ele>
        <time>2018-06-03T13:45:47Z</time>
      </trkpt>
      <trkpt lat="50.65596" lon="2.99807">
        <ele>45.6</ele>
        <time>2018-06-03T13:45:51Z</time>
      </trkpt>
      <trkpt lat="50.65609" lon="2.99778">
        <ele>46.6</ele>
        <time>2018-06-03T13:45:55Z</time>
      </trkpt>
      <trkpt lat="50.65622" lon="2.9975">
        <ele>45.8</ele>
        <time>2018-06-03T13:45:59Z</time>
      </trkpt>
      <trkpt lat="50.65633" lon="2.99723">
        <ele>46</ele>
        <time>2018-06-03T13:46:03Z</time>
      </trkpt>
      <trkpt lat="50.65645" lon="2.99693">
        <ele>45.6</ele>
        <time>2018-06-03T13:46:07Z</time>
      </trkpt>
      <trkpt lat="50.65654" lon="2.9966">
        <ele>46.2</ele>
        <time>2018-06-03T13:46:11Z</time>
      </trkpt>
      <trkpt lat="50.65663" lon="2.99627">
        <ele>45.2</ele>
        <time>2018-06-03T13:46:15Z</time>
      </trkpt>
      <trkpt lat="50.65673" lon="2.99592">
        <ele>45.6</ele>
        <time>2018-06-03T13:46:19Z</time>
      </trkpt>
      <trkpt lat="50.65683" lon="2.99557">
        <ele>45.2</ele>
        <time>2018-06-03T13:46:23Z</time>
      </trkpt>
      <trkpt lat="50.65692" lon="2.99523">
        <ele>45.4</ele>
        <time>2018-06-03T13:46:27Z</time>
      </trkpt>
      <trkpt lat="50.65702" lon="2.99489">
        <ele>45.6</ele>
        <time>2018-06-03T13:46:31Z</time>
      </trkpt>
      <trkpt lat="50.65713" lon="2.99457">
        <ele>45.6</ele>
        <time>2018-06-03T13:46:35Z</time>
      </trkpt>
      <trkpt lat="50.65725" lon="2.99425">
        <ele>44.2</ele>
        <time>2018-06-03T13:46:39Z</time>
      </trkpt>
      <trkpt lat="50.65738" lon="2.99395">
        <ele>44.8</ele>
        <time>2018-06-03T13:46:43Z</time>
      </trkpt>
      <trkpt lat="50.65753" lon="2.99368">
        <ele>44.2</ele>
        <time>2018-06-03T13:46:47Z</time>
      </trkpt>
      <trkpt lat="50.65771" lon="2.99341">
        <ele>44.4</ele>
        <time>2018-06-03T13:46:51Z</time>
      </trkpt>
      <trkpt lat="50.65791" lon="2.99319">
        <ele>44.2</ele>
        <time>2018-06-03T13:46:55Z</time>
      </trkpt>
      <trkpt lat="50.65812" lon="2.99297">
        <ele>44.2</ele>
        <time>2018-06-03T13:46:59Z</time>
      </trkpt>
      <trkpt lat="50.65835" lon="2.99276">
        <ele>43.8</ele>
        <time>2018-06-03T13:47:03Z</time>
      </trkpt>
      <trkpt lat="50.65856" lon="2.99255">
        <ele>43.8</ele>
        <time>2018-06-03T13:47:07Z</time>
      </trkpt>
      <trkpt lat="50.65877" lon="2.99235">
        <ele>44.4</ele>
        <time>2018-06-03T13:47:11Z</time>
      </trkpt>
      <trkpt lat="50.65896" lon="2.99216">
        <ele>44.6</ele>
        <time>2018-06-03T13:47:15Z</time>
      </trkpt>
      <trkpt lat="50.65914" lon="2.99198">
        <ele>45</ele>
        <time>2018-06-03T13:47:19Z</time>
      </trkpt>
      <trkpt lat="50.65932" lon="2.9918">
        <ele>46</ele>
        <time>2018-06-03T13:47:23Z</time>
      </trkpt>
      <trkpt lat="50.6595" lon="2.99163">
        <ele>47.2</ele>
        <time>2018-06-03T13:47:27Z</time>
      </trkpt>
      <trkpt lat="50.65968" lon="2.99147">
        <ele>47.2</ele>
        <time>2018-06-03T13:47:31Z</time>
      </trkpt>
      <trkpt lat="50.65986" lon="2.99133">
        <ele>47.8</ele>
        <time>2018-06-03T13:47:35Z</time>
      </trkpt>
      <trkpt lat="50.66004" lon="2.99119">
        <ele>48.6</ele>
        <time>2018-06-03T13:47:39Z</time>
      </trkpt>
      <trkpt lat="50.66023" lon="2.99106">
        <ele>48.6</ele>
        <time>2018-06-03T13:47:43Z</time>
      </trkpt>
      <trkpt lat="50.66043" lon="2.99093">
        <ele>48.2</ele>
        <time>2018-06-03T13:47:47Z</time>
      </trkpt>
      <trkpt lat="50.66062" lon="2.99081">
        <ele>48.6</ele>
        <time>2018-06-03T13:47:51Z</time>
      </trkpt>
      <trkpt lat="50.66082" lon="2.99068">
        <ele>48.6</ele>
        <time>2018-06-03T13:47:55Z</time>
      </trkpt>
      <trkpt lat="50.66102" lon="2.99056">
        <ele>48.4</ele>
        <time>2018-06-03T13:47:59Z</time>
      </trkpt>
      <trkpt lat="50.66122" lon="2.99043">
        <ele>47.8</ele>
        <time>2018-06-03T13:48:03Z</time>
      </trkpt>
      <trkpt lat="50.66141" lon="2.99029">
        <ele>47.6</ele>
        <time>2018-06-03T13:48:07Z</time>
      </trkpt>
      <trkpt lat="50.66161" lon="2.99013">
        <ele>46.6</ele>
        <time>2018-06-03T13:48:11Z</time>
      </trkpt>
      <trkpt lat="50.66181" lon="2.98994">
        <ele>45.4</ele>
        <time>2018-06-03T13:48:15Z</time>
      </trkpt>
      <trkpt lat="50.662" lon="2.98969">
        <ele>44.4</ele>
        <time>2018-06-03T13:48:19Z</time>
      </trkpt>
      <trkpt lat="50.6622" lon="2.98941">
        <ele>43</ele>
        <time>2018-06-03T13:48:23Z</time>
      </trkpt>
      <trkpt lat="50.66238" lon="2.98908">
        <ele>42</ele>
        <time>2018-06-03T13:48:27Z</time>
      </trkpt>
      <trkpt lat="50.66255" lon="2.98871">
        <ele>41.2</ele>
        <time>2018-06-03T13:48:31Z</time>
      </trkpt>
      <trkpt lat="50.66271" lon="2.98831">
        <ele>41.2</ele>
        <time>2018-06-03T13:48:35Z</time>
      </trkpt>
      <trkpt lat="50.66286" lon="2.98792">
        <ele>40.4</ele>
        <time>2018-06-03T13:48:39Z</time>
      </trkpt>
      <trkpt lat="50.66303" lon="2.98759">
        <ele>40.2</ele>
        <time>2018-06-03T13:48:43Z</time>
      </trkpt>
      <trkpt lat="50.66321" lon="2.98738">
        <ele>40.2</ele>
        <time>2018-06-03T13:48:47Z</time>
      </trkpt>
      <trkpt lat="50.66322" lon="2.98707">
        <ele>40.8</ele>
        <time>2018-06-03T13:48:51Z</time>
      </trkpt>
      <trkpt lat="50.66315" lon="2.98676">
        <ele>40.6</ele>
        <time>2018-06-03T13:48:55Z</time>
      </trkpt>
      <trkpt lat="50.6631" lon="2.98642">
        <ele>41.2</ele>
        <time>2018-06-03T13:48:59Z</time>
      </trkpt>
      <trkpt lat="50.66306" lon="2.9861">
        <ele>41</ele>
        <time>2018-06-03T13:49:03Z</time>
      </trkpt>
      <trkpt lat="50.66311" lon="2.98578">
        <ele>40.8</ele>
        <time>2018-06-03T13:49:07Z</time>
      </trkpt>
      <trkpt lat="50.66325" lon="2.98554">
        <ele>40.8</ele>
        <time>2018-06-03T13:49:11Z</time>
      </trkpt>
      <trkpt lat="50.66344" lon="2.98538">
        <ele>41.4</ele>
        <time>2018-06-03T13:49:15Z</time>
      </trkpt>
      <trkpt lat="50.66364" lon="2.98525">
        <ele>41.2</ele>
        <time>2018-06-03T13:49:19Z</time>
      </trkpt>
      <trkpt lat="50.66383" lon="2.98511">
        <ele>41.4</ele>
        <time>2018-06-03T13:49:23Z</time>
      </trkpt>
      <trkpt lat="50.66402" lon="2.98495">
        <ele>41.2</ele>
        <time>2018-06-03T13:49:27Z</time>
      </trkpt>
      <trkpt lat="50.6642" lon="2.98476">
        <ele>41.8</ele>
        <time>2018-06-03T13:49:31Z</time>
      </trkpt>
      <trkpt lat="50.66437" lon="2.98458">
        <ele>42.2</ele>
        <time>2018-06-03T13:49:35Z</time>
      </trkpt>
      <trkpt lat="50.66454" lon="2.9844">
        <ele>42.4</ele>
        <time>2018-06-03T13:49:39Z</time>
      </trkpt>
      <trkpt lat="50.66472" lon="2.98423">
        <ele>41.8</ele>
        <time>2018-06-03T13:49:43Z</time>
      </trkpt>
      <trkpt lat="50.66489" lon="2.98405">
        <ele>42</ele>
        <time>2018-06-03T13:49:47Z</time>
      </trkpt>
      <trkpt lat="50.66507" lon="2.98389">
        <ele>42.2</ele>
        <time>2018-06-03T13:49:51Z</time>
      </trkpt>
      <trkpt lat="50.66526" lon="2.98373">
        <ele>42.2</ele>
        <time>2018-06-03T13:49:55Z</time>
      </trkpt>
      <trkpt lat="50.6654" lon="2.9835">
        <ele>42.8</ele>
        <time>2018-06-03T13:49:59Z</time>
      </trkpt>
      <trkpt lat="50.66544" lon="2.98318">
        <ele>42.4</ele>
        <time>2018-06-03T13:50:03Z</time>
      </trkpt>
      <trkpt lat="50.66536" lon="2.98287">
        <ele>42.4</ele>
        <time>2018-06-03T13:50:07Z</time>
      </trkpt>
      <trkpt lat="50.66527" lon="2.98256">
        <ele>42.6</ele>
        <time>2018-06-03T13:50:11Z</time>
      </trkpt>
      <trkpt lat="50.66518" lon="2.98225">
        <ele>42.8</ele>
        <time>2018-06-03T13:50:15Z</time>
      </trkpt>
      <trkpt lat="50.66509" lon="2.98193">
        <ele>43</ele>
        <time>2018-06-03T13:50:19Z</time>
      </trkpt>
      <trkpt lat="50.665" lon="2.9816">
        <ele>43.4</ele>
        <time>2018-06-03T13:50:23Z</time>
      </trkpt>
      <trkpt lat="50.6649" lon="2.98129">
        <ele>43.6</ele>
        <time>2018-06-03T13:50:27Z</time>
      </trkpt>
      <trkpt lat="50.6648" lon="2.98097">
        <ele>43.8</ele>
        <time>2018-06-03T13:50:31Z</time>
      </trkpt>
      <trkpt lat="50.66469" lon="2.98065">
        <ele>43.8</ele>
        <time>2018-06-03T13:50:35Z</time>
      </trkpt>
      <trkpt lat="50.66459" lon="2.98035">
        <ele>44.6</ele>
        <time>2018-06-03T13:50:39Z</time>
      </trkpt>
      <trkpt lat="50.66449" lon="2.98007">
        <ele>45</ele>
        <time>2018-06-03T13:50:43Z</time>
      </trkpt>
      <trkpt lat="50.66438" lon="2.97978">
        <ele>44.8</ele>
        <time>2018-06-03T13:50:47Z</time>
      </trkpt>
      <trkpt lat="50.66428" lon="2.97949">
        <ele>45.2</ele>
        <time>2018-06-03T13:50:51Z</time>
      </trkpt>
      <trkpt lat="50.66418" lon="2.9792">
        <ele>45</ele>
        <time>2018-06-03T13:50:55Z</time>
      </trkpt>
      <trkpt lat="50.66408" lon="2.9789">
        <ele>45.6</ele>
        <time>2018-06-03T13:50:59Z</time>
      </trkpt>
      <trkpt lat="50.66403" lon="2.97862">
        <ele>45.6</ele>
        <time>2018-06-03T13:51:03Z</time>
      </trkpt>
      <trkpt lat="50.66403" lon="2.97862">
        <ele>45</ele>
        <time>2018-06-03T13:51:07Z</time>
      </trkpt>
      <trkpt lat="50.66403" lon="2.97862">
        <ele>45.8</ele>
        <time>2018-06-03T13:51:11Z</time>
      </trkpt>
      <trkpt lat="50.66403" lon="2.97862">
        <ele>45.6</ele>
        <time>2018-06-03T13:51:15Z</time>
      </trkpt>
      <trkpt lat="50.66403" lon="2.97862">
        <ele>45.2</ele>
        <time>2018-06-03T13:51:19Z</time>
      </trkpt>
      <trkpt lat="50.66403" lon="2.97862">
        <ele>45.4</ele>
        <time>2018-06-03T13:51:23Z</time>
      </trkpt>
      <trkpt lat="50.66403" lon="2.97862">
        <ele>45.2</ele>
        <time>2018-06-03T13:51:27Z</time>
      </trkpt>
      <trkpt lat="50.66403" lon="2.97862">
        <ele>45.4</ele>
        <time>2018-06-03T13:51:31Z</time>
      </trkpt>
      <trkpt lat="50.664" lon="2.97848">
        <ele>45.2</ele>
        <time>2018-06-03T13:51:35Z</time>
      </trkpt>
      <trkpt lat="50.66397" lon="2.97839">
        <ele>45.6</ele>
        <time>2018-06-03T13:51:39Z</time>
      </trkpt>
      <trkpt lat="50.66394" lon="2.9782">
        <ele>46</ele>
        <time>2018-06-03T13:51:43Z</time>
      </trkpt>
      <trkpt lat="50.66388" lon="2.97797">
        <ele>46.2</ele>
        <time>2018-06-03T13:51:47Z</time>
      </trkpt>
      <trkpt lat="50.66383" lon="2.97773">
        <ele>46.2</ele>
        <time>2018-06-03T13:51:51Z</time>
      </trkpt>
      <trkpt lat="50.66378" lon="2.97747">
        <ele>46.6</ele>
        <time>2018-06-03T13:51:55Z</time>
      </trkpt>
      <trkpt lat="50.66373" lon="2.97725">
        <ele>46.8</ele>
        <time>2018-06-03T13:51:59Z</time>
      </trkpt>
      <trkpt lat="50.66368" lon="2.977">
        <ele>47.4</ele>
        <time>2018-06-03T13:52:03Z</time>
      </trkpt>
      <trkpt lat="50.66363" lon="2.97675">
        <ele>47.2</ele>
        <time>2018-06-03T13:52:07Z</time>
      </trkpt>
      <trkpt lat="50.66368" lon="2.97652">
        <ele>47.2</ele>
        <time>2018-06-03T13:52:11Z</time>
      </trkpt>
      <trkpt lat="50.6637" lon="2.97626">
        <ele>47.6</ele>
        <time>2018-06-03T13:52:15Z</time>
      </trkpt>
      <trkpt lat="50.6636" lon="2.97603">
        <ele>48.2</ele>
        <time>2018-06-03T13:52:19Z</time>
      </trkpt>
      <trkpt lat="50.66351" lon="2.97583">
        <ele>47.6</ele>
        <time>2018-06-03T13:52:23Z</time>
      </trkpt>
      <trkpt lat="50.66334" lon="2.97569">
        <ele>47.8</ele>
        <time>2018-06-03T13:52:27Z</time>
      </trkpt>
      <trkpt lat="50.66316" lon="2.97554">
        <ele>47.6</ele>
        <time>2018-06-03T13:52:31Z</time>
      </trkpt>
      <trkpt lat="50.66305" lon="2.97531">
        <ele>47.8</ele>
        <time>2018-06-03T13:52:35Z</time>
      </trkpt>
      <trkpt lat="50.66294" lon="2.97509">
        <ele>48.2</ele>
        <time>2018-06-03T13:52:39Z</time>
      </trkpt>
      <trkpt lat="50.66283" lon="2.97486">
        <ele>48</ele>
        <time>2018-06-03T13:52:43Z</time>
      </trkpt>
      <trkpt lat="50.66272" lon="2.97462">
        <ele>48.8</ele>
        <time>2018-06-03T13:52:47Z</time>
      </trkpt>
      <trkpt lat="50.6626" lon="2.97439">
        <ele>49.6</ele>
        <time>2018-06-03T13:52:51Z</time>
      </trkpt>
      <trkpt lat="50.66251" lon="2.97415">
        <ele>49.4</ele>
        <time>2018-06-03T13:52:55Z</time>
      </trkpt>
      <trkpt lat="50.66258" lon="2.9739">
        <ele>49.2</ele>
        <time>2018-06-03T13:52:59Z</time>
      </trkpt>
      <trkpt lat="50.66273" lon="2.97371">
        <ele>50.4</ele>
        <time>2018-06-03T13:53:03Z</time>
      </trkpt>
      <trkpt lat="50.66289" lon="2.97353">
        <ele>50.2</ele>
        <time>2018-06-03T13:53:07Z</time>
      </trkpt>
      <trkpt lat="50.66305" lon="2.97333">
        <ele>50</ele>
        <time>2018-06-03T13:53:11Z</time>
      </trkpt>
      <trkpt lat="50.66322" lon="2.97313">
        <ele>49.6</ele>
        <time>2018-06-03T13:53:15Z</time>
      </trkpt>
      <trkpt lat="50.6634" lon="2.97292">
        <ele>50</ele>
        <time>2018-06-03T13:53:19Z</time>
      </trkpt>
      <trkpt lat="50.66358" lon="2.97272">
        <ele>49.8</ele>
        <time>2018-06-03T13:53:23Z</time>
      </trkpt>
      <trkpt lat="50.66376" lon="2.97251">
        <ele>50.4</ele>
        <time>2018-06-03T13:53:27Z</time>
      </trkpt>
      <trkpt lat="50.66394" lon="2.9723">
        <ele>49.8</ele>
        <time>2018-06-03T13:53:31Z</time>
      </trkpt>
      <trkpt lat="50.66412" lon="2.97207">
        <ele>49.6</ele>
        <time>2018-06-03T13:53:35Z</time>
      </trkpt>
      <trkpt lat="50.66431" lon="2.97185">
        <ele>49.6</ele>
        <time>2018-06-03T13:53:39Z</time>
      </trkpt>
      <trkpt lat="50.6645" lon="2.97164">
        <ele>49.6</ele>
        <time>2018-06-03T13:53:43Z</time>
      </trkpt>
      <trkpt lat="50.66469" lon="2.97142">
        <ele>49</ele>
        <time>2018-06-03T13:53:47Z</time>
      </trkpt>
      <trkpt lat="50.66488" lon="2.9712">
        <ele>48.6</ele>
        <time>2018-06-03T13:53:51Z</time>
      </trkpt>
      <trkpt lat="50.66507" lon="2.97098">
        <ele>48.8</ele>
        <time>2018-06-03T13:53:55Z</time>
      </trkpt>
      <trkpt lat="50.66526" lon="2.97077">
        <ele>48</ele>
        <time>2018-06-03T13:53:59Z</time>
      </trkpt>
      <trkpt lat="50.66545" lon="2.97055">
        <ele>47.8</ele>
        <time>2018-06-03T13:54:03Z</time>
      </trkpt>
      <trkpt lat="50.66564" lon="2.97034">
        <ele>47.6</ele>
        <time>2018-06-03T13:54:07Z</time>
      </trkpt>
      <trkpt lat="50.6658" lon="2.97008">
        <ele>47.2</ele>
        <time>2018-06-03T13:54:11Z</time>
      </trkpt>
      <trkpt lat="50.66579" lon="2.96974">
        <ele>47</ele>
        <time>2018-06-03T13:54:15Z</time>
      </trkpt>
      <trkpt lat="50.66568" lon="2.96945">
        <ele>46.6</ele>
        <time>2018-06-03T13:54:19Z</time>
      </trkpt>
      <trkpt lat="50.66556" lon="2.96917">
        <ele>47.2</ele>
        <time>2018-06-03T13:54:23Z</time>
      </trkpt>
      <trkpt lat="50.66544" lon="2.96891">
        <ele>47.2</ele>
        <time>2018-06-03T13:54:27Z</time>
      </trkpt>
      <trkpt lat="50.66539" lon="2.96873">
        <ele>47.4</ele>
        <time>2018-06-03T13:54:31Z</time>
      </trkpt>
      <trkpt lat="50.66548" lon="2.96863">
        <ele>47.2</ele>
        <time>2018-06-03T13:54:35Z</time>
      </trkpt>
      <trkpt lat="50.6656" lon="2.9685">
        <ele>47.6</ele>
        <time>2018-06-03T13:54:39Z</time>
      </trkpt>
      <trkpt lat="50.66573" lon="2.96837">
        <ele>47.2</ele>
        <time>2018-06-03T13:54:43Z</time>
      </trkpt>
      <trkpt lat="50.66586" lon="2.96822">
        <ele>47</ele>
        <time>2018-06-03T13:54:47Z</time>
      </trkpt>
      <trkpt lat="50.66602" lon="2.96809">
        <ele>46.8</ele>
        <time>2018-06-03T13:54:51Z</time>
      </trkpt>
      <trkpt lat="50.66618" lon="2.96794">
        <ele>46.4</ele>
        <time>2018-06-03T13:54:55Z</time>
      </trkpt>
      <trkpt lat="50.66633" lon="2.96777">
        <ele>46.2</ele>
        <time>2018-06-03T13:54:59Z</time>
      </trkpt>
      <trkpt lat="50.66647" lon="2.96762">
        <ele>45.8</ele>
        <time>2018-06-03T13:55:03Z</time>
      </trkpt>
      <trkpt lat="50.6666" lon="2.96748">
        <ele>45.2</ele>
        <time>2018-06-03T13:55:07Z</time>
      </trkpt>
      <trkpt lat="50.66672" lon="2.96736">
        <ele>44.4</ele>
        <time>2018-06-03T13:55:11Z</time>
      </trkpt>
      <trkpt lat="50.66689" lon="2.96724">
        <ele>44.8</ele>
        <time>2018-06-03T13:55:15Z</time>
      </trkpt>
      <trkpt lat="50.66703" lon="2.96705">
        <ele>44.2</ele>
        <time>2018-06-03T13:55:19Z</time>
      </trkpt>
      <trkpt lat="50.6672" lon="2.96691">
        <ele>43.8</ele>
        <time>2018-06-03T13:55:23Z</time>
      </trkpt>
      <trkpt lat="50.66736" lon="2.96676">
        <ele>43.2</ele>
        <time>2018-06-03T13:55:27Z</time>
      </trkpt>
      <trkpt lat="50.66752" lon="2.96659">
        <ele>42.6</ele>
        <time>2018-06-03T13:55:31Z</time>
      </trkpt>
      <trkpt lat="50.66766" lon="2.96649">
        <ele>42.8</ele>
        <time>2018-06-03T13:55:35Z</time>
      </trkpt>
      <trkpt lat="50.66784" lon="2.96631">
        <ele>43.2</ele>
        <time>2018-06-03T13:55:39Z</time>
      </trkpt>
      <trkpt lat="50.66797" lon="2.96609">
        <ele>43.8</ele>
        <time>2018-06-03T13:55:43Z</time>
      </trkpt>
      <trkpt lat="50.66815" lon="2.96591">
        <ele>43.6</ele>
        <time>2018-06-03T13:55:47Z</time>
      </trkpt>
      <trkpt lat="50.66832" lon="2.96572">
        <ele>42.2</ele>
        <time>2018-06-03T13:55:51Z</time>
      </trkpt>
      <trkpt lat="50.66847" lon="2.96553">
        <ele>41.4</ele>
        <time>2018-06-03T13:55:55Z</time>
      </trkpt>
      <trkpt lat="50.66861" lon="2.96532">
        <ele>41.2</ele>
        <time>2018-06-03T13:55:59Z</time>
      </trkpt>
      <trkpt lat="50.66868" lon="2.96503">
        <ele>41.4</ele>
        <time>2018-06-03T13:56:03Z</time>
      </trkpt>
      <trkpt lat="50.66874" lon="2.96468">
        <ele>40</ele>
        <time>2018-06-03T13:56:07Z</time>
      </trkpt>
      <trkpt lat="50.66879" lon="2.96432">
        <ele>38.8</ele>
        <time>2018-06-03T13:56:11Z</time>
      </trkpt>
      <trkpt lat="50.66884" lon="2.96404">
        <ele>37.4</ele>
        <time>2018-06-03T13:56:15Z</time>
      </trkpt>
      <trkpt lat="50.66888" lon="2.96374">
        <ele>37</ele>
        <time>2018-06-03T13:56:19Z</time>
      </trkpt>
      <trkpt lat="50.66893" lon="2.96338">
        <ele>36.8</ele>
        <time>2018-06-03T13:56:23Z</time>
      </trkpt>
      <trkpt lat="50.66898" lon="2.963">
        <ele>36.8</ele>
        <time>2018-06-03T13:56:27Z</time>
      </trkpt>
      <trkpt lat="50.66903" lon="2.96264">
        <ele>36.4</ele>
        <time>2018-06-03T13:56:31Z</time>
      </trkpt>
      <trkpt lat="50.66908" lon="2.96228">
        <ele>36</ele>
        <time>2018-06-03T13:56:35Z</time>
      </trkpt>
      <trkpt lat="50.66912" lon="2.96194">
        <ele>36</ele>
        <time>2018-06-03T13:56:39Z</time>
      </trkpt>
      <trkpt lat="50.66917" lon="2.96161">
        <ele>35.8</ele>
        <time>2018-06-03T13:56:43Z</time>
      </trkpt>
      <trkpt lat="50.66921" lon="2.96129">
        <ele>36</ele>
        <time>2018-06-03T13:56:47Z</time>
      </trkpt>
      <trkpt lat="50.66926" lon="2.96097">
        <ele>36</ele>
        <time>2018-06-03T13:56:51Z</time>
      </trkpt>
      <trkpt lat="50.6693" lon="2.96065">
        <ele>36</ele>
        <time>2018-06-03T13:56:55Z</time>
      </trkpt>
      <trkpt lat="50.66935" lon="2.96031">
        <ele>36.2</ele>
        <time>2018-06-03T13:56:59Z</time>
      </trkpt>
      <trkpt lat="50.6694" lon="2.95998">
        <ele>36.2</ele>
        <time>2018-06-03T13:57:03Z</time>
      </trkpt>
      <trkpt lat="50.66944" lon="2.95964">
        <ele>36</ele>
        <time>2018-06-03T13:57:07Z</time>
      </trkpt>
      <trkpt lat="50.66948" lon="2.95934">
        <ele>35.8</ele>
        <time>2018-06-03T13:57:11Z</time>
      </trkpt>
      <trkpt lat="50.66951" lon="2.95901">
        <ele>36.4</ele>
        <time>2018-06-03T13:57:15Z</time>
      </trkpt>
      <trkpt lat="50.66953" lon="2.95869">
        <ele>36.2</ele>
        <time>2018-06-03T13:57:19Z</time>
      </trkpt>
      <trkpt lat="50.66956" lon="2.95838">
        <ele>35.6</ele>
        <time>2018-06-03T13:57:23Z</time>
      </trkpt>
      <trkpt lat="50.66968" lon="2.95816">
        <ele>35.4</ele>
        <time>2018-06-03T13:57:27Z</time>
      </trkpt>
      <trkpt lat="50.66987" lon="2.95817">
        <ele>35.2</ele>
        <time>2018-06-03T13:57:31Z</time>
      </trkpt>
      <trkpt lat="50.67005" lon="2.95815">
        <ele>35</ele>
        <time>2018-06-03T13:57:35Z</time>
      </trkpt>
      <trkpt lat="50.67021" lon="2.95799">
        <ele>35</ele>
        <time>2018-06-03T13:57:39Z</time>
      </trkpt>
      <trkpt lat="50.67038" lon="2.9578">
        <ele>34.8</ele>
        <time>2018-06-03T13:57:43Z</time>
      </trkpt>
      <trkpt lat="50.67054" lon="2.95759">
        <ele>35</ele>
        <time>2018-06-03T13:57:47Z</time>
      </trkpt>
      <trkpt lat="50.67071" lon="2.95739">
        <ele>35.2</ele>
        <time>2018-06-03T13:57:51Z</time>
      </trkpt>
      <trkpt lat="50.67087" lon="2.95719">
        <ele>35.2</ele>
        <time>2018-06-03T13:57:55Z</time>
      </trkpt>
      <trkpt lat="50.67103" lon="2.95698">
        <ele>35.2</ele>
        <time>2018-06-03T13:57:59Z</time>
      </trkpt>
      <trkpt lat="50.67117" lon="2.95675">
        <ele>35.2</ele>
        <time>2018-06-03T13:58:03Z</time>
      </trkpt>
      <trkpt lat="50.67129" lon="2.95648">
        <ele>34.8</ele>
        <time>2018-06-03T13:58:07Z</time>
      </trkpt>
      <trkpt lat="50.67142" lon="2.95621">
        <ele>35</ele>
        <time>2018-06-03T13:58:11Z</time>
      </trkpt>
      <trkpt lat="50.67156" lon="2.95595">
        <ele>35.2</ele>
        <time>2018-06-03T13:58:15Z</time>
      </trkpt>
      <trkpt lat="50.67172" lon="2.95572">
        <ele>35</ele>
        <time>2018-06-03T13:58:19Z</time>
      </trkpt>
      <trkpt lat="50.67187" lon="2.95549">
        <ele>35.2</ele>
        <time>2018-06-03T13:58:23Z</time>
      </trkpt>
      <trkpt lat="50.67203" lon="2.95526">
        <ele>35</ele>
        <time>2018-06-03T13:58:27Z</time>
      </trkpt>
      <trkpt lat="50.67218" lon="2.95505">
        <ele>34.4</ele>
        <time>2018-06-03T13:58:31Z</time>
      </trkpt>
      <trkpt lat="50.67234" lon="2.95484">
        <ele>34.6</ele>
        <time>2018-06-03T13:58:35Z</time>
      </trkpt>
      <trkpt lat="50.6725" lon="2.95462">
        <ele>34.6</ele>
        <time>2018-06-03T13:58:39Z</time>
      </trkpt>
      <trkpt lat="50.67265" lon="2.95439">
        <ele>34.8</ele>
        <time>2018-06-03T13:58:43Z</time>
      </trkpt>
      <trkpt lat="50.67281" lon="2.95418">
        <ele>34.6</ele>
        <time>2018-06-03T13:58:47Z</time>
      </trkpt>
      <trkpt lat="50.67297" lon="2.95397">
        <ele>34.6</ele>
        <time>2018-06-03T13:58:51Z</time>
      </trkpt>
      <trkpt lat="50.67313" lon="2.95376">
        <ele>34.6</ele>
        <time>2018-06-03T13:58:55Z</time>
      </trkpt>
      <trkpt lat="50.67326" lon="2.95348">
        <ele>34.6</ele>
        <time>2018-06-03T13:58:59Z</time>
      </trkpt>
      <trkpt lat="50.67335" lon="2.95317">
        <ele>34.6</ele>
        <time>2018-06-03T13:59:03Z</time>
      </trkpt>
      <trkpt lat="50.67345" lon="2.95287">
        <ele>35</ele>
        <time>2018-06-03T13:59:07Z</time>
      </trkpt>
      <trkpt lat="50.67363" lon="2.95266">
        <ele>34.8</ele>
        <time>2018-06-03T13:59:11Z</time>
      </trkpt>
      <trkpt lat="50.67384" lon="2.95255">
        <ele>34.4</ele>
        <time>2018-06-03T13:59:15Z</time>
      </trkpt>
      <trkpt lat="50.67404" lon="2.95245">
        <ele>34.4</ele>
        <time>2018-06-03T13:59:19Z</time>
      </trkpt>
      <trkpt lat="50.67421" lon="2.95235">
        <ele>34.4</ele>
        <time>2018-06-03T13:59:23Z</time>
      </trkpt>
      <trkpt lat="50.67435" lon="2.95225">
        <ele>34.4</ele>
        <time>2018-06-03T13:59:27Z</time>
      </trkpt>
      <trkpt lat="50.67439" lon="2.95211">
        <ele>35.2</ele>
        <time>2018-06-03T13:59:31Z</time>
      </trkpt>
      <trkpt lat="50.67428" lon="2.9519">
        <ele>35.2</ele>
        <time>2018-06-03T13:59:35Z</time>
      </trkpt>
      <trkpt lat="50.67416" lon="2.95166">
        <ele>34.6</ele>
        <time>2018-06-03T13:59:39Z</time>
      </trkpt>
      <trkpt lat="50.67403" lon="2.95141">
        <ele>35</ele>
        <time>2018-06-03T13:59:43Z</time>
      </trkpt>
      <trkpt lat="50.6739" lon="2.95114">
        <ele>35.2</ele>
        <time>2018-06-03T13:59:47Z</time>
      </trkpt>
      <trkpt lat="50.67377" lon="2.95086">
        <ele>35</ele>
        <time>2018-06-03T13:59:51Z</time>
      </trkpt>
      <trkpt lat="50.67363" lon="2.95058">
        <ele>34.4</ele>
        <time>2018-06-03T13:59:55Z</time>
      </trkpt>
      <trkpt lat="50.67349" lon="2.9503">
        <ele>34.4</ele>
        <time>2018-06-03T13:59:59Z</time>
      </trkpt>
      <trkpt lat="50.67335" lon="2.95001">
        <ele>34.4</ele>
        <time>2018-06-03T14:00:03Z</time>
      </trkpt>
      <trkpt lat="50.67321" lon="2.94972">
        <ele>34</ele>
        <time>2018-06-03T14:00:07Z</time>
      </trkpt>
      <trkpt lat="50.67306" lon="2.94942">
        <ele>33.8</ele>
        <time>2018-06-03T14:00:11Z</time>
      </trkpt>
      <trkpt lat="50.67289" lon="2.94915">
        <ele>33.8</ele>
        <time>2018-06-03T14:00:15Z</time>
      </trkpt>
      <trkpt lat="50.6727" lon="2.94891">
        <ele>34</ele>
        <time>2018-06-03T14:00:19Z</time>
      </trkpt>
      <trkpt lat="50.67251" lon="2.94871">
        <ele>33.8</ele>
        <time>2018-06-03T14:00:23Z</time>
      </trkpt>
      <trkpt lat="50.67232" lon="2.94855">
        <ele>33.4</ele>
        <time>2018-06-03T14:00:27Z</time>
      </trkpt>
      <trkpt lat="50.67222" lon="2.94835">
        <ele>34</ele>
        <time>2018-06-03T14:00:31Z</time>
      </trkpt>
      <trkpt lat="50.67232" lon="2.94811">
        <ele>34.8</ele>
        <time>2018-06-03T14:00:35Z</time>
      </trkpt>
      <trkpt lat="50.67246" lon="2.94788">
        <ele>34.6</ele>
        <time>2018-06-03T14:00:39Z</time>
      </trkpt>
      <trkpt lat="50.6726" lon="2.94763">
        <ele>34.4</ele>
        <time>2018-06-03T14:00:43Z</time>
      </trkpt>
      <trkpt lat="50.67273" lon="2.94734">
        <ele>34.2</ele>
        <time>2018-06-03T14:00:47Z</time>
      </trkpt>
      <trkpt lat="50.67287" lon="2.94708">
        <ele>34.6</ele>
        <time>2018-06-03T14:00:51Z</time>
      </trkpt>
      <trkpt lat="50.67305" lon="2.94691">
        <ele>34.6</ele>
        <time>2018-06-03T14:00:55Z</time>
      </trkpt>
      <trkpt lat="50.67323" lon="2.94676">
        <ele>34.4</ele>
        <time>2018-06-03T14:00:59Z</time>
      </trkpt>
      <trkpt lat="50.67342" lon="2.9466">
        <ele>34.4</ele>
        <time>2018-06-03T14:01:03Z</time>
      </trkpt>
      <trkpt lat="50.6736" lon="2.94645">
        <ele>35</ele>
        <time>2018-06-03T14:01:07Z</time>
      </trkpt>
      <trkpt lat="50.67379" lon="2.94629">
        <ele>34.8</ele>
        <time>2018-06-03T14:01:11Z</time>
      </trkpt>
      <trkpt lat="50.67398" lon="2.94611">
        <ele>34.6</ele>
        <time>2018-06-03T14:01:15Z</time>
      </trkpt>
      <trkpt lat="50.67414" lon="2.94588">
        <ele>34.6</ele>
        <time>2018-06-03T14:01:19Z</time>
      </trkpt>
      <trkpt lat="50.67427" lon="2.94562">
        <ele>35</ele>
        <time>2018-06-03T14:01:23Z</time>
      </trkpt>
      <trkpt lat="50.6744" lon="2.94534">
        <ele>35.6</ele>
        <time>2018-06-03T14:01:27Z</time>
      </trkpt>
      <trkpt lat="50.67452" lon="2.94505">
        <ele>34.6</ele>
        <time>2018-06-03T14:01:31Z</time>
      </trkpt>
      <trkpt lat="50.67464" lon="2.94476">
        <ele>34.4</ele>
        <time>2018-06-03T14:01:35Z</time>
      </trkpt>
      <trkpt lat="50.67477" lon="2.94447">
        <ele>34.2</ele>
        <time>2018-06-03T14:01:39Z</time>
      </trkpt>
      <trkpt lat="50.6749" lon="2.94419">
        <ele>34.2</ele>
        <time>2018-06-03T14:01:43Z</time>
      </trkpt>
      <trkpt lat="50.67503" lon="2.94392">
        <ele>34.6</ele>
        <time>2018-06-03T14:01:47Z</time>
      </trkpt>
      <trkpt lat="50.67515" lon="2.94367">
        <ele>34.4</ele>
        <time>2018-06-03T14:01:51Z</time>
      </trkpt>
      <trkpt lat="50.67526" lon="2.94341">
        <ele>34.4</ele>
        <time>2018-06-03T14:01:55Z</time>
      </trkpt>
      <trkpt lat="50.67537" lon="2.94316">
        <ele>34.2</ele>
        <time>2018-06-03T14:01:59Z</time>
      </trkpt>
      <trkpt lat="50.67549" lon="2.94289">
        <ele>34.6</ele>
        <time>2018-06-03T14:02:03Z</time>
      </trkpt>
      <trkpt lat="50.67561" lon="2.94262">
        <ele>34.6</ele>
        <time>2018-06-03T14:02:07Z</time>
      </trkpt>
      <trkpt lat="50.67574" lon="2.94235">
        <ele>35</ele>
        <time>2018-06-03T14:02:11Z</time>
      </trkpt>
      <trkpt lat="50.67588" lon="2.94207">
        <ele>34.6</ele>
        <time>2018-06-03T14:02:15Z</time>
      </trkpt>
      <trkpt lat="50.67602" lon="2.94181">
        <ele>34.2</ele>
        <time>2018-06-03T14:02:19Z</time>
      </trkpt>
      <trkpt lat="50.67616" lon="2.94154">
        <ele>34.2</ele>
        <time>2018-06-03T14:02:23Z</time>
      </trkpt>
      <trkpt lat="50.6763" lon="2.94127">
        <ele>34</ele>
        <time>2018-06-03T14:02:27Z</time>
      </trkpt>
      <trkpt lat="50.67644" lon="2.941">
        <ele>34.2</ele>
        <time>2018-06-03T14:02:31Z</time>
      </trkpt>
      <trkpt lat="50.67658" lon="2.94073">
        <ele>34.2</ele>
        <time>2018-06-03T14:02:35Z</time>
      </trkpt>
      <trkpt lat="50.67672" lon="2.94045">
        <ele>34.2</ele>
        <time>2018-06-03T14:02:39Z</time>
      </trkpt>
      <trkpt lat="50.67686" lon="2.94016">
        <ele>34.4</ele>
        <time>2018-06-03T14:02:43Z</time>
      </trkpt>
      <trkpt lat="50.67701" lon="2.93988">
        <ele>34.4</ele>
        <time>2018-06-03T14:02:47Z</time>
      </trkpt>
      <trkpt lat="50.67718" lon="2.93962">
        <ele>34.6</ele>
        <time>2018-06-03T14:02:51Z</time>
      </trkpt>
      <trkpt lat="50.67734" lon="2.93937">
        <ele>34.6</ele>
        <time>2018-06-03T14:02:55Z</time>
      </trkpt>
      <trkpt lat="50.6775" lon="2.93912">
        <ele>34.4</ele>
        <time>2018-06-03T14:02:59Z</time>
      </trkpt>
      <trkpt lat="50.67765" lon="2.93886">
        <ele>34.8</ele>
        <time>2018-06-03T14:03:03Z</time>
      </trkpt>
      <trkpt lat="50.67778" lon="2.9386">
        <ele>34.2</ele>
        <time>2018-06-03T14:03:07Z</time>
      </trkpt>
      <trkpt lat="50.67792" lon="2.93834">
        <ele>34.4</ele>
        <time>2018-06-03T14:03:11Z</time>
      </trkpt>
      <trkpt lat="50.67806" lon="2.93809">
        <ele>34.6</ele>
        <time>2018-06-03T14:03:15Z</time>
      </trkpt>
      <trkpt lat="50.6782" lon="2.93784">
        <ele>34.6</ele>
        <time>2018-06-03T14:03:19Z</time>
      </trkpt>
      <trkpt lat="50.67834" lon="2.9376">
        <ele>34.2</ele>
        <time>2018-06-03T14:03:23Z</time>
      </trkpt>
      <trkpt lat="50.6785" lon="2.93738">
        <ele>34.6</ele>
        <time>2018-06-03T14:03:27Z</time>
      </trkpt>
      <trkpt lat="50.67866" lon="2.93714">
        <ele>34</ele>
        <time>2018-06-03T14:03:31Z</time>
      </trkpt>
      <trkpt lat="50.67883" lon="2.9369">
        <ele>34.8</ele>
        <time>2018-06-03T14:03:35Z</time>
      </trkpt>
      <trkpt lat="50.67899" lon="2.93665">
        <ele>34.6</ele>
        <time>2018-06-03T14:03:39Z</time>
      </trkpt>
      <trkpt lat="50.67916" lon="2.9364">
        <ele>34.4</ele>
        <time>2018-06-03T14:03:43Z</time>
      </trkpt>
      <trkpt lat="50.67933" lon="2.93616">
        <ele>34.4</ele>
        <time>2018-06-03T14:03:47Z</time>
      </trkpt>
      <trkpt lat="50.67948" lon="2.93588">
        <ele>34.6</ele>
        <time>2018-06-03T14:03:51Z</time>
      </trkpt>
      <trkpt lat="50.6796" lon="2.93559">
        <ele>33.8</ele>
        <time>2018-06-03T14:03:55Z</time>
      </trkpt>
      <trkpt lat="50.67971" lon="2.93531">
        <ele>34</ele>
        <time>2018-06-03T14:03:59Z</time>
      </trkpt>
      <trkpt lat="50.67983" lon="2.93505">
        <ele>33.2</ele>
        <time>2018-06-03T14:04:03Z</time>
      </trkpt>
      <trkpt lat="50.67995" lon="2.93482">
        <ele>33.4</ele>
        <time>2018-06-03T14:04:07Z</time>
      </trkpt>
      <trkpt lat="50.68006" lon="2.9346">
        <ele>34</ele>
        <time>2018-06-03T14:04:11Z</time>
      </trkpt>
      <trkpt lat="50.68021" lon="2.93447">
        <ele>33.8</ele>
        <time>2018-06-03T14:04:15Z</time>
      </trkpt>
      <trkpt lat="50.68038" lon="2.93438">
        <ele>34.2</ele>
        <time>2018-06-03T14:04:19Z</time>
      </trkpt>
      <trkpt lat="50.68053" lon="2.93421">
        <ele>33.8</ele>
        <time>2018-06-03T14:04:23Z</time>
      </trkpt>
      <trkpt lat="50.68067" lon="2.93401">
        <ele>33.6</ele>
        <time>2018-06-03T14:04:27Z</time>
      </trkpt>
      <trkpt lat="50.68081" lon="2.93378">
        <ele>33.2</ele>
        <time>2018-06-03T14:04:31Z</time>
      </trkpt>
      <trkpt lat="50.68095" lon="2.93355">
        <ele>33.4</ele>
        <time>2018-06-03T14:04:35Z</time>
      </trkpt>
      <trkpt lat="50.68111" lon="2.93331">
        <ele>33.6</ele>
        <time>2018-06-03T14:04:39Z</time>
      </trkpt>
      <trkpt lat="50.68127" lon="2.93307">
        <ele>33.6</ele>
        <time>2018-06-03T14:04:43Z</time>
      </trkpt>
      <trkpt lat="50.68142" lon="2.93281">
        <ele>34.2</ele>
        <time>2018-06-03T14:04:47Z</time>
      </trkpt>
      <trkpt lat="50.68157" lon="2.93257">
        <ele>34.2</ele>
        <time>2018-06-03T14:04:51Z</time>
      </trkpt>
      <trkpt lat="50.68171" lon="2.93232">
        <ele>33.8</ele>
        <time>2018-06-03T14:04:55Z</time>
      </trkpt>
      <trkpt lat="50.68186" lon="2.93207">
        <ele>34.4</ele>
        <time>2018-06-03T14:04:59Z</time>
      </trkpt>
      <trkpt lat="50.68202" lon="2.93182">
        <ele>34.2</ele>
        <time>2018-06-03T14:05:03Z</time>
      </trkpt>
      <trkpt lat="50.68217" lon="2.93156">
        <ele>34.6</ele>
        <time>2018-06-03T14:05:07Z</time>
      </trkpt>
      <trkpt lat="50.68232" lon="2.93131">
        <ele>34</ele>
        <time>2018-06-03T14:05:11Z</time>
      </trkpt>
      <trkpt lat="50.68247" lon="2.93108">
        <ele>34</ele>
        <time>2018-06-03T14:05:15Z</time>
      </trkpt>
      <trkpt lat="50.68261" lon="2.93086">
        <ele>34.4</ele>
        <time>2018-06-03T14:05:19Z</time>
      </trkpt>
      <trkpt lat="50.68276" lon="2.93062">
        <ele>34.2</ele>
        <time>2018-06-03T14:05:23Z</time>
      </trkpt>
      <trkpt lat="50.68291" lon="2.93039">
        <ele>34.6</ele>
        <time>2018-06-03T14:05:27Z</time>
      </trkpt>
      <trkpt lat="50.68307" lon="2.93017">
        <ele>34.6</ele>
        <time>2018-06-03T14:05:31Z</time>
      </trkpt>
      <trkpt lat="50.68324" lon="2.92996">
        <ele>34.6</ele>
        <time>2018-06-03T14:05:35Z</time>
      </trkpt>
      <trkpt lat="50.68342" lon="2.92976">
        <ele>34.6</ele>
        <time>2018-06-03T14:05:39Z</time>
      </trkpt>
      <trkpt lat="50.68357" lon="2.92954">
        <ele>34.2</ele>
        <time>2018-06-03T14:05:43Z</time>
      </trkpt>
      <trkpt lat="50.68373" lon="2.92933">
        <ele>34.4</ele>
        <time>2018-06-03T14:05:47Z</time>
      </trkpt>
      <trkpt lat="50.68387" lon="2.9291">
        <ele>34.4</ele>
        <time>2018-06-03T14:05:51Z</time>
      </trkpt>
      <trkpt lat="50.68402" lon="2.92887">
        <ele>34.2</ele>
        <time>2018-06-03T14:05:55Z</time>
      </trkpt>
      <trkpt lat="50.68417" lon="2.92863">
        <ele>34</ele>
        <time>2018-06-03T14:05:59Z</time>
      </trkpt>
      <trkpt lat="50.68432" lon="2.92838">
        <ele>34.2</ele>
        <time>2018-06-03T14:06:03Z</time>
      </trkpt>
      <trkpt lat="50.68447" lon="2.92812">
        <ele>34</ele>
        <time>2018-06-03T14:06:07Z</time>
      </trkpt>
      <trkpt lat="50.6846" lon="2.92787">
        <ele>34.4</ele>
        <time>2018-06-03T14:06:11Z</time>
      </trkpt>
      <trkpt lat="50.68473" lon="2.92762">
        <ele>34.6</ele>
        <time>2018-06-03T14:06:15Z</time>
      </trkpt>
      <trkpt lat="50.68486" lon="2.92737">
        <ele>34.4</ele>
        <time>2018-06-03T14:06:19Z</time>
      </trkpt>
      <trkpt lat="50.685" lon="2.92711">
        <ele>34.2</ele>
        <time>2018-06-03T14:06:23Z</time>
      </trkpt>
      <trkpt lat="50.68513" lon="2.92685">
        <ele>34.6</ele>
        <time>2018-06-03T14:06:27Z</time>
      </trkpt>
      <trkpt lat="50.68528" lon="2.92659">
        <ele>34</ele>
        <time>2018-06-03T14:06:31Z</time>
      </trkpt>
      <trkpt lat="50.68542" lon="2.92633">
        <ele>34.2</ele>
        <time>2018-06-03T14:06:35Z</time>
      </trkpt>
      <trkpt lat="50.68556" lon="2.92607">
        <ele>33.4</ele>
        <time>2018-06-03T14:06:39Z</time>
      </trkpt>
      <trkpt lat="50.68571" lon="2.92579">
        <ele>33.2</ele>
        <time>2018-06-03T14:06:43Z</time>
      </trkpt>
      <trkpt lat="50.68587" lon="2.92551">
        <ele>33.2</ele>
        <time>2018-06-03T14:06:47Z</time>
      </trkpt>
      <trkpt lat="50.68602" lon="2.92523">
        <ele>33</ele>
        <time>2018-06-03T14:06:51Z</time>
      </trkpt>
      <trkpt lat="50.68616" lon="2.92495">
        <ele>32.4</ele>
        <time>2018-06-03T14:06:55Z</time>
      </trkpt>
      <trkpt lat="50.68629" lon="2.92466">
        <ele>32.6</ele>
        <time>2018-06-03T14:06:59Z</time>
      </trkpt>
      <trkpt lat="50.68641" lon="2.92438">
        <ele>32.8</ele>
        <time>2018-06-03T14:07:03Z</time>
      </trkpt>
      <trkpt lat="50.68653" lon="2.92409">
        <ele>32.6</ele>
        <time>2018-06-03T14:07:07Z</time>
      </trkpt>
      <trkpt lat="50.68665" lon="2.92381">
        <ele>33.2</ele>
        <time>2018-06-03T14:07:11Z</time>
      </trkpt>
      <trkpt lat="50.68677" lon="2.92354">
        <ele>33.4</ele>
        <time>2018-06-03T14:07:15Z</time>
      </trkpt>
      <trkpt lat="50.68689" lon="2.92328">
        <ele>33.2</ele>
        <time>2018-06-03T14:07:19Z</time>
      </trkpt>
      <trkpt lat="50.68701" lon="2.92303">
        <ele>33.4</ele>
        <time>2018-06-03T14:07:23Z</time>
      </trkpt>
      <trkpt lat="50.68714" lon="2.92277">
        <ele>33.6</ele>
        <time>2018-06-03T14:07:27Z</time>
      </trkpt>
      <trkpt lat="50.68726" lon="2.92251">
        <ele>33.8</ele>
        <time>2018-06-03T14:07:31Z</time>
      </trkpt>
      <trkpt lat="50.68738" lon="2.92225">
        <ele>34</ele>
        <time>2018-06-03T14:07:35Z</time>
      </trkpt>
      <trkpt lat="50.68749" lon="2.92199">
        <ele>33.4</ele>
        <time>2018-06-03T14:07:39Z</time>
      </trkpt>
      <trkpt lat="50.68761" lon="2.92172">
        <ele>34.4</ele>
        <time>2018-06-03T14:07:43Z</time>
      </trkpt>
      <trkpt lat="50.68772" lon="2.92146">
        <ele>33.6</ele>
        <time>2018-06-03T14:07:47Z</time>
      </trkpt>
      <trkpt lat="50.68782" lon="2.92121">
        <ele>33.6</ele>
        <time>2018-06-03T14:07:51Z</time>
      </trkpt>
      <trkpt lat="50.68791" lon="2.92099">
        <ele>33.2</ele>
        <time>2018-06-03T14:07:55Z</time>
      </trkpt>
      <trkpt lat="50.68798" lon="2.92079">
        <ele>34</ele>
        <time>2018-06-03T14:07:59Z</time>
      </trkpt>
      <trkpt lat="50.68804" lon="2.9206">
        <ele>33.6</ele>
        <time>2018-06-03T14:08:03Z</time>
      </trkpt>
      <trkpt lat="50.6881" lon="2.92043">
        <ele>34.2</ele>
        <time>2018-06-03T14:08:07Z</time>
      </trkpt>
      <trkpt lat="50.6881" lon="2.92043">
        <ele>34.6</ele>
        <time>2018-06-03T14:08:11Z</time>
      </trkpt>
      <trkpt lat="50.6881" lon="2.92043">
        <ele>34</ele>
        <time>2018-06-03T14:08:15Z</time>
      </trkpt>
      <trkpt lat="50.6881" lon="2.92043">
        <ele>33.6</ele>
        <time>2018-06-03T14:08:19Z</time>
      </trkpt>
      <trkpt lat="50.6881" lon="2.92043">
        <ele>33.4</ele>
        <time>2018-06-03T14:08:23Z</time>
      </trkpt>
      <trkpt lat="50.6881" lon="2.92043">
        <ele>33.2</ele>
        <time>2018-06-03T14:08:27Z</time>
      </trkpt>
      <trkpt lat="50.6881" lon="2.92043">
        <ele>33.2</ele>
        <time>2018-06-03T14:08:31Z</time>
      </trkpt>
      <trkpt lat="50.68814" lon="2.92034">
        <ele>33</ele>
        <time>2018-06-03T14:08:35Z</time>
      </trkpt>
      <trkpt lat="50.68818" lon="2.92023">
        <ele>33.8</ele>
        <time>2018-06-03T14:08:39Z</time>
      </trkpt>
      <trkpt lat="50.68824" lon="2.92003">
        <ele>34.2</ele>
        <time>2018-06-03T14:08:43Z</time>
      </trkpt>
      <trkpt lat="50.68832" lon="2.91979">
        <ele>33.6</ele>
        <time>2018-06-03T14:08:47Z</time>
      </trkpt>
      <trkpt lat="50.68841" lon="2.91953">
        <ele>34</ele>
        <time>2018-06-03T14:08:51Z</time>
      </trkpt>
      <trkpt lat="50.68848" lon="2.91926">
        <ele>34</ele>
        <time>2018-06-03T14:08:55Z</time>
      </trkpt>
      <trkpt lat="50.68855" lon="2.91897">
        <ele>33.8</ele>
        <time>2018-06-03T14:08:59Z</time>
      </trkpt>
      <trkpt lat="50.68861" lon="2.91865">
        <ele>33.6</ele>
        <time>2018-06-03T14:09:03Z</time>
      </trkpt>
      <trkpt lat="50.68865" lon="2.91832">
        <ele>33.8</ele>
        <time>2018-06-03T14:09:07Z</time>
      </trkpt>
      <trkpt lat="50.6887" lon="2.91801">
        <ele>34.2</ele>
        <time>2018-06-03T14:09:11Z</time>
      </trkpt>
      <trkpt lat="50.68876" lon="2.9177">
        <ele>34</ele>
        <time>2018-06-03T14:09:15Z</time>
      </trkpt>
      <trkpt lat="50.68884" lon="2.91739">
        <ele>34.2</ele>
        <time>2018-06-03T14:09:19Z</time>
      </trkpt>
      <trkpt lat="50.68893" lon="2.91707">
        <ele>34.2</ele>
        <time>2018-06-03T14:09:23Z</time>
      </trkpt>
      <trkpt lat="50.68902" lon="2.91675">
        <ele>33.8</ele>
        <time>2018-06-03T14:09:27Z</time>
      </trkpt>
      <trkpt lat="50.68912" lon="2.91644">
        <ele>33.8</ele>
        <time>2018-06-03T14:09:31Z</time>
      </trkpt>
      <trkpt lat="50.68921" lon="2.91612">
        <ele>33.4</ele>
        <time>2018-06-03T14:09:35Z</time>
      </trkpt>
      <trkpt lat="50.6893" lon="2.9158">
        <ele>33.6</ele>
        <time>2018-06-03T14:09:39Z</time>
      </trkpt>
      <trkpt lat="50.6894" lon="2.91549">
        <ele>33.8</ele>
        <time>2018-06-03T14:09:43Z</time>
      </trkpt>
      <trkpt lat="50.68949" lon="2.9152">
        <ele>33.4</ele>
        <time>2018-06-03T14:09:47Z</time>
      </trkpt>
      <trkpt lat="50.68959" lon="2.9149">
        <ele>33.4</ele>
        <time>2018-06-03T14:09:51Z</time>
      </trkpt>
      <trkpt lat="50.6897" lon="2.9146">
        <ele>33.2</ele>
        <time>2018-06-03T14:09:55Z</time>
      </trkpt>
      <trkpt lat="50.68982" lon="2.9143">
        <ele>33</ele>
        <time>2018-06-03T14:09:59Z</time>
      </trkpt>
      <trkpt lat="50.68993" lon="2.91401">
        <ele>33</ele>
        <time>2018-06-03T14:10:03Z</time>
      </trkpt>
      <trkpt lat="50.69006" lon="2.91375">
        <ele>33.2</ele>
        <time>2018-06-03T14:10:07Z</time>
      </trkpt>
      <trkpt lat="50.69021" lon="2.91351">
        <ele>33.8</ele>
        <time>2018-06-03T14:10:11Z</time>
      </trkpt>
      <trkpt lat="50.69037" lon="2.91333">
        <ele>34</ele>
        <time>2018-06-03T14:10:15Z</time>
      </trkpt>
      <trkpt lat="50.69056" lon="2.9132">
        <ele>33.8</ele>
        <time>2018-06-03T14:10:19Z</time>
      </trkpt>
      <trkpt lat="50.69075" lon="2.91308">
        <ele>33.6</ele>
        <time>2018-06-03T14:10:23Z</time>
      </trkpt>
      <trkpt lat="50.69096" lon="2.91299">
        <ele>34.2</ele>
        <time>2018-06-03T14:10:27Z</time>
      </trkpt>
      <trkpt lat="50.69117" lon="2.91289">
        <ele>33.6</ele>
        <time>2018-06-03T14:10:31Z</time>
      </trkpt>
      <trkpt lat="50.69138" lon="2.91279">
        <ele>33.4</ele>
        <time>2018-06-03T14:10:35Z</time>
      </trkpt>
      <trkpt lat="50.69154" lon="2.91258">
        <ele>33.6</ele>
        <time>2018-06-03T14:10:39Z</time>
      </trkpt>
      <trkpt lat="50.69165" lon="2.91229">
        <ele>32.8</ele>
        <time>2018-06-03T14:10:43Z</time>
      </trkpt>
      <trkpt lat="50.69174" lon="2.91202">
        <ele>32.8</ele>
        <time>2018-06-03T14:10:47Z</time>
      </trkpt>
      <trkpt lat="50.69181" lon="2.91176">
        <ele>32.2</ele>
        <time>2018-06-03T14:10:51Z</time>
      </trkpt>
      <trkpt lat="50.69187" lon="2.91156">
        <ele>32.6</ele>
        <time>2018-06-03T14:10:55Z</time>
      </trkpt>
      <trkpt lat="50.69189" lon="2.91146">
        <ele>31.8</ele>
        <time>2018-06-03T14:10:59Z</time>
      </trkpt>
      <trkpt lat="50.69196" lon="2.91146">
        <ele>31.8</ele>
        <time>2018-06-03T14:11:03Z</time>
      </trkpt>
      <trkpt lat="50.69205" lon="2.91156">
        <ele>31.8</ele>
        <time>2018-06-03T14:11:07Z</time>
      </trkpt>
      <trkpt lat="50.69218" lon="2.91167">
        <ele>32.2</ele>
        <time>2018-06-03T14:11:11Z</time>
      </trkpt>
      <trkpt lat="50.6923" lon="2.91179">
        <ele>32.6</ele>
        <time>2018-06-03T14:11:15Z</time>
      </trkpt>
      <trkpt lat="50.69243" lon="2.91193">
        <ele>33</ele>
        <time>2018-06-03T14:11:19Z</time>
      </trkpt>
      <trkpt lat="50.69257" lon="2.9121">
        <ele>32.6</ele>
        <time>2018-06-03T14:11:23Z</time>
      </trkpt>
      <trkpt lat="50.69271" lon="2.91227">
        <ele>33.6</ele>
        <time>2018-06-03T14:11:27Z</time>
      </trkpt>
      <trkpt lat="50.69286" lon="2.9124">
        <ele>33.6</ele>
        <time>2018-06-03T14:11:31Z</time>
      </trkpt>
      <trkpt lat="50.69303" lon="2.91247">
        <ele>33.8</ele>
        <time>2018-06-03T14:11:35Z</time>
      </trkpt>
      <trkpt lat="50.6932" lon="2.91245">
        <ele>34.4</ele>
        <time>2018-06-03T14:11:39Z</time>
      </trkpt>
      <trkpt lat="50.69336" lon="2.91241">
        <ele>34.6</ele>
        <time>2018-06-03T14:11:43Z</time>
      </trkpt>
      <trkpt lat="50.69352" lon="2.91235">
        <ele>34</ele>
        <time>2018-06-03T14:11:47Z</time>
      </trkpt>
      <trkpt lat="50.6937" lon="2.91229">
        <ele>34.2</ele>
        <time>2018-06-03T14:11:51Z</time>
      </trkpt>
      <trkpt lat="50.69387" lon="2.9123">
        <ele>33.2</ele>
        <time>2018-06-03T14:11:55Z</time>
      </trkpt>
      <trkpt lat="50.69404" lon="2.91234">
        <ele>32.8</ele>
        <time>2018-06-03T14:11:59Z</time>
      </trkpt>
      <trkpt lat="50.69426" lon="2.91245">
        <ele>33</ele>
        <time>2018-06-03T14:12:03Z</time>
      </trkpt>
      <trkpt lat="50.6944" lon="2.91258">
        <ele>32.8</ele>
        <time>2018-06-03T14:12:07Z</time>
      </trkpt>
      <trkpt lat="50.69455" lon="2.91272">
        <ele>32.2</ele>
        <time>2018-06-03T14:12:11Z</time>
      </trkpt>
      <trkpt lat="50.69469" lon="2.91286">
        <ele>32</ele>
        <time>2018-06-03T14:12:15Z</time>
      </trkpt>
      <trkpt lat="50.69477" lon="2.91293">
        <ele>31.4</ele>
        <time>2018-06-03T14:12:19Z</time>
      </trkpt>
      <trkpt lat="50.69471" lon="2.91284">
        <ele>31.2</ele>
        <time>2018-06-03T14:12:23Z</time>
      </trkpt>
      <trkpt lat="50.69459" lon="2.91274">
        <ele>31.4</ele>
        <time>2018-06-03T14:12:27Z</time>
      </trkpt>
      <trkpt lat="50.69446" lon="2.91261">
        <ele>31.8</ele>
        <time>2018-06-03T14:12:31Z</time>
      </trkpt>
      <trkpt lat="50.69433" lon="2.91247">
        <ele>31.8</ele>
        <time>2018-06-03T14:12:35Z</time>
      </trkpt>
      <trkpt lat="50.69435" lon="2.91226">
        <ele>32.2</ele>
        <time>2018-06-03T14:12:39Z</time>
      </trkpt>
      <trkpt lat="50.69445" lon="2.91208">
        <ele>32.8</ele>
        <time>2018-06-03T14:12:43Z</time>
      </trkpt>
      <trkpt lat="50.69456" lon="2.91187">
        <ele>32.6</ele>
        <time>2018-06-03T14:12:47Z</time>
      </trkpt>
      <trkpt lat="50.69464" lon="2.91165">
        <ele>32.6</ele>
        <time>2018-06-03T14:12:51Z</time>
      </trkpt>
      <trkpt lat="50.69471" lon="2.91141">
        <ele>33</ele>
        <time>2018-06-03T14:12:55Z</time>
      </trkpt>
      <trkpt lat="50.69475" lon="2.91116">
        <ele>32.8</ele>
        <time>2018-06-03T14:12:59Z</time>
      </trkpt>
      <trkpt lat="50.69479" lon="2.91089">
        <ele>33.2</ele>
        <time>2018-06-03T14:13:03Z</time>
      </trkpt>
      <trkpt lat="50.69483" lon="2.91065">
        <ele>32.8</ele>
        <time>2018-06-03T14:13:07Z</time>
      </trkpt>
      <trkpt lat="50.69488" lon="2.91042">
        <ele>32</ele>
        <time>2018-06-03T14:13:11Z</time>
      </trkpt>
      <trkpt lat="50.69497" lon="2.91019">
        <ele>32.2</ele>
        <time>2018-06-03T14:13:15Z</time>
      </trkpt>
      <trkpt lat="50.69509" lon="2.90996">
        <ele>31.4</ele>
        <time>2018-06-03T14:13:19Z</time>
      </trkpt>
      <trkpt lat="50.69521" lon="2.90974">
        <ele>31.2</ele>
        <time>2018-06-03T14:13:23Z</time>
      </trkpt>
      <trkpt lat="50.69534" lon="2.9095">
        <ele>31.4</ele>
        <time>2018-06-03T14:13:27Z</time>
      </trkpt>
      <trkpt lat="50.69547" lon="2.90931">
        <ele>32.2</ele>
        <time>2018-06-03T14:13:31Z</time>
      </trkpt>
      <trkpt lat="50.69559" lon="2.90916">
        <ele>33.2</ele>
        <time>2018-06-03T14:13:35Z</time>
      </trkpt>
      <trkpt lat="50.6957" lon="2.90901">
        <ele>34.2</ele>
        <time>2018-06-03T14:13:39Z</time>
      </trkpt>
      <trkpt lat="50.69582" lon="2.90886">
        <ele>34.2</ele>
        <time>2018-06-03T14:13:43Z</time>
      </trkpt>
      <trkpt lat="50.69593" lon="2.9087">
        <ele>34.2</ele>
        <time>2018-06-03T14:13:47Z</time>
      </trkpt>
      <trkpt lat="50.69604" lon="2.90854">
        <ele>33.8</ele>
        <time>2018-06-03T14:13:51Z</time>
      </trkpt>
      <trkpt lat="50.69614" lon="2.90843">
        <ele>33</ele>
        <time>2018-06-03T14:13:55Z</time>
      </trkpt>
      <trkpt lat="50.69614" lon="2.90843">
        <ele>32.8</ele>
        <time>2018-06-03T14:13:59Z</time>
      </trkpt>
      <trkpt lat="50.69614" lon="2.90843">
        <ele>33</ele>
        <time>2018-06-03T14:14:03Z</time>
      </trkpt>
      <trkpt lat="50.69614" lon="2.90843">
        <ele>32.8</ele>
        <time>2018-06-03T14:14:07Z</time>
      </trkpt>
      <trkpt lat="50.69614" lon="2.90843">
        <ele>33</ele>
        <time>2018-06-03T14:14:11Z</time>
      </trkpt>
      <trkpt lat="50.69614" lon="2.90843">
        <ele>32.8</ele>
        <time>2018-06-03T14:14:15Z</time>
      </trkpt>
      <trkpt lat="50.69614" lon="2.90843">
        <ele>33</ele>
        <time>2018-06-03T14:14:19Z</time>
      </trkpt>
      <trkpt lat="50.69615" lon="2.9084">
        <ele>32.8</ele>
        <time>2018-06-03T14:14:23Z</time>
      </trkpt>
      <trkpt lat="50.69612" lon="2.90838">
        <ele>33.6</ele>
        <time>2018-06-03T14:14:27Z</time>
      </trkpt>
      <trkpt lat="50.69607" lon="2.90846">
        <ele>33.6</ele>
        <time>2018-06-03T14:14:31Z</time>
      </trkpt>
      <trkpt lat="50.69598" lon="2.90858">
        <ele>34.2</ele>
        <time>2018-06-03T14:14:35Z</time>
      </trkpt>
      <trkpt lat="50.69587" lon="2.90874">
        <ele>35.2</ele>
        <time>2018-06-03T14:14:39Z</time>
      </trkpt>
      <trkpt lat="50.69577" lon="2.90889">
        <ele>34.4</ele>
        <time>2018-06-03T14:14:43Z</time>
      </trkpt>
      <trkpt lat="50.69566" lon="2.90906">
        <ele>33.2</ele>
        <time>2018-06-03T14:14:47Z</time>
      </trkpt>
      <trkpt lat="50.69553" lon="2.90907">
        <ele>32.8</ele>
        <time>2018-06-03T14:14:51Z</time>
      </trkpt>
      <trkpt lat="50.69542" lon="2.90897">
        <ele>32.4</ele>
        <time>2018-06-03T14:14:55Z</time>
      </trkpt>
      <trkpt lat="50.69526" lon="2.90887">
        <ele>30.6</ele>
        <time>2018-06-03T14:14:59Z</time>
      </trkpt>
      <trkpt lat="50.69505" lon="2.9088">
        <ele>30</ele>
        <time>2018-06-03T14:15:03Z</time>
      </trkpt>
      <trkpt lat="50.69483" lon="2.90882">
        <ele>29.6</ele>
        <time>2018-06-03T14:15:07Z</time>
      </trkpt>
      <trkpt lat="50.69465" lon="2.90878">
        <ele>29</ele>
        <time>2018-06-03T14:15:11Z</time>
      </trkpt>
      <trkpt lat="50.69459" lon="2.90853">
        <ele>28.8</ele>
        <time>2018-06-03T14:15:15Z</time>
      </trkpt>
      <trkpt lat="50.69458" lon="2.90824">
        <ele>29.2</ele>
        <time>2018-06-03T14:15:19Z</time>
      </trkpt>
      <trkpt lat="50.69456" lon="2.908">
        <ele>29.4</ele>
        <time>2018-06-03T14:15:23Z</time>
      </trkpt>
      <trkpt lat="50.69458" lon="2.90791">
        <ele>29.6</ele>
        <time>2018-06-03T14:15:27Z</time>
      </trkpt>
      <trkpt lat="50.69469" lon="2.90793">
        <ele>30.2</ele>
        <time>2018-06-03T14:15:31Z</time>
      </trkpt>
      <trkpt lat="50.69481" lon="2.90799">
        <ele>30.2</ele>
        <time>2018-06-03T14:15:35Z</time>
      </trkpt>
      <trkpt lat="50.69495" lon="2.90814">
        <ele>30</ele>
        <time>2018-06-03T14:15:39Z</time>
      </trkpt>
      <trkpt lat="50.69508" lon="2.90831">
        <ele>29.6</ele>
        <time>2018-06-03T14:15:43Z</time>
      </trkpt>
      <trkpt lat="50.69522" lon="2.90844">
        <ele>29.6</ele>
        <time>2018-06-03T14:15:47Z</time>
      </trkpt>
      <trkpt lat="50.69536" lon="2.90858">
        <ele>29.6</ele>
        <time>2018-06-03T14:15:51Z</time>
      </trkpt>
      <trkpt lat="50.69551" lon="2.9087">
        <ele>29.8</ele>
        <time>2018-06-03T14:15:55Z</time>
      </trkpt>
      <trkpt lat="50.69565" lon="2.90879">
        <ele>29.4</ele>
        <time>2018-06-03T14:15:59Z</time>
      </trkpt>
      <trkpt lat="50.69581" lon="2.90891">
        <ele>29.4</ele>
        <time>2018-06-03T14:16:03Z</time>
      </trkpt>
      <trkpt lat="50.69593" lon="2.90901">
        <ele>29.8</ele>
        <time>2018-06-03T14:16:07Z</time>
      </trkpt>
      <trkpt lat="50.69606" lon="2.9091">
        <ele>29.8</ele>
        <time>2018-06-03T14:16:11Z</time>
      </trkpt>
      <trkpt lat="50.69619" lon="2.9092">
        <ele>30</ele>
        <time>2018-06-03T14:16:15Z</time>
      </trkpt>
      <trkpt lat="50.69634" lon="2.9093">
        <ele>29.8</ele>
        <time>2018-06-03T14:16:19Z</time>
      </trkpt>
      <trkpt lat="50.6965" lon="2.90943">
        <ele>30.6</ele>
        <time>2018-06-03T14:16:23Z</time>
      </trkpt>
      <trkpt lat="50.69665" lon="2.90954">
        <ele>30.4</ele>
        <time>2018-06-03T14:16:27Z</time>
      </trkpt>
      <trkpt lat="50.69679" lon="2.90964">
        <ele>29.8</ele>
        <time>2018-06-03T14:16:31Z</time>
      </trkpt>
      <trkpt lat="50.69693" lon="2.90975">
        <ele>29.6</ele>
        <time>2018-06-03T14:16:35Z</time>
      </trkpt>
      <trkpt lat="50.69707" lon="2.90985">
        <ele>30</ele>
        <time>2018-06-03T14:16:39Z</time>
      </trkpt>
      <trkpt lat="50.69721" lon="2.90996">
        <ele>30</ele>
        <time>2018-06-03T14:16:43Z</time>
      </trkpt>
      <trkpt lat="50.69732" lon="2.91004">
        <ele>30</ele>
        <time>2018-06-03T14:16:47Z</time>
      </trkpt>
      <trkpt lat="50.6974" lon="2.91009">
        <ele>29.8</ele>
        <time>2018-06-03T14:16:51Z</time>
      </trkpt>
      <trkpt lat="50.69745" lon="2.91014">
        <ele>29.8</ele>
        <time>2018-06-03T14:16:55Z</time>
      </trkpt>
      <trkpt lat="50.69754" lon="2.91017">
        <ele>29.4</ele>
        <time>2018-06-03T14:16:59Z</time>
      </trkpt>
      <trkpt lat="50.69754" lon="2.91017">
        <ele>29.4</ele>
        <time>2018-06-03T14:17:03Z</time>
      </trkpt>
      <trkpt lat="50.69754" lon="2.91017">
        <ele>29.6</ele>
        <time>2018-06-03T14:17:07Z</time>
      </trkpt>
      <trkpt lat="50.69762" lon="2.91023">
        <ele>29.8</ele>
        <time>2018-06-03T14:17:11Z</time>
      </trkpt>
      <trkpt lat="50.69762" lon="2.91023">
        <ele>29.8</ele>
        <time>2018-06-03T14:17:15Z</time>
      </trkpt>
      <trkpt lat="50.69762" lon="2.91023">
        <ele>29.6</ele>
        <time>2018-06-03T14:17:19Z</time>
      </trkpt>
      <trkpt lat="50.69762" lon="2.91023">
        <ele>29.8</ele>
        <time>2018-06-03T14:17:23Z</time>
      </trkpt>
      <trkpt lat="50.69762" lon="2.91024">
        <ele>29.8</ele>
        <time>2018-06-03T14:17:27Z</time>
      </trkpt>
      <trkpt lat="50.69762" lon="2.91024">
        <ele>30</ele>
        <time>2018-06-03T14:17:31Z</time>
      </trkpt>
      <trkpt lat="50.69762" lon="2.91024">
        <ele>29.8</ele>
        <time>2018-06-03T14:17:35Z</time>
      </trkpt>
      <trkpt lat="50.69762" lon="2.91024">
        <ele>29.8</ele>
        <time>2018-06-03T14:17:39Z</time>
      </trkpt>
      <trkpt lat="50.69762" lon="2.91024">
        <ele>29.8</ele>
        <time>2018-06-03T14:17:43Z</time>
      </trkpt>
      <trkpt lat="50.69762" lon="2.91024">
        <ele>30.4</ele>
        <time>2018-06-03T14:17:47Z</time>
      </trkpt>
      <trkpt lat="50.69762" lon="2.91024">
        <ele>30</ele>
        <time>2018-06-03T14:17:51Z</time>
      </trkpt>
      <trkpt lat="50.69762" lon="2.91024">
        <ele>29.8</ele>
        <time>2018-06-03T14:17:55Z</time>
      </trkpt>
      <trkpt lat="50.69762" lon="2.91024">
        <ele>30.4</ele>
        <time>2018-06-03T14:17:59Z</time>
      </trkpt>
      <trkpt lat="50.69762" lon="2.91024">
        <ele>29.8</ele>
        <time>2018-06-03T14:18:03Z</time>
      </trkpt>
      <trkpt lat="50.69762" lon="2.91024">
        <ele>30.2</ele>
        <time>2018-06-03T14:18:07Z</time>
      </trkpt>
      <trkpt lat="50.69762" lon="2.91024">
        <ele>29.8</ele>
        <time>2018-06-03T14:18:11Z</time>
      </trkpt>
      <trkpt lat="50.69762" lon="2.91024">
        <ele>29.6</ele>
        <time>2018-06-03T14:18:15Z</time>
      </trkpt>
      <trkpt lat="50.69762" lon="2.91024">
        <ele>29.6</ele>
        <time>2018-06-03T14:18:19Z</time>
      </trkpt>
      <trkpt lat="50.69762" lon="2.91024">
        <ele>29.6</ele>
        <time>2018-06-03T14:18:23Z</time>
      </trkpt>
      <trkpt lat="50.69762" lon="2.91024">
        <ele>29.8</ele>
        <time>2018-06-03T14:18:27Z</time>
      </trkpt>
      <trkpt lat="50.69762" lon="2.91024">
        <ele>29.6</ele>
        <time>2018-06-03T14:18:31Z</time>
      </trkpt>
      <trkpt lat="50.69762" lon="2.91024">
        <ele>29.6</ele>
        <time>2018-06-03T14:18:35Z</time>
      </trkpt>
      <trkpt lat="50.69762" lon="2.91024">
        <ele>29.8</ele>
        <time>2018-06-03T14:18:39Z</time>
      </trkpt>
      <trkpt lat="50.69762" lon="2.91024">
        <ele>30</ele>
        <time>2018-06-03T14:18:43Z</time>
      </trkpt>
      <trkpt lat="50.69762" lon="2.91024">
        <ele>30.4</ele>
        <time>2018-06-03T14:18:47Z</time>
      </trkpt>
      <trkpt lat="50.69762" lon="2.91024">
        <ele>29.8</ele>
        <time>2018-06-03T14:18:51Z</time>
      </trkpt>
      <trkpt lat="50.69762" lon="2.91024">
        <ele>29.8</ele>
        <time>2018-06-03T14:18:55Z</time>
      </trkpt>
      <trkpt lat="50.69762" lon="2.91024">
        <ele>30</ele>
        <time>2018-06-03T14:18:59Z</time>
      </trkpt>
      <trkpt lat="50.69762" lon="2.91024">
        <ele>30</ele>
        <time>2018-06-03T14:19:03Z</time>
      </trkpt>
      <trkpt lat="50.69762" lon="2.91024">
        <ele>29.8</ele>
        <time>2018-06-03T14:19:07Z</time>
      </trkpt>
      <trkpt lat="50.69762" lon="2.91024">
        <ele>29.8</ele>
        <time>2018-06-03T14:19:11Z</time>
      </trkpt>
      <trkpt lat="50.69762" lon="2.91024">
        <ele>30.2</ele>
        <time>2018-06-03T14:19:15Z</time>
      </trkpt>
      <trkpt lat="50.69762" lon="2.91024">
        <ele>30</ele>
        <time>2018-06-03T14:19:19Z</time>
      </trkpt>
      <trkpt lat="50.69762" lon="2.91024">
        <ele>30</ele>
        <time>2018-06-03T14:19:23Z</time>
      </trkpt>
      <trkpt lat="50.69762" lon="2.91024">
        <ele>30</ele>
        <time>2018-06-03T14:19:27Z</time>
      </trkpt>
      <trkpt lat="50.69762" lon="2.91024">
        <ele>29.8</ele>
        <time>2018-06-03T14:19:31Z</time>
      </trkpt>
      <trkpt lat="50.69762" lon="2.91024">
        <ele>29.8</ele>
        <time>2018-06-03T14:19:35Z</time>
      </trkpt>
      <trkpt lat="50.69762" lon="2.91024">
        <ele>30</ele>
        <time>2018-06-03T14:19:39Z</time>
      </trkpt>
      <trkpt lat="50.69762" lon="2.91024">
        <ele>29.8</ele>
        <time>2018-06-03T14:19:43Z</time>
      </trkpt>
      <trkpt lat="50.69762" lon="2.91024">
        <ele>29.8</ele>
        <time>2018-06-03T14:19:47Z</time>
      </trkpt>
      <trkpt lat="50.69762" lon="2.91024">
        <ele>30.2</ele>
        <time>2018-06-03T14:19:51Z</time>
      </trkpt>
      <trkpt lat="50.69762" lon="2.91024">
        <ele>30.2</ele>
        <time>2018-06-03T14:19:55Z</time>
      </trkpt>
      <trkpt lat="50.69762" lon="2.91024">
        <ele>30</ele>
        <time>2018-06-03T14:19:59Z</time>
      </trkpt>
      <trkpt lat="50.69762" lon="2.91024">
        <ele>30</ele>
        <time>2018-06-03T14:20:03Z</time>
      </trkpt>
      <trkpt lat="50.69762" lon="2.91024">
        <ele>30</ele>
        <time>2018-06-03T14:20:07Z</time>
      </trkpt>
      <trkpt lat="50.69763" lon="2.91025">
        <ele>30</ele>
        <time>2018-06-03T14:20:11Z</time>
      </trkpt>
      <trkpt lat="50.69767" lon="2.91027">
        <ele>30.6</ele>
        <time>2018-06-03T14:20:15Z</time>
      </trkpt>
      <trkpt lat="50.69773" lon="2.91031">
        <ele>30</ele>
        <time>2018-06-03T14:20:19Z</time>
      </trkpt>
      <trkpt lat="50.69782" lon="2.9104">
        <ele>30.6</ele>
        <time>2018-06-03T14:20:23Z</time>
      </trkpt>
      <trkpt lat="50.69792" lon="2.91047">
        <ele>31</ele>
        <time>2018-06-03T14:20:27Z</time>
      </trkpt>
      <trkpt lat="50.69804" lon="2.91055">
        <ele>31.2</ele>
        <time>2018-06-03T14:20:31Z</time>
      </trkpt>
      <trkpt lat="50.69813" lon="2.91062">
        <ele>30.6</ele>
        <time>2018-06-03T14:20:35Z</time>
      </trkpt>
      <trkpt lat="50.69822" lon="2.9107">
        <ele>30.6</ele>
        <time>2018-06-03T14:20:39Z</time>
      </trkpt>
      <trkpt lat="50.69829" lon="2.91077">
        <ele>30.8</ele>
        <time>2018-06-03T14:20:43Z</time>
      </trkpt>
      <trkpt lat="50.69829" lon="2.91077">
        <ele>30</ele>
        <time>2018-06-03T14:20:47Z</time>
      </trkpt>
      <trkpt lat="50.69829" lon="2.91077">
        <ele>30.6</ele>
        <time>2018-06-03T14:20:51Z</time>
      </trkpt>
      <trkpt lat="50.69829" lon="2.91077">
        <ele>30.2</ele>
        <time>2018-06-03T14:20:55Z</time>
      </trkpt>
      <trkpt lat="50.69829" lon="2.91077">
        <ele>30.6</ele>
        <time>2018-06-03T14:20:59Z</time>
      </trkpt>
      <trkpt lat="50.69829" lon="2.91077">
        <ele>30</ele>
        <time>2018-06-03T14:21:03Z</time>
      </trkpt>
      <trkpt lat="50.69829" lon="2.91077">
        <ele>30</ele>
        <time>2018-06-03T14:21:07Z</time>
      </trkpt>
      <trkpt lat="50.69829" lon="2.91077">
        <ele>30.6</ele>
        <time>2018-06-03T14:21:11Z</time>
      </trkpt>
      <trkpt lat="50.69829" lon="2.91077">
        <ele>30</ele>
        <time>2018-06-03T14:21:15Z</time>
      </trkpt>
      <trkpt lat="50.69829" lon="2.91077">
        <ele>30.4</ele>
        <time>2018-06-03T14:21:19Z</time>
      </trkpt>
      <trkpt lat="50.69829" lon="2.91077">
        <ele>30.4</ele>
        <time>2018-06-03T14:21:23Z</time>
      </trkpt>
      <trkpt lat="50.69829" lon="2.91077">
        <ele>30.6</ele>
        <time>2018-06-03T14:21:27Z</time>
      </trkpt>
      <trkpt lat="50.69829" lon="2.91077">
        <ele>31.2</ele>
        <time>2018-06-03T14:21:31Z</time>
      </trkpt>
      <trkpt lat="50.69829" lon="2.91077">
        <ele>30.8</ele>
        <time>2018-06-03T14:21:35Z</time>
      </trkpt>
      <trkpt lat="50.69829" lon="2.91077">
        <ele>30.8</ele>
        <time>2018-06-03T14:21:39Z</time>
      </trkpt>
      <trkpt lat="50.69829" lon="2.91077">
        <ele>30.6</ele>
        <time>2018-06-03T14:21:43Z</time>
      </trkpt>
      <trkpt lat="50.69829" lon="2.91077">
        <ele>30.4</ele>
        <time>2018-06-03T14:21:47Z</time>
      </trkpt>
      <trkpt lat="50.69829" lon="2.91077">
        <ele>31</ele>
        <time>2018-06-03T14:21:51Z</time>
      </trkpt>
      <trkpt lat="50.69829" lon="2.91077">
        <ele>31</ele>
        <time>2018-06-03T14:21:55Z</time>
      </trkpt>
      <trkpt lat="50.69829" lon="2.91077">
        <ele>30.4</ele>
        <time>2018-06-03T14:21:59Z</time>
      </trkpt>
      <trkpt lat="50.69829" lon="2.91077">
        <ele>30.8</ele>
        <time>2018-06-03T14:22:03Z</time>
      </trkpt>
      <trkpt lat="50.69829" lon="2.91077">
        <ele>30.4</ele>
        <time>2018-06-03T14:22:07Z</time>
      </trkpt>
      <trkpt lat="50.69829" lon="2.91077">
        <ele>30.6</ele>
        <time>2018-06-03T14:22:11Z</time>
      </trkpt>
      <trkpt lat="50.69829" lon="2.91077">
        <ele>30.6</ele>
        <time>2018-06-03T14:22:15Z</time>
      </trkpt>
      <trkpt lat="50.69829" lon="2.91077">
        <ele>30.4</ele>
        <time>2018-06-03T14:22:19Z</time>
      </trkpt>
      <trkpt lat="50.69829" lon="2.91077">
        <ele>30.4</ele>
        <time>2018-06-03T14:22:23Z</time>
      </trkpt>
      <trkpt lat="50.69829" lon="2.91077">
        <ele>31</ele>
        <time>2018-06-03T14:22:27Z</time>
      </trkpt>
      <trkpt lat="50.69829" lon="2.91077">
        <ele>31.2</ele>
        <time>2018-06-03T14:22:31Z</time>
      </trkpt>
      <trkpt lat="50.69829" lon="2.91077">
        <ele>31.2</ele>
        <time>2018-06-03T14:22:35Z</time>
      </trkpt>
      <trkpt lat="50.69829" lon="2.91077">
        <ele>31.2</ele>
        <time>2018-06-03T14:22:39Z</time>
      </trkpt>
      <trkpt lat="50.69829" lon="2.91077">
        <ele>31</ele>
        <time>2018-06-03T14:22:43Z</time>
      </trkpt>
      <trkpt lat="50.69829" lon="2.91077">
        <ele>30.6</ele>
        <time>2018-06-03T14:22:47Z</time>
      </trkpt>
      <trkpt lat="50.69829" lon="2.91077">
        <ele>30.8</ele>
        <time>2018-06-03T14:22:51Z</time>
      </trkpt>
      <trkpt lat="50.69829" lon="2.91077">
        <ele>30.8</ele>
        <time>2018-06-03T14:22:55Z</time>
      </trkpt>
      <trkpt lat="50.69829" lon="2.91077">
        <ele>30.6</ele>
        <time>2018-06-03T14:22:59Z</time>
      </trkpt>
      <trkpt lat="50.69829" lon="2.91077">
        <ele>30.6</ele>
        <time>2018-06-03T14:23:03Z</time>
      </trkpt>
      <trkpt lat="50.69829" lon="2.91077">
        <ele>30.8</ele>
        <time>2018-06-03T14:23:07Z</time>
      </trkpt>
      <trkpt lat="50.69829" lon="2.91077">
        <ele>30.6</ele>
        <time>2018-06-03T14:23:11Z</time>
      </trkpt>
      <trkpt lat="50.69829" lon="2.91077">
        <ele>30.8</ele>
        <time>2018-06-03T14:23:15Z</time>
      </trkpt>
      <trkpt lat="50.69829" lon="2.91077">
        <ele>30.8</ele>
        <time>2018-06-03T14:23:19Z</time>
      </trkpt>
      <trkpt lat="50.69829" lon="2.91077">
        <ele>31</ele>
        <time>2018-06-03T14:23:23Z</time>
      </trkpt>
      <trkpt lat="50.69829" lon="2.91077">
        <ele>31.2</ele>
        <time>2018-06-03T14:23:27Z</time>
      </trkpt>
      <trkpt lat="50.69829" lon="2.91077">
        <ele>30.8</ele>
        <time>2018-06-03T14:23:31Z</time>
      </trkpt>
      <trkpt lat="50.69829" lon="2.91077">
        <ele>31.2</ele>
        <time>2018-06-03T14:23:35Z</time>
      </trkpt>
      <trkpt lat="50.69829" lon="2.91077">
        <ele>30.8</ele>
        <time>2018-06-03T14:23:39Z</time>
      </trkpt>
      <trkpt lat="50.69829" lon="2.91077">
        <ele>30.8</ele>
        <time>2018-06-03T14:23:43Z</time>
      </trkpt>
      <trkpt lat="50.69829" lon="2.91077">
        <ele>30.6</ele>
        <time>2018-06-03T14:23:47Z</time>
      </trkpt>
      <trkpt lat="50.69829" lon="2.91077">
        <ele>30.8</ele>
        <time>2018-06-03T14:23:51Z</time>
      </trkpt>
      <trkpt lat="50.69829" lon="2.91077">
        <ele>30.6</ele>
        <time>2018-06-03T14:23:55Z</time>
      </trkpt>
      <trkpt lat="50.69829" lon="2.91077">
        <ele>30.6</ele>
        <time>2018-06-03T14:23:59Z</time>
      </trkpt>
      <trkpt lat="50.69829" lon="2.91077">
        <ele>30.6</ele>
        <time>2018-06-03T14:24:03Z</time>
      </trkpt>
      <trkpt lat="50.69829" lon="2.91077">
        <ele>30.6</ele>
        <time>2018-06-03T14:24:07Z</time>
      </trkpt>
      <trkpt lat="50.69829" lon="2.91077">
        <ele>30.6</ele>
        <time>2018-06-03T14:24:11Z</time>
      </trkpt>
      <trkpt lat="50.69829" lon="2.91077">
        <ele>30.6</ele>
        <time>2018-06-03T14:24:15Z</time>
      </trkpt>
      <trkpt lat="50.69829" lon="2.91077">
        <ele>30.6</ele>
        <time>2018-06-03T14:24:19Z</time>
      </trkpt>
      <trkpt lat="50.69829" lon="2.91077">
        <ele>30.6</ele>
        <time>2018-06-03T14:24:23Z</time>
      </trkpt>
      <trkpt lat="50.69829" lon="2.91077">
        <ele>30.8</ele>
        <time>2018-06-03T14:24:27Z</time>
      </trkpt>
      <trkpt lat="50.69829" lon="2.91077">
        <ele>30.6</ele>
        <time>2018-06-03T14:24:31Z</time>
      </trkpt>
      <trkpt lat="50.69829" lon="2.91077">
        <ele>30.6</ele>
        <time>2018-06-03T14:24:35Z</time>
      </trkpt>
      <trkpt lat="50.69829" lon="2.91077">
        <ele>30.8</ele>
        <time>2018-06-03T14:24:39Z</time>
      </trkpt>
      <trkpt lat="50.69829" lon="2.91077">
        <ele>30.4</ele>
        <time>2018-06-03T14:24:43Z</time>
      </trkpt>
      <trkpt lat="50.69829" lon="2.91077">
        <ele>30.8</ele>
        <time>2018-06-03T14:24:47Z</time>
      </trkpt>
      <trkpt lat="50.69829" lon="2.91077">
        <ele>30.6</ele>
        <time>2018-06-03T14:24:51Z</time>
      </trkpt>
      <trkpt lat="50.69829" lon="2.91077">
        <ele>30.8</ele>
        <time>2018-06-03T14:24:55Z</time>
      </trkpt>
      <trkpt lat="50.69829" lon="2.91077">
        <ele>30.6</ele>
        <time>2018-06-03T14:24:59Z</time>
      </trkpt>
      <trkpt lat="50.69829" lon="2.91077">
        <ele>30.6</ele>
        <time>2018-06-03T14:25:03Z</time>
      </trkpt>
      <trkpt lat="50.69829" lon="2.91077">
        <ele>30.6</ele>
        <time>2018-06-03T14:25:07Z</time>
      </trkpt>
      <trkpt lat="50.69829" lon="2.91077">
        <ele>30.6</ele>
        <time>2018-06-03T14:25:11Z</time>
      </trkpt>
      <trkpt lat="50.69829" lon="2.91077">
        <ele>30.8</ele>
        <time>2018-06-03T14:25:15Z</time>
      </trkpt>
      <trkpt lat="50.69829" lon="2.91077">
        <ele>30.8</ele>
        <time>2018-06-03T14:25:19Z</time>
      </trkpt>
      <trkpt lat="50.69829" lon="2.91077">
        <ele>30.4</ele>
        <time>2018-06-03T14:25:23Z</time>
      </trkpt>
      <trkpt lat="50.69829" lon="2.91077">
        <ele>31</ele>
        <time>2018-06-03T14:25:27Z</time>
      </trkpt>
      <trkpt lat="50.69829" lon="2.91077">
        <ele>30.6</ele>
        <time>2018-06-03T14:25:31Z</time>
      </trkpt>
      <trkpt lat="50.69829" lon="2.91077">
        <ele>30.4</ele>
        <time>2018-06-03T14:25:35Z</time>
      </trkpt>
      <trkpt lat="50.69829" lon="2.91077">
        <ele>30.4</ele>
        <time>2018-06-03T14:25:39Z</time>
      </trkpt>
      <trkpt lat="50.69829" lon="2.91077">
        <ele>30.8</ele>
        <time>2018-06-03T14:25:43Z</time>
      </trkpt>
      <trkpt lat="50.69829" lon="2.91077">
        <ele>30.8</ele>
        <time>2018-06-03T14:25:47Z</time>
      </trkpt>
      <trkpt lat="50.69829" lon="2.91077">
        <ele>30.6</ele>
        <time>2018-06-03T14:25:51Z</time>
      </trkpt>
      <trkpt lat="50.69829" lon="2.91077">
        <ele>30.4</ele>
        <time>2018-06-03T14:25:55Z</time>
      </trkpt>
      <trkpt lat="50.69829" lon="2.91077">
        <ele>30.4</ele>
        <time>2018-06-03T14:25:59Z</time>
      </trkpt>
      <trkpt lat="50.69829" lon="2.91077">
        <ele>30.4</ele>
        <time>2018-06-03T14:26:03Z</time>
      </trkpt>
      <trkpt lat="50.69829" lon="2.91077">
        <ele>30.4</ele>
        <time>2018-06-03T14:26:07Z</time>
      </trkpt>
      <trkpt lat="50.69829" lon="2.91077">
        <ele>30.4</ele>
        <time>2018-06-03T14:26:11Z</time>
      </trkpt>
      <trkpt lat="50.69829" lon="2.91077">
        <ele>30.2</ele>
        <time>2018-06-03T14:26:15Z</time>
      </trkpt>
      <trkpt lat="50.69829" lon="2.91077">
        <ele>30.2</ele>
        <time>2018-06-03T14:26:19Z</time>
      </trkpt>
      <trkpt lat="50.69829" lon="2.91077">
        <ele>30.4</ele>
        <time>2018-06-03T14:26:23Z</time>
      </trkpt>
      <trkpt lat="50.69829" lon="2.91077">
        <ele>30</ele>
        <time>2018-06-03T14:26:27Z</time>
      </trkpt>
      <trkpt lat="50.69829" lon="2.91077">
        <ele>29.8</ele>
        <time>2018-06-03T14:26:31Z</time>
      </trkpt>
      <trkpt lat="50.69829" lon="2.91077">
        <ele>30.2</ele>
        <time>2018-06-03T14:26:35Z</time>
      </trkpt>
      <trkpt lat="50.69829" lon="2.91077">
        <ele>30.6</ele>
        <time>2018-06-03T14:26:39Z</time>
      </trkpt>
      <trkpt lat="50.69829" lon="2.91077">
        <ele>30.4</ele>
        <time>2018-06-03T14:26:43Z</time>
      </trkpt>
      <trkpt lat="50.69829" lon="2.91077">
        <ele>30.4</ele>
        <time>2018-06-03T14:26:47Z</time>
      </trkpt>
      <trkpt lat="50.69829" lon="2.91077">
        <ele>30.4</ele>
        <time>2018-06-03T14:26:51Z</time>
      </trkpt>
      <trkpt lat="50.69829" lon="2.91077">
        <ele>30.2</ele>
        <time>2018-06-03T14:26:55Z</time>
      </trkpt>
      <trkpt lat="50.69829" lon="2.91077">
        <ele>30.4</ele>
        <time>2018-06-03T14:26:59Z</time>
      </trkpt>
      <trkpt lat="50.69829" lon="2.91077">
        <ele>30.4</ele>
        <time>2018-06-03T14:27:03Z</time>
      </trkpt>
      <trkpt lat="50.69829" lon="2.91077">
        <ele>30.8</ele>
        <time>2018-06-03T14:27:07Z</time>
      </trkpt>
      <trkpt lat="50.69829" lon="2.91077">
        <ele>30.6</ele>
        <time>2018-06-03T14:27:11Z</time>
      </trkpt>
      <trkpt lat="50.69829" lon="2.91077">
        <ele>30.4</ele>
        <time>2018-06-03T14:27:15Z</time>
      </trkpt>
      <trkpt lat="50.69829" lon="2.91077">
        <ele>30.4</ele>
        <time>2018-06-03T14:27:19Z</time>
      </trkpt>
      <trkpt lat="50.69829" lon="2.91077">
        <ele>30.4</ele>
        <time>2018-06-03T14:27:23Z</time>
      </trkpt>
      <trkpt lat="50.69829" lon="2.91077">
        <ele>30.4</ele>
        <time>2018-06-03T14:27:27Z</time>
      </trkpt>
      <trkpt lat="50.69829" lon="2.91077">
        <ele>30.4</ele>
        <time>2018-06-03T14:27:31Z</time>
      </trkpt>
      <trkpt lat="50.69829" lon="2.91077">
        <ele>30.4</ele>
        <time>2018-06-03T14:27:35Z</time>
      </trkpt>
      <trkpt lat="50.69829" lon="2.91077">
        <ele>30.4</ele>
        <time>2018-06-03T14:27:39Z</time>
      </trkpt>
      <trkpt lat="50.69829" lon="2.91077">
        <ele>30.6</ele>
        <time>2018-06-03T14:27:43Z</time>
      </trkpt>
      <trkpt lat="50.69829" lon="2.91077">
        <ele>30.4</ele>
        <time>2018-06-03T14:27:47Z</time>
      </trkpt>
      <trkpt lat="50.69829" lon="2.91077">
        <ele>30.6</ele>
        <time>2018-06-03T14:27:51Z</time>
      </trkpt>
      <trkpt lat="50.69829" lon="2.91077">
        <ele>30.6</ele>
        <time>2018-06-03T14:27:55Z</time>
      </trkpt>
      <trkpt lat="50.69829" lon="2.91077">
        <ele>30.8</ele>
        <time>2018-06-03T14:27:59Z</time>
      </trkpt>
      <trkpt lat="50.69829" lon="2.91077">
        <ele>30.4</ele>
        <time>2018-06-03T14:28:03Z</time>
      </trkpt>
      <trkpt lat="50.69829" lon="2.91077">
        <ele>30.6</ele>
        <time>2018-06-03T14:28:07Z</time>
      </trkpt>
      <trkpt lat="50.69829" lon="2.91077">
        <ele>30.6</ele>
        <time>2018-06-03T14:28:11Z</time>
      </trkpt>
      <trkpt lat="50.69829" lon="2.91077">
        <ele>30.6</ele>
        <time>2018-06-03T14:28:15Z</time>
      </trkpt>
      <trkpt lat="50.69829" lon="2.91077">
        <ele>30.4</ele>
        <time>2018-06-03T14:28:19Z</time>
      </trkpt>
      <trkpt lat="50.69829" lon="2.91077">
        <ele>30.4</ele>
        <time>2018-06-03T14:28:23Z</time>
      </trkpt>
      <trkpt lat="50.69829" lon="2.91077">
        <ele>30.4</ele>
        <time>2018-06-03T14:28:27Z</time>
      </trkpt>
      <trkpt lat="50.69829" lon="2.91077">
        <ele>30.6</ele>
        <time>2018-06-03T14:28:31Z</time>
      </trkpt>
      <trkpt lat="50.69829" lon="2.91077">
        <ele>30.4</ele>
        <time>2018-06-03T14:28:35Z</time>
      </trkpt>
      <trkpt lat="50.69829" lon="2.91077">
        <ele>30.6</ele>
        <time>2018-06-03T14:28:39Z</time>
      </trkpt>
      <trkpt lat="50.69829" lon="2.91077">
        <ele>30.6</ele>
        <time>2018-06-03T14:28:43Z</time>
      </trkpt>
      <trkpt lat="50.69829" lon="2.91077">
        <ele>30.8</ele>
        <time>2018-06-03T14:28:47Z</time>
      </trkpt>
      <trkpt lat="50.69829" lon="2.91077">
        <ele>30.8</ele>
        <time>2018-06-03T14:28:51Z</time>
      </trkpt>
      <trkpt lat="50.69829" lon="2.91077">
        <ele>31</ele>
        <time>2018-06-03T14:28:55Z</time>
      </trkpt>
      <trkpt lat="50.69829" lon="2.91077">
        <ele>30.8</ele>
        <time>2018-06-03T14:28:59Z</time>
      </trkpt>
      <trkpt lat="50.69829" lon="2.91077">
        <ele>30.6</ele>
        <time>2018-06-03T14:29:03Z</time>
      </trkpt>
      <trkpt lat="50.69829" lon="2.91077">
        <ele>31</ele>
        <time>2018-06-03T14:29:07Z</time>
      </trkpt>
      <trkpt lat="50.69829" lon="2.91077">
        <ele>30.6</ele>
        <time>2018-06-03T14:29:11Z</time>
      </trkpt>
      <trkpt lat="50.69829" lon="2.91077">
        <ele>30.6</ele>
        <time>2018-06-03T14:29:15Z</time>
      </trkpt>
      <trkpt lat="50.69829" lon="2.91077">
        <ele>30.8</ele>
        <time>2018-06-03T14:29:19Z</time>
      </trkpt>
      <trkpt lat="50.69829" lon="2.91077">
        <ele>30.8</ele>
        <time>2018-06-03T14:29:23Z</time>
      </trkpt>
      <trkpt lat="50.69829" lon="2.91077">
        <ele>31</ele>
        <time>2018-06-03T14:29:27Z</time>
      </trkpt>
      <trkpt lat="50.69829" lon="2.91077">
        <ele>31</ele>
        <time>2018-06-03T14:29:31Z</time>
      </trkpt>
      <trkpt lat="50.69829" lon="2.91077">
        <ele>31.2</ele>
        <time>2018-06-03T14:29:35Z</time>
      </trkpt>
      <trkpt lat="50.69829" lon="2.91077">
        <ele>31.2</ele>
        <time>2018-06-03T14:29:39Z</time>
      </trkpt>
      <trkpt lat="50.69829" lon="2.91077">
        <ele>31.2</ele>
        <time>2018-06-03T14:29:43Z</time>
      </trkpt>
      <trkpt lat="50.69829" lon="2.91077">
        <ele>30.8</ele>
        <time>2018-06-03T14:29:47Z</time>
      </trkpt>
      <trkpt lat="50.69829" lon="2.91077">
        <ele>31.2</ele>
        <time>2018-06-03T14:29:51Z</time>
      </trkpt>
      <trkpt lat="50.69829" lon="2.91077">
        <ele>31</ele>
        <time>2018-06-03T14:29:55Z</time>
      </trkpt>
      <trkpt lat="50.69829" lon="2.91077">
        <ele>31.2</ele>
        <time>2018-06-03T14:29:59Z</time>
      </trkpt>
      <trkpt lat="50.69829" lon="2.91077">
        <ele>31</ele>
        <time>2018-06-03T14:30:03Z</time>
      </trkpt>
      <trkpt lat="50.69829" lon="2.91077">
        <ele>30.8</ele>
        <time>2018-06-03T14:30:07Z</time>
      </trkpt>
      <trkpt lat="50.69829" lon="2.91077">
        <ele>31</ele>
        <time>2018-06-03T14:30:11Z</time>
      </trkpt>
      <trkpt lat="50.69829" lon="2.91077">
        <ele>31</ele>
        <time>2018-06-03T14:30:15Z</time>
      </trkpt>
      <trkpt lat="50.69829" lon="2.91077">
        <ele>30.8</ele>
        <time>2018-06-03T14:30:19Z</time>
      </trkpt>
      <trkpt lat="50.69829" lon="2.91077">
        <ele>30.8</ele>
        <time>2018-06-03T14:30:23Z</time>
      </trkpt>
      <trkpt lat="50.69829" lon="2.91077">
        <ele>31</ele>
        <time>2018-06-03T14:30:27Z</time>
      </trkpt>
      <trkpt lat="50.69829" lon="2.91077">
        <ele>30.8</ele>
        <time>2018-06-03T14:30:31Z</time>
      </trkpt>
      <trkpt lat="50.69829" lon="2.91077">
        <ele>30.8</ele>
        <time>2018-06-03T14:30:35Z</time>
      </trkpt>
      <trkpt lat="50.69829" lon="2.91077">
        <ele>31</ele>
        <time>2018-06-03T14:30:39Z</time>
      </trkpt>
      <trkpt lat="50.69829" lon="2.91077">
        <ele>30.8</ele>
        <time>2018-06-03T14:30:43Z</time>
      </trkpt>
      <trkpt lat="50.69829" lon="2.91077">
        <ele>31.2</ele>
        <time>2018-06-03T14:30:47Z</time>
      </trkpt>
      <trkpt lat="50.69829" lon="2.91077">
        <ele>31.2</ele>
        <time>2018-06-03T14:30:51Z</time>
      </trkpt>
      <trkpt lat="50.69829" lon="2.91077">
        <ele>30.8</ele>
        <time>2018-06-03T14:30:55Z</time>
      </trkpt>
      <trkpt lat="50.69829" lon="2.91077">
        <ele>31</ele>
        <time>2018-06-03T14:30:59Z</time>
      </trkpt>
      <trkpt lat="50.69829" lon="2.91077">
        <ele>31.4</ele>
        <time>2018-06-03T14:31:03Z</time>
      </trkpt>
      <trkpt lat="50.69829" lon="2.91077">
        <ele>31.8</ele>
        <time>2018-06-03T14:31:07Z</time>
      </trkpt>
      <trkpt lat="50.69829" lon="2.91077">
        <ele>31.6</ele>
        <time>2018-06-03T14:31:11Z</time>
      </trkpt>
      <trkpt lat="50.69829" lon="2.91077">
        <ele>31.4</ele>
        <time>2018-06-03T14:31:15Z</time>
      </trkpt>
      <trkpt lat="50.69829" lon="2.91077">
        <ele>31.2</ele>
        <time>2018-06-03T14:31:19Z</time>
      </trkpt>
      <trkpt lat="50.69829" lon="2.91077">
        <ele>31.8</ele>
        <time>2018-06-03T14:31:23Z</time>
      </trkpt>
      <trkpt lat="50.69829" lon="2.91077">
        <ele>31.2</ele>
        <time>2018-06-03T14:31:27Z</time>
      </trkpt>
      <trkpt lat="50.69829" lon="2.91077">
        <ele>31.4</ele>
        <time>2018-06-03T14:31:31Z</time>
      </trkpt>
      <trkpt lat="50.69829" lon="2.91077">
        <ele>31.4</ele>
        <time>2018-06-03T14:31:35Z</time>
      </trkpt>
      <trkpt lat="50.69829" lon="2.91077">
        <ele>31.8</ele>
        <time>2018-06-03T14:31:39Z</time>
      </trkpt>
      <trkpt lat="50.69829" lon="2.91077">
        <ele>31.4</ele>
        <time>2018-06-03T14:31:43Z</time>
      </trkpt>
      <trkpt lat="50.69829" lon="2.91077">
        <ele>31.4</ele>
        <time>2018-06-03T14:31:47Z</time>
      </trkpt>
      <trkpt lat="50.69829" lon="2.91077">
        <ele>31.4</ele>
        <time>2018-06-03T14:31:51Z</time>
      </trkpt>
      <trkpt lat="50.69829" lon="2.91077">
        <ele>31.2</ele>
        <time>2018-06-03T14:31:55Z</time>
      </trkpt>
      <trkpt lat="50.69829" lon="2.91077">
        <ele>31.4</ele>
        <time>2018-06-03T14:31:59Z</time>
      </trkpt>
      <trkpt lat="50.69829" lon="2.91077">
        <ele>31.2</ele>
        <time>2018-06-03T14:32:03Z</time>
      </trkpt>
      <trkpt lat="50.69829" lon="2.91077">
        <ele>31.4</ele>
        <time>2018-06-03T14:32:07Z</time>
      </trkpt>
      <trkpt lat="50.69829" lon="2.91077">
        <ele>32.2</ele>
        <time>2018-06-03T14:32:11Z</time>
      </trkpt>
      <trkpt lat="50.69829" lon="2.91077">
        <ele>31.8</ele>
        <time>2018-06-03T14:32:15Z</time>
      </trkpt>
      <trkpt lat="50.69829" lon="2.91077">
        <ele>32.8</ele>
        <time>2018-06-03T14:32:19Z</time>
      </trkpt>
      <trkpt lat="50.69829" lon="2.91077">
        <ele>32.4</ele>
        <time>2018-06-03T14:32:23Z</time>
      </trkpt>
      <trkpt lat="50.69829" lon="2.91077">
        <ele>32.2</ele>
        <time>2018-06-03T14:32:27Z</time>
      </trkpt>
      <trkpt lat="50.69829" lon="2.91077">
        <ele>32</ele>
        <time>2018-06-03T14:32:31Z</time>
      </trkpt>
      <trkpt lat="50.69829" lon="2.91077">
        <ele>32.2</ele>
        <time>2018-06-03T14:32:35Z</time>
      </trkpt>
      <trkpt lat="50.69829" lon="2.91077">
        <ele>32.2</ele>
        <time>2018-06-03T14:32:39Z</time>
      </trkpt>
      <trkpt lat="50.69829" lon="2.91077">
        <ele>32</ele>
        <time>2018-06-03T14:32:43Z</time>
      </trkpt>
      <trkpt lat="50.69829" lon="2.91077">
        <ele>32.2</ele>
        <time>2018-06-03T14:32:47Z</time>
      </trkpt>
      <trkpt lat="50.69829" lon="2.91077">
        <ele>32</ele>
        <time>2018-06-03T14:32:51Z</time>
      </trkpt>
      <trkpt lat="50.69829" lon="2.91077">
        <ele>31.8</ele>
        <time>2018-06-03T14:32:55Z</time>
      </trkpt>
      <trkpt lat="50.69829" lon="2.91077">
        <ele>31.6</ele>
        <time>2018-06-03T14:32:59Z</time>
      </trkpt>
      <trkpt lat="50.69829" lon="2.91077">
        <ele>31.2</ele>
        <time>2018-06-03T14:33:03Z</time>
      </trkpt>
      <trkpt lat="50.69829" lon="2.91077">
        <ele>31.4</ele>
        <time>2018-06-03T14:33:07Z</time>
      </trkpt>
      <trkpt lat="50.69829" lon="2.91077">
        <ele>31.4</ele>
        <time>2018-06-03T14:33:11Z</time>
      </trkpt>
      <trkpt lat="50.69829" lon="2.91077">
        <ele>31.4</ele>
        <time>2018-06-03T14:33:15Z</time>
      </trkpt>
      <trkpt lat="50.69829" lon="2.91077">
        <ele>31.4</ele>
        <time>2018-06-03T14:33:19Z</time>
      </trkpt>
      <trkpt lat="50.69829" lon="2.91077">
        <ele>31.8</ele>
        <time>2018-06-03T14:33:23Z</time>
      </trkpt>
      <trkpt lat="50.69829" lon="2.91077">
        <ele>31.6</ele>
        <time>2018-06-03T14:33:27Z</time>
      </trkpt>
      <trkpt lat="50.69829" lon="2.91077">
        <ele>31.4</ele>
        <time>2018-06-03T14:33:31Z</time>
      </trkpt>
      <trkpt lat="50.69829" lon="2.91077">
        <ele>31.4</ele>
        <time>2018-06-03T14:33:35Z</time>
      </trkpt>
      <trkpt lat="50.69829" lon="2.91077">
        <ele>31.4</ele>
        <time>2018-06-03T14:33:39Z</time>
      </trkpt>
      <trkpt lat="50.69829" lon="2.91077">
        <ele>31.8</ele>
        <time>2018-06-03T14:33:43Z</time>
      </trkpt>
      <trkpt lat="50.69829" lon="2.91077">
        <ele>31.8</ele>
        <time>2018-06-03T14:33:47Z</time>
      </trkpt>
      <trkpt lat="50.69829" lon="2.91077">
        <ele>31.8</ele>
        <time>2018-06-03T14:33:51Z</time>
      </trkpt>
      <trkpt lat="50.69829" lon="2.91077">
        <ele>31.8</ele>
        <time>2018-06-03T14:33:55Z</time>
      </trkpt>
      <trkpt lat="50.69829" lon="2.91077">
        <ele>31.8</ele>
        <time>2018-06-03T14:33:59Z</time>
      </trkpt>
      <trkpt lat="50.69829" lon="2.91077">
        <ele>31.6</ele>
        <time>2018-06-03T14:34:03Z</time>
      </trkpt>
      <trkpt lat="50.69829" lon="2.91077">
        <ele>31.6</ele>
        <time>2018-06-03T14:34:07Z</time>
      </trkpt>
      <trkpt lat="50.69829" lon="2.91077">
        <ele>32</ele>
        <time>2018-06-03T14:34:11Z</time>
      </trkpt>
      <trkpt lat="50.69829" lon="2.91077">
        <ele>31.8</ele>
        <time>2018-06-03T14:34:15Z</time>
      </trkpt>
      <trkpt lat="50.69829" lon="2.91077">
        <ele>31.8</ele>
        <time>2018-06-03T14:34:19Z</time>
      </trkpt>
      <trkpt lat="50.69829" lon="2.91077">
        <ele>31.8</ele>
        <time>2018-06-03T14:34:23Z</time>
      </trkpt>
      <trkpt lat="50.69829" lon="2.91077">
        <ele>31.6</ele>
        <time>2018-06-03T14:34:27Z</time>
      </trkpt>
      <trkpt lat="50.69829" lon="2.91077">
        <ele>31.8</ele>
        <time>2018-06-03T14:34:31Z</time>
      </trkpt>
      <trkpt lat="50.69829" lon="2.91077">
        <ele>31.8</ele>
        <time>2018-06-03T14:34:35Z</time>
      </trkpt>
      <trkpt lat="50.69829" lon="2.91077">
        <ele>32.2</ele>
        <time>2018-06-03T14:34:39Z</time>
      </trkpt>
      <trkpt lat="50.69829" lon="2.91077">
        <ele>31.8</ele>
        <time>2018-06-03T14:34:43Z</time>
      </trkpt>
      <trkpt lat="50.69829" lon="2.91077">
        <ele>31.6</ele>
        <time>2018-06-03T14:34:47Z</time>
      </trkpt>
      <trkpt lat="50.69829" lon="2.91077">
        <ele>31.8</ele>
        <time>2018-06-03T14:34:51Z</time>
      </trkpt>
      <trkpt lat="50.69829" lon="2.91077">
        <ele>32</ele>
        <time>2018-06-03T14:34:55Z</time>
      </trkpt>
      <trkpt lat="50.69829" lon="2.91077">
        <ele>31.4</ele>
        <time>2018-06-03T14:34:59Z</time>
      </trkpt>
      <trkpt lat="50.69829" lon="2.91077">
        <ele>32</ele>
        <time>2018-06-03T14:35:03Z</time>
      </trkpt>
      <trkpt lat="50.69829" lon="2.91077">
        <ele>32.2</ele>
        <time>2018-06-03T14:35:07Z</time>
      </trkpt>
      <trkpt lat="50.69829" lon="2.91077">
        <ele>32</ele>
        <time>2018-06-03T14:35:11Z</time>
      </trkpt>
      <trkpt lat="50.69829" lon="2.91077">
        <ele>32.2</ele>
        <time>2018-06-03T14:35:15Z</time>
      </trkpt>
      <trkpt lat="50.69829" lon="2.91077">
        <ele>31.8</ele>
        <time>2018-06-03T14:35:19Z</time>
      </trkpt>
      <trkpt lat="50.69829" lon="2.91077">
        <ele>32.2</ele>
        <time>2018-06-03T14:35:23Z</time>
      </trkpt>
      <trkpt lat="50.69829" lon="2.91077">
        <ele>32.4</ele>
        <time>2018-06-03T14:35:27Z</time>
      </trkpt>
      <trkpt lat="50.69829" lon="2.91077">
        <ele>32.2</ele>
        <time>2018-06-03T14:35:31Z</time>
      </trkpt>
      <trkpt lat="50.69829" lon="2.91077">
        <ele>32.2</ele>
        <time>2018-06-03T14:35:35Z</time>
      </trkpt>
      <trkpt lat="50.69829" lon="2.91077">
        <ele>32.2</ele>
        <time>2018-06-03T14:35:39Z</time>
      </trkpt>
      <trkpt lat="50.69829" lon="2.91077">
        <ele>32.2</ele>
        <time>2018-06-03T14:35:43Z</time>
      </trkpt>
      <trkpt lat="50.69829" lon="2.91077">
        <ele>32</ele>
        <time>2018-06-03T14:35:47Z</time>
      </trkpt>
      <trkpt lat="50.69829" lon="2.91077">
        <ele>32</ele>
        <time>2018-06-03T14:35:51Z</time>
      </trkpt>
      <trkpt lat="50.69829" lon="2.91077">
        <ele>32.2</ele>
        <time>2018-06-03T14:35:55Z</time>
      </trkpt>
      <trkpt lat="50.69829" lon="2.91077">
        <ele>31.8</ele>
        <time>2018-06-03T14:35:59Z</time>
      </trkpt>
      <trkpt lat="50.69829" lon="2.91077">
        <ele>32</ele>
        <time>2018-06-03T14:36:03Z</time>
      </trkpt>
      <trkpt lat="50.69829" lon="2.91077">
        <ele>32</ele>
        <time>2018-06-03T14:36:07Z</time>
      </trkpt>
      <trkpt lat="50.69829" lon="2.91077">
        <ele>32.2</ele>
        <time>2018-06-03T14:36:11Z</time>
      </trkpt>
      <trkpt lat="50.69829" lon="2.91077">
        <ele>32</ele>
        <time>2018-06-03T14:36:15Z</time>
      </trkpt>
      <trkpt lat="50.69829" lon="2.91077">
        <ele>32</ele>
        <time>2018-06-03T14:36:19Z</time>
      </trkpt>
      <trkpt lat="50.69829" lon="2.91077">
        <ele>32.2</ele>
        <time>2018-06-03T14:36:23Z</time>
      </trkpt>
      <trkpt lat="50.69829" lon="2.91077">
        <ele>32</ele>
        <time>2018-06-03T14:36:27Z</time>
      </trkpt>
      <trkpt lat="50.69829" lon="2.91077">
        <ele>32</ele>
        <time>2018-06-03T14:36:31Z</time>
      </trkpt>
      <trkpt lat="50.69829" lon="2.91077">
        <ele>31.8</ele>
        <time>2018-06-03T14:36:35Z</time>
      </trkpt>
      <trkpt lat="50.69829" lon="2.91077">
        <ele>32</ele>
        <time>2018-06-03T14:36:39Z</time>
      </trkpt>
      <trkpt lat="50.69829" lon="2.91077">
        <ele>31.8</ele>
        <time>2018-06-03T14:36:43Z</time>
      </trkpt>
      <trkpt lat="50.69829" lon="2.91077">
        <ele>32.2</ele>
        <time>2018-06-03T14:36:47Z</time>
      </trkpt>
      <trkpt lat="50.69829" lon="2.91077">
        <ele>32</ele>
        <time>2018-06-03T14:36:51Z</time>
      </trkpt>
      <trkpt lat="50.69829" lon="2.91077">
        <ele>32</ele>
        <time>2018-06-03T14:36:55Z</time>
      </trkpt>
      <trkpt lat="50.69829" lon="2.91077">
        <ele>32.4</ele>
        <time>2018-06-03T14:36:59Z</time>
      </trkpt>
      <trkpt lat="50.69829" lon="2.91077">
        <ele>32.2</ele>
        <time>2018-06-03T14:37:03Z</time>
      </trkpt>
      <trkpt lat="50.69829" lon="2.91077">
        <ele>32.2</ele>
        <time>2018-06-03T14:37:07Z</time>
      </trkpt>
      <trkpt lat="50.69829" lon="2.91077">
        <ele>32.2</ele>
        <time>2018-06-03T14:37:11Z</time>
      </trkpt>
      <trkpt lat="50.69829" lon="2.91077">
        <ele>32</ele>
        <time>2018-06-03T14:37:15Z</time>
      </trkpt>
      <trkpt lat="50.69829" lon="2.91077">
        <ele>32.6</ele>
        <time>2018-06-03T14:37:19Z</time>
      </trkpt>
      <trkpt lat="50.69829" lon="2.91077">
        <ele>32</ele>
        <time>2018-06-03T14:37:23Z</time>
      </trkpt>
      <trkpt lat="50.69829" lon="2.91077">
        <ele>32</ele>
        <time>2018-06-03T14:37:27Z</time>
      </trkpt>
      <trkpt lat="50.69829" lon="2.91077">
        <ele>32</ele>
        <time>2018-06-03T14:37:31Z</time>
      </trkpt>
      <trkpt lat="50.69829" lon="2.91077">
        <ele>32.2</ele>
        <time>2018-06-03T14:37:35Z</time>
      </trkpt>
      <trkpt lat="50.69829" lon="2.91077">
        <ele>32</ele>
        <time>2018-06-03T14:37:39Z</time>
      </trkpt>
      <trkpt lat="50.69829" lon="2.91077">
        <ele>32.2</ele>
        <time>2018-06-03T14:37:43Z</time>
      </trkpt>
      <trkpt lat="50.69829" lon="2.91077">
        <ele>32.2</ele>
        <time>2018-06-03T14:37:47Z</time>
      </trkpt>
      <trkpt lat="50.69829" lon="2.91077">
        <ele>32.2</ele>
        <time>2018-06-03T14:37:51Z</time>
      </trkpt>
      <trkpt lat="50.69829" lon="2.91077">
        <ele>32</ele>
        <time>2018-06-03T14:37:55Z</time>
      </trkpt>
      <trkpt lat="50.69829" lon="2.91077">
        <ele>32.2</ele>
        <time>2018-06-03T14:37:59Z</time>
      </trkpt>
      <trkpt lat="50.69829" lon="2.91077">
        <ele>32.2</ele>
        <time>2018-06-03T14:38:03Z</time>
      </trkpt>
      <trkpt lat="50.69829" lon="2.91077">
        <ele>32.2</ele>
        <time>2018-06-03T14:38:07Z</time>
      </trkpt>
      <trkpt lat="50.69829" lon="2.91077">
        <ele>32.2</ele>
        <time>2018-06-03T14:38:11Z</time>
      </trkpt>
      <trkpt lat="50.69829" lon="2.91077">
        <ele>32.4</ele>
        <time>2018-06-03T14:38:15Z</time>
      </trkpt>
      <trkpt lat="50.69829" lon="2.91077">
        <ele>31.8</ele>
        <time>2018-06-03T14:38:19Z</time>
      </trkpt>
      <trkpt lat="50.69829" lon="2.91077">
        <ele>32.2</ele>
        <time>2018-06-03T14:38:23Z</time>
      </trkpt>
      <trkpt lat="50.69829" lon="2.91077">
        <ele>32.6</ele>
        <time>2018-06-03T14:38:27Z</time>
      </trkpt>
      <trkpt lat="50.69829" lon="2.91077">
        <ele>32.6</ele>
        <time>2018-06-03T14:38:31Z</time>
      </trkpt>
      <trkpt lat="50.69829" lon="2.91077">
        <ele>32.4</ele>
        <time>2018-06-03T14:38:35Z</time>
      </trkpt>
      <trkpt lat="50.69829" lon="2.91077">
        <ele>32.2</ele>
        <time>2018-06-03T14:38:39Z</time>
      </trkpt>
      <trkpt lat="50.69829" lon="2.91077">
        <ele>32.4</ele>
        <time>2018-06-03T14:38:43Z</time>
      </trkpt>
      <trkpt lat="50.69829" lon="2.91077">
        <ele>32.4</ele>
        <time>2018-06-03T14:38:47Z</time>
      </trkpt>
      <trkpt lat="50.69829" lon="2.91077">
        <ele>32.8</ele>
        <time>2018-06-03T14:38:51Z</time>
      </trkpt>
      <trkpt lat="50.69829" lon="2.91077">
        <ele>32.4</ele>
        <time>2018-06-03T14:38:55Z</time>
      </trkpt>
      <trkpt lat="50.69829" lon="2.91077">
        <ele>32.2</ele>
        <time>2018-06-03T14:38:59Z</time>
      </trkpt>
      <trkpt lat="50.69829" lon="2.91077">
        <ele>32.6</ele>
        <time>2018-06-03T14:39:03Z</time>
      </trkpt>
      <trkpt lat="50.69829" lon="2.91077">
        <ele>32.2</ele>
        <time>2018-06-03T14:39:07Z</time>
      </trkpt>
      <trkpt lat="50.69829" lon="2.91077">
        <ele>32.2</ele>
        <time>2018-06-03T14:39:11Z</time>
      </trkpt>
      <trkpt lat="50.69829" lon="2.91077">
        <ele>32.4</ele>
        <time>2018-06-03T14:39:15Z</time>
      </trkpt>
      <trkpt lat="50.69829" lon="2.91077">
        <ele>32.6</ele>
        <time>2018-06-03T14:39:19Z</time>
      </trkpt>
      <trkpt lat="50.69829" lon="2.91077">
        <ele>32.8</ele>
        <time>2018-06-03T14:39:23Z</time>
      </trkpt>
      <trkpt lat="50.69829" lon="2.91077">
        <ele>32.4</ele>
        <time>2018-06-03T14:39:27Z</time>
      </trkpt>
      <trkpt lat="50.69829" lon="2.91077">
        <ele>32.4</ele>
        <time>2018-06-03T14:39:31Z</time>
      </trkpt>
      <trkpt lat="50.69829" lon="2.91077">
        <ele>32.4</ele>
        <time>2018-06-03T14:39:35Z</time>
      </trkpt>
      <trkpt lat="50.69829" lon="2.91077">
        <ele>32.4</ele>
        <time>2018-06-03T14:39:39Z</time>
      </trkpt>
      <trkpt lat="50.69829" lon="2.91077">
        <ele>32.2</ele>
        <time>2018-06-03T14:39:43Z</time>
      </trkpt>
      <trkpt lat="50.69829" lon="2.91077">
        <ele>32.2</ele>
        <time>2018-06-03T14:39:47Z</time>
      </trkpt>
      <trkpt lat="50.69829" lon="2.91077">
        <ele>32.8</ele>
        <time>2018-06-03T14:39:51Z</time>
      </trkpt>
      <trkpt lat="50.69829" lon="2.91077">
        <ele>32.2</ele>
        <time>2018-06-03T14:39:55Z</time>
      </trkpt>
      <trkpt lat="50.69829" lon="2.91077">
        <ele>32.4</ele>
        <time>2018-06-03T14:39:59Z</time>
      </trkpt>
      <trkpt lat="50.69829" lon="2.91077">
        <ele>32.6</ele>
        <time>2018-06-03T14:40:03Z</time>
      </trkpt>
      <trkpt lat="50.69829" lon="2.91077">
        <ele>32.6</ele>
        <time>2018-06-03T14:40:07Z</time>
      </trkpt>
      <trkpt lat="50.69829" lon="2.91077">
        <ele>32.2</ele>
        <time>2018-06-03T14:40:11Z</time>
      </trkpt>
      <trkpt lat="50.69829" lon="2.91077">
        <ele>31.8</ele>
        <time>2018-06-03T14:40:15Z</time>
      </trkpt>
      <trkpt lat="50.69829" lon="2.91077">
        <ele>31.8</ele>
        <time>2018-06-03T14:40:19Z</time>
      </trkpt>
      <trkpt lat="50.69829" lon="2.91077">
        <ele>32</ele>
        <time>2018-06-03T14:40:23Z</time>
      </trkpt>
      <trkpt lat="50.69829" lon="2.91077">
        <ele>32.2</ele>
        <time>2018-06-03T14:40:27Z</time>
      </trkpt>
      <trkpt lat="50.69829" lon="2.91077">
        <ele>32.2</ele>
        <time>2018-06-03T14:40:31Z</time>
      </trkpt>
      <trkpt lat="50.69829" lon="2.91077">
        <ele>32.2</ele>
        <time>2018-06-03T14:40:35Z</time>
      </trkpt>
      <trkpt lat="50.69829" lon="2.91077">
        <ele>32.2</ele>
        <time>2018-06-03T14:40:39Z</time>
      </trkpt>
      <trkpt lat="50.69829" lon="2.91077">
        <ele>32.4</ele>
        <time>2018-06-03T14:40:43Z</time>
      </trkpt>
      <trkpt lat="50.69829" lon="2.91077">
        <ele>32.2</ele>
        <time>2018-06-03T14:40:47Z</time>
      </trkpt>
      <trkpt lat="50.69829" lon="2.91077">
        <ele>32.2</ele>
        <time>2018-06-03T14:40:51Z</time>
      </trkpt>
      <trkpt lat="50.69829" lon="2.91077">
        <ele>32.4</ele>
        <time>2018-06-03T14:40:55Z</time>
      </trkpt>
      <trkpt lat="50.69829" lon="2.91077">
        <ele>32.2</ele>
        <time>2018-06-03T14:40:59Z</time>
      </trkpt>
      <trkpt lat="50.69829" lon="2.91077">
        <ele>32.2</ele>
        <time>2018-06-03T14:41:03Z</time>
      </trkpt>
      <trkpt lat="50.69829" lon="2.91077">
        <ele>32.2</ele>
        <time>2018-06-03T14:41:07Z</time>
      </trkpt>
      <trkpt lat="50.69829" lon="2.91077">
        <ele>32.2</ele>
        <time>2018-06-03T14:41:11Z</time>
      </trkpt>
      <trkpt lat="50.69829" lon="2.91077">
        <ele>32.2</ele>
        <time>2018-06-03T14:41:15Z</time>
      </trkpt>
      <trkpt lat="50.69829" lon="2.91077">
        <ele>32.4</ele>
        <time>2018-06-03T14:41:19Z</time>
      </trkpt>
      <trkpt lat="50.69829" lon="2.91077">
        <ele>32.4</ele>
        <time>2018-06-03T14:41:23Z</time>
      </trkpt>
      <trkpt lat="50.69829" lon="2.91077">
        <ele>32.6</ele>
        <time>2018-06-03T14:41:27Z</time>
      </trkpt>
      <trkpt lat="50.69829" lon="2.91077">
        <ele>32.6</ele>
        <time>2018-06-03T14:41:31Z</time>
      </trkpt>
      <trkpt lat="50.69829" lon="2.91077">
        <ele>32.4</ele>
        <time>2018-06-03T14:41:35Z</time>
      </trkpt>
      <trkpt lat="50.69829" lon="2.91077">
        <ele>32.8</ele>
        <time>2018-06-03T14:41:39Z</time>
      </trkpt>
      <trkpt lat="50.69829" lon="2.91077">
        <ele>32.4</ele>
        <time>2018-06-03T14:41:43Z</time>
      </trkpt>
      <trkpt lat="50.69829" lon="2.91077">
        <ele>32.2</ele>
        <time>2018-06-03T14:41:47Z</time>
      </trkpt>
      <trkpt lat="50.69829" lon="2.91077">
        <ele>32.2</ele>
        <time>2018-06-03T14:41:51Z</time>
      </trkpt>
      <trkpt lat="50.69829" lon="2.91077">
        <ele>32.6</ele>
        <time>2018-06-03T14:41:55Z</time>
      </trkpt>
      <trkpt lat="50.69829" lon="2.91077">
        <ele>32.4</ele>
        <time>2018-06-03T14:41:59Z</time>
      </trkpt>
      <trkpt lat="50.69829" lon="2.91077">
        <ele>32.6</ele>
        <time>2018-06-03T14:42:03Z</time>
      </trkpt>
      <trkpt lat="50.69829" lon="2.91077">
        <ele>32.6</ele>
        <time>2018-06-03T14:42:07Z</time>
      </trkpt>
      <trkpt lat="50.69829" lon="2.91077">
        <ele>32.6</ele>
        <time>2018-06-03T14:42:11Z</time>
      </trkpt>
      <trkpt lat="50.69829" lon="2.91077">
        <ele>32.6</ele>
        <time>2018-06-03T14:42:15Z</time>
      </trkpt>
      <trkpt lat="50.69829" lon="2.91077">
        <ele>32.4</ele>
        <time>2018-06-03T14:42:19Z</time>
      </trkpt>
      <trkpt lat="50.69829" lon="2.91077">
        <ele>32.2</ele>
        <time>2018-06-03T14:42:23Z</time>
      </trkpt>
      <trkpt lat="50.69829" lon="2.91077">
        <ele>32.6</ele>
        <time>2018-06-03T14:42:27Z</time>
      </trkpt>
      <trkpt lat="50.69829" lon="2.91077">
        <ele>32.2</ele>
        <time>2018-06-03T14:42:31Z</time>
      </trkpt>
      <trkpt lat="50.69829" lon="2.91077">
        <ele>32.2</ele>
        <time>2018-06-03T14:42:35Z</time>
      </trkpt>
      <trkpt lat="50.69829" lon="2.91077">
        <ele>32.4</ele>
        <time>2018-06-03T14:42:39Z</time>
      </trkpt>
      <trkpt lat="50.69829" lon="2.91077">
        <ele>32.4</ele>
        <time>2018-06-03T14:42:43Z</time>
      </trkpt>
      <trkpt lat="50.69829" lon="2.91077">
        <ele>32.2</ele>
        <time>2018-06-03T14:42:47Z</time>
      </trkpt>
      <trkpt lat="50.69829" lon="2.91077">
        <ele>32.6</ele>
        <time>2018-06-03T14:42:51Z</time>
      </trkpt>
      <trkpt lat="50.69829" lon="2.91077">
        <ele>32.4</ele>
        <time>2018-06-03T14:42:55Z</time>
      </trkpt>
      <trkpt lat="50.69829" lon="2.91077">
        <ele>32.4</ele>
        <time>2018-06-03T14:42:59Z</time>
      </trkpt>
      <trkpt lat="50.69829" lon="2.91077">
        <ele>32.2</ele>
        <time>2018-06-03T14:43:03Z</time>
      </trkpt>
      <trkpt lat="50.69829" lon="2.91077">
        <ele>32.2</ele>
        <time>2018-06-03T14:43:07Z</time>
      </trkpt>
      <trkpt lat="50.69829" lon="2.91077">
        <ele>32.4</ele>
        <time>2018-06-03T14:43:11Z</time>
      </trkpt>
      <trkpt lat="50.69829" lon="2.91077">
        <ele>32.6</ele>
        <time>2018-06-03T14:43:15Z</time>
      </trkpt>
      <trkpt lat="50.69829" lon="2.91077">
        <ele>32.8</ele>
        <time>2018-06-03T14:43:19Z</time>
      </trkpt>
      <trkpt lat="50.69829" lon="2.91077">
        <ele>32.8</ele>
        <time>2018-06-03T14:43:23Z</time>
      </trkpt>
      <trkpt lat="50.69829" lon="2.91077">
        <ele>32.6</ele>
        <time>2018-06-03T14:43:27Z</time>
      </trkpt>
      <trkpt lat="50.69829" lon="2.91077">
        <ele>32.4</ele>
        <time>2018-06-03T14:43:31Z</time>
      </trkpt>
      <trkpt lat="50.69829" lon="2.91077">
        <ele>32.6</ele>
        <time>2018-06-03T14:43:35Z</time>
      </trkpt>
      <trkpt lat="50.69829" lon="2.91077">
        <ele>32.8</ele>
        <time>2018-06-03T14:43:39Z</time>
      </trkpt>
      <trkpt lat="50.69829" lon="2.91077">
        <ele>32.8</ele>
        <time>2018-06-03T14:43:43Z</time>
      </trkpt>
      <trkpt lat="50.69829" lon="2.91077">
        <ele>32.8</ele>
        <time>2018-06-03T14:43:47Z</time>
      </trkpt>
      <trkpt lat="50.69829" lon="2.91077">
        <ele>32.8</ele>
        <time>2018-06-03T14:43:51Z</time>
      </trkpt>
      <trkpt lat="50.69829" lon="2.91077">
        <ele>32.8</ele>
        <time>2018-06-03T14:43:55Z</time>
      </trkpt>
      <trkpt lat="50.69829" lon="2.91077">
        <ele>32.8</ele>
        <time>2018-06-03T14:43:59Z</time>
      </trkpt>
      <trkpt lat="50.69829" lon="2.91077">
        <ele>32.6</ele>
        <time>2018-06-03T14:44:03Z</time>
      </trkpt>
      <trkpt lat="50.69829" lon="2.91077">
        <ele>32.2</ele>
        <time>2018-06-03T14:44:07Z</time>
      </trkpt>
      <trkpt lat="50.69829" lon="2.91077">
        <ele>32.4</ele>
        <time>2018-06-03T14:44:11Z</time>
      </trkpt>
      <trkpt lat="50.69829" lon="2.91077">
        <ele>32.4</ele>
        <time>2018-06-03T14:44:15Z</time>
      </trkpt>
      <trkpt lat="50.69829" lon="2.91077">
        <ele>32.6</ele>
        <time>2018-06-03T14:44:19Z</time>
      </trkpt>
      <trkpt lat="50.69829" lon="2.91077">
        <ele>32.4</ele>
        <time>2018-06-03T14:44:23Z</time>
      </trkpt>
      <trkpt lat="50.69829" lon="2.91077">
        <ele>32.6</ele>
        <time>2018-06-03T14:44:27Z</time>
      </trkpt>
      <trkpt lat="50.69829" lon="2.91077">
        <ele>32.8</ele>
        <time>2018-06-03T14:44:31Z</time>
      </trkpt>
      <trkpt lat="50.69829" lon="2.91077">
        <ele>33</ele>
        <time>2018-06-03T14:44:35Z</time>
      </trkpt>
      <trkpt lat="50.69829" lon="2.91077">
        <ele>32.6</ele>
        <time>2018-06-03T14:44:39Z</time>
      </trkpt>
      <trkpt lat="50.69829" lon="2.91077">
        <ele>32.6</ele>
        <time>2018-06-03T14:44:43Z</time>
      </trkpt>
      <trkpt lat="50.69829" lon="2.91077">
        <ele>32.4</ele>
        <time>2018-06-03T14:44:47Z</time>
      </trkpt>
      <trkpt lat="50.69829" lon="2.91077">
        <ele>32.2</ele>
        <time>2018-06-03T14:44:51Z</time>
      </trkpt>
      <trkpt lat="50.69829" lon="2.91077">
        <ele>32.2</ele>
        <time>2018-06-03T14:44:55Z</time>
      </trkpt>
      <trkpt lat="50.69829" lon="2.91077">
        <ele>32.2</ele>
        <time>2018-06-03T14:44:59Z</time>
      </trkpt>
      <trkpt lat="50.69829" lon="2.91077">
        <ele>32.4</ele>
        <time>2018-06-03T14:45:03Z</time>
      </trkpt>
      <trkpt lat="50.69829" lon="2.91077">
        <ele>32.4</ele>
        <time>2018-06-03T14:45:07Z</time>
      </trkpt>
      <trkpt lat="50.69829" lon="2.91077">
        <ele>32.4</ele>
        <time>2018-06-03T14:45:11Z</time>
      </trkpt>
      <trkpt lat="50.69829" lon="2.91077">
        <ele>32.6</ele>
        <time>2018-06-03T14:45:15Z</time>
      </trkpt>
      <trkpt lat="50.69829" lon="2.91077">
        <ele>32.4</ele>
        <time>2018-06-03T14:45:19Z</time>
      </trkpt>
      <trkpt lat="50.69829" lon="2.91077">
        <ele>32.4</ele>
        <time>2018-06-03T14:45:23Z</time>
      </trkpt>
      <trkpt lat="50.69839" lon="2.91083">
        <ele>32.4</ele>
        <time>2018-06-03T14:45:27Z</time>
      </trkpt>
      <trkpt lat="50.69845" lon="2.91087">
        <ele>32.8</ele>
        <time>2018-06-03T14:45:31Z</time>
      </trkpt>
      <trkpt lat="50.69853" lon="2.91096">
        <ele>32.8</ele>
        <time>2018-06-03T14:45:35Z</time>
      </trkpt>
      <trkpt lat="50.69862" lon="2.91104">
        <ele>32.8</ele>
        <time>2018-06-03T14:45:39Z</time>
      </trkpt>
      <trkpt lat="50.69868" lon="2.91112">
        <ele>33.2</ele>
        <time>2018-06-03T14:45:43Z</time>
      </trkpt>
      <trkpt lat="50.69873" lon="2.91122">
        <ele>33</ele>
        <time>2018-06-03T14:45:47Z</time>
      </trkpt>
      <trkpt lat="50.6988" lon="2.9113">
        <ele>33</ele>
        <time>2018-06-03T14:45:51Z</time>
      </trkpt>
      <trkpt lat="50.69892" lon="2.91142">
        <ele>32.8</ele>
        <time>2018-06-03T14:45:55Z</time>
      </trkpt>
      <trkpt lat="50.69903" lon="2.91157">
        <ele>32.8</ele>
        <time>2018-06-03T14:45:59Z</time>
      </trkpt>
      <trkpt lat="50.69918" lon="2.91172">
        <ele>32.8</ele>
        <time>2018-06-03T14:46:03Z</time>
      </trkpt>
      <trkpt lat="50.69927" lon="2.91184">
        <ele>32.8</ele>
        <time>2018-06-03T14:46:07Z</time>
      </trkpt>
      <trkpt lat="50.69936" lon="2.91196">
        <ele>33</ele>
        <time>2018-06-03T14:46:11Z</time>
      </trkpt>
      <trkpt lat="50.69945" lon="2.91209">
        <ele>33.2</ele>
        <time>2018-06-03T14:46:15Z</time>
      </trkpt>
      <trkpt lat="50.69956" lon="2.91224">
        <ele>33</ele>
        <time>2018-06-03T14:46:19Z</time>
      </trkpt>
      <trkpt lat="50.69965" lon="2.91243">
        <ele>33.2</ele>
        <time>2018-06-03T14:46:23Z</time>
      </trkpt>
      <trkpt lat="50.69974" lon="2.91259">
        <ele>33.2</ele>
        <time>2018-06-03T14:46:27Z</time>
      </trkpt>
      <trkpt lat="50.69984" lon="2.91282">
        <ele>33.2</ele>
        <time>2018-06-03T14:46:31Z</time>
      </trkpt>
      <trkpt lat="50.69992" lon="2.91303">
        <ele>33.4</ele>
        <time>2018-06-03T14:46:35Z</time>
      </trkpt>
      <trkpt lat="50.70002" lon="2.91323">
        <ele>33.6</ele>
        <time>2018-06-03T14:46:39Z</time>
      </trkpt>
      <trkpt lat="50.70011" lon="2.91346">
        <ele>33.4</ele>
        <time>2018-06-03T14:46:43Z</time>
      </trkpt>
      <trkpt lat="50.70017" lon="2.91364">
        <ele>33.4</ele>
        <time>2018-06-03T14:46:47Z</time>
      </trkpt>
      <trkpt lat="50.7002" lon="2.9138">
        <ele>33</ele>
        <time>2018-06-03T14:46:51Z</time>
      </trkpt>
      <trkpt lat="50.70022" lon="2.91399">
        <ele>33</ele>
        <time>2018-06-03T14:46:55Z</time>
      </trkpt>
      <trkpt lat="50.70028" lon="2.91419">
        <ele>32.8</ele>
        <time>2018-06-03T14:46:59Z</time>
      </trkpt>
      <trkpt lat="50.70043" lon="2.91449">
        <ele>33</ele>
        <time>2018-06-03T14:47:03Z</time>
      </trkpt>
      <trkpt lat="50.70049" lon="2.9147">
        <ele>33</ele>
        <time>2018-06-03T14:47:07Z</time>
      </trkpt>
      <trkpt lat="50.70057" lon="2.91492">
        <ele>33.2</ele>
        <time>2018-06-03T14:47:11Z</time>
      </trkpt>
      <trkpt lat="50.70064" lon="2.91513">
        <ele>33.4</ele>
        <time>2018-06-03T14:47:15Z</time>
      </trkpt>
      <trkpt lat="50.70071" lon="2.91535">
        <ele>33</ele>
        <time>2018-06-03T14:47:19Z</time>
      </trkpt>
      <trkpt lat="50.70077" lon="2.91557">
        <ele>33</ele>
        <time>2018-06-03T14:47:23Z</time>
      </trkpt>
      <trkpt lat="50.70083" lon="2.91578">
        <ele>33.4</ele>
        <time>2018-06-03T14:47:27Z</time>
      </trkpt>
      <trkpt lat="50.7009" lon="2.91599">
        <ele>33.2</ele>
        <time>2018-06-03T14:47:31Z</time>
      </trkpt>
      <trkpt lat="50.70097" lon="2.91621">
        <ele>33.8</ele>
        <time>2018-06-03T14:47:35Z</time>
      </trkpt>
      <trkpt lat="50.70105" lon="2.91644">
        <ele>33.6</ele>
        <time>2018-06-03T14:47:39Z</time>
      </trkpt>
      <trkpt lat="50.70111" lon="2.91664">
        <ele>33.8</ele>
        <time>2018-06-03T14:47:43Z</time>
      </trkpt>
      <trkpt lat="50.70117" lon="2.91685">
        <ele>33.8</ele>
        <time>2018-06-03T14:47:47Z</time>
      </trkpt>
      <trkpt lat="50.70124" lon="2.91708">
        <ele>33.8</ele>
        <time>2018-06-03T14:47:51Z</time>
      </trkpt>
      <trkpt lat="50.7013" lon="2.91731">
        <ele>33.6</ele>
        <time>2018-06-03T14:47:55Z</time>
      </trkpt>
      <trkpt lat="50.70138" lon="2.91755">
        <ele>34</ele>
        <time>2018-06-03T14:47:59Z</time>
      </trkpt>
      <trkpt lat="50.70144" lon="2.91777">
        <ele>33.8</ele>
        <time>2018-06-03T14:48:03Z</time>
      </trkpt>
      <trkpt lat="50.70152" lon="2.91801">
        <ele>33.8</ele>
        <time>2018-06-03T14:48:07Z</time>
      </trkpt>
      <trkpt lat="50.70158" lon="2.91826">
        <ele>33.8</ele>
        <time>2018-06-03T14:48:11Z</time>
      </trkpt>
      <trkpt lat="50.70162" lon="2.91845">
        <ele>34.2</ele>
        <time>2018-06-03T14:48:15Z</time>
      </trkpt>
      <trkpt lat="50.70167" lon="2.9186">
        <ele>33.6</ele>
        <time>2018-06-03T14:48:19Z</time>
      </trkpt>
      <trkpt lat="50.70173" lon="2.91879">
        <ele>33.4</ele>
        <time>2018-06-03T14:48:23Z</time>
      </trkpt>
      <trkpt lat="50.70178" lon="2.91898">
        <ele>33.8</ele>
        <time>2018-06-03T14:48:27Z</time>
      </trkpt>
      <trkpt lat="50.70175" lon="2.91918">
        <ele>34.2</ele>
        <time>2018-06-03T14:48:31Z</time>
      </trkpt>
      <trkpt lat="50.70178" lon="2.91941">
        <ele>34</ele>
        <time>2018-06-03T14:48:35Z</time>
      </trkpt>
      <trkpt lat="50.70186" lon="2.91963">
        <ele>34</ele>
        <time>2018-06-03T14:48:39Z</time>
      </trkpt>
      <trkpt lat="50.70197" lon="2.91987">
        <ele>34</ele>
        <time>2018-06-03T14:48:43Z</time>
      </trkpt>
      <trkpt lat="50.70206" lon="2.92017">
        <ele>33.2</ele>
        <time>2018-06-03T14:48:47Z</time>
      </trkpt>
      <trkpt lat="50.70228" lon="2.92063">
        <ele>33.2</ele>
        <time>2018-06-03T14:48:51Z</time>
      </trkpt>
      <trkpt lat="50.70238" lon="2.92088">
        <ele>33.2</ele>
        <time>2018-06-03T14:48:55Z</time>
      </trkpt>
      <trkpt lat="50.70242" lon="2.92109">
        <ele>33</ele>
        <time>2018-06-03T14:48:59Z</time>
      </trkpt>
      <trkpt lat="50.70248" lon="2.92134">
        <ele>33</ele>
        <time>2018-06-03T14:49:03Z</time>
      </trkpt>
      <trkpt lat="50.70266" lon="2.92169">
        <ele>32.8</ele>
        <time>2018-06-03T14:49:07Z</time>
      </trkpt>
      <trkpt lat="50.70273" lon="2.922">
        <ele>32.8</ele>
        <time>2018-06-03T14:49:11Z</time>
      </trkpt>
      <trkpt lat="50.70282" lon="2.92227">
        <ele>32.8</ele>
        <time>2018-06-03T14:49:15Z</time>
      </trkpt>
      <trkpt lat="50.70291" lon="2.92254">
        <ele>32.6</ele>
        <time>2018-06-03T14:49:19Z</time>
      </trkpt>
      <trkpt lat="50.70299" lon="2.9228">
        <ele>32.4</ele>
        <time>2018-06-03T14:49:23Z</time>
      </trkpt>
      <trkpt lat="50.70305" lon="2.92302">
        <ele>32.2</ele>
        <time>2018-06-03T14:49:27Z</time>
      </trkpt>
      <trkpt lat="50.70311" lon="2.92319">
        <ele>32.4</ele>
        <time>2018-06-03T14:49:31Z</time>
      </trkpt>
      <trkpt lat="50.70317" lon="2.92339">
        <ele>32.4</ele>
        <time>2018-06-03T14:49:35Z</time>
      </trkpt>
      <trkpt lat="50.70325" lon="2.92357">
        <ele>32.8</ele>
        <time>2018-06-03T14:49:39Z</time>
      </trkpt>
      <trkpt lat="50.70336" lon="2.92378">
        <ele>32.8</ele>
        <time>2018-06-03T14:49:43Z</time>
      </trkpt>
      <trkpt lat="50.70344" lon="2.92396">
        <ele>33.2</ele>
        <time>2018-06-03T14:49:47Z</time>
      </trkpt>
      <trkpt lat="50.70352" lon="2.92413">
        <ele>33.4</ele>
        <time>2018-06-03T14:49:51Z</time>
      </trkpt>
      <trkpt lat="50.70365" lon="2.92424">
        <ele>32</ele>
        <time>2018-06-03T14:49:55Z</time>
      </trkpt>
      <trkpt lat="50.70378" lon="2.92435">
        <ele>32.2</ele>
        <time>2018-06-03T14:49:59Z</time>
      </trkpt>
      <trkpt lat="50.70391" lon="2.92445">
        <ele>32.2</ele>
        <time>2018-06-03T14:50:03Z</time>
      </trkpt>
      <trkpt lat="50.70404" lon="2.92454">
        <ele>32.6</ele>
        <time>2018-06-03T14:50:07Z</time>
      </trkpt>
      <trkpt lat="50.70416" lon="2.92463">
        <ele>32</ele>
        <time>2018-06-03T14:50:11Z</time>
      </trkpt>
      <trkpt lat="50.70431" lon="2.92472">
        <ele>32.2</ele>
        <time>2018-06-03T14:50:15Z</time>
      </trkpt>
      <trkpt lat="50.70445" lon="2.92481">
        <ele>32</ele>
        <time>2018-06-03T14:50:19Z</time>
      </trkpt>
      <trkpt lat="50.70459" lon="2.92488">
        <ele>31.8</ele>
        <time>2018-06-03T14:50:23Z</time>
      </trkpt>
      <trkpt lat="50.70471" lon="2.92494">
        <ele>32.2</ele>
        <time>2018-06-03T14:50:27Z</time>
      </trkpt>
      <trkpt lat="50.70482" lon="2.92501">
        <ele>32.6</ele>
        <time>2018-06-03T14:50:31Z</time>
      </trkpt>
      <trkpt lat="50.70492" lon="2.92505">
        <ele>32.6</ele>
        <time>2018-06-03T14:50:35Z</time>
      </trkpt>
      <trkpt lat="50.70505" lon="2.92508">
        <ele>32.8</ele>
        <time>2018-06-03T14:50:39Z</time>
      </trkpt>
      <trkpt lat="50.70516" lon="2.92511">
        <ele>32.6</ele>
        <time>2018-06-03T14:50:43Z</time>
      </trkpt>
      <trkpt lat="50.70529" lon="2.92515">
        <ele>32.6</ele>
        <time>2018-06-03T14:50:47Z</time>
      </trkpt>
      <trkpt lat="50.70542" lon="2.92518">
        <ele>32.8</ele>
        <time>2018-06-03T14:50:51Z</time>
      </trkpt>
      <trkpt lat="50.70555" lon="2.92522">
        <ele>32.2</ele>
        <time>2018-06-03T14:50:55Z</time>
      </trkpt>
      <trkpt lat="50.70569" lon="2.92524">
        <ele>32.6</ele>
        <time>2018-06-03T14:50:59Z</time>
      </trkpt>
      <trkpt lat="50.70584" lon="2.92528">
        <ele>32.4</ele>
        <time>2018-06-03T14:51:03Z</time>
      </trkpt>
      <trkpt lat="50.706" lon="2.9253">
        <ele>33.2</ele>
        <time>2018-06-03T14:51:07Z</time>
      </trkpt>
      <trkpt lat="50.70616" lon="2.92534">
        <ele>32.2</ele>
        <time>2018-06-03T14:51:11Z</time>
      </trkpt>
      <trkpt lat="50.70634" lon="2.92538">
        <ele>32.6</ele>
        <time>2018-06-03T14:51:15Z</time>
      </trkpt>
      <trkpt lat="50.70648" lon="2.92544">
        <ele>32.4</ele>
        <time>2018-06-03T14:51:19Z</time>
      </trkpt>
      <trkpt lat="50.70661" lon="2.92545">
        <ele>32.6</ele>
        <time>2018-06-03T14:51:23Z</time>
      </trkpt>
      <trkpt lat="50.70675" lon="2.9255">
        <ele>32.6</ele>
        <time>2018-06-03T14:51:27Z</time>
      </trkpt>
      <trkpt lat="50.70691" lon="2.92557">
        <ele>32.6</ele>
        <time>2018-06-03T14:51:31Z</time>
      </trkpt>
      <trkpt lat="50.70708" lon="2.92566">
        <ele>32.4</ele>
        <time>2018-06-03T14:51:35Z</time>
      </trkpt>
      <trkpt lat="50.70724" lon="2.92576">
        <ele>31.4</ele>
        <time>2018-06-03T14:51:39Z</time>
      </trkpt>
      <trkpt lat="50.70739" lon="2.92586">
        <ele>32.6</ele>
        <time>2018-06-03T14:51:43Z</time>
      </trkpt>
      <trkpt lat="50.70754" lon="2.92599">
        <ele>32.4</ele>
        <time>2018-06-03T14:51:47Z</time>
      </trkpt>
      <trkpt lat="50.70768" lon="2.92617">
        <ele>32</ele>
        <time>2018-06-03T14:51:51Z</time>
      </trkpt>
      <trkpt lat="50.7078" lon="2.92636">
        <ele>32.2</ele>
        <time>2018-06-03T14:51:55Z</time>
      </trkpt>
      <trkpt lat="50.70793" lon="2.92657">
        <ele>32.2</ele>
        <time>2018-06-03T14:51:59Z</time>
      </trkpt>
      <trkpt lat="50.70804" lon="2.92679">
        <ele>31.8</ele>
        <time>2018-06-03T14:52:03Z</time>
      </trkpt>
      <trkpt lat="50.70813" lon="2.92703">
        <ele>31.6</ele>
        <time>2018-06-03T14:52:07Z</time>
      </trkpt>
      <trkpt lat="50.70822" lon="2.92727">
        <ele>31.8</ele>
        <time>2018-06-03T14:52:11Z</time>
      </trkpt>
      <trkpt lat="50.7083" lon="2.92753">
        <ele>31.6</ele>
        <time>2018-06-03T14:52:15Z</time>
      </trkpt>
      <trkpt lat="50.70839" lon="2.92779">
        <ele>31.4</ele>
        <time>2018-06-03T14:52:19Z</time>
      </trkpt>
      <trkpt lat="50.70848" lon="2.92803">
        <ele>31.4</ele>
        <time>2018-06-03T14:52:23Z</time>
      </trkpt>
      <trkpt lat="50.70858" lon="2.92827">
        <ele>32</ele>
        <time>2018-06-03T14:52:27Z</time>
      </trkpt>
      <trkpt lat="50.70869" lon="2.92851">
        <ele>32.4</ele>
        <time>2018-06-03T14:52:31Z</time>
      </trkpt>
      <trkpt lat="50.70883" lon="2.92873">
        <ele>32.2</ele>
        <time>2018-06-03T14:52:35Z</time>
      </trkpt>
      <trkpt lat="50.70898" lon="2.92891">
        <ele>32.4</ele>
        <time>2018-06-03T14:52:39Z</time>
      </trkpt>
      <trkpt lat="50.70914" lon="2.92907">
        <ele>32.2</ele>
        <time>2018-06-03T14:52:43Z</time>
      </trkpt>
      <trkpt lat="50.70931" lon="2.92921">
        <ele>32.8</ele>
        <time>2018-06-03T14:52:47Z</time>
      </trkpt>
      <trkpt lat="50.70947" lon="2.92933">
        <ele>32.8</ele>
        <time>2018-06-03T14:52:51Z</time>
      </trkpt>
      <trkpt lat="50.70963" lon="2.92944">
        <ele>32.6</ele>
        <time>2018-06-03T14:52:55Z</time>
      </trkpt>
      <trkpt lat="50.70979" lon="2.92957">
        <ele>32.4</ele>
        <time>2018-06-03T14:52:59Z</time>
      </trkpt>
      <trkpt lat="50.70995" lon="2.92967">
        <ele>32.4</ele>
        <time>2018-06-03T14:53:03Z</time>
      </trkpt>
      <trkpt lat="50.71013" lon="2.92979">
        <ele>33</ele>
        <time>2018-06-03T14:53:07Z</time>
      </trkpt>
      <trkpt lat="50.71031" lon="2.92995">
        <ele>32.4</ele>
        <time>2018-06-03T14:53:11Z</time>
      </trkpt>
      <trkpt lat="50.71049" lon="2.93006">
        <ele>32.4</ele>
        <time>2018-06-03T14:53:15Z</time>
      </trkpt>
      <trkpt lat="50.71068" lon="2.93015">
        <ele>32.2</ele>
        <time>2018-06-03T14:53:19Z</time>
      </trkpt>
      <trkpt lat="50.71086" lon="2.93023">
        <ele>32.2</ele>
        <time>2018-06-03T14:53:23Z</time>
      </trkpt>
      <trkpt lat="50.71105" lon="2.93032">
        <ele>32</ele>
        <time>2018-06-03T14:53:27Z</time>
      </trkpt>
      <trkpt lat="50.71123" lon="2.93036">
        <ele>32.2</ele>
        <time>2018-06-03T14:53:31Z</time>
      </trkpt>
      <trkpt lat="50.71144" lon="2.93037">
        <ele>31.8</ele>
        <time>2018-06-03T14:53:35Z</time>
      </trkpt>
      <trkpt lat="50.71163" lon="2.93037">
        <ele>31.8</ele>
        <time>2018-06-03T14:53:39Z</time>
      </trkpt>
      <trkpt lat="50.71183" lon="2.93032">
        <ele>32.2</ele>
        <time>2018-06-03T14:53:43Z</time>
      </trkpt>
      <trkpt lat="50.71203" lon="2.93029">
        <ele>32.4</ele>
        <time>2018-06-03T14:53:47Z</time>
      </trkpt>
      <trkpt lat="50.71223" lon="2.93027">
        <ele>32</ele>
        <time>2018-06-03T14:53:51Z</time>
      </trkpt>
      <trkpt lat="50.71242" lon="2.93025">
        <ele>32.4</ele>
        <time>2018-06-03T14:53:55Z</time>
      </trkpt>
      <trkpt lat="50.71261" lon="2.93025">
        <ele>32.4</ele>
        <time>2018-06-03T14:53:59Z</time>
      </trkpt>
      <trkpt lat="50.71279" lon="2.93028">
        <ele>32.2</ele>
        <time>2018-06-03T14:54:03Z</time>
      </trkpt>
      <trkpt lat="50.71294" lon="2.93035">
        <ele>32.4</ele>
        <time>2018-06-03T14:54:07Z</time>
      </trkpt>
      <trkpt lat="50.71308" lon="2.93037">
        <ele>31.8</ele>
        <time>2018-06-03T14:54:11Z</time>
      </trkpt>
      <trkpt lat="50.7132" lon="2.93041">
        <ele>31.8</ele>
        <time>2018-06-03T14:54:15Z</time>
      </trkpt>
      <trkpt lat="50.71342" lon="2.93041">
        <ele>31.6</ele>
        <time>2018-06-03T14:54:19Z</time>
      </trkpt>
      <trkpt lat="50.71361" lon="2.93045">
        <ele>31.4</ele>
        <time>2018-06-03T14:54:23Z</time>
      </trkpt>
      <trkpt lat="50.7138" lon="2.93048">
        <ele>31.4</ele>
        <time>2018-06-03T14:54:27Z</time>
      </trkpt>
      <trkpt lat="50.714" lon="2.93051">
        <ele>31.8</ele>
        <time>2018-06-03T14:54:31Z</time>
      </trkpt>
      <trkpt lat="50.71423" lon="2.93054">
        <ele>32.4</ele>
        <time>2018-06-03T14:54:35Z</time>
      </trkpt>
      <trkpt lat="50.71447" lon="2.93062">
        <ele>31.8</ele>
        <time>2018-06-03T14:54:39Z</time>
      </trkpt>
      <trkpt lat="50.71468" lon="2.93067">
        <ele>32</ele>
        <time>2018-06-03T14:54:43Z</time>
      </trkpt>
      <trkpt lat="50.71486" lon="2.9307">
        <ele>32</ele>
        <time>2018-06-03T14:54:47Z</time>
      </trkpt>
      <trkpt lat="50.71506" lon="2.93073">
        <ele>32.4</ele>
        <time>2018-06-03T14:54:51Z</time>
      </trkpt>
      <trkpt lat="50.71529" lon="2.93078">
        <ele>31.6</ele>
        <time>2018-06-03T14:54:55Z</time>
      </trkpt>
      <trkpt lat="50.71547" lon="2.93083">
        <ele>32</ele>
        <time>2018-06-03T14:54:59Z</time>
      </trkpt>
      <trkpt lat="50.71562" lon="2.93087">
        <ele>31.8</ele>
        <time>2018-06-03T14:55:03Z</time>
      </trkpt>
      <trkpt lat="50.71587" lon="2.93092">
        <ele>32.8</ele>
        <time>2018-06-03T14:55:07Z</time>
      </trkpt>
      <trkpt lat="50.71606" lon="2.93095">
        <ele>32.8</ele>
        <time>2018-06-03T14:55:11Z</time>
      </trkpt>
      <trkpt lat="50.71621" lon="2.93097">
        <ele>32.8</ele>
        <time>2018-06-03T14:55:15Z</time>
      </trkpt>
      <trkpt lat="50.71638" lon="2.931">
        <ele>32</ele>
        <time>2018-06-03T14:55:19Z</time>
      </trkpt>
      <trkpt lat="50.71663" lon="2.93106">
        <ele>31.8</ele>
        <time>2018-06-03T14:55:23Z</time>
      </trkpt>
      <trkpt lat="50.71684" lon="2.9311">
        <ele>32.4</ele>
        <time>2018-06-03T14:55:27Z</time>
      </trkpt>
      <trkpt lat="50.71703" lon="2.93113">
        <ele>32</ele>
        <time>2018-06-03T14:55:31Z</time>
      </trkpt>
      <trkpt lat="50.71721" lon="2.93117">
        <ele>31.4</ele>
        <time>2018-06-03T14:55:35Z</time>
      </trkpt>
      <trkpt lat="50.71741" lon="2.93122">
        <ele>33</ele>
        <time>2018-06-03T14:55:39Z</time>
      </trkpt>
      <trkpt lat="50.71762" lon="2.93126">
        <ele>32.2</ele>
        <time>2018-06-03T14:55:43Z</time>
      </trkpt>
      <trkpt lat="50.71782" lon="2.93131">
        <ele>32.4</ele>
        <time>2018-06-03T14:55:47Z</time>
      </trkpt>
      <trkpt lat="50.71802" lon="2.93134">
        <ele>32.4</ele>
        <time>2018-06-03T14:55:51Z</time>
      </trkpt>
      <trkpt lat="50.71821" lon="2.93135">
        <ele>32.8</ele>
        <time>2018-06-03T14:55:55Z</time>
      </trkpt>
      <trkpt lat="50.7184" lon="2.93138">
        <ele>32.6</ele>
        <time>2018-06-03T14:55:59Z</time>
      </trkpt>
      <trkpt lat="50.71861" lon="2.9314">
        <ele>32.4</ele>
        <time>2018-06-03T14:56:03Z</time>
      </trkpt>
      <trkpt lat="50.71882" lon="2.9314">
        <ele>32.2</ele>
        <time>2018-06-03T14:56:07Z</time>
      </trkpt>
      <trkpt lat="50.71904" lon="2.93137">
        <ele>32.2</ele>
        <time>2018-06-03T14:56:11Z</time>
      </trkpt>
      <trkpt lat="50.71925" lon="2.93134">
        <ele>32.6</ele>
        <time>2018-06-03T14:56:15Z</time>
      </trkpt>
      <trkpt lat="50.71946" lon="2.93131">
        <ele>33.2</ele>
        <time>2018-06-03T14:56:19Z</time>
      </trkpt>
      <trkpt lat="50.71968" lon="2.93127">
        <ele>33.2</ele>
        <time>2018-06-03T14:56:23Z</time>
      </trkpt>
      <trkpt lat="50.71988" lon="2.93124">
        <ele>33</ele>
        <time>2018-06-03T14:56:27Z</time>
      </trkpt>
      <trkpt lat="50.72008" lon="2.9312">
        <ele>32.2</ele>
        <time>2018-06-03T14:56:31Z</time>
      </trkpt>
      <trkpt lat="50.72028" lon="2.93116">
        <ele>33.2</ele>
        <time>2018-06-03T14:56:35Z</time>
      </trkpt>
      <trkpt lat="50.72048" lon="2.93111">
        <ele>32.8</ele>
        <time>2018-06-03T14:56:39Z</time>
      </trkpt>
      <trkpt lat="50.72067" lon="2.93104">
        <ele>33.6</ele>
        <time>2018-06-03T14:56:43Z</time>
      </trkpt>
      <trkpt lat="50.72087" lon="2.93096">
        <ele>32.8</ele>
        <time>2018-06-03T14:56:47Z</time>
      </trkpt>
      <trkpt lat="50.72106" lon="2.93087">
        <ele>32.2</ele>
        <time>2018-06-03T14:56:51Z</time>
      </trkpt>
      <trkpt lat="50.72126" lon="2.93076">
        <ele>32.4</ele>
        <time>2018-06-03T14:56:55Z</time>
      </trkpt>
      <trkpt lat="50.72146" lon="2.93067">
        <ele>32.4</ele>
        <time>2018-06-03T14:56:59Z</time>
      </trkpt>
      <trkpt lat="50.72165" lon="2.93058">
        <ele>32.2</ele>
        <time>2018-06-03T14:57:03Z</time>
      </trkpt>
      <trkpt lat="50.72184" lon="2.93047">
        <ele>32.6</ele>
        <time>2018-06-03T14:57:07Z</time>
      </trkpt>
      <trkpt lat="50.72201" lon="2.93037">
        <ele>32.8</ele>
        <time>2018-06-03T14:57:11Z</time>
      </trkpt>
      <trkpt lat="50.72219" lon="2.93027">
        <ele>33</ele>
        <time>2018-06-03T14:57:15Z</time>
      </trkpt>
      <trkpt lat="50.72239" lon="2.93018">
        <ele>32.2</ele>
        <time>2018-06-03T14:57:19Z</time>
      </trkpt>
      <trkpt lat="50.7226" lon="2.93009">
        <ele>32.2</ele>
        <time>2018-06-03T14:57:23Z</time>
      </trkpt>
      <trkpt lat="50.7228" lon="2.92997">
        <ele>32.8</ele>
        <time>2018-06-03T14:57:27Z</time>
      </trkpt>
      <trkpt lat="50.72298" lon="2.92987">
        <ele>32.2</ele>
        <time>2018-06-03T14:57:31Z</time>
      </trkpt>
      <trkpt lat="50.72314" lon="2.92975">
        <ele>32.2</ele>
        <time>2018-06-03T14:57:35Z</time>
      </trkpt>
      <trkpt lat="50.72333" lon="2.92969">
        <ele>31.8</ele>
        <time>2018-06-03T14:57:39Z</time>
      </trkpt>
      <trkpt lat="50.72358" lon="2.92963">
        <ele>31.6</ele>
        <time>2018-06-03T14:57:43Z</time>
      </trkpt>
      <trkpt lat="50.72378" lon="2.9296">
        <ele>32.2</ele>
        <time>2018-06-03T14:57:47Z</time>
      </trkpt>
      <trkpt lat="50.72403" lon="2.9296">
        <ele>32</ele>
        <time>2018-06-03T14:57:51Z</time>
      </trkpt>
      <trkpt lat="50.72426" lon="2.92963">
        <ele>32.6</ele>
        <time>2018-06-03T14:57:55Z</time>
      </trkpt>
      <trkpt lat="50.72448" lon="2.92969">
        <ele>32.4</ele>
        <time>2018-06-03T14:57:59Z</time>
      </trkpt>
      <trkpt lat="50.72469" lon="2.92977">
        <ele>32.8</ele>
        <time>2018-06-03T14:58:03Z</time>
      </trkpt>
      <trkpt lat="50.72489" lon="2.92986">
        <ele>32.6</ele>
        <time>2018-06-03T14:58:07Z</time>
      </trkpt>
      <trkpt lat="50.72509" lon="2.92995">
        <ele>32.4</ele>
        <time>2018-06-03T14:58:11Z</time>
      </trkpt>
      <trkpt lat="50.72529" lon="2.93005">
        <ele>32.8</ele>
        <time>2018-06-03T14:58:15Z</time>
      </trkpt>
      <trkpt lat="50.72549" lon="2.93017">
        <ele>32.4</ele>
        <time>2018-06-03T14:58:19Z</time>
      </trkpt>
      <trkpt lat="50.72568" lon="2.9303">
        <ele>32.2</ele>
        <time>2018-06-03T14:58:23Z</time>
      </trkpt>
      <trkpt lat="50.72587" lon="2.93043">
        <ele>32.4</ele>
        <time>2018-06-03T14:58:27Z</time>
      </trkpt>
      <trkpt lat="50.72606" lon="2.93056">
        <ele>33</ele>
        <time>2018-06-03T14:58:31Z</time>
      </trkpt>
      <trkpt lat="50.72624" lon="2.9307">
        <ele>32.8</ele>
        <time>2018-06-03T14:58:35Z</time>
      </trkpt>
      <trkpt lat="50.72643" lon="2.93083">
        <ele>32.8</ele>
        <time>2018-06-03T14:58:39Z</time>
      </trkpt>
      <trkpt lat="50.72663" lon="2.93096">
        <ele>32.8</ele>
        <time>2018-06-03T14:58:43Z</time>
      </trkpt>
      <trkpt lat="50.72681" lon="2.93109">
        <ele>32.8</ele>
        <time>2018-06-03T14:58:47Z</time>
      </trkpt>
      <trkpt lat="50.727" lon="2.93122">
        <ele>32.4</ele>
        <time>2018-06-03T14:58:51Z</time>
      </trkpt>
      <trkpt lat="50.72717" lon="2.93134">
        <ele>33.2</ele>
        <time>2018-06-03T14:58:55Z</time>
      </trkpt>
      <trkpt lat="50.72736" lon="2.93147">
        <ele>32.8</ele>
        <time>2018-06-03T14:58:59Z</time>
      </trkpt>
      <trkpt lat="50.72755" lon="2.9316">
        <ele>32.4</ele>
        <time>2018-06-03T14:59:03Z</time>
      </trkpt>
      <trkpt lat="50.72771" lon="2.93173">
        <ele>32.4</ele>
        <time>2018-06-03T14:59:07Z</time>
      </trkpt>
      <trkpt lat="50.7279" lon="2.93185">
        <ele>32.6</ele>
        <time>2018-06-03T14:59:11Z</time>
      </trkpt>
      <trkpt lat="50.72809" lon="2.93198">
        <ele>32.6</ele>
        <time>2018-06-03T14:59:15Z</time>
      </trkpt>
      <trkpt lat="50.72825" lon="2.93213">
        <ele>31.8</ele>
        <time>2018-06-03T14:59:19Z</time>
      </trkpt>
      <trkpt lat="50.7284" lon="2.93228">
        <ele>32.4</ele>
        <time>2018-06-03T14:59:23Z</time>
      </trkpt>
      <trkpt lat="50.72854" lon="2.93244">
        <ele>32.2</ele>
        <time>2018-06-03T14:59:27Z</time>
      </trkpt>
      <trkpt lat="50.72869" lon="2.93266">
        <ele>32.4</ele>
        <time>2018-06-03T14:59:31Z</time>
      </trkpt>
      <trkpt lat="50.72882" lon="2.93288">
        <ele>32</ele>
        <time>2018-06-03T14:59:35Z</time>
      </trkpt>
      <trkpt lat="50.72893" lon="2.93312">
        <ele>33.4</ele>
        <time>2018-06-03T14:59:39Z</time>
      </trkpt>
      <trkpt lat="50.72903" lon="2.93334">
        <ele>32.2</ele>
        <time>2018-06-03T14:59:43Z</time>
      </trkpt>
      <trkpt lat="50.72913" lon="2.93357">
        <ele>31.4</ele>
        <time>2018-06-03T14:59:47Z</time>
      </trkpt>
      <trkpt lat="50.72922" lon="2.93384">
        <ele>32.2</ele>
        <time>2018-06-03T14:59:51Z</time>
      </trkpt>
      <trkpt lat="50.72931" lon="2.93411">
        <ele>32.2</ele>
        <time>2018-06-03T14:59:55Z</time>
      </trkpt>
      <trkpt lat="50.7294" lon="2.9344">
        <ele>32</ele>
        <time>2018-06-03T14:59:59Z</time>
      </trkpt>
      <trkpt lat="50.7295" lon="2.93468">
        <ele>32</ele>
        <time>2018-06-03T15:00:03Z</time>
      </trkpt>
      <trkpt lat="50.72958" lon="2.93496">
        <ele>32.2</ele>
        <time>2018-06-03T15:00:07Z</time>
      </trkpt>
      <trkpt lat="50.72965" lon="2.93525">
        <ele>32</ele>
        <time>2018-06-03T15:00:11Z</time>
      </trkpt>
      <trkpt lat="50.72972" lon="2.93555">
        <ele>32.4</ele>
        <time>2018-06-03T15:00:15Z</time>
      </trkpt>
      <trkpt lat="50.72977" lon="2.93583">
        <ele>32.6</ele>
        <time>2018-06-03T15:00:19Z</time>
      </trkpt>
      <trkpt lat="50.72981" lon="2.9361">
        <ele>32.6</ele>
        <time>2018-06-03T15:00:23Z</time>
      </trkpt>
      <trkpt lat="50.72984" lon="2.93637">
        <ele>33.6</ele>
        <time>2018-06-03T15:00:27Z</time>
      </trkpt>
      <trkpt lat="50.72986" lon="2.93661">
        <ele>33</ele>
        <time>2018-06-03T15:00:31Z</time>
      </trkpt>
      <trkpt lat="50.72986" lon="2.93684">
        <ele>34</ele>
        <time>2018-06-03T15:00:35Z</time>
      </trkpt>
      <trkpt lat="50.72983" lon="2.93708">
        <ele>34.4</ele>
        <time>2018-06-03T15:00:39Z</time>
      </trkpt>
      <trkpt lat="50.72976" lon="2.93727">
        <ele>35.4</ele>
        <time>2018-06-03T15:00:43Z</time>
      </trkpt>
      <trkpt lat="50.72972" lon="2.93748">
        <ele>35.4</ele>
        <time>2018-06-03T15:00:47Z</time>
      </trkpt>
      <trkpt lat="50.72974" lon="2.9377">
        <ele>35.6</ele>
        <time>2018-06-03T15:00:51Z</time>
      </trkpt>
      <trkpt lat="50.72983" lon="2.93799">
        <ele>34.2</ele>
        <time>2018-06-03T15:00:55Z</time>
      </trkpt>
      <trkpt lat="50.72992" lon="2.93836">
        <ele>32.8</ele>
        <time>2018-06-03T15:00:59Z</time>
      </trkpt>
      <trkpt lat="50.72996" lon="2.93878">
        <ele>31.4</ele>
        <time>2018-06-03T15:01:03Z</time>
      </trkpt>
      <trkpt lat="50.72996" lon="2.93914">
        <ele>31.8</ele>
        <time>2018-06-03T15:01:07Z</time>
      </trkpt>
      <trkpt lat="50.72996" lon="2.93944">
        <ele>31.8</ele>
        <time>2018-06-03T15:01:11Z</time>
      </trkpt>
      <trkpt lat="50.72997" lon="2.93972">
        <ele>32</ele>
        <time>2018-06-03T15:01:15Z</time>
      </trkpt>
      <trkpt lat="50.72998" lon="2.94001">
        <ele>32.2</ele>
        <time>2018-06-03T15:01:19Z</time>
      </trkpt>
      <trkpt lat="50.73" lon="2.94031">
        <ele>32</ele>
        <time>2018-06-03T15:01:23Z</time>
      </trkpt>
      <trkpt lat="50.73001" lon="2.9406">
        <ele>32.2</ele>
        <time>2018-06-03T15:01:27Z</time>
      </trkpt>
      <trkpt lat="50.73005" lon="2.94088">
        <ele>32.4</ele>
        <time>2018-06-03T15:01:31Z</time>
      </trkpt>
      <trkpt lat="50.73012" lon="2.94115">
        <ele>32</ele>
        <time>2018-06-03T15:01:35Z</time>
      </trkpt>
      <trkpt lat="50.73022" lon="2.94142">
        <ele>32.2</ele>
        <time>2018-06-03T15:01:39Z</time>
      </trkpt>
      <trkpt lat="50.73032" lon="2.94169">
        <ele>32.2</ele>
        <time>2018-06-03T15:01:43Z</time>
      </trkpt>
      <trkpt lat="50.73041" lon="2.94196">
        <ele>32.4</ele>
        <time>2018-06-03T15:01:47Z</time>
      </trkpt>
      <trkpt lat="50.7305" lon="2.94224">
        <ele>32.4</ele>
        <time>2018-06-03T15:01:51Z</time>
      </trkpt>
      <trkpt lat="50.73058" lon="2.94252">
        <ele>33</ele>
        <time>2018-06-03T15:01:55Z</time>
      </trkpt>
      <trkpt lat="50.73064" lon="2.94281">
        <ele>32.6</ele>
        <time>2018-06-03T15:01:59Z</time>
      </trkpt>
      <trkpt lat="50.73068" lon="2.94309">
        <ele>32.2</ele>
        <time>2018-06-03T15:02:03Z</time>
      </trkpt>
      <trkpt lat="50.73072" lon="2.94336">
        <ele>32.4</ele>
        <time>2018-06-03T15:02:07Z</time>
      </trkpt>
      <trkpt lat="50.73073" lon="2.94359">
        <ele>32.8</ele>
        <time>2018-06-03T15:02:11Z</time>
      </trkpt>
      <trkpt lat="50.7307" lon="2.94381">
        <ele>33.2</ele>
        <time>2018-06-03T15:02:15Z</time>
      </trkpt>
      <trkpt lat="50.73066" lon="2.94398">
        <ele>33</ele>
        <time>2018-06-03T15:02:19Z</time>
      </trkpt>
      <trkpt lat="50.73061" lon="2.94411">
        <ele>33</ele>
        <time>2018-06-03T15:02:23Z</time>
      </trkpt>
      <trkpt lat="50.73057" lon="2.94422">
        <ele>33.6</ele>
        <time>2018-06-03T15:02:27Z</time>
      </trkpt>
      <trkpt lat="50.7305" lon="2.94436">
        <ele>33.2</ele>
        <time>2018-06-03T15:02:31Z</time>
      </trkpt>
      <trkpt lat="50.73042" lon="2.94452">
        <ele>33.2</ele>
        <time>2018-06-03T15:02:35Z</time>
      </trkpt>
      <trkpt lat="50.73031" lon="2.94469">
        <ele>32.8</ele>
        <time>2018-06-03T15:02:39Z</time>
      </trkpt>
      <trkpt lat="50.73019" lon="2.94487">
        <ele>33.2</ele>
        <time>2018-06-03T15:02:43Z</time>
      </trkpt>
      <trkpt lat="50.73002" lon="2.94499">
        <ele>33.4</ele>
        <time>2018-06-03T15:02:47Z</time>
      </trkpt>
      <trkpt lat="50.72987" lon="2.94506">
        <ele>33.6</ele>
        <time>2018-06-03T15:02:51Z</time>
      </trkpt>
      <trkpt lat="50.7297" lon="2.94517">
        <ele>34.2</ele>
        <time>2018-06-03T15:02:55Z</time>
      </trkpt>
      <trkpt lat="50.72954" lon="2.94532">
        <ele>34</ele>
        <time>2018-06-03T15:02:59Z</time>
      </trkpt>
      <trkpt lat="50.72935" lon="2.94547">
        <ele>33.8</ele>
        <time>2018-06-03T15:03:03Z</time>
      </trkpt>
      <trkpt lat="50.72916" lon="2.94563">
        <ele>34</ele>
        <time>2018-06-03T15:03:07Z</time>
      </trkpt>
      <trkpt lat="50.72896" lon="2.9458">
        <ele>33.4</ele>
        <time>2018-06-03T15:03:11Z</time>
      </trkpt>
      <trkpt lat="50.72874" lon="2.94598">
        <ele>33.8</ele>
        <time>2018-06-03T15:03:15Z</time>
      </trkpt>
      <trkpt lat="50.72852" lon="2.94617">
        <ele>33.6</ele>
        <time>2018-06-03T15:03:19Z</time>
      </trkpt>
      <trkpt lat="50.72829" lon="2.94635">
        <ele>33.6</ele>
        <time>2018-06-03T15:03:23Z</time>
      </trkpt>
      <trkpt lat="50.72806" lon="2.94655">
        <ele>33.6</ele>
        <time>2018-06-03T15:03:27Z</time>
      </trkpt>
      <trkpt lat="50.72783" lon="2.94674">
        <ele>33.8</ele>
        <time>2018-06-03T15:03:31Z</time>
      </trkpt>
      <trkpt lat="50.72759" lon="2.94694">
        <ele>33.8</ele>
        <time>2018-06-03T15:03:35Z</time>
      </trkpt>
      <trkpt lat="50.72736" lon="2.94714">
        <ele>33.6</ele>
        <time>2018-06-03T15:03:39Z</time>
      </trkpt>
      <trkpt lat="50.72712" lon="2.94734">
        <ele>33.8</ele>
        <time>2018-06-03T15:03:43Z</time>
      </trkpt>
      <trkpt lat="50.72688" lon="2.94754">
        <ele>33.8</ele>
        <time>2018-06-03T15:03:47Z</time>
      </trkpt>
      <trkpt lat="50.72664" lon="2.94774">
        <ele>33.6</ele>
        <time>2018-06-03T15:03:51Z</time>
      </trkpt>
      <trkpt lat="50.7264" lon="2.94794">
        <ele>34.2</ele>
        <time>2018-06-03T15:03:55Z</time>
      </trkpt>
      <trkpt lat="50.72616" lon="2.94812">
        <ele>34.6</ele>
        <time>2018-06-03T15:03:59Z</time>
      </trkpt>
      <trkpt lat="50.72595" lon="2.9483">
        <ele>34.4</ele>
        <time>2018-06-03T15:04:03Z</time>
      </trkpt>
      <trkpt lat="50.72576" lon="2.94847">
        <ele>34</ele>
        <time>2018-06-03T15:04:07Z</time>
      </trkpt>
      <trkpt lat="50.72559" lon="2.94863">
        <ele>33.2</ele>
        <time>2018-06-03T15:04:11Z</time>
      </trkpt>
      <trkpt lat="50.72544" lon="2.94882">
        <ele>33</ele>
        <time>2018-06-03T15:04:15Z</time>
      </trkpt>
      <trkpt lat="50.72525" lon="2.94888">
        <ele>33.4</ele>
        <time>2018-06-03T15:04:19Z</time>
      </trkpt>
      <trkpt lat="50.72505" lon="2.94882">
        <ele>33.6</ele>
        <time>2018-06-03T15:04:23Z</time>
      </trkpt>
      <trkpt lat="50.72486" lon="2.94885">
        <ele>33.8</ele>
        <time>2018-06-03T15:04:27Z</time>
      </trkpt>
      <trkpt lat="50.72467" lon="2.94897">
        <ele>34.2</ele>
        <time>2018-06-03T15:04:31Z</time>
      </trkpt>
      <trkpt lat="50.72448" lon="2.94909">
        <ele>33.8</ele>
        <time>2018-06-03T15:04:35Z</time>
      </trkpt>
      <trkpt lat="50.72434" lon="2.94919">
        <ele>33.8</ele>
        <time>2018-06-03T15:04:39Z</time>
      </trkpt>
      <trkpt lat="50.72424" lon="2.94925">
        <ele>33.6</ele>
        <time>2018-06-03T15:04:43Z</time>
      </trkpt>
      <trkpt lat="50.72419" lon="2.94941">
        <ele>33.8</ele>
        <time>2018-06-03T15:04:47Z</time>
      </trkpt>
      <trkpt lat="50.72426" lon="2.94966">
        <ele>33.2</ele>
        <time>2018-06-03T15:04:51Z</time>
      </trkpt>
      <trkpt lat="50.7243" lon="2.94989">
        <ele>32.6</ele>
        <time>2018-06-03T15:04:55Z</time>
      </trkpt>
      <trkpt lat="50.72418" lon="2.95002">
        <ele>32.8</ele>
        <time>2018-06-03T15:04:59Z</time>
      </trkpt>
      <trkpt lat="50.72402" lon="2.95013">
        <ele>33</ele>
        <time>2018-06-03T15:05:03Z</time>
      </trkpt>
      <trkpt lat="50.72387" lon="2.95025">
        <ele>33.2</ele>
        <time>2018-06-03T15:05:07Z</time>
      </trkpt>
      <trkpt lat="50.72372" lon="2.95037">
        <ele>33.2</ele>
        <time>2018-06-03T15:05:11Z</time>
      </trkpt>
      <trkpt lat="50.72359" lon="2.9505">
        <ele>33.2</ele>
        <time>2018-06-03T15:05:15Z</time>
      </trkpt>
      <trkpt lat="50.72348" lon="2.95063">
        <ele>32.8</ele>
        <time>2018-06-03T15:05:19Z</time>
      </trkpt>
      <trkpt lat="50.72336" lon="2.95072">
        <ele>33</ele>
        <time>2018-06-03T15:05:23Z</time>
      </trkpt>
      <trkpt lat="50.72324" lon="2.95081">
        <ele>33</ele>
        <time>2018-06-03T15:05:27Z</time>
      </trkpt>
      <trkpt lat="50.7231" lon="2.95089">
        <ele>33.2</ele>
        <time>2018-06-03T15:05:31Z</time>
      </trkpt>
      <trkpt lat="50.72296" lon="2.95099">
        <ele>32.8</ele>
        <time>2018-06-03T15:05:35Z</time>
      </trkpt>
      <trkpt lat="50.72283" lon="2.9511">
        <ele>32.8</ele>
        <time>2018-06-03T15:05:39Z</time>
      </trkpt>
      <trkpt lat="50.72273" lon="2.95125">
        <ele>33</ele>
        <time>2018-06-03T15:05:43Z</time>
      </trkpt>
      <trkpt lat="50.72271" lon="2.95146">
        <ele>33.6</ele>
        <time>2018-06-03T15:05:47Z</time>
      </trkpt>
      <trkpt lat="50.72271" lon="2.95165">
        <ele>33.6</ele>
        <time>2018-06-03T15:05:51Z</time>
      </trkpt>
      <trkpt lat="50.72274" lon="2.95184">
        <ele>33.6</ele>
        <time>2018-06-03T15:05:55Z</time>
      </trkpt>
      <trkpt lat="50.72278" lon="2.95199">
        <ele>33.2</ele>
        <time>2018-06-03T15:05:59Z</time>
      </trkpt>
      <trkpt lat="50.72278" lon="2.95199">
        <ele>32.8</ele>
        <time>2018-06-03T15:06:03Z</time>
      </trkpt>
      <trkpt lat="50.72279" lon="2.95208">
        <ele>33.2</ele>
        <time>2018-06-03T15:06:07Z</time>
      </trkpt>
      <trkpt lat="50.72279" lon="2.95214">
        <ele>32.8</ele>
        <time>2018-06-03T15:06:11Z</time>
      </trkpt>
      <trkpt lat="50.72282" lon="2.95222">
        <ele>33</ele>
        <time>2018-06-03T15:06:15Z</time>
      </trkpt>
      <trkpt lat="50.72283" lon="2.95231">
        <ele>33.2</ele>
        <time>2018-06-03T15:06:19Z</time>
      </trkpt>
      <trkpt lat="50.72285" lon="2.95239">
        <ele>33</ele>
        <time>2018-06-03T15:06:23Z</time>
      </trkpt>
      <trkpt lat="50.72286" lon="2.95245">
        <ele>33.2</ele>
        <time>2018-06-03T15:06:27Z</time>
      </trkpt>
      <trkpt lat="50.72288" lon="2.95252">
        <ele>33.4</ele>
        <time>2018-06-03T15:06:31Z</time>
      </trkpt>
      <trkpt lat="50.7229" lon="2.9526">
        <ele>33.2</ele>
        <time>2018-06-03T15:06:35Z</time>
      </trkpt>
      <trkpt lat="50.72293" lon="2.95266">
        <ele>33.2</ele>
        <time>2018-06-03T15:06:39Z</time>
      </trkpt>
      <trkpt lat="50.72297" lon="2.95273">
        <ele>33.2</ele>
        <time>2018-06-03T15:06:43Z</time>
      </trkpt>
      <trkpt lat="50.72299" lon="2.95278">
        <ele>33.2</ele>
        <time>2018-06-03T15:06:47Z</time>
      </trkpt>
      <trkpt lat="50.72301" lon="2.95284">
        <ele>33.4</ele>
        <time>2018-06-03T15:06:51Z</time>
      </trkpt>
      <trkpt lat="50.72303" lon="2.95292">
        <ele>33.2</ele>
        <time>2018-06-03T15:06:55Z</time>
      </trkpt>
      <trkpt lat="50.72305" lon="2.95299">
        <ele>33.4</ele>
        <time>2018-06-03T15:06:59Z</time>
      </trkpt>
      <trkpt lat="50.72308" lon="2.95303">
        <ele>33.6</ele>
        <time>2018-06-03T15:07:03Z</time>
      </trkpt>
      <trkpt lat="50.7231" lon="2.95309">
        <ele>33</ele>
        <time>2018-06-03T15:07:07Z</time>
      </trkpt>
      <trkpt lat="50.72308" lon="2.95318">
        <ele>32.8</ele>
        <time>2018-06-03T15:07:11Z</time>
      </trkpt>
      <trkpt lat="50.72306" lon="2.95324">
        <ele>32.8</ele>
        <time>2018-06-03T15:07:15Z</time>
      </trkpt>
      <trkpt lat="50.72303" lon="2.95336">
        <ele>33</ele>
        <time>2018-06-03T15:07:19Z</time>
      </trkpt>
      <trkpt lat="50.72297" lon="2.95356">
        <ele>33.2</ele>
        <time>2018-06-03T15:07:23Z</time>
      </trkpt>
      <trkpt lat="50.72292" lon="2.95378">
        <ele>33.6</ele>
        <time>2018-06-03T15:07:27Z</time>
      </trkpt>
      <trkpt lat="50.72287" lon="2.954">
        <ele>33.2</ele>
        <time>2018-06-03T15:07:31Z</time>
      </trkpt>
      <trkpt lat="50.72281" lon="2.95425">
        <ele>33.4</ele>
        <time>2018-06-03T15:07:35Z</time>
      </trkpt>
      <trkpt lat="50.72275" lon="2.95455">
        <ele>33.2</ele>
        <time>2018-06-03T15:07:39Z</time>
      </trkpt>
      <trkpt lat="50.72269" lon="2.95485">
        <ele>33.2</ele>
        <time>2018-06-03T15:07:43Z</time>
      </trkpt>
      <trkpt lat="50.72264" lon="2.95516">
        <ele>33.4</ele>
        <time>2018-06-03T15:07:47Z</time>
      </trkpt>
      <trkpt lat="50.7226" lon="2.95545">
        <ele>33.6</ele>
        <time>2018-06-03T15:07:51Z</time>
      </trkpt>
      <trkpt lat="50.72254" lon="2.95577">
        <ele>33.4</ele>
        <time>2018-06-03T15:07:55Z</time>
      </trkpt>
      <trkpt lat="50.72251" lon="2.9561">
        <ele>33.6</ele>
        <time>2018-06-03T15:07:59Z</time>
      </trkpt>
      <trkpt lat="50.72248" lon="2.95644">
        <ele>33.4</ele>
        <time>2018-06-03T15:08:03Z</time>
      </trkpt>
      <trkpt lat="50.72247" lon="2.95682">
        <ele>33.2</ele>
        <time>2018-06-03T15:08:07Z</time>
      </trkpt>
      <trkpt lat="50.72246" lon="2.95719">
        <ele>33.4</ele>
        <time>2018-06-03T15:08:11Z</time>
      </trkpt>
      <trkpt lat="50.72247" lon="2.95754">
        <ele>33.8</ele>
        <time>2018-06-03T15:08:15Z</time>
      </trkpt>
      <trkpt lat="50.72248" lon="2.95789">
        <ele>33.2</ele>
        <time>2018-06-03T15:08:19Z</time>
      </trkpt>
      <trkpt lat="50.72246" lon="2.95823">
        <ele>33.4</ele>
        <time>2018-06-03T15:08:23Z</time>
      </trkpt>
      <trkpt lat="50.72247" lon="2.95857">
        <ele>33.6</ele>
        <time>2018-06-03T15:08:27Z</time>
      </trkpt>
      <trkpt lat="50.72248" lon="2.95893">
        <ele>33.6</ele>
        <time>2018-06-03T15:08:31Z</time>
      </trkpt>
      <trkpt lat="50.72245" lon="2.95929">
        <ele>33</ele>
        <time>2018-06-03T15:08:35Z</time>
      </trkpt>
      <trkpt lat="50.72231" lon="2.95953">
        <ele>32.8</ele>
        <time>2018-06-03T15:08:39Z</time>
      </trkpt>
      <trkpt lat="50.72225" lon="2.95983">
        <ele>32.8</ele>
        <time>2018-06-03T15:08:43Z</time>
      </trkpt>
      <trkpt lat="50.72226" lon="2.96016">
        <ele>32.6</ele>
        <time>2018-06-03T15:08:47Z</time>
      </trkpt>
      <trkpt lat="50.72235" lon="2.9605">
        <ele>32.8</ele>
        <time>2018-06-03T15:08:51Z</time>
      </trkpt>
      <trkpt lat="50.72248" lon="2.9608">
        <ele>32.8</ele>
        <time>2018-06-03T15:08:55Z</time>
      </trkpt>
      <trkpt lat="50.72253" lon="2.96114">
        <ele>33.2</ele>
        <time>2018-06-03T15:08:59Z</time>
      </trkpt>
      <trkpt lat="50.72252" lon="2.96149">
        <ele>33.6</ele>
        <time>2018-06-03T15:09:03Z</time>
      </trkpt>
      <trkpt lat="50.72252" lon="2.96186">
        <ele>34.2</ele>
        <time>2018-06-03T15:09:07Z</time>
      </trkpt>
      <trkpt lat="50.72252" lon="2.96224">
        <ele>33.6</ele>
        <time>2018-06-03T15:09:11Z</time>
      </trkpt>
      <trkpt lat="50.72248" lon="2.96261">
        <ele>33.8</ele>
        <time>2018-06-03T15:09:15Z</time>
      </trkpt>
      <trkpt lat="50.72244" lon="2.96298">
        <ele>34</ele>
        <time>2018-06-03T15:09:19Z</time>
      </trkpt>
      <trkpt lat="50.72239" lon="2.96336">
        <ele>33.6</ele>
        <time>2018-06-03T15:09:23Z</time>
      </trkpt>
      <trkpt lat="50.72232" lon="2.96373">
        <ele>33.4</ele>
        <time>2018-06-03T15:09:27Z</time>
      </trkpt>
      <trkpt lat="50.72226" lon="2.9641">
        <ele>33.6</ele>
        <time>2018-06-03T15:09:31Z</time>
      </trkpt>
      <trkpt lat="50.7222" lon="2.96443">
        <ele>33.6</ele>
        <time>2018-06-03T15:09:35Z</time>
      </trkpt>
      <trkpt lat="50.72211" lon="2.96479">
        <ele>34</ele>
        <time>2018-06-03T15:09:39Z</time>
      </trkpt>
      <trkpt lat="50.72204" lon="2.96518">
        <ele>34.2</ele>
        <time>2018-06-03T15:09:43Z</time>
      </trkpt>
      <trkpt lat="50.72189" lon="2.96555">
        <ele>34</ele>
        <time>2018-06-03T15:09:47Z</time>
      </trkpt>
      <trkpt lat="50.72175" lon="2.96591">
        <ele>34.4</ele>
        <time>2018-06-03T15:09:51Z</time>
      </trkpt>
      <trkpt lat="50.72161" lon="2.96627">
        <ele>34.8</ele>
        <time>2018-06-03T15:09:55Z</time>
      </trkpt>
      <trkpt lat="50.72147" lon="2.9666">
        <ele>34.2</ele>
        <time>2018-06-03T15:09:59Z</time>
      </trkpt>
      <trkpt lat="50.72131" lon="2.96693">
        <ele>33.8</ele>
        <time>2018-06-03T15:10:03Z</time>
      </trkpt>
      <trkpt lat="50.72116" lon="2.96725">
        <ele>34</ele>
        <time>2018-06-03T15:10:07Z</time>
      </trkpt>
      <trkpt lat="50.721" lon="2.96755">
        <ele>34</ele>
        <time>2018-06-03T15:10:11Z</time>
      </trkpt>
      <trkpt lat="50.72085" lon="2.96788">
        <ele>34</ele>
        <time>2018-06-03T15:10:15Z</time>
      </trkpt>
      <trkpt lat="50.72069" lon="2.9682">
        <ele>33.8</ele>
        <time>2018-06-03T15:10:19Z</time>
      </trkpt>
      <trkpt lat="50.72053" lon="2.9685">
        <ele>33.6</ele>
        <time>2018-06-03T15:10:23Z</time>
      </trkpt>
      <trkpt lat="50.72036" lon="2.9688">
        <ele>34.2</ele>
        <time>2018-06-03T15:10:27Z</time>
      </trkpt>
      <trkpt lat="50.72019" lon="2.96912">
        <ele>34.2</ele>
        <time>2018-06-03T15:10:31Z</time>
      </trkpt>
      <trkpt lat="50.72001" lon="2.96943">
        <ele>34</ele>
        <time>2018-06-03T15:10:35Z</time>
      </trkpt>
      <trkpt lat="50.71984" lon="2.96977">
        <ele>34</ele>
        <time>2018-06-03T15:10:39Z</time>
      </trkpt>
      <trkpt lat="50.71969" lon="2.97013">
        <ele>34.2</ele>
        <time>2018-06-03T15:10:43Z</time>
      </trkpt>
      <trkpt lat="50.71954" lon="2.97047">
        <ele>34.2</ele>
        <time>2018-06-03T15:10:47Z</time>
      </trkpt>
      <trkpt lat="50.7194" lon="2.9708">
        <ele>34</ele>
        <time>2018-06-03T15:10:51Z</time>
      </trkpt>
      <trkpt lat="50.71925" lon="2.97113">
        <ele>34.2</ele>
        <time>2018-06-03T15:10:55Z</time>
      </trkpt>
      <trkpt lat="50.7191" lon="2.97147">
        <ele>34.2</ele>
        <time>2018-06-03T15:10:59Z</time>
      </trkpt>
      <trkpt lat="50.71896" lon="2.97181">
        <ele>34.2</ele>
        <time>2018-06-03T15:11:03Z</time>
      </trkpt>
      <trkpt lat="50.71882" lon="2.97214">
        <ele>34.6</ele>
        <time>2018-06-03T15:11:07Z</time>
      </trkpt>
      <trkpt lat="50.71868" lon="2.97248">
        <ele>34.6</ele>
        <time>2018-06-03T15:11:11Z</time>
      </trkpt>
      <trkpt lat="50.71854" lon="2.97282">
        <ele>34.8</ele>
        <time>2018-06-03T15:11:15Z</time>
      </trkpt>
      <trkpt lat="50.71841" lon="2.97317">
        <ele>34.2</ele>
        <time>2018-06-03T15:11:19Z</time>
      </trkpt>
      <trkpt lat="50.71828" lon="2.97351">
        <ele>34.4</ele>
        <time>2018-06-03T15:11:23Z</time>
      </trkpt>
      <trkpt lat="50.71816" lon="2.97386">
        <ele>34.6</ele>
        <time>2018-06-03T15:11:27Z</time>
      </trkpt>
      <trkpt lat="50.71804" lon="2.97422">
        <ele>34.2</ele>
        <time>2018-06-03T15:11:31Z</time>
      </trkpt>
      <trkpt lat="50.71791" lon="2.9746">
        <ele>34.8</ele>
        <time>2018-06-03T15:11:35Z</time>
      </trkpt>
      <trkpt lat="50.71779" lon="2.97495">
        <ele>35.2</ele>
        <time>2018-06-03T15:11:39Z</time>
      </trkpt>
      <trkpt lat="50.71769" lon="2.9753">
        <ele>34.2</ele>
        <time>2018-06-03T15:11:43Z</time>
      </trkpt>
      <trkpt lat="50.71759" lon="2.97566">
        <ele>34.6</ele>
        <time>2018-06-03T15:11:47Z</time>
      </trkpt>
      <trkpt lat="50.7175" lon="2.97601">
        <ele>34.2</ele>
        <time>2018-06-03T15:11:51Z</time>
      </trkpt>
      <trkpt lat="50.71741" lon="2.97637">
        <ele>35.2</ele>
        <time>2018-06-03T15:11:55Z</time>
      </trkpt>
      <trkpt lat="50.71732" lon="2.97675">
        <ele>34.4</ele>
        <time>2018-06-03T15:11:59Z</time>
      </trkpt>
      <trkpt lat="50.71723" lon="2.97713">
        <ele>34</ele>
        <time>2018-06-03T15:12:03Z</time>
      </trkpt>
      <trkpt lat="50.71715" lon="2.97751">
        <ele>34.2</ele>
        <time>2018-06-03T15:12:07Z</time>
      </trkpt>
      <trkpt lat="50.71707" lon="2.97788">
        <ele>34.2</ele>
        <time>2018-06-03T15:12:11Z</time>
      </trkpt>
      <trkpt lat="50.71698" lon="2.97826">
        <ele>34</ele>
        <time>2018-06-03T15:12:15Z</time>
      </trkpt>
      <trkpt lat="50.71689" lon="2.97863">
        <ele>34.2</ele>
        <time>2018-06-03T15:12:19Z</time>
      </trkpt>
      <trkpt lat="50.71681" lon="2.979">
        <ele>34.2</ele>
        <time>2018-06-03T15:12:23Z</time>
      </trkpt>
      <trkpt lat="50.71672" lon="2.97936">
        <ele>34.2</ele>
        <time>2018-06-03T15:12:27Z</time>
      </trkpt>
      <trkpt lat="50.71664" lon="2.97971">
        <ele>34</ele>
        <time>2018-06-03T15:12:31Z</time>
      </trkpt>
      <trkpt lat="50.71655" lon="2.98008">
        <ele>34.2</ele>
        <time>2018-06-03T15:12:35Z</time>
      </trkpt>
      <trkpt lat="50.71646" lon="2.98047">
        <ele>34.6</ele>
        <time>2018-06-03T15:12:39Z</time>
      </trkpt>
      <trkpt lat="50.71637" lon="2.98086">
        <ele>34.6</ele>
        <time>2018-06-03T15:12:43Z</time>
      </trkpt>
      <trkpt lat="50.71628" lon="2.98125">
        <ele>34.6</ele>
        <time>2018-06-03T15:12:47Z</time>
      </trkpt>
      <trkpt lat="50.71619" lon="2.98163">
        <ele>34.6</ele>
        <time>2018-06-03T15:12:51Z</time>
      </trkpt>
      <trkpt lat="50.71609" lon="2.982">
        <ele>34.4</ele>
        <time>2018-06-03T15:12:55Z</time>
      </trkpt>
      <trkpt lat="50.716" lon="2.98239">
        <ele>34.4</ele>
        <time>2018-06-03T15:12:59Z</time>
      </trkpt>
      <trkpt lat="50.71592" lon="2.98278">
        <ele>34.4</ele>
        <time>2018-06-03T15:13:03Z</time>
      </trkpt>
      <trkpt lat="50.71583" lon="2.98317">
        <ele>34.6</ele>
        <time>2018-06-03T15:13:07Z</time>
      </trkpt>
      <trkpt lat="50.71574" lon="2.98355">
        <ele>34.2</ele>
        <time>2018-06-03T15:13:11Z</time>
      </trkpt>
      <trkpt lat="50.71564" lon="2.9839">
        <ele>33.8</ele>
        <time>2018-06-03T15:13:15Z</time>
      </trkpt>
      <trkpt lat="50.71556" lon="2.98427">
        <ele>33.8</ele>
        <time>2018-06-03T15:13:19Z</time>
      </trkpt>
      <trkpt lat="50.71546" lon="2.98461">
        <ele>33.8</ele>
        <time>2018-06-03T15:13:23Z</time>
      </trkpt>
      <trkpt lat="50.71537" lon="2.98495">
        <ele>33.8</ele>
        <time>2018-06-03T15:13:27Z</time>
      </trkpt>
      <trkpt lat="50.71529" lon="2.98528">
        <ele>33.8</ele>
        <time>2018-06-03T15:13:31Z</time>
      </trkpt>
      <trkpt lat="50.71516" lon="2.98556">
        <ele>34.2</ele>
        <time>2018-06-03T15:13:35Z</time>
      </trkpt>
      <trkpt lat="50.71501" lon="2.98582">
        <ele>34.2</ele>
        <time>2018-06-03T15:13:39Z</time>
      </trkpt>
      <trkpt lat="50.71486" lon="2.9861">
        <ele>33.8</ele>
        <time>2018-06-03T15:13:43Z</time>
      </trkpt>
      <trkpt lat="50.71471" lon="2.98637">
        <ele>33.6</ele>
        <time>2018-06-03T15:13:47Z</time>
      </trkpt>
      <trkpt lat="50.71458" lon="2.98662">
        <ele>33.6</ele>
        <time>2018-06-03T15:13:51Z</time>
      </trkpt>
      <trkpt lat="50.71446" lon="2.98686">
        <ele>34</ele>
        <time>2018-06-03T15:13:55Z</time>
      </trkpt>
      <trkpt lat="50.71432" lon="2.98711">
        <ele>33.8</ele>
        <time>2018-06-03T15:13:59Z</time>
      </trkpt>
      <trkpt lat="50.71416" lon="2.98735">
        <ele>33.6</ele>
        <time>2018-06-03T15:14:03Z</time>
      </trkpt>
      <trkpt lat="50.71403" lon="2.98764">
        <ele>34.2</ele>
        <time>2018-06-03T15:14:07Z</time>
      </trkpt>
      <trkpt lat="50.71395" lon="2.98797">
        <ele>34</ele>
        <time>2018-06-03T15:14:11Z</time>
      </trkpt>
      <trkpt lat="50.71387" lon="2.98828">
        <ele>34.2</ele>
        <time>2018-06-03T15:14:15Z</time>
      </trkpt>
      <trkpt lat="50.71381" lon="2.98857">
        <ele>34</ele>
        <time>2018-06-03T15:14:19Z</time>
      </trkpt>
      <trkpt lat="50.71379" lon="2.98886">
        <ele>33.8</ele>
        <time>2018-06-03T15:14:23Z</time>
      </trkpt>
      <trkpt lat="50.71374" lon="2.98918">
        <ele>34</ele>
        <time>2018-06-03T15:14:27Z</time>
      </trkpt>
      <trkpt lat="50.71371" lon="2.98952">
        <ele>34.4</ele>
        <time>2018-06-03T15:14:31Z</time>
      </trkpt>
      <trkpt lat="50.71367" lon="2.98991">
        <ele>34.2</ele>
        <time>2018-06-03T15:14:35Z</time>
      </trkpt>
      <trkpt lat="50.71363" lon="2.99027">
        <ele>34.2</ele>
        <time>2018-06-03T15:14:39Z</time>
      </trkpt>
      <trkpt lat="50.71356" lon="2.99061">
        <ele>34</ele>
        <time>2018-06-03T15:14:43Z</time>
      </trkpt>
      <trkpt lat="50.71348" lon="2.99092">
        <ele>33.8</ele>
        <time>2018-06-03T15:14:47Z</time>
      </trkpt>
      <trkpt lat="50.71346" lon="2.99125">
        <ele>34.2</ele>
        <time>2018-06-03T15:14:51Z</time>
      </trkpt>
      <trkpt lat="50.71344" lon="2.99153">
        <ele>34</ele>
        <time>2018-06-03T15:14:55Z</time>
      </trkpt>
      <trkpt lat="50.71341" lon="2.99176">
        <ele>34.2</ele>
        <time>2018-06-03T15:14:59Z</time>
      </trkpt>
      <trkpt lat="50.71329" lon="2.99186">
        <ele>33.8</ele>
        <time>2018-06-03T15:15:03Z</time>
      </trkpt>
      <trkpt lat="50.71313" lon="2.99198">
        <ele>34.6</ele>
        <time>2018-06-03T15:15:07Z</time>
      </trkpt>
      <trkpt lat="50.713" lon="2.99222">
        <ele>34.4</ele>
        <time>2018-06-03T15:15:11Z</time>
      </trkpt>
      <trkpt lat="50.7129" lon="2.99246">
        <ele>34.6</ele>
        <time>2018-06-03T15:15:15Z</time>
      </trkpt>
      <trkpt lat="50.71278" lon="2.99275">
        <ele>34.4</ele>
        <time>2018-06-03T15:15:19Z</time>
      </trkpt>
      <trkpt lat="50.71264" lon="2.99302">
        <ele>34.6</ele>
        <time>2018-06-03T15:15:23Z</time>
      </trkpt>
      <trkpt lat="50.71253" lon="2.99328">
        <ele>34.4</ele>
        <time>2018-06-03T15:15:27Z</time>
      </trkpt>
      <trkpt lat="50.71242" lon="2.99358">
        <ele>34.6</ele>
        <time>2018-06-03T15:15:31Z</time>
      </trkpt>
      <trkpt lat="50.71229" lon="2.99386">
        <ele>34.2</ele>
        <time>2018-06-03T15:15:35Z</time>
      </trkpt>
      <trkpt lat="50.71216" lon="2.99406">
        <ele>34.2</ele>
        <time>2018-06-03T15:15:39Z</time>
      </trkpt>
      <trkpt lat="50.71202" lon="2.9942">
        <ele>33.8</ele>
        <time>2018-06-03T15:15:43Z</time>
      </trkpt>
      <trkpt lat="50.71194" lon="2.99434">
        <ele>33.2</ele>
        <time>2018-06-03T15:15:47Z</time>
      </trkpt>
      <trkpt lat="50.71184" lon="2.99439">
        <ele>33.6</ele>
        <time>2018-06-03T15:15:51Z</time>
      </trkpt>
      <trkpt lat="50.71172" lon="2.9945">
        <ele>34</ele>
        <time>2018-06-03T15:15:55Z</time>
      </trkpt>
      <trkpt lat="50.71169" lon="2.99466">
        <ele>34.2</ele>
        <time>2018-06-03T15:15:59Z</time>
      </trkpt>
      <trkpt lat="50.71176" lon="2.99491">
        <ele>34.2</ele>
        <time>2018-06-03T15:16:03Z</time>
      </trkpt>
      <trkpt lat="50.71167" lon="2.99517">
        <ele>34.4</ele>
        <time>2018-06-03T15:16:07Z</time>
      </trkpt>
      <trkpt lat="50.71155" lon="2.99539">
        <ele>34.2</ele>
        <time>2018-06-03T15:16:11Z</time>
      </trkpt>
      <trkpt lat="50.71141" lon="2.99561">
        <ele>34</ele>
        <time>2018-06-03T15:16:15Z</time>
      </trkpt>
      <trkpt lat="50.71131" lon="2.99583">
        <ele>34.4</ele>
        <time>2018-06-03T15:16:19Z</time>
      </trkpt>
      <trkpt lat="50.71121" lon="2.99604">
        <ele>34</ele>
        <time>2018-06-03T15:16:23Z</time>
      </trkpt>
      <trkpt lat="50.71109" lon="2.99628">
        <ele>34.2</ele>
        <time>2018-06-03T15:16:27Z</time>
      </trkpt>
      <trkpt lat="50.711" lon="2.99653">
        <ele>33.8</ele>
        <time>2018-06-03T15:16:31Z</time>
      </trkpt>
      <trkpt lat="50.71088" lon="2.99681">
        <ele>34.2</ele>
        <time>2018-06-03T15:16:35Z</time>
      </trkpt>
      <trkpt lat="50.71077" lon="2.99708">
        <ele>34.4</ele>
        <time>2018-06-03T15:16:39Z</time>
      </trkpt>
      <trkpt lat="50.71068" lon="2.99736">
        <ele>34.2</ele>
        <time>2018-06-03T15:16:43Z</time>
      </trkpt>
      <trkpt lat="50.71061" lon="2.99765">
        <ele>34</ele>
        <time>2018-06-03T15:16:47Z</time>
      </trkpt>
      <trkpt lat="50.71053" lon="2.99794">
        <ele>34.8</ele>
        <time>2018-06-03T15:16:51Z</time>
      </trkpt>
      <trkpt lat="50.71045" lon="2.99826">
        <ele>34.4</ele>
        <time>2018-06-03T15:16:55Z</time>
      </trkpt>
      <trkpt lat="50.71036" lon="2.99857">
        <ele>34.6</ele>
        <time>2018-06-03T15:16:59Z</time>
      </trkpt>
      <trkpt lat="50.71031" lon="2.99887">
        <ele>34.8</ele>
        <time>2018-06-03T15:17:03Z</time>
      </trkpt>
      <trkpt lat="50.71025" lon="2.99915">
        <ele>34.6</ele>
        <time>2018-06-03T15:17:07Z</time>
      </trkpt>
      <trkpt lat="50.7102" lon="2.9994">
        <ele>34.2</ele>
        <time>2018-06-03T15:17:11Z</time>
      </trkpt>
      <trkpt lat="50.71015" lon="2.99966">
        <ele>34.2</ele>
        <time>2018-06-03T15:17:15Z</time>
      </trkpt>
      <trkpt lat="50.71005" lon="2.9999">
        <ele>34.8</ele>
        <time>2018-06-03T15:17:19Z</time>
      </trkpt>
      <trkpt lat="50.70994" lon="3.00014">
        <ele>34.6</ele>
        <time>2018-06-03T15:17:23Z</time>
      </trkpt>
      <trkpt lat="50.70991" lon="3.00042">
        <ele>34.8</ele>
        <time>2018-06-03T15:17:27Z</time>
      </trkpt>
      <trkpt lat="50.70987" lon="3.0007">
        <ele>34.4</ele>
        <time>2018-06-03T15:17:31Z</time>
      </trkpt>
      <trkpt lat="50.70984" lon="3.00096">
        <ele>34.4</ele>
        <time>2018-06-03T15:17:35Z</time>
      </trkpt>
      <trkpt lat="50.70981" lon="3.00125">
        <ele>34.4</ele>
        <time>2018-06-03T15:17:39Z</time>
      </trkpt>
      <trkpt lat="50.70978" lon="3.00155">
        <ele>35</ele>
        <time>2018-06-03T15:17:43Z</time>
      </trkpt>
      <trkpt lat="50.70974" lon="3.00185">
        <ele>35.2</ele>
        <time>2018-06-03T15:17:47Z</time>
      </trkpt>
      <trkpt lat="50.7097" lon="3.00215">
        <ele>34.8</ele>
        <time>2018-06-03T15:17:51Z</time>
      </trkpt>
      <trkpt lat="50.70966" lon="3.00242">
        <ele>34.8</ele>
        <time>2018-06-03T15:17:55Z</time>
      </trkpt>
      <trkpt lat="50.70963" lon="3.0027">
        <ele>34.4</ele>
        <time>2018-06-03T15:17:59Z</time>
      </trkpt>
      <trkpt lat="50.70959" lon="3.003">
        <ele>35</ele>
        <time>2018-06-03T15:18:03Z</time>
      </trkpt>
      <trkpt lat="50.70955" lon="3.0033">
        <ele>34.2</ele>
        <time>2018-06-03T15:18:07Z</time>
      </trkpt>
      <trkpt lat="50.70951" lon="3.00361">
        <ele>35</ele>
        <time>2018-06-03T15:18:11Z</time>
      </trkpt>
      <trkpt lat="50.70946" lon="3.00391">
        <ele>34.4</ele>
        <time>2018-06-03T15:18:15Z</time>
      </trkpt>
      <trkpt lat="50.7094" lon="3.00422">
        <ele>34.6</ele>
        <time>2018-06-03T15:18:19Z</time>
      </trkpt>
      <trkpt lat="50.70934" lon="3.00452">
        <ele>34.8</ele>
        <time>2018-06-03T15:18:23Z</time>
      </trkpt>
      <trkpt lat="50.70927" lon="3.00482">
        <ele>34.4</ele>
        <time>2018-06-03T15:18:27Z</time>
      </trkpt>
      <trkpt lat="50.70919" lon="3.00511">
        <ele>34.6</ele>
        <time>2018-06-03T15:18:31Z</time>
      </trkpt>
      <trkpt lat="50.70911" lon="3.0054">
        <ele>34.6</ele>
        <time>2018-06-03T15:18:35Z</time>
      </trkpt>
      <trkpt lat="50.70903" lon="3.00569">
        <ele>34.8</ele>
        <time>2018-06-03T15:18:39Z</time>
      </trkpt>
      <trkpt lat="50.70893" lon="3.00597">
        <ele>35.2</ele>
        <time>2018-06-03T15:18:43Z</time>
      </trkpt>
      <trkpt lat="50.70882" lon="3.00624">
        <ele>34.6</ele>
        <time>2018-06-03T15:18:47Z</time>
      </trkpt>
      <trkpt lat="50.70872" lon="3.00651">
        <ele>34.6</ele>
        <time>2018-06-03T15:18:51Z</time>
      </trkpt>
      <trkpt lat="50.7086" lon="3.00679">
        <ele>34.2</ele>
        <time>2018-06-03T15:18:55Z</time>
      </trkpt>
      <trkpt lat="50.70848" lon="3.00705">
        <ele>34.6</ele>
        <time>2018-06-03T15:18:59Z</time>
      </trkpt>
      <trkpt lat="50.70835" lon="3.00732">
        <ele>34.8</ele>
        <time>2018-06-03T15:19:03Z</time>
      </trkpt>
      <trkpt lat="50.70822" lon="3.00758">
        <ele>34.8</ele>
        <time>2018-06-03T15:19:07Z</time>
      </trkpt>
      <trkpt lat="50.70809" lon="3.00783">
        <ele>34.4</ele>
        <time>2018-06-03T15:19:11Z</time>
      </trkpt>
      <trkpt lat="50.70794" lon="3.00807">
        <ele>34.6</ele>
        <time>2018-06-03T15:19:15Z</time>
      </trkpt>
      <trkpt lat="50.70779" lon="3.00831">
        <ele>34.4</ele>
        <time>2018-06-03T15:19:19Z</time>
      </trkpt>
      <trkpt lat="50.70764" lon="3.00854">
        <ele>34.2</ele>
        <time>2018-06-03T15:19:23Z</time>
      </trkpt>
      <trkpt lat="50.70748" lon="3.00877">
        <ele>35.4</ele>
        <time>2018-06-03T15:19:27Z</time>
      </trkpt>
      <trkpt lat="50.70732" lon="3.00897">
        <ele>34.6</ele>
        <time>2018-06-03T15:19:31Z</time>
      </trkpt>
      <trkpt lat="50.70715" lon="3.00918">
        <ele>35</ele>
        <time>2018-06-03T15:19:35Z</time>
      </trkpt>
      <trkpt lat="50.70698" lon="3.00939">
        <ele>35</ele>
        <time>2018-06-03T15:19:39Z</time>
      </trkpt>
      <trkpt lat="50.70681" lon="3.0096">
        <ele>35.4</ele>
        <time>2018-06-03T15:19:43Z</time>
      </trkpt>
      <trkpt lat="50.70665" lon="3.0098">
        <ele>35.2</ele>
        <time>2018-06-03T15:19:47Z</time>
      </trkpt>
      <trkpt lat="50.7065" lon="3.00998">
        <ele>35.6</ele>
        <time>2018-06-03T15:19:51Z</time>
      </trkpt>
      <trkpt lat="50.70635" lon="3.01016">
        <ele>35.4</ele>
        <time>2018-06-03T15:19:55Z</time>
      </trkpt>
      <trkpt lat="50.70621" lon="3.01032">
        <ele>35.4</ele>
        <time>2018-06-03T15:19:59Z</time>
      </trkpt>
      <trkpt lat="50.70609" lon="3.01048">
        <ele>35.2</ele>
        <time>2018-06-03T15:20:03Z</time>
      </trkpt>
      <trkpt lat="50.70596" lon="3.01062">
        <ele>35.2</ele>
        <time>2018-06-03T15:20:07Z</time>
      </trkpt>
      <trkpt lat="50.70585" lon="3.01075">
        <ele>35.8</ele>
        <time>2018-06-03T15:20:11Z</time>
      </trkpt>
      <trkpt lat="50.70577" lon="3.01085">
        <ele>36</ele>
        <time>2018-06-03T15:20:15Z</time>
      </trkpt>
      <trkpt lat="50.70572" lon="3.01094">
        <ele>35.6</ele>
        <time>2018-06-03T15:20:19Z</time>
      </trkpt>
      <trkpt lat="50.70566" lon="3.01105">
        <ele>35.8</ele>
        <time>2018-06-03T15:20:23Z</time>
      </trkpt>
      <trkpt lat="50.70558" lon="3.01114">
        <ele>35.6</ele>
        <time>2018-06-03T15:20:27Z</time>
      </trkpt>
      <trkpt lat="50.70549" lon="3.01125">
        <ele>35.8</ele>
        <time>2018-06-03T15:20:31Z</time>
      </trkpt>
      <trkpt lat="50.70539" lon="3.01137">
        <ele>35.6</ele>
        <time>2018-06-03T15:20:35Z</time>
      </trkpt>
      <trkpt lat="50.70526" lon="3.01148">
        <ele>35.8</ele>
        <time>2018-06-03T15:20:39Z</time>
      </trkpt>
      <trkpt lat="50.70513" lon="3.01159">
        <ele>35.8</ele>
        <time>2018-06-03T15:20:43Z</time>
      </trkpt>
      <trkpt lat="50.705" lon="3.0117">
        <ele>36</ele>
        <time>2018-06-03T15:20:47Z</time>
      </trkpt>
      <trkpt lat="50.70486" lon="3.0118">
        <ele>36.2</ele>
        <time>2018-06-03T15:20:51Z</time>
      </trkpt>
      <trkpt lat="50.70472" lon="3.0119">
        <ele>36.6</ele>
        <time>2018-06-03T15:20:55Z</time>
      </trkpt>
      <trkpt lat="50.70457" lon="3.01201">
        <ele>36.6</ele>
        <time>2018-06-03T15:20:59Z</time>
      </trkpt>
      <trkpt lat="50.70444" lon="3.01212">
        <ele>36.6</ele>
        <time>2018-06-03T15:21:03Z</time>
      </trkpt>
      <trkpt lat="50.7043" lon="3.01224">
        <ele>36.8</ele>
        <time>2018-06-03T15:21:07Z</time>
      </trkpt>
      <trkpt lat="50.70417" lon="3.0124">
        <ele>36.8</ele>
        <time>2018-06-03T15:21:11Z</time>
      </trkpt>
      <trkpt lat="50.70403" lon="3.01257">
        <ele>36.6</ele>
        <time>2018-06-03T15:21:15Z</time>
      </trkpt>
      <trkpt lat="50.70392" lon="3.01276">
        <ele>37</ele>
        <time>2018-06-03T15:21:19Z</time>
      </trkpt>
      <trkpt lat="50.70386" lon="3.01297">
        <ele>36.8</ele>
        <time>2018-06-03T15:21:23Z</time>
      </trkpt>
      <trkpt lat="50.70375" lon="3.01313">
        <ele>36.6</ele>
        <time>2018-06-03T15:21:27Z</time>
      </trkpt>
      <trkpt lat="50.70363" lon="3.01328">
        <ele>36.6</ele>
        <time>2018-06-03T15:21:31Z</time>
      </trkpt>
      <trkpt lat="50.70351" lon="3.01343">
        <ele>37</ele>
        <time>2018-06-03T15:21:35Z</time>
      </trkpt>
      <trkpt lat="50.70342" lon="3.01357">
        <ele>36.8</ele>
        <time>2018-06-03T15:21:39Z</time>
      </trkpt>
      <trkpt lat="50.70335" lon="3.01373">
        <ele>37</ele>
        <time>2018-06-03T15:21:43Z</time>
      </trkpt>
      <trkpt lat="50.70326" lon="3.01393">
        <ele>37.6</ele>
        <time>2018-06-03T15:21:47Z</time>
      </trkpt>
      <trkpt lat="50.70316" lon="3.01413">
        <ele>37.6</ele>
        <time>2018-06-03T15:21:51Z</time>
      </trkpt>
      <trkpt lat="50.70303" lon="3.0143">
        <ele>37.4</ele>
        <time>2018-06-03T15:21:55Z</time>
      </trkpt>
      <trkpt lat="50.70289" lon="3.01447">
        <ele>37.6</ele>
        <time>2018-06-03T15:21:59Z</time>
      </trkpt>
      <trkpt lat="50.70275" lon="3.01465">
        <ele>37</ele>
        <time>2018-06-03T15:22:03Z</time>
      </trkpt>
      <trkpt lat="50.70261" lon="3.01482">
        <ele>37.6</ele>
        <time>2018-06-03T15:22:07Z</time>
      </trkpt>
      <trkpt lat="50.70247" lon="3.01499">
        <ele>38</ele>
        <time>2018-06-03T15:22:11Z</time>
      </trkpt>
      <trkpt lat="50.70234" lon="3.01516">
        <ele>37.8</ele>
        <time>2018-06-03T15:22:15Z</time>
      </trkpt>
      <trkpt lat="50.70221" lon="3.01534">
        <ele>37.8</ele>
        <time>2018-06-03T15:22:19Z</time>
      </trkpt>
      <trkpt lat="50.70208" lon="3.0155">
        <ele>37.6</ele>
        <time>2018-06-03T15:22:23Z</time>
      </trkpt>
      <trkpt lat="50.70195" lon="3.01565">
        <ele>37.6</ele>
        <time>2018-06-03T15:22:27Z</time>
      </trkpt>
      <trkpt lat="50.70183" lon="3.01577">
        <ele>37.8</ele>
        <time>2018-06-03T15:22:31Z</time>
      </trkpt>
      <trkpt lat="50.7017" lon="3.01588">
        <ele>37.6</ele>
        <time>2018-06-03T15:22:35Z</time>
      </trkpt>
      <trkpt lat="50.70154" lon="3.01601">
        <ele>37.6</ele>
        <time>2018-06-03T15:22:39Z</time>
      </trkpt>
      <trkpt lat="50.70136" lon="3.01621">
        <ele>37.6</ele>
        <time>2018-06-03T15:22:43Z</time>
      </trkpt>
      <trkpt lat="50.7012" lon="3.01641">
        <ele>37.6</ele>
        <time>2018-06-03T15:22:47Z</time>
      </trkpt>
      <trkpt lat="50.70104" lon="3.0166">
        <ele>37.6</ele>
        <time>2018-06-03T15:22:51Z</time>
      </trkpt>
      <trkpt lat="50.70089" lon="3.01678">
        <ele>37.6</ele>
        <time>2018-06-03T15:22:55Z</time>
      </trkpt>
      <trkpt lat="50.70073" lon="3.01695">
        <ele>37.6</ele>
        <time>2018-06-03T15:22:59Z</time>
      </trkpt>
      <trkpt lat="50.70057" lon="3.01713">
        <ele>38</ele>
        <time>2018-06-03T15:23:03Z</time>
      </trkpt>
      <trkpt lat="50.70041" lon="3.01732">
        <ele>37.6</ele>
        <time>2018-06-03T15:23:07Z</time>
      </trkpt>
      <trkpt lat="50.70027" lon="3.01751">
        <ele>37.2</ele>
        <time>2018-06-03T15:23:11Z</time>
      </trkpt>
      <trkpt lat="50.70012" lon="3.01769">
        <ele>37</ele>
        <time>2018-06-03T15:23:15Z</time>
      </trkpt>
      <trkpt lat="50.69999" lon="3.01785">
        <ele>37.4</ele>
        <time>2018-06-03T15:23:19Z</time>
      </trkpt>
      <trkpt lat="50.69988" lon="3.01797">
        <ele>37</ele>
        <time>2018-06-03T15:23:23Z</time>
      </trkpt>
      <trkpt lat="50.69988" lon="3.01797">
        <ele>37.2</ele>
        <time>2018-06-03T15:23:27Z</time>
      </trkpt>
      <trkpt lat="50.69988" lon="3.01797">
        <ele>37.2</ele>
        <time>2018-06-03T15:23:31Z</time>
      </trkpt>
      <trkpt lat="50.69988" lon="3.01797">
        <ele>37.2</ele>
        <time>2018-06-03T15:23:35Z</time>
      </trkpt>
      <trkpt lat="50.69988" lon="3.01797">
        <ele>37.6</ele>
        <time>2018-06-03T15:23:39Z</time>
      </trkpt>
      <trkpt lat="50.69988" lon="3.01797">
        <ele>37.4</ele>
        <time>2018-06-03T15:23:43Z</time>
      </trkpt>
      <trkpt lat="50.69988" lon="3.01797">
        <ele>37.4</ele>
        <time>2018-06-03T15:23:47Z</time>
      </trkpt>
      <trkpt lat="50.69988" lon="3.01797">
        <ele>36.8</ele>
        <time>2018-06-03T15:23:51Z</time>
      </trkpt>
      <trkpt lat="50.69988" lon="3.01797">
        <ele>37</ele>
        <time>2018-06-03T15:23:55Z</time>
      </trkpt>
      <trkpt lat="50.69988" lon="3.01797">
        <ele>37</ele>
        <time>2018-06-03T15:23:59Z</time>
      </trkpt>
      <trkpt lat="50.69988" lon="3.01797">
        <ele>37</ele>
        <time>2018-06-03T15:24:03Z</time>
      </trkpt>
      <trkpt lat="50.69988" lon="3.01797">
        <ele>37</ele>
        <time>2018-06-03T15:24:07Z</time>
      </trkpt>
      <trkpt lat="50.69988" lon="3.01797">
        <ele>37</ele>
        <time>2018-06-03T15:24:11Z</time>
      </trkpt>
      <trkpt lat="50.69988" lon="3.01797">
        <ele>37.2</ele>
        <time>2018-06-03T15:24:15Z</time>
      </trkpt>
      <trkpt lat="50.69988" lon="3.01797">
        <ele>37.2</ele>
        <time>2018-06-03T15:24:19Z</time>
      </trkpt>
      <trkpt lat="50.69988" lon="3.01797">
        <ele>37.6</ele>
        <time>2018-06-03T15:24:23Z</time>
      </trkpt>
      <trkpt lat="50.69985" lon="3.01802">
        <ele>37.8</ele>
        <time>2018-06-03T15:24:27Z</time>
      </trkpt>
      <trkpt lat="50.69979" lon="3.01809">
        <ele>37.8</ele>
        <time>2018-06-03T15:24:31Z</time>
      </trkpt>
      <trkpt lat="50.6997" lon="3.0182">
        <ele>37.6</ele>
        <time>2018-06-03T15:24:35Z</time>
      </trkpt>
      <trkpt lat="50.69959" lon="3.01832">
        <ele>37.4</ele>
        <time>2018-06-03T15:24:39Z</time>
      </trkpt>
      <trkpt lat="50.69947" lon="3.01846">
        <ele>37.4</ele>
        <time>2018-06-03T15:24:43Z</time>
      </trkpt>
      <trkpt lat="50.69933" lon="3.01861">
        <ele>37.6</ele>
        <time>2018-06-03T15:24:47Z</time>
      </trkpt>
      <trkpt lat="50.69921" lon="3.01875">
        <ele>37.6</ele>
        <time>2018-06-03T15:24:51Z</time>
      </trkpt>
      <trkpt lat="50.69908" lon="3.0189">
        <ele>37.6</ele>
        <time>2018-06-03T15:24:55Z</time>
      </trkpt>
      <trkpt lat="50.69895" lon="3.01905">
        <ele>37.6</ele>
        <time>2018-06-03T15:24:59Z</time>
      </trkpt>
      <trkpt lat="50.69882" lon="3.01921">
        <ele>37.6</ele>
        <time>2018-06-03T15:25:03Z</time>
      </trkpt>
      <trkpt lat="50.69869" lon="3.01939">
        <ele>37.6</ele>
        <time>2018-06-03T15:25:07Z</time>
      </trkpt>
      <trkpt lat="50.69856" lon="3.01955">
        <ele>37.4</ele>
        <time>2018-06-03T15:25:11Z</time>
      </trkpt>
      <trkpt lat="50.69842" lon="3.01973">
        <ele>37.2</ele>
        <time>2018-06-03T15:25:15Z</time>
      </trkpt>
      <trkpt lat="50.6983" lon="3.01991">
        <ele>37.6</ele>
        <time>2018-06-03T15:25:19Z</time>
      </trkpt>
      <trkpt lat="50.69821" lon="3.02006">
        <ele>37.6</ele>
        <time>2018-06-03T15:25:23Z</time>
      </trkpt>
      <trkpt lat="50.6981" lon="3.02024">
        <ele>38</ele>
        <time>2018-06-03T15:25:27Z</time>
      </trkpt>
      <trkpt lat="50.69798" lon="3.02043">
        <ele>37.4</ele>
        <time>2018-06-03T15:25:31Z</time>
      </trkpt>
      <trkpt lat="50.69787" lon="3.02063">
        <ele>37.6</ele>
        <time>2018-06-03T15:25:35Z</time>
      </trkpt>
      <trkpt lat="50.69776" lon="3.02085">
        <ele>37.8</ele>
        <time>2018-06-03T15:25:39Z</time>
      </trkpt>
      <trkpt lat="50.69766" lon="3.02107">
        <ele>37.6</ele>
        <time>2018-06-03T15:25:43Z</time>
      </trkpt>
      <trkpt lat="50.69754" lon="3.02132">
        <ele>38</ele>
        <time>2018-06-03T15:25:47Z</time>
      </trkpt>
      <trkpt lat="50.69743" lon="3.02158">
        <ele>38.2</ele>
        <time>2018-06-03T15:25:51Z</time>
      </trkpt>
      <trkpt lat="50.69733" lon="3.02184">
        <ele>38.4</ele>
        <time>2018-06-03T15:25:55Z</time>
      </trkpt>
      <trkpt lat="50.69724" lon="3.0221">
        <ele>38.4</ele>
        <time>2018-06-03T15:25:59Z</time>
      </trkpt>
      <trkpt lat="50.69715" lon="3.02234">
        <ele>38</ele>
        <time>2018-06-03T15:26:03Z</time>
      </trkpt>
      <trkpt lat="50.69708" lon="3.02255">
        <ele>38</ele>
        <time>2018-06-03T15:26:07Z</time>
      </trkpt>
      <trkpt lat="50.69701" lon="3.02276">
        <ele>38</ele>
        <time>2018-06-03T15:26:11Z</time>
      </trkpt>
      <trkpt lat="50.69692" lon="3.02302">
        <ele>38.2</ele>
        <time>2018-06-03T15:26:15Z</time>
      </trkpt>
      <trkpt lat="50.69685" lon="3.02329">
        <ele>38</ele>
        <time>2018-06-03T15:26:19Z</time>
      </trkpt>
      <trkpt lat="50.69678" lon="3.02353">
        <ele>39</ele>
        <time>2018-06-03T15:26:23Z</time>
      </trkpt>
      <trkpt lat="50.69671" lon="3.02379">
        <ele>38.8</ele>
        <time>2018-06-03T15:26:27Z</time>
      </trkpt>
      <trkpt lat="50.69664" lon="3.02406">
        <ele>38.8</ele>
        <time>2018-06-03T15:26:31Z</time>
      </trkpt>
      <trkpt lat="50.69659" lon="3.02436">
        <ele>39</ele>
        <time>2018-06-03T15:26:35Z</time>
      </trkpt>
      <trkpt lat="50.69655" lon="3.02464">
        <ele>39.2</ele>
        <time>2018-06-03T15:26:39Z</time>
      </trkpt>
      <trkpt lat="50.6965" lon="3.02493">
        <ele>39</ele>
        <time>2018-06-03T15:26:43Z</time>
      </trkpt>
      <trkpt lat="50.69646" lon="3.02523">
        <ele>38.6</ele>
        <time>2018-06-03T15:26:47Z</time>
      </trkpt>
      <trkpt lat="50.6964" lon="3.02554">
        <ele>38</ele>
        <time>2018-06-03T15:26:51Z</time>
      </trkpt>
      <trkpt lat="50.69634" lon="3.02584">
        <ele>38.8</ele>
        <time>2018-06-03T15:26:55Z</time>
      </trkpt>
      <trkpt lat="50.69628" lon="3.02614">
        <ele>38.2</ele>
        <time>2018-06-03T15:26:59Z</time>
      </trkpt>
      <trkpt lat="50.69623" lon="3.02644">
        <ele>38</ele>
        <time>2018-06-03T15:27:03Z</time>
      </trkpt>
      <trkpt lat="50.69616" lon="3.02675">
        <ele>38.2</ele>
        <time>2018-06-03T15:27:07Z</time>
      </trkpt>
      <trkpt lat="50.6961" lon="3.02707">
        <ele>38.6</ele>
        <time>2018-06-03T15:27:11Z</time>
      </trkpt>
      <trkpt lat="50.69603" lon="3.02738">
        <ele>38.4</ele>
        <time>2018-06-03T15:27:15Z</time>
      </trkpt>
      <trkpt lat="50.69596" lon="3.02769">
        <ele>38.4</ele>
        <time>2018-06-03T15:27:19Z</time>
      </trkpt>
      <trkpt lat="50.69589" lon="3.028">
        <ele>38.2</ele>
        <time>2018-06-03T15:27:23Z</time>
      </trkpt>
      <trkpt lat="50.69581" lon="3.02831">
        <ele>38.6</ele>
        <time>2018-06-03T15:27:27Z</time>
      </trkpt>
      <trkpt lat="50.69573" lon="3.02862">
        <ele>39</ele>
        <time>2018-06-03T15:27:31Z</time>
      </trkpt>
      <trkpt lat="50.69565" lon="3.02889">
        <ele>39</ele>
        <time>2018-06-03T15:27:35Z</time>
      </trkpt>
      <trkpt lat="50.69556" lon="3.02915">
        <ele>38.6</ele>
        <time>2018-06-03T15:27:39Z</time>
      </trkpt>
      <trkpt lat="50.69547" lon="3.02943">
        <ele>39.2</ele>
        <time>2018-06-03T15:27:43Z</time>
      </trkpt>
      <trkpt lat="50.69539" lon="3.02972">
        <ele>39.2</ele>
        <time>2018-06-03T15:27:47Z</time>
      </trkpt>
      <trkpt lat="50.69531" lon="3.03002">
        <ele>38.8</ele>
        <time>2018-06-03T15:27:51Z</time>
      </trkpt>
      <trkpt lat="50.69523" lon="3.03028">
        <ele>39.6</ele>
        <time>2018-06-03T15:27:55Z</time>
      </trkpt>
      <trkpt lat="50.69515" lon="3.03056">
        <ele>39.4</ele>
        <time>2018-06-03T15:27:59Z</time>
      </trkpt>
      <trkpt lat="50.69506" lon="3.03084">
        <ele>39.4</ele>
        <time>2018-06-03T15:28:03Z</time>
      </trkpt>
      <trkpt lat="50.69498" lon="3.03112">
        <ele>39.2</ele>
        <time>2018-06-03T15:28:07Z</time>
      </trkpt>
      <trkpt lat="50.69489" lon="3.03138">
        <ele>39.8</ele>
        <time>2018-06-03T15:28:11Z</time>
      </trkpt>
      <trkpt lat="50.6948" lon="3.03165">
        <ele>39.8</ele>
        <time>2018-06-03T15:28:15Z</time>
      </trkpt>
      <trkpt lat="50.69473" lon="3.03192">
        <ele>39</ele>
        <time>2018-06-03T15:28:19Z</time>
      </trkpt>
      <trkpt lat="50.69464" lon="3.03219">
        <ele>39</ele>
        <time>2018-06-03T15:28:23Z</time>
      </trkpt>
      <trkpt lat="50.69454" lon="3.03247">
        <ele>38.4</ele>
        <time>2018-06-03T15:28:27Z</time>
      </trkpt>
      <trkpt lat="50.69446" lon="3.03273">
        <ele>37.8</ele>
        <time>2018-06-03T15:28:31Z</time>
      </trkpt>
      <trkpt lat="50.69437" lon="3.03299">
        <ele>39</ele>
        <time>2018-06-03T15:28:35Z</time>
      </trkpt>
      <trkpt lat="50.69426" lon="3.03324">
        <ele>38.4</ele>
        <time>2018-06-03T15:28:39Z</time>
      </trkpt>
      <trkpt lat="50.69417" lon="3.03347">
        <ele>39.2</ele>
        <time>2018-06-03T15:28:43Z</time>
      </trkpt>
      <trkpt lat="50.69409" lon="3.0337">
        <ele>39</ele>
        <time>2018-06-03T15:28:47Z</time>
      </trkpt>
      <trkpt lat="50.69403" lon="3.03392">
        <ele>38.8</ele>
        <time>2018-06-03T15:28:51Z</time>
      </trkpt>
      <trkpt lat="50.69397" lon="3.0341">
        <ele>39</ele>
        <time>2018-06-03T15:28:55Z</time>
      </trkpt>
      <trkpt lat="50.69391" lon="3.03429">
        <ele>39</ele>
        <time>2018-06-03T15:28:59Z</time>
      </trkpt>
      <trkpt lat="50.69384" lon="3.0345">
        <ele>38.6</ele>
        <time>2018-06-03T15:29:03Z</time>
      </trkpt>
      <trkpt lat="50.69377" lon="3.03473">
        <ele>38.6</ele>
        <time>2018-06-03T15:29:07Z</time>
      </trkpt>
      <trkpt lat="50.6937" lon="3.03496">
        <ele>39</ele>
        <time>2018-06-03T15:29:11Z</time>
      </trkpt>
      <trkpt lat="50.69364" lon="3.03521">
        <ele>39.2</ele>
        <time>2018-06-03T15:29:15Z</time>
      </trkpt>
      <trkpt lat="50.69359" lon="3.03545">
        <ele>38.8</ele>
        <time>2018-06-03T15:29:19Z</time>
      </trkpt>
      <trkpt lat="50.69354" lon="3.03571">
        <ele>38.6</ele>
        <time>2018-06-03T15:29:23Z</time>
      </trkpt>
      <trkpt lat="50.69343" lon="3.03602">
        <ele>38.4</ele>
        <time>2018-06-03T15:29:27Z</time>
      </trkpt>
      <trkpt lat="50.69336" lon="3.03631">
        <ele>38.4</ele>
        <time>2018-06-03T15:29:31Z</time>
      </trkpt>
      <trkpt lat="50.6933" lon="3.03658">
        <ele>38.2</ele>
        <time>2018-06-03T15:29:35Z</time>
      </trkpt>
      <trkpt lat="50.69325" lon="3.03683">
        <ele>39</ele>
        <time>2018-06-03T15:29:39Z</time>
      </trkpt>
      <trkpt lat="50.69319" lon="3.03709">
        <ele>38.6</ele>
        <time>2018-06-03T15:29:43Z</time>
      </trkpt>
      <trkpt lat="50.69314" lon="3.03735">
        <ele>38.8</ele>
        <time>2018-06-03T15:29:47Z</time>
      </trkpt>
      <trkpt lat="50.69309" lon="3.03764">
        <ele>38.6</ele>
        <time>2018-06-03T15:29:51Z</time>
      </trkpt>
      <trkpt lat="50.69304" lon="3.03793">
        <ele>38.2</ele>
        <time>2018-06-03T15:29:55Z</time>
      </trkpt>
      <trkpt lat="50.69298" lon="3.03824">
        <ele>38.8</ele>
        <time>2018-06-03T15:29:59Z</time>
      </trkpt>
      <trkpt lat="50.6929" lon="3.03854">
        <ele>38.8</ele>
        <time>2018-06-03T15:30:03Z</time>
      </trkpt>
      <trkpt lat="50.69285" lon="3.03884">
        <ele>39</ele>
        <time>2018-06-03T15:30:07Z</time>
      </trkpt>
      <trkpt lat="50.69279" lon="3.03914">
        <ele>38.2</ele>
        <time>2018-06-03T15:30:11Z</time>
      </trkpt>
      <trkpt lat="50.69273" lon="3.03945">
        <ele>38.8</ele>
        <time>2018-06-03T15:30:15Z</time>
      </trkpt>
      <trkpt lat="50.69269" lon="3.03975">
        <ele>38.4</ele>
        <time>2018-06-03T15:30:19Z</time>
      </trkpt>
      <trkpt lat="50.69264" lon="3.04005">
        <ele>38.4</ele>
        <time>2018-06-03T15:30:23Z</time>
      </trkpt>
      <trkpt lat="50.69259" lon="3.04037">
        <ele>38.2</ele>
        <time>2018-06-03T15:30:27Z</time>
      </trkpt>
      <trkpt lat="50.69255" lon="3.04069">
        <ele>39.2</ele>
        <time>2018-06-03T15:30:31Z</time>
      </trkpt>
      <trkpt lat="50.6925" lon="3.04102">
        <ele>39</ele>
        <time>2018-06-03T15:30:35Z</time>
      </trkpt>
      <trkpt lat="50.69247" lon="3.04134">
        <ele>38.6</ele>
        <time>2018-06-03T15:30:39Z</time>
      </trkpt>
      <trkpt lat="50.69244" lon="3.04166">
        <ele>39</ele>
        <time>2018-06-03T15:30:43Z</time>
      </trkpt>
      <trkpt lat="50.6924" lon="3.04197">
        <ele>38.8</ele>
        <time>2018-06-03T15:30:47Z</time>
      </trkpt>
      <trkpt lat="50.69238" lon="3.04228">
        <ele>38.6</ele>
        <time>2018-06-03T15:30:51Z</time>
      </trkpt>
      <trkpt lat="50.69235" lon="3.04261">
        <ele>38.8</ele>
        <time>2018-06-03T15:30:55Z</time>
      </trkpt>
      <trkpt lat="50.69233" lon="3.04292">
        <ele>38.4</ele>
        <time>2018-06-03T15:30:59Z</time>
      </trkpt>
      <trkpt lat="50.69232" lon="3.04322">
        <ele>38.4</ele>
        <time>2018-06-03T15:31:03Z</time>
      </trkpt>
      <trkpt lat="50.6923" lon="3.04349">
        <ele>38</ele>
        <time>2018-06-03T15:31:07Z</time>
      </trkpt>
      <trkpt lat="50.69229" lon="3.04374">
        <ele>38.4</ele>
        <time>2018-06-03T15:31:11Z</time>
      </trkpt>
      <trkpt lat="50.69227" lon="3.044">
        <ele>38.2</ele>
        <time>2018-06-03T15:31:15Z</time>
      </trkpt>
      <trkpt lat="50.69226" lon="3.04427">
        <ele>37.6</ele>
        <time>2018-06-03T15:31:19Z</time>
      </trkpt>
      <trkpt lat="50.69223" lon="3.0446">
        <ele>38</ele>
        <time>2018-06-03T15:31:23Z</time>
      </trkpt>
      <trkpt lat="50.69222" lon="3.04492">
        <ele>38</ele>
        <time>2018-06-03T15:31:27Z</time>
      </trkpt>
      <trkpt lat="50.6922" lon="3.04523">
        <ele>37.8</ele>
        <time>2018-06-03T15:31:31Z</time>
      </trkpt>
      <trkpt lat="50.69216" lon="3.04553">
        <ele>38</ele>
        <time>2018-06-03T15:31:35Z</time>
      </trkpt>
      <trkpt lat="50.69208" lon="3.0458">
        <ele>38.4</ele>
        <time>2018-06-03T15:31:39Z</time>
      </trkpt>
      <trkpt lat="50.69201" lon="3.04607">
        <ele>38.2</ele>
        <time>2018-06-03T15:31:43Z</time>
      </trkpt>
      <trkpt lat="50.69197" lon="3.04637">
        <ele>38.4</ele>
        <time>2018-06-03T15:31:47Z</time>
      </trkpt>
      <trkpt lat="50.6919" lon="3.04668">
        <ele>38.6</ele>
        <time>2018-06-03T15:31:51Z</time>
      </trkpt>
      <trkpt lat="50.69183" lon="3.04699">
        <ele>38.6</ele>
        <time>2018-06-03T15:31:55Z</time>
      </trkpt>
      <trkpt lat="50.69175" lon="3.04728">
        <ele>38</ele>
        <time>2018-06-03T15:31:59Z</time>
      </trkpt>
      <trkpt lat="50.69169" lon="3.04756">
        <ele>38</ele>
        <time>2018-06-03T15:32:03Z</time>
      </trkpt>
      <trkpt lat="50.69162" lon="3.04784">
        <ele>38.2</ele>
        <time>2018-06-03T15:32:07Z</time>
      </trkpt>
      <trkpt lat="50.69156" lon="3.04806">
        <ele>38.4</ele>
        <time>2018-06-03T15:32:11Z</time>
      </trkpt>
      <trkpt lat="50.69151" lon="3.04831">
        <ele>38.8</ele>
        <time>2018-06-03T15:32:15Z</time>
      </trkpt>
      <trkpt lat="50.69147" lon="3.04858">
        <ele>38.4</ele>
        <time>2018-06-03T15:32:19Z</time>
      </trkpt>
      <trkpt lat="50.69138" lon="3.04884">
        <ele>38.4</ele>
        <time>2018-06-03T15:32:23Z</time>
      </trkpt>
      <trkpt lat="50.69129" lon="3.04911">
        <ele>38.6</ele>
        <time>2018-06-03T15:32:27Z</time>
      </trkpt>
      <trkpt lat="50.6912" lon="3.04933">
        <ele>38.4</ele>
        <time>2018-06-03T15:32:31Z</time>
      </trkpt>
      <trkpt lat="50.6911" lon="3.04956">
        <ele>38.6</ele>
        <time>2018-06-03T15:32:35Z</time>
      </trkpt>
      <trkpt lat="50.69099" lon="3.04978">
        <ele>38.4</ele>
        <time>2018-06-03T15:32:39Z</time>
      </trkpt>
      <trkpt lat="50.6909" lon="3.04994">
        <ele>38.4</ele>
        <time>2018-06-03T15:32:43Z</time>
      </trkpt>
      <trkpt lat="50.6908" lon="3.05009">
        <ele>38.6</ele>
        <time>2018-06-03T15:32:47Z</time>
      </trkpt>
      <trkpt lat="50.69067" lon="3.05026">
        <ele>38.4</ele>
        <time>2018-06-03T15:32:51Z</time>
      </trkpt>
      <trkpt lat="50.69053" lon="3.05045">
        <ele>38.8</ele>
        <time>2018-06-03T15:32:55Z</time>
      </trkpt>
      <trkpt lat="50.69039" lon="3.05062">
        <ele>38.6</ele>
        <time>2018-06-03T15:32:59Z</time>
      </trkpt>
      <trkpt lat="50.69023" lon="3.05081">
        <ele>38.6</ele>
        <time>2018-06-03T15:33:03Z</time>
      </trkpt>
      <trkpt lat="50.69007" lon="3.051">
        <ele>39</ele>
        <time>2018-06-03T15:33:07Z</time>
      </trkpt>
      <trkpt lat="50.68992" lon="3.05116">
        <ele>38.4</ele>
        <time>2018-06-03T15:33:11Z</time>
      </trkpt>
      <trkpt lat="50.68978" lon="3.05129">
        <ele>38.8</ele>
        <time>2018-06-03T15:33:15Z</time>
      </trkpt>
      <trkpt lat="50.68965" lon="3.05139">
        <ele>38.2</ele>
        <time>2018-06-03T15:33:19Z</time>
      </trkpt>
      <trkpt lat="50.68955" lon="3.05146">
        <ele>38.6</ele>
        <time>2018-06-03T15:33:23Z</time>
      </trkpt>
      <trkpt lat="50.68951" lon="3.05151">
        <ele>38.6</ele>
        <time>2018-06-03T15:33:27Z</time>
      </trkpt>
      <trkpt lat="50.68942" lon="3.0516">
        <ele>38.8</ele>
        <time>2018-06-03T15:33:31Z</time>
      </trkpt>
      <trkpt lat="50.68933" lon="3.0517">
        <ele>38.8</ele>
        <time>2018-06-03T15:33:35Z</time>
      </trkpt>
      <trkpt lat="50.68925" lon="3.05181">
        <ele>38.6</ele>
        <time>2018-06-03T15:33:39Z</time>
      </trkpt>
      <trkpt lat="50.68913" lon="3.05194">
        <ele>39</ele>
        <time>2018-06-03T15:33:43Z</time>
      </trkpt>
      <trkpt lat="50.68903" lon="3.05206">
        <ele>39</ele>
        <time>2018-06-03T15:33:47Z</time>
      </trkpt>
      <trkpt lat="50.68893" lon="3.05216">
        <ele>38.6</ele>
        <time>2018-06-03T15:33:51Z</time>
      </trkpt>
      <trkpt lat="50.68884" lon="3.05226">
        <ele>39</ele>
        <time>2018-06-03T15:33:55Z</time>
      </trkpt>
      <trkpt lat="50.68874" lon="3.05239">
        <ele>39.2</ele>
        <time>2018-06-03T15:33:59Z</time>
      </trkpt>
      <trkpt lat="50.68863" lon="3.05251">
        <ele>38.8</ele>
        <time>2018-06-03T15:34:03Z</time>
      </trkpt>
      <trkpt lat="50.68856" lon="3.05259">
        <ele>38.4</ele>
        <time>2018-06-03T15:34:07Z</time>
      </trkpt>
      <trkpt lat="50.68852" lon="3.05266">
        <ele>38.4</ele>
        <time>2018-06-03T15:34:11Z</time>
      </trkpt>
      <trkpt lat="50.68847" lon="3.05273">
        <ele>38.2</ele>
        <time>2018-06-03T15:34:15Z</time>
      </trkpt>
      <trkpt lat="50.68843" lon="3.05277">
        <ele>38.8</ele>
        <time>2018-06-03T15:34:19Z</time>
      </trkpt>
      <trkpt lat="50.68836" lon="3.05284">
        <ele>38.4</ele>
        <time>2018-06-03T15:34:23Z</time>
      </trkpt>
      <trkpt lat="50.68827" lon="3.05293">
        <ele>38.4</ele>
        <time>2018-06-03T15:34:27Z</time>
      </trkpt>
      <trkpt lat="50.68821" lon="3.05303">
        <ele>38.6</ele>
        <time>2018-06-03T15:34:31Z</time>
      </trkpt>
      <trkpt lat="50.68813" lon="3.05312">
        <ele>38.6</ele>
        <time>2018-06-03T15:34:35Z</time>
      </trkpt>
      <trkpt lat="50.68806" lon="3.05318">
        <ele>38.4</ele>
        <time>2018-06-03T15:34:39Z</time>
      </trkpt>
      <trkpt lat="50.688" lon="3.05324">
        <ele>38.8</ele>
        <time>2018-06-03T15:34:43Z</time>
      </trkpt>
      <trkpt lat="50.68792" lon="3.05331">
        <ele>38.6</ele>
        <time>2018-06-03T15:34:47Z</time>
      </trkpt>
      <trkpt lat="50.68784" lon="3.05341">
        <ele>38.6</ele>
        <time>2018-06-03T15:34:51Z</time>
      </trkpt>
      <trkpt lat="50.68775" lon="3.05349">
        <ele>38.4</ele>
        <time>2018-06-03T15:34:55Z</time>
      </trkpt>
      <trkpt lat="50.68766" lon="3.05356">
        <ele>38.4</ele>
        <time>2018-06-03T15:34:59Z</time>
      </trkpt>
      <trkpt lat="50.6876" lon="3.05361">
        <ele>38.2</ele>
        <time>2018-06-03T15:35:03Z</time>
      </trkpt>
      <trkpt lat="50.68758" lon="3.05362">
        <ele>38.4</ele>
        <time>2018-06-03T15:35:07Z</time>
      </trkpt>
      <trkpt lat="50.68756" lon="3.05364">
        <ele>38.4</ele>
        <time>2018-06-03T15:35:11Z</time>
      </trkpt>
      <trkpt lat="50.68754" lon="3.05366">
        <ele>38.6</ele>
        <time>2018-06-03T15:35:15Z</time>
      </trkpt>
      <trkpt lat="50.68751" lon="3.05367">
        <ele>38.4</ele>
        <time>2018-06-03T15:35:19Z</time>
      </trkpt>
      <trkpt lat="50.68752" lon="3.05372">
        <ele>38.4</ele>
        <time>2018-06-03T15:35:23Z</time>
      </trkpt>
      <trkpt lat="50.68755" lon="3.05379">
        <ele>38.8</ele>
        <time>2018-06-03T15:35:27Z</time>
      </trkpt>
      <trkpt lat="50.68754" lon="3.05384">
        <ele>38.8</ele>
        <time>2018-06-03T15:35:31Z</time>
      </trkpt>
      <trkpt lat="50.68752" lon="3.05388">
        <ele>38.6</ele>
        <time>2018-06-03T15:35:35Z</time>
      </trkpt>
      <trkpt lat="50.68749" lon="3.05391">
        <ele>39</ele>
        <time>2018-06-03T15:35:39Z</time>
      </trkpt>
      <trkpt lat="50.68745" lon="3.05395">
        <ele>38.8</ele>
        <time>2018-06-03T15:35:43Z</time>
      </trkpt>
      <trkpt lat="50.68741" lon="3.05398">
        <ele>39.2</ele>
        <time>2018-06-03T15:35:47Z</time>
      </trkpt>
      <trkpt lat="50.68737" lon="3.05402">
        <ele>39.4</ele>
        <time>2018-06-03T15:35:51Z</time>
      </trkpt>
      <trkpt lat="50.68732" lon="3.05402">
        <ele>39.2</ele>
        <time>2018-06-03T15:35:55Z</time>
      </trkpt>
      <trkpt lat="50.68728" lon="3.05406">
        <ele>39.2</ele>
        <time>2018-06-03T15:35:59Z</time>
      </trkpt>
      <trkpt lat="50.68725" lon="3.0541">
        <ele>39</ele>
        <time>2018-06-03T15:36:03Z</time>
      </trkpt>
      <trkpt lat="50.68725" lon="3.0541">
        <ele>39</ele>
        <time>2018-06-03T15:36:07Z</time>
      </trkpt>
      <trkpt lat="50.68722" lon="3.05412">
        <ele>38.8</ele>
        <time>2018-06-03T15:36:11Z</time>
      </trkpt>
      <trkpt lat="50.68717" lon="3.05415">
        <ele>38.8</ele>
        <time>2018-06-03T15:36:15Z</time>
      </trkpt>
      <trkpt lat="50.68713" lon="3.05419">
        <ele>39</ele>
        <time>2018-06-03T15:36:19Z</time>
      </trkpt>
      <trkpt lat="50.68708" lon="3.05423">
        <ele>38.6</ele>
        <time>2018-06-03T15:36:23Z</time>
      </trkpt>
      <trkpt lat="50.68705" lon="3.05429">
        <ele>38.6</ele>
        <time>2018-06-03T15:36:27Z</time>
      </trkpt>
      <trkpt lat="50.68701" lon="3.05435">
        <ele>38.6</ele>
        <time>2018-06-03T15:36:31Z</time>
      </trkpt>
      <trkpt lat="50.687" lon="3.05438">
        <ele>39</ele>
        <time>2018-06-03T15:36:35Z</time>
      </trkpt>
      <trkpt lat="50.68696" lon="3.05445">
        <ele>38.6</ele>
        <time>2018-06-03T15:36:39Z</time>
      </trkpt>
      <trkpt lat="50.68691" lon="3.05457">
        <ele>39</ele>
        <time>2018-06-03T15:36:43Z</time>
      </trkpt>
      <trkpt lat="50.68685" lon="3.05463">
        <ele>38.8</ele>
        <time>2018-06-03T15:36:47Z</time>
      </trkpt>
      <trkpt lat="50.6868" lon="3.05476">
        <ele>39</ele>
        <time>2018-06-03T15:36:51Z</time>
      </trkpt>
      <trkpt lat="50.68676" lon="3.05493">
        <ele>39.4</ele>
        <time>2018-06-03T15:36:55Z</time>
      </trkpt>
      <trkpt lat="50.68671" lon="3.05508">
        <ele>39.4</ele>
        <time>2018-06-03T15:36:59Z</time>
      </trkpt>
      <trkpt lat="50.68665" lon="3.05522">
        <ele>39</ele>
        <time>2018-06-03T15:37:03Z</time>
      </trkpt>
      <trkpt lat="50.68658" lon="3.05535">
        <ele>39.4</ele>
        <time>2018-06-03T15:37:07Z</time>
      </trkpt>
      <trkpt lat="50.68651" lon="3.05546">
        <ele>39</ele>
        <time>2018-06-03T15:37:11Z</time>
      </trkpt>
      <trkpt lat="50.68647" lon="3.05555">
        <ele>39</ele>
        <time>2018-06-03T15:37:15Z</time>
      </trkpt>
      <trkpt lat="50.68641" lon="3.05569">
        <ele>39</ele>
        <time>2018-06-03T15:37:19Z</time>
      </trkpt>
      <trkpt lat="50.68633" lon="3.05582">
        <ele>39.2</ele>
        <time>2018-06-03T15:37:23Z</time>
      </trkpt>
      <trkpt lat="50.68625" lon="3.05592">
        <ele>39.2</ele>
        <time>2018-06-03T15:37:27Z</time>
      </trkpt>
      <trkpt lat="50.68618" lon="3.056">
        <ele>39.6</ele>
        <time>2018-06-03T15:37:31Z</time>
      </trkpt>
      <trkpt lat="50.68611" lon="3.05612">
        <ele>39.6</ele>
        <time>2018-06-03T15:37:35Z</time>
      </trkpt>
      <trkpt lat="50.68602" lon="3.05626">
        <ele>39.8</ele>
        <time>2018-06-03T15:37:39Z</time>
      </trkpt>
      <trkpt lat="50.68593" lon="3.05638">
        <ele>39</ele>
        <time>2018-06-03T15:37:43Z</time>
      </trkpt>
      <trkpt lat="50.68585" lon="3.05651">
        <ele>39.2</ele>
        <time>2018-06-03T15:37:47Z</time>
      </trkpt>
      <trkpt lat="50.68577" lon="3.05659">
        <ele>39.2</ele>
        <time>2018-06-03T15:37:51Z</time>
      </trkpt>
      <trkpt lat="50.68572" lon="3.05665">
        <ele>39.2</ele>
        <time>2018-06-03T15:37:55Z</time>
      </trkpt>
      <trkpt lat="50.68566" lon="3.05674">
        <ele>39.6</ele>
        <time>2018-06-03T15:37:59Z</time>
      </trkpt>
      <trkpt lat="50.68557" lon="3.05686">
        <ele>39.8</ele>
        <time>2018-06-03T15:38:03Z</time>
      </trkpt>
      <trkpt lat="50.68549" lon="3.05696">
        <ele>39.6</ele>
        <time>2018-06-03T15:38:07Z</time>
      </trkpt>
      <trkpt lat="50.6854" lon="3.05706">
        <ele>39.8</ele>
        <time>2018-06-03T15:38:11Z</time>
      </trkpt>
      <trkpt lat="50.68536" lon="3.05712">
        <ele>39.4</ele>
        <time>2018-06-03T15:38:15Z</time>
      </trkpt>
      <trkpt lat="50.68533" lon="3.05716">
        <ele>39.8</ele>
        <time>2018-06-03T15:38:19Z</time>
      </trkpt>
      <trkpt lat="50.68525" lon="3.05722">
        <ele>40</ele>
        <time>2018-06-03T15:38:23Z</time>
      </trkpt>
      <trkpt lat="50.68514" lon="3.05732">
        <ele>40</ele>
        <time>2018-06-03T15:38:27Z</time>
      </trkpt>
      <trkpt lat="50.68504" lon="3.05743">
        <ele>39.4</ele>
        <time>2018-06-03T15:38:31Z</time>
      </trkpt>
      <trkpt lat="50.68494" lon="3.05753">
        <ele>40</ele>
        <time>2018-06-03T15:38:35Z</time>
      </trkpt>
      <trkpt lat="50.68483" lon="3.05761">
        <ele>39.8</ele>
        <time>2018-06-03T15:38:39Z</time>
      </trkpt>
      <trkpt lat="50.68472" lon="3.0577">
        <ele>40</ele>
        <time>2018-06-03T15:38:43Z</time>
      </trkpt>
      <trkpt lat="50.68461" lon="3.05781">
        <ele>39.8</ele>
        <time>2018-06-03T15:38:47Z</time>
      </trkpt>
      <trkpt lat="50.68448" lon="3.05792">
        <ele>39.6</ele>
        <time>2018-06-03T15:38:51Z</time>
      </trkpt>
      <trkpt lat="50.68434" lon="3.05802">
        <ele>39.4</ele>
        <time>2018-06-03T15:38:55Z</time>
      </trkpt>
      <trkpt lat="50.68422" lon="3.05811">
        <ele>39.2</ele>
        <time>2018-06-03T15:38:59Z</time>
      </trkpt>
      <trkpt lat="50.68415" lon="3.05816">
        <ele>39.6</ele>
        <time>2018-06-03T15:39:03Z</time>
      </trkpt>
      <trkpt lat="50.68408" lon="3.05821">
        <ele>39.6</ele>
        <time>2018-06-03T15:39:07Z</time>
      </trkpt>
      <trkpt lat="50.68395" lon="3.05827">
        <ele>40.4</ele>
        <time>2018-06-03T15:39:11Z</time>
      </trkpt>
      <trkpt lat="50.68381" lon="3.05837">
        <ele>39.8</ele>
        <time>2018-06-03T15:39:15Z</time>
      </trkpt>
      <trkpt lat="50.68368" lon="3.05845">
        <ele>40</ele>
        <time>2018-06-03T15:39:19Z</time>
      </trkpt>
      <trkpt lat="50.68356" lon="3.05851">
        <ele>40.2</ele>
        <time>2018-06-03T15:39:23Z</time>
      </trkpt>
      <trkpt lat="50.68343" lon="3.05857">
        <ele>40.4</ele>
        <time>2018-06-03T15:39:27Z</time>
      </trkpt>
      <trkpt lat="50.68328" lon="3.05862">
        <ele>40.4</ele>
        <time>2018-06-03T15:39:31Z</time>
      </trkpt>
      <trkpt lat="50.68315" lon="3.0587">
        <ele>40.4</ele>
        <time>2018-06-03T15:39:35Z</time>
      </trkpt>
      <trkpt lat="50.68301" lon="3.05875">
        <ele>40.4</ele>
        <time>2018-06-03T15:39:39Z</time>
      </trkpt>
      <trkpt lat="50.68288" lon="3.05879">
        <ele>40</ele>
        <time>2018-06-03T15:39:43Z</time>
      </trkpt>
      <trkpt lat="50.68275" lon="3.05883">
        <ele>40.6</ele>
        <time>2018-06-03T15:39:47Z</time>
      </trkpt>
      <trkpt lat="50.68261" lon="3.05887">
        <ele>40.4</ele>
        <time>2018-06-03T15:39:51Z</time>
      </trkpt>
      <trkpt lat="50.68246" lon="3.05891">
        <ele>40.4</ele>
        <time>2018-06-03T15:39:55Z</time>
      </trkpt>
      <trkpt lat="50.6823" lon="3.05894">
        <ele>40.8</ele>
        <time>2018-06-03T15:39:59Z</time>
      </trkpt>
      <trkpt lat="50.68215" lon="3.05897">
        <ele>40.4</ele>
        <time>2018-06-03T15:40:03Z</time>
      </trkpt>
      <trkpt lat="50.68201" lon="3.05899">
        <ele>40.8</ele>
        <time>2018-06-03T15:40:07Z</time>
      </trkpt>
      <trkpt lat="50.68186" lon="3.059">
        <ele>40.8</ele>
        <time>2018-06-03T15:40:11Z</time>
      </trkpt>
      <trkpt lat="50.68172" lon="3.05901">
        <ele>40.8</ele>
        <time>2018-06-03T15:40:15Z</time>
      </trkpt>
      <trkpt lat="50.68158" lon="3.05904">
        <ele>40.8</ele>
        <time>2018-06-03T15:40:19Z</time>
      </trkpt>
      <trkpt lat="50.68149" lon="3.05911">
        <ele>40.4</ele>
        <time>2018-06-03T15:40:23Z</time>
      </trkpt>
      <trkpt lat="50.68132" lon="3.059">
        <ele>41.2</ele>
        <time>2018-06-03T15:40:27Z</time>
      </trkpt>
      <trkpt lat="50.68118" lon="3.05891">
        <ele>41.8</ele>
        <time>2018-06-03T15:40:31Z</time>
      </trkpt>
      <trkpt lat="50.68104" lon="3.05883">
        <ele>41.8</ele>
        <time>2018-06-03T15:40:35Z</time>
      </trkpt>
      <trkpt lat="50.68089" lon="3.05881">
        <ele>41.2</ele>
        <time>2018-06-03T15:40:39Z</time>
      </trkpt>
      <trkpt lat="50.68074" lon="3.05894">
        <ele>40.8</ele>
        <time>2018-06-03T15:40:43Z</time>
      </trkpt>
      <trkpt lat="50.68059" lon="3.05894">
        <ele>40.8</ele>
        <time>2018-06-03T15:40:47Z</time>
      </trkpt>
      <trkpt lat="50.68043" lon="3.05889">
        <ele>40.4</ele>
        <time>2018-06-03T15:40:51Z</time>
      </trkpt>
      <trkpt lat="50.6803" lon="3.05885">
        <ele>40.4</ele>
        <time>2018-06-03T15:40:55Z</time>
      </trkpt>
      <trkpt lat="50.68019" lon="3.05881">
        <ele>41</ele>
        <time>2018-06-03T15:40:59Z</time>
      </trkpt>
      <trkpt lat="50.68006" lon="3.05878">
        <ele>40.8</ele>
        <time>2018-06-03T15:41:03Z</time>
      </trkpt>
      <trkpt lat="50.67988" lon="3.05873">
        <ele>40</ele>
        <time>2018-06-03T15:41:07Z</time>
      </trkpt>
      <trkpt lat="50.67973" lon="3.05862">
        <ele>40.2</ele>
        <time>2018-06-03T15:41:11Z</time>
      </trkpt>
      <trkpt lat="50.67964" lon="3.05849">
        <ele>41.2</ele>
        <time>2018-06-03T15:41:15Z</time>
      </trkpt>
      <trkpt lat="50.67955" lon="3.05837">
        <ele>41.2</ele>
        <time>2018-06-03T15:41:19Z</time>
      </trkpt>
      <trkpt lat="50.67942" lon="3.05837">
        <ele>40.8</ele>
        <time>2018-06-03T15:41:23Z</time>
      </trkpt>
      <trkpt lat="50.67928" lon="3.05846">
        <ele>40.8</ele>
        <time>2018-06-03T15:41:27Z</time>
      </trkpt>
      <trkpt lat="50.67911" lon="3.05856">
        <ele>40.6</ele>
        <time>2018-06-03T15:41:31Z</time>
      </trkpt>
      <trkpt lat="50.67894" lon="3.05861">
        <ele>40.4</ele>
        <time>2018-06-03T15:41:35Z</time>
      </trkpt>
      <trkpt lat="50.67878" lon="3.05867">
        <ele>40</ele>
        <time>2018-06-03T15:41:39Z</time>
      </trkpt>
      <trkpt lat="50.67864" lon="3.05872">
        <ele>40</ele>
        <time>2018-06-03T15:41:43Z</time>
      </trkpt>
      <trkpt lat="50.67848" lon="3.05877">
        <ele>40</ele>
        <time>2018-06-03T15:41:47Z</time>
      </trkpt>
      <trkpt lat="50.67831" lon="3.05883">
        <ele>40</ele>
        <time>2018-06-03T15:41:51Z</time>
      </trkpt>
      <trkpt lat="50.67814" lon="3.05889">
        <ele>40.2</ele>
        <time>2018-06-03T15:41:55Z</time>
      </trkpt>
      <trkpt lat="50.67798" lon="3.05894">
        <ele>39.8</ele>
        <time>2018-06-03T15:41:59Z</time>
      </trkpt>
      <trkpt lat="50.67781" lon="3.059">
        <ele>40.2</ele>
        <time>2018-06-03T15:42:03Z</time>
      </trkpt>
      <trkpt lat="50.67766" lon="3.05904">
        <ele>40.2</ele>
        <time>2018-06-03T15:42:07Z</time>
      </trkpt>
      <trkpt lat="50.67748" lon="3.0591">
        <ele>40.2</ele>
        <time>2018-06-03T15:42:11Z</time>
      </trkpt>
      <trkpt lat="50.67729" lon="3.05918">
        <ele>40</ele>
        <time>2018-06-03T15:42:15Z</time>
      </trkpt>
      <trkpt lat="50.67713" lon="3.05924">
        <ele>40</ele>
        <time>2018-06-03T15:42:19Z</time>
      </trkpt>
      <trkpt lat="50.67697" lon="3.05925">
        <ele>40.8</ele>
        <time>2018-06-03T15:42:23Z</time>
      </trkpt>
      <trkpt lat="50.67682" lon="3.05922">
        <ele>41.2</ele>
        <time>2018-06-03T15:42:27Z</time>
      </trkpt>
      <trkpt lat="50.67669" lon="3.05915">
        <ele>41.8</ele>
        <time>2018-06-03T15:42:31Z</time>
      </trkpt>
      <trkpt lat="50.67654" lon="3.05919">
        <ele>41.8</ele>
        <time>2018-06-03T15:42:35Z</time>
      </trkpt>
      <trkpt lat="50.6764" lon="3.05925">
        <ele>41.8</ele>
        <time>2018-06-03T15:42:39Z</time>
      </trkpt>
      <trkpt lat="50.67624" lon="3.05932">
        <ele>41.8</ele>
        <time>2018-06-03T15:42:43Z</time>
      </trkpt>
      <trkpt lat="50.67608" lon="3.05941">
        <ele>42</ele>
        <time>2018-06-03T15:42:47Z</time>
      </trkpt>
      <trkpt lat="50.67592" lon="3.05948">
        <ele>41.8</ele>
        <time>2018-06-03T15:42:51Z</time>
      </trkpt>
      <trkpt lat="50.67578" lon="3.05955">
        <ele>41.8</ele>
        <time>2018-06-03T15:42:55Z</time>
      </trkpt>
      <trkpt lat="50.67562" lon="3.05963">
        <ele>41.8</ele>
        <time>2018-06-03T15:42:59Z</time>
      </trkpt>
      <trkpt lat="50.67547" lon="3.0597">
        <ele>41.8</ele>
        <time>2018-06-03T15:43:03Z</time>
      </trkpt>
      <trkpt lat="50.67536" lon="3.05975">
        <ele>41.6</ele>
        <time>2018-06-03T15:43:07Z</time>
      </trkpt>
      <trkpt lat="50.67536" lon="3.05975">
        <ele>41.8</ele>
        <time>2018-06-03T15:43:11Z</time>
      </trkpt>
      <trkpt lat="50.67528" lon="3.05986">
        <ele>41.8</ele>
        <time>2018-06-03T15:43:15Z</time>
      </trkpt>
      <trkpt lat="50.67528" lon="3.05986">
        <ele>41.2</ele>
        <time>2018-06-03T15:43:19Z</time>
      </trkpt>
      <trkpt lat="50.67524" lon="3.05985">
        <ele>41.8</ele>
        <time>2018-06-03T15:43:23Z</time>
      </trkpt>
      <trkpt lat="50.67519" lon="3.05983">
        <ele>42</ele>
        <time>2018-06-03T15:43:27Z</time>
      </trkpt>
      <trkpt lat="50.67514" lon="3.05982">
        <ele>42.2</ele>
        <time>2018-06-03T15:43:31Z</time>
      </trkpt>
      <trkpt lat="50.67509" lon="3.05979">
        <ele>42</ele>
        <time>2018-06-03T15:43:35Z</time>
      </trkpt>
      <trkpt lat="50.67504" lon="3.05977">
        <ele>43.2</ele>
        <time>2018-06-03T15:43:39Z</time>
      </trkpt>
      <trkpt lat="50.67501" lon="3.05971">
        <ele>43</ele>
        <time>2018-06-03T15:43:43Z</time>
      </trkpt>
      <trkpt lat="50.67498" lon="3.05965">
        <ele>43.2</ele>
        <time>2018-06-03T15:43:47Z</time>
      </trkpt>
      <trkpt lat="50.67495" lon="3.05959">
        <ele>43.4</ele>
        <time>2018-06-03T15:43:51Z</time>
      </trkpt>
      <trkpt lat="50.67491" lon="3.05953">
        <ele>43.6</ele>
        <time>2018-06-03T15:43:55Z</time>
      </trkpt>
      <trkpt lat="50.67488" lon="3.05955">
        <ele>43.8</ele>
        <time>2018-06-03T15:43:59Z</time>
      </trkpt>
      <trkpt lat="50.67486" lon="3.05962">
        <ele>43.8</ele>
        <time>2018-06-03T15:44:03Z</time>
      </trkpt>
      <trkpt lat="50.67488" lon="3.05967">
        <ele>44.4</ele>
        <time>2018-06-03T15:44:07Z</time>
      </trkpt>
      <trkpt lat="50.67491" lon="3.05976">
        <ele>44.8</ele>
        <time>2018-06-03T15:44:11Z</time>
      </trkpt>
      <trkpt lat="50.67496" lon="3.05991">
        <ele>45.2</ele>
        <time>2018-06-03T15:44:15Z</time>
      </trkpt>
      <trkpt lat="50.67503" lon="3.06009">
        <ele>45.8</ele>
        <time>2018-06-03T15:44:19Z</time>
      </trkpt>
      <trkpt lat="50.67509" lon="3.06028">
        <ele>46.2</ele>
        <time>2018-06-03T15:44:23Z</time>
      </trkpt>
      <trkpt lat="50.67518" lon="3.06049">
        <ele>46</ele>
        <time>2018-06-03T15:44:27Z</time>
      </trkpt>
      <trkpt lat="50.67525" lon="3.0607">
        <ele>46.2</ele>
        <time>2018-06-03T15:44:31Z</time>
      </trkpt>
      <trkpt lat="50.67531" lon="3.06089">
        <ele>46</ele>
        <time>2018-06-03T15:44:35Z</time>
      </trkpt>
      <trkpt lat="50.6754" lon="3.06109">
        <ele>45.2</ele>
        <time>2018-06-03T15:44:39Z</time>
      </trkpt>
      <trkpt lat="50.6755" lon="3.06127">
        <ele>44.8</ele>
        <time>2018-06-03T15:44:43Z</time>
      </trkpt>
      <trkpt lat="50.6756" lon="3.06152">
        <ele>44.2</ele>
        <time>2018-06-03T15:44:47Z</time>
      </trkpt>
      <trkpt lat="50.67564" lon="3.06183">
        <ele>43</ele>
        <time>2018-06-03T15:44:51Z</time>
      </trkpt>
      <trkpt lat="50.67562" lon="3.06206">
        <ele>42</ele>
        <time>2018-06-03T15:44:55Z</time>
      </trkpt>
      <trkpt lat="50.6756" lon="3.06201">
        <ele>42.4</ele>
        <time>2018-06-03T15:44:59Z</time>
      </trkpt>
      <trkpt lat="50.67559" lon="3.06187">
        <ele>41.6</ele>
        <time>2018-06-03T15:45:03Z</time>
      </trkpt>
      <trkpt lat="50.67554" lon="3.06167">
        <ele>41.4</ele>
        <time>2018-06-03T15:45:07Z</time>
      </trkpt>
      <trkpt lat="50.6755" lon="3.0615">
        <ele>41.4</ele>
        <time>2018-06-03T15:45:11Z</time>
      </trkpt>
      <trkpt lat="50.67544" lon="3.06135">
        <ele>41.4</ele>
        <time>2018-06-03T15:45:15Z</time>
      </trkpt>
      <trkpt lat="50.67535" lon="3.06126">
        <ele>41.8</ele>
        <time>2018-06-03T15:45:19Z</time>
      </trkpt>
      <trkpt lat="50.67525" lon="3.06127">
        <ele>42</ele>
        <time>2018-06-03T15:45:23Z</time>
      </trkpt>
      <trkpt lat="50.67514" lon="3.06134">
        <ele>41.6</ele>
        <time>2018-06-03T15:45:27Z</time>
      </trkpt>
      <trkpt lat="50.67501" lon="3.06144">
        <ele>41.4</ele>
        <time>2018-06-03T15:45:31Z</time>
      </trkpt>
      <trkpt lat="50.67488" lon="3.06155">
        <ele>40.8</ele>
        <time>2018-06-03T15:45:35Z</time>
      </trkpt>
      <trkpt lat="50.67471" lon="3.06166">
        <ele>40</ele>
        <time>2018-06-03T15:45:39Z</time>
      </trkpt>
      <trkpt lat="50.67452" lon="3.06177">
        <ele>39.6</ele>
        <time>2018-06-03T15:45:43Z</time>
      </trkpt>
      <trkpt lat="50.67439" lon="3.06182">
        <ele>40.2</ele>
        <time>2018-06-03T15:45:47Z</time>
      </trkpt>
      <trkpt lat="50.67428" lon="3.06182">
        <ele>41.2</ele>
        <time>2018-06-03T15:45:51Z</time>
      </trkpt>
      <trkpt lat="50.67418" lon="3.06196">
        <ele>42</ele>
        <time>2018-06-03T15:45:55Z</time>
      </trkpt>
      <trkpt lat="50.67409" lon="3.06212">
        <ele>43.2</ele>
        <time>2018-06-03T15:45:59Z</time>
      </trkpt>
      <trkpt lat="50.67398" lon="3.06221">
        <ele>44</ele>
        <time>2018-06-03T15:46:03Z</time>
      </trkpt>
      <trkpt lat="50.67387" lon="3.06226">
        <ele>43.4</ele>
        <time>2018-06-03T15:46:07Z</time>
      </trkpt>
      <trkpt lat="50.67375" lon="3.0623">
        <ele>43.4</ele>
        <time>2018-06-03T15:46:11Z</time>
      </trkpt>
      <trkpt lat="50.6736" lon="3.06233">
        <ele>42.6</ele>
        <time>2018-06-03T15:46:15Z</time>
      </trkpt>
      <trkpt lat="50.67338" lon="3.0624">
        <ele>41.2</ele>
        <time>2018-06-03T15:46:19Z</time>
      </trkpt>
      <trkpt lat="50.67314" lon="3.06249">
        <ele>41</ele>
        <time>2018-06-03T15:46:23Z</time>
      </trkpt>
      <trkpt lat="50.67295" lon="3.06263">
        <ele>41.4</ele>
        <time>2018-06-03T15:46:27Z</time>
      </trkpt>
      <trkpt lat="50.67279" lon="3.06275">
        <ele>40.8</ele>
        <time>2018-06-03T15:46:31Z</time>
      </trkpt>
      <trkpt lat="50.67261" lon="3.06285">
        <ele>41.2</ele>
        <time>2018-06-03T15:46:35Z</time>
      </trkpt>
      <trkpt lat="50.67243" lon="3.06291">
        <ele>41</ele>
        <time>2018-06-03T15:46:39Z</time>
      </trkpt>
      <trkpt lat="50.67224" lon="3.06294">
        <ele>40.6</ele>
        <time>2018-06-03T15:46:43Z</time>
      </trkpt>
      <trkpt lat="50.67208" lon="3.06299">
        <ele>40.4</ele>
        <time>2018-06-03T15:46:47Z</time>
      </trkpt>
      <trkpt lat="50.67194" lon="3.06307">
        <ele>40.8</ele>
        <time>2018-06-03T15:46:51Z</time>
      </trkpt>
      <trkpt lat="50.67177" lon="3.06314">
        <ele>41.2</ele>
        <time>2018-06-03T15:46:55Z</time>
      </trkpt>
      <trkpt lat="50.67161" lon="3.06326">
        <ele>40.6</ele>
        <time>2018-06-03T15:46:59Z</time>
      </trkpt>
      <trkpt lat="50.67144" lon="3.06337">
        <ele>41</ele>
        <time>2018-06-03T15:47:03Z</time>
      </trkpt>
      <trkpt lat="50.67127" lon="3.06349">
        <ele>41</ele>
        <time>2018-06-03T15:47:07Z</time>
      </trkpt>
      <trkpt lat="50.67109" lon="3.06358">
        <ele>41</ele>
        <time>2018-06-03T15:47:11Z</time>
      </trkpt>
      <trkpt lat="50.67091" lon="3.06366">
        <ele>40.4</ele>
        <time>2018-06-03T15:47:15Z</time>
      </trkpt>
      <trkpt lat="50.67073" lon="3.06371">
        <ele>40.4</ele>
        <time>2018-06-03T15:47:19Z</time>
      </trkpt>
      <trkpt lat="50.67056" lon="3.06377">
        <ele>40.4</ele>
        <time>2018-06-03T15:47:23Z</time>
      </trkpt>
      <trkpt lat="50.67045" lon="3.06383">
        <ele>40.4</ele>
        <time>2018-06-03T15:47:27Z</time>
      </trkpt>
      <trkpt lat="50.67039" lon="3.06388">
        <ele>40.8</ele>
        <time>2018-06-03T15:47:31Z</time>
      </trkpt>
      <trkpt lat="50.67028" lon="3.06399">
        <ele>40.8</ele>
        <time>2018-06-03T15:47:35Z</time>
      </trkpt>
      <trkpt lat="50.67017" lon="3.06416">
        <ele>41.4</ele>
        <time>2018-06-03T15:47:39Z</time>
      </trkpt>
      <trkpt lat="50.67002" lon="3.06422">
        <ele>41.8</ele>
        <time>2018-06-03T15:47:43Z</time>
      </trkpt>
      <trkpt lat="50.66987" lon="3.06425">
        <ele>41.4</ele>
        <time>2018-06-03T15:47:47Z</time>
      </trkpt>
      <trkpt lat="50.66971" lon="3.06425">
        <ele>41.4</ele>
        <time>2018-06-03T15:47:51Z</time>
      </trkpt>
      <trkpt lat="50.66955" lon="3.06426">
        <ele>41.2</ele>
        <time>2018-06-03T15:47:55Z</time>
      </trkpt>
      <trkpt lat="50.6694" lon="3.06418">
        <ele>41.2</ele>
        <time>2018-06-03T15:47:59Z</time>
      </trkpt>
      <trkpt lat="50.66923" lon="3.0641">
        <ele>41.4</ele>
        <time>2018-06-03T15:48:03Z</time>
      </trkpt>
      <trkpt lat="50.66904" lon="3.06407">
        <ele>41.4</ele>
        <time>2018-06-03T15:48:07Z</time>
      </trkpt>
      <trkpt lat="50.66886" lon="3.064">
        <ele>41.2</ele>
        <time>2018-06-03T15:48:11Z</time>
      </trkpt>
      <trkpt lat="50.66869" lon="3.06392">
        <ele>41</ele>
        <time>2018-06-03T15:48:15Z</time>
      </trkpt>
      <trkpt lat="50.66852" lon="3.06388">
        <ele>41.2</ele>
        <time>2018-06-03T15:48:19Z</time>
      </trkpt>
      <trkpt lat="50.66835" lon="3.06384">
        <ele>41.4</ele>
        <time>2018-06-03T15:48:23Z</time>
      </trkpt>
      <trkpt lat="50.66817" lon="3.0638">
        <ele>41</ele>
        <time>2018-06-03T15:48:27Z</time>
      </trkpt>
      <trkpt lat="50.66802" lon="3.06377">
        <ele>40.8</ele>
        <time>2018-06-03T15:48:31Z</time>
      </trkpt>
      <trkpt lat="50.66785" lon="3.06371">
        <ele>41.2</ele>
        <time>2018-06-03T15:48:35Z</time>
      </trkpt>
      <trkpt lat="50.66767" lon="3.0636">
        <ele>41.4</ele>
        <time>2018-06-03T15:48:39Z</time>
      </trkpt>
      <trkpt lat="50.6675" lon="3.06352">
        <ele>41</ele>
        <time>2018-06-03T15:48:43Z</time>
      </trkpt>
      <trkpt lat="50.66736" lon="3.06346">
        <ele>41.4</ele>
        <time>2018-06-03T15:48:47Z</time>
      </trkpt>
      <trkpt lat="50.6672" lon="3.06339">
        <ele>41.4</ele>
        <time>2018-06-03T15:48:51Z</time>
      </trkpt>
      <trkpt lat="50.66702" lon="3.06331">
        <ele>42</ele>
        <time>2018-06-03T15:48:55Z</time>
      </trkpt>
      <trkpt lat="50.66687" lon="3.06324">
        <ele>42.6</ele>
        <time>2018-06-03T15:48:59Z</time>
      </trkpt>
      <trkpt lat="50.66671" lon="3.06316">
        <ele>43.4</ele>
        <time>2018-06-03T15:49:03Z</time>
      </trkpt>
      <trkpt lat="50.6666" lon="3.06325">
        <ele>44.2</ele>
        <time>2018-06-03T15:49:07Z</time>
      </trkpt>
      <trkpt lat="50.66654" lon="3.06344">
        <ele>45</ele>
        <time>2018-06-03T15:49:11Z</time>
      </trkpt>
      <trkpt lat="50.66648" lon="3.06367">
        <ele>45.4</ele>
        <time>2018-06-03T15:49:15Z</time>
      </trkpt>
      <trkpt lat="50.6664" lon="3.06383">
        <ele>45.8</ele>
        <time>2018-06-03T15:49:19Z</time>
      </trkpt>
      <trkpt lat="50.66635" lon="3.064">
        <ele>45.8</ele>
        <time>2018-06-03T15:49:23Z</time>
      </trkpt>
      <trkpt lat="50.66629" lon="3.06413">
        <ele>45.4</ele>
        <time>2018-06-03T15:49:27Z</time>
      </trkpt>
      <trkpt lat="50.66619" lon="3.06418">
        <ele>44.8</ele>
        <time>2018-06-03T15:49:31Z</time>
      </trkpt>
      <trkpt lat="50.66608" lon="3.06409">
        <ele>44.4</ele>
        <time>2018-06-03T15:49:35Z</time>
      </trkpt>
      <trkpt lat="50.66597" lon="3.06404">
        <ele>44.6</ele>
        <time>2018-06-03T15:49:39Z</time>
      </trkpt>
      <trkpt lat="50.66597" lon="3.06404">
        <ele>44.8</ele>
        <time>2018-06-03T15:49:43Z</time>
      </trkpt>
      <trkpt lat="50.66597" lon="3.06404">
        <ele>45</ele>
        <time>2018-06-03T15:49:47Z</time>
      </trkpt>
      <trkpt lat="50.66597" lon="3.06404">
        <ele>45.2</ele>
        <time>2018-06-03T15:49:51Z</time>
      </trkpt>
      <trkpt lat="50.66597" lon="3.06404">
        <ele>45.2</ele>
        <time>2018-06-03T15:49:55Z</time>
      </trkpt>
      <trkpt lat="50.66597" lon="3.06404">
        <ele>45</ele>
        <time>2018-06-03T15:49:59Z</time>
      </trkpt>
      <trkpt lat="50.66594" lon="3.06401">
        <ele>44.8</ele>
        <time>2018-06-03T15:50:03Z</time>
      </trkpt>
      <trkpt lat="50.66589" lon="3.064">
        <ele>45</ele>
        <time>2018-06-03T15:50:07Z</time>
      </trkpt>
      <trkpt lat="50.66587" lon="3.06387">
        <ele>45.2</ele>
        <time>2018-06-03T15:50:11Z</time>
      </trkpt>
      <trkpt lat="50.66588" lon="3.0637">
        <ele>45</ele>
        <time>2018-06-03T15:50:15Z</time>
      </trkpt>
      <trkpt lat="50.66588" lon="3.06349">
        <ele>45.2</ele>
        <time>2018-06-03T15:50:19Z</time>
      </trkpt>
      <trkpt lat="50.66589" lon="3.06326">
        <ele>45.6</ele>
        <time>2018-06-03T15:50:23Z</time>
      </trkpt>
      <trkpt lat="50.66589" lon="3.06306">
        <ele>46</ele>
        <time>2018-06-03T15:50:27Z</time>
      </trkpt>
      <trkpt lat="50.66587" lon="3.06287">
        <ele>46.6</ele>
        <time>2018-06-03T15:50:31Z</time>
      </trkpt>
      <trkpt lat="50.66581" lon="3.06275">
        <ele>46.4</ele>
        <time>2018-06-03T15:50:35Z</time>
      </trkpt>
      <trkpt lat="50.66574" lon="3.06275">
        <ele>45.6</ele>
        <time>2018-06-03T15:50:39Z</time>
      </trkpt>
      <trkpt lat="50.66559" lon="3.06272">
        <ele>45.2</ele>
        <time>2018-06-03T15:50:43Z</time>
      </trkpt>
      <trkpt lat="50.6654" lon="3.0626">
        <ele>43.4</ele>
        <time>2018-06-03T15:50:47Z</time>
      </trkpt>
      <trkpt lat="50.66513" lon="3.06244">
        <ele>42.4</ele>
        <time>2018-06-03T15:50:51Z</time>
      </trkpt>
      <trkpt lat="50.66485" lon="3.06227">
        <ele>42</ele>
        <time>2018-06-03T15:50:55Z</time>
      </trkpt>
      <trkpt lat="50.66459" lon="3.06214">
        <ele>41.8</ele>
        <time>2018-06-03T15:50:59Z</time>
      </trkpt>
      <trkpt lat="50.66434" lon="3.06204">
        <ele>41.8</ele>
        <time>2018-06-03T15:51:03Z</time>
      </trkpt>
      <trkpt lat="50.66412" lon="3.06195">
        <ele>41.4</ele>
        <time>2018-06-03T15:51:07Z</time>
      </trkpt>
      <trkpt lat="50.66391" lon="3.06186">
        <ele>41.4</ele>
        <time>2018-06-03T15:51:11Z</time>
      </trkpt>
      <trkpt lat="50.66369" lon="3.06176">
        <ele>41.4</ele>
        <time>2018-06-03T15:51:15Z</time>
      </trkpt>
      <trkpt lat="50.66346" lon="3.06167">
        <ele>41.4</ele>
        <time>2018-06-03T15:51:19Z</time>
      </trkpt>
      <trkpt lat="50.66324" lon="3.06158">
        <ele>41.8</ele>
        <time>2018-06-03T15:51:23Z</time>
      </trkpt>
      <trkpt lat="50.66301" lon="3.06149">
        <ele>41.8</ele>
        <time>2018-06-03T15:51:27Z</time>
      </trkpt>
      <trkpt lat="50.66283" lon="3.06142">
        <ele>41.8</ele>
        <time>2018-06-03T15:51:31Z</time>
      </trkpt>
      <trkpt lat="50.66267" lon="3.06136">
        <ele>41.8</ele>
        <time>2018-06-03T15:51:35Z</time>
      </trkpt>
      <trkpt lat="50.6625" lon="3.06131">
        <ele>41.8</ele>
        <time>2018-06-03T15:51:39Z</time>
      </trkpt>
      <trkpt lat="50.66233" lon="3.06125">
        <ele>41.8</ele>
        <time>2018-06-03T15:51:43Z</time>
      </trkpt>
      <trkpt lat="50.66215" lon="3.06118">
        <ele>41.4</ele>
        <time>2018-06-03T15:51:47Z</time>
      </trkpt>
      <trkpt lat="50.66198" lon="3.06111">
        <ele>42</ele>
        <time>2018-06-03T15:51:51Z</time>
      </trkpt>
      <trkpt lat="50.66181" lon="3.06104">
        <ele>41.4</ele>
        <time>2018-06-03T15:51:55Z</time>
      </trkpt>
      <trkpt lat="50.66163" lon="3.06095">
        <ele>41.4</ele>
        <time>2018-06-03T15:51:59Z</time>
      </trkpt>
      <trkpt lat="50.66145" lon="3.06087">
        <ele>41.8</ele>
        <time>2018-06-03T15:52:03Z</time>
      </trkpt>
      <trkpt lat="50.6613" lon="3.0608">
        <ele>41.4</ele>
        <time>2018-06-03T15:52:07Z</time>
      </trkpt>
      <trkpt lat="50.6612" lon="3.06062">
        <ele>41.8</ele>
        <time>2018-06-03T15:52:11Z</time>
      </trkpt>
      <trkpt lat="50.6611" lon="3.06042">
        <ele>41.8</ele>
        <time>2018-06-03T15:52:15Z</time>
      </trkpt>
      <trkpt lat="50.66097" lon="3.0603">
        <ele>41.8</ele>
        <time>2018-06-03T15:52:19Z</time>
      </trkpt>
      <trkpt lat="50.66083" lon="3.0602">
        <ele>42</ele>
        <time>2018-06-03T15:52:23Z</time>
      </trkpt>
      <trkpt lat="50.66073" lon="3.06018">
        <ele>42.2</ele>
        <time>2018-06-03T15:52:27Z</time>
      </trkpt>
      <trkpt lat="50.66057" lon="3.06008">
        <ele>41.8</ele>
        <time>2018-06-03T15:52:31Z</time>
      </trkpt>
      <trkpt lat="50.66041" lon="3.06005">
        <ele>42</ele>
        <time>2018-06-03T15:52:35Z</time>
      </trkpt>
      <trkpt lat="50.66024" lon="3.05994">
        <ele>41.8</ele>
        <time>2018-06-03T15:52:39Z</time>
      </trkpt>
      <trkpt lat="50.66006" lon="3.05982">
        <ele>42.4</ele>
        <time>2018-06-03T15:52:43Z</time>
      </trkpt>
      <trkpt lat="50.6599" lon="3.05972">
        <ele>41.8</ele>
        <time>2018-06-03T15:52:47Z</time>
      </trkpt>
      <trkpt lat="50.65972" lon="3.05963">
        <ele>41.8</ele>
        <time>2018-06-03T15:52:51Z</time>
      </trkpt>
      <trkpt lat="50.65953" lon="3.05953">
        <ele>41.8</ele>
        <time>2018-06-03T15:52:55Z</time>
      </trkpt>
      <trkpt lat="50.65935" lon="3.05946">
        <ele>41.6</ele>
        <time>2018-06-03T15:52:59Z</time>
      </trkpt>
      <trkpt lat="50.65918" lon="3.05939">
        <ele>41.8</ele>
        <time>2018-06-03T15:53:03Z</time>
      </trkpt>
      <trkpt lat="50.65903" lon="3.05932">
        <ele>41.4</ele>
        <time>2018-06-03T15:53:07Z</time>
      </trkpt>
      <trkpt lat="50.65889" lon="3.05928">
        <ele>41.2</ele>
        <time>2018-06-03T15:53:11Z</time>
      </trkpt>
      <trkpt lat="50.65875" lon="3.05923">
        <ele>41.4</ele>
        <time>2018-06-03T15:53:15Z</time>
      </trkpt>
      <trkpt lat="50.65866" lon="3.0592">
        <ele>41.4</ele>
        <time>2018-06-03T15:53:19Z</time>
      </trkpt>
      <trkpt lat="50.65856" lon="3.05918">
        <ele>41.4</ele>
        <time>2018-06-03T15:53:23Z</time>
      </trkpt>
      <trkpt lat="50.65843" lon="3.05916">
        <ele>41.4</ele>
        <time>2018-06-03T15:53:27Z</time>
      </trkpt>
      <trkpt lat="50.65829" lon="3.05916">
        <ele>41.4</ele>
        <time>2018-06-03T15:53:31Z</time>
      </trkpt>
      <trkpt lat="50.65814" lon="3.05917">
        <ele>41.2</ele>
        <time>2018-06-03T15:53:35Z</time>
      </trkpt>
      <trkpt lat="50.658" lon="3.05918">
        <ele>41.8</ele>
        <time>2018-06-03T15:53:39Z</time>
      </trkpt>
      <trkpt lat="50.65785" lon="3.05918">
        <ele>41.4</ele>
        <time>2018-06-03T15:53:43Z</time>
      </trkpt>
      <trkpt lat="50.6577" lon="3.05914">
        <ele>42</ele>
        <time>2018-06-03T15:53:47Z</time>
      </trkpt>
      <trkpt lat="50.65757" lon="3.05906">
        <ele>41.8</ele>
        <time>2018-06-03T15:53:51Z</time>
      </trkpt>
      <trkpt lat="50.65743" lon="3.059">
        <ele>42</ele>
        <time>2018-06-03T15:53:55Z</time>
      </trkpt>
      <trkpt lat="50.65726" lon="3.05893">
        <ele>41.8</ele>
        <time>2018-06-03T15:53:59Z</time>
      </trkpt>
      <trkpt lat="50.65712" lon="3.05886">
        <ele>41.6</ele>
        <time>2018-06-03T15:54:03Z</time>
      </trkpt>
      <trkpt lat="50.65699" lon="3.05878">
        <ele>41.4</ele>
        <time>2018-06-03T15:54:07Z</time>
      </trkpt>
      <trkpt lat="50.65684" lon="3.05868">
        <ele>41.8</ele>
        <time>2018-06-03T15:54:11Z</time>
      </trkpt>
      <trkpt lat="50.6567" lon="3.05854">
        <ele>41.4</ele>
        <time>2018-06-03T15:54:15Z</time>
      </trkpt>
      <trkpt lat="50.65657" lon="3.0584">
        <ele>41.4</ele>
        <time>2018-06-03T15:54:19Z</time>
      </trkpt>
      <trkpt lat="50.65643" lon="3.0583">
        <ele>41.6</ele>
        <time>2018-06-03T15:54:23Z</time>
      </trkpt>
      <trkpt lat="50.65627" lon="3.05816">
        <ele>41.8</ele>
        <time>2018-06-03T15:54:27Z</time>
      </trkpt>
      <trkpt lat="50.65611" lon="3.05801">
        <ele>41.4</ele>
        <time>2018-06-03T15:54:31Z</time>
      </trkpt>
      <trkpt lat="50.65593" lon="3.05786">
        <ele>41.8</ele>
        <time>2018-06-03T15:54:35Z</time>
      </trkpt>
      <trkpt lat="50.65575" lon="3.05772">
        <ele>41.6</ele>
        <time>2018-06-03T15:54:39Z</time>
      </trkpt>
      <trkpt lat="50.65559" lon="3.05758">
        <ele>41.8</ele>
        <time>2018-06-03T15:54:43Z</time>
      </trkpt>
      <trkpt lat="50.65543" lon="3.05742">
        <ele>42</ele>
        <time>2018-06-03T15:54:47Z</time>
      </trkpt>
      <trkpt lat="50.65528" lon="3.05724">
        <ele>41.8</ele>
        <time>2018-06-03T15:54:51Z</time>
      </trkpt>
      <trkpt lat="50.65515" lon="3.05708">
        <ele>41.8</ele>
        <time>2018-06-03T15:54:55Z</time>
      </trkpt>
      <trkpt lat="50.65503" lon="3.05692">
        <ele>42.2</ele>
        <time>2018-06-03T15:54:59Z</time>
      </trkpt>
      <trkpt lat="50.65493" lon="3.05672">
        <ele>42</ele>
        <time>2018-06-03T15:55:03Z</time>
      </trkpt>
      <trkpt lat="50.65481" lon="3.05653">
        <ele>42.6</ele>
        <time>2018-06-03T15:55:07Z</time>
      </trkpt>
      <trkpt lat="50.65468" lon="3.05637">
        <ele>42.4</ele>
        <time>2018-06-03T15:55:11Z</time>
      </trkpt>
      <trkpt lat="50.65456" lon="3.05629">
        <ele>42.6</ele>
        <time>2018-06-03T15:55:15Z</time>
      </trkpt>
      <trkpt lat="50.6545" lon="3.05633">
        <ele>42.8</ele>
        <time>2018-06-03T15:55:19Z</time>
      </trkpt>
      <trkpt lat="50.65453" lon="3.05642">
        <ele>42.8</ele>
        <time>2018-06-03T15:55:23Z</time>
      </trkpt>
      <trkpt lat="50.6546" lon="3.05654">
        <ele>43.2</ele>
        <time>2018-06-03T15:55:27Z</time>
      </trkpt>
      <trkpt lat="50.65469" lon="3.05669">
        <ele>43.6</ele>
        <time>2018-06-03T15:55:31Z</time>
      </trkpt>
      <trkpt lat="50.65475" lon="3.05685">
        <ele>43.8</ele>
        <time>2018-06-03T15:55:35Z</time>
      </trkpt>
      <trkpt lat="50.6547" lon="3.05687">
        <ele>43.6</ele>
        <time>2018-06-03T15:55:39Z</time>
      </trkpt>
      <trkpt lat="50.6547" lon="3.05687">
        <ele>43.6</ele>
        <time>2018-06-03T15:55:43Z</time>
      </trkpt>
      <trkpt lat="50.6547" lon="3.05687">
        <ele>43.2</ele>
        <time>2018-06-03T15:55:47Z</time>
      </trkpt>
      <trkpt lat="50.6547" lon="3.05687">
        <ele>43.6</ele>
        <time>2018-06-03T15:55:51Z</time>
      </trkpt>
      <trkpt lat="50.65468" lon="3.05683">
        <ele>43.2</ele>
        <time>2018-06-03T15:55:55Z</time>
      </trkpt>
      <trkpt lat="50.65463" lon="3.05674">
        <ele>43.8</ele>
        <time>2018-06-03T15:55:59Z</time>
      </trkpt>
      <trkpt lat="50.65455" lon="3.05661">
        <ele>44.8</ele>
        <time>2018-06-03T15:56:03Z</time>
      </trkpt>
      <trkpt lat="50.65447" lon="3.05648">
        <ele>45.2</ele>
        <time>2018-06-03T15:56:07Z</time>
      </trkpt>
      <trkpt lat="50.6544" lon="3.05631">
        <ele>46.4</ele>
        <time>2018-06-03T15:56:11Z</time>
      </trkpt>
      <trkpt lat="50.65436" lon="3.05613">
        <ele>47.2</ele>
        <time>2018-06-03T15:56:15Z</time>
      </trkpt>
      <trkpt lat="50.65434" lon="3.05593">
        <ele>47.2</ele>
        <time>2018-06-03T15:56:19Z</time>
      </trkpt>
      <trkpt lat="50.65433" lon="3.05572">
        <ele>48.4</ele>
        <time>2018-06-03T15:56:23Z</time>
      </trkpt>
      <trkpt lat="50.65432" lon="3.05551">
        <ele>49</ele>
        <time>2018-06-03T15:56:27Z</time>
      </trkpt>
      <trkpt lat="50.65431" lon="3.0553">
        <ele>49.4</ele>
        <time>2018-06-03T15:56:31Z</time>
      </trkpt>
      <trkpt lat="50.6543" lon="3.05507">
        <ele>49.4</ele>
        <time>2018-06-03T15:56:35Z</time>
      </trkpt>
      <trkpt lat="50.6543" lon="3.05481">
        <ele>49.6</ele>
        <time>2018-06-03T15:56:39Z</time>
      </trkpt>
      <trkpt lat="50.65431" lon="3.05456">
        <ele>49.2</ele>
        <time>2018-06-03T15:56:43Z</time>
      </trkpt>
      <trkpt lat="50.65433" lon="3.05428">
        <ele>49.2</ele>
        <time>2018-06-03T15:56:47Z</time>
      </trkpt>
      <trkpt lat="50.65437" lon="3.05397">
        <ele>47</ele>
        <time>2018-06-03T15:56:51Z</time>
      </trkpt>
      <trkpt lat="50.6544" lon="3.05364">
        <ele>46.8</ele>
        <time>2018-06-03T15:56:55Z</time>
      </trkpt>
      <trkpt lat="50.65439" lon="3.0533">
        <ele>45.6</ele>
        <time>2018-06-03T15:56:59Z</time>
      </trkpt>
      <trkpt lat="50.65436" lon="3.053">
        <ele>45.4</ele>
        <time>2018-06-03T15:57:03Z</time>
      </trkpt>
      <trkpt lat="50.65431" lon="3.05279">
        <ele>45.2</ele>
        <time>2018-06-03T15:57:07Z</time>
      </trkpt>
      <trkpt lat="50.65431" lon="3.05279">
        <ele>45</ele>
        <time>2018-06-03T15:57:11Z</time>
      </trkpt>
      <trkpt lat="50.65431" lon="3.05279">
        <ele>45</ele>
        <time>2018-06-03T15:57:15Z</time>
      </trkpt>
      <trkpt lat="50.65431" lon="3.05279">
        <ele>44.8</ele>
        <time>2018-06-03T15:57:19Z</time>
      </trkpt>
      <trkpt lat="50.65427" lon="3.05271">
        <ele>44.8</ele>
        <time>2018-06-03T15:57:23Z</time>
      </trkpt>
      <trkpt lat="50.65423" lon="3.05264">
        <ele>44.8</ele>
        <time>2018-06-03T15:57:27Z</time>
      </trkpt>
      <trkpt lat="50.65414" lon="3.05264">
        <ele>44.8</ele>
        <time>2018-06-03T15:57:31Z</time>
      </trkpt>
      <trkpt lat="50.65403" lon="3.05262">
        <ele>44.8</ele>
        <time>2018-06-03T15:57:35Z</time>
      </trkpt>
      <trkpt lat="50.65394" lon="3.05263">
        <ele>44.8</ele>
        <time>2018-06-03T15:57:39Z</time>
      </trkpt>
      <trkpt lat="50.65384" lon="3.05264">
        <ele>45</ele>
        <time>2018-06-03T15:57:43Z</time>
      </trkpt>
      <trkpt lat="50.65374" lon="3.05266">
        <ele>45.2</ele>
        <time>2018-06-03T15:57:47Z</time>
      </trkpt>
      <trkpt lat="50.65364" lon="3.05266">
        <ele>46</ele>
        <time>2018-06-03T15:57:51Z</time>
      </trkpt>
      <trkpt lat="50.65352" lon="3.05271">
        <ele>45</ele>
        <time>2018-06-03T15:57:55Z</time>
      </trkpt>
      <trkpt lat="50.65337" lon="3.05276">
        <ele>46.2</ele>
        <time>2018-06-03T15:57:59Z</time>
      </trkpt>
      <trkpt lat="50.65323" lon="3.05279">
        <ele>45.4</ele>
        <time>2018-06-03T15:58:03Z</time>
      </trkpt>
      <trkpt lat="50.65311" lon="3.05276">
        <ele>45.4</ele>
        <time>2018-06-03T15:58:07Z</time>
      </trkpt>
      <trkpt lat="50.65304" lon="3.05274">
        <ele>45.2</ele>
        <time>2018-06-03T15:58:11Z</time>
      </trkpt>
      <trkpt lat="50.65303" lon="3.05266">
        <ele>46.2</ele>
        <time>2018-06-03T15:58:15Z</time>
      </trkpt>
      <trkpt lat="50.65298" lon="3.05258">
        <ele>45.4</ele>
        <time>2018-06-03T15:58:19Z</time>
      </trkpt>
      <trkpt lat="50.6529" lon="3.05256">
        <ele>45.6</ele>
        <time>2018-06-03T15:58:23Z</time>
      </trkpt>
      <trkpt lat="50.65283" lon="3.05254">
        <ele>45.4</ele>
        <time>2018-06-03T15:58:27Z</time>
      </trkpt>
      <trkpt lat="50.65276" lon="3.05254">
        <ele>45.6</ele>
        <time>2018-06-03T15:58:31Z</time>
      </trkpt>
      <trkpt lat="50.65268" lon="3.05252">
        <ele>45.6</ele>
        <time>2018-06-03T15:58:35Z</time>
      </trkpt>
      <trkpt lat="50.65258" lon="3.05249">
        <ele>45.8</ele>
        <time>2018-06-03T15:58:39Z</time>
      </trkpt>
      <trkpt lat="50.65246" lon="3.05242">
        <ele>45.4</ele>
        <time>2018-06-03T15:58:43Z</time>
      </trkpt>
      <trkpt lat="50.65234" lon="3.05229">
        <ele>46.4</ele>
        <time>2018-06-03T15:58:47Z</time>
      </trkpt>
      <trkpt lat="50.65225" lon="3.05212">
        <ele>45.8</ele>
        <time>2018-06-03T15:58:51Z</time>
      </trkpt>
      <trkpt lat="50.65215" lon="3.05199">
        <ele>46</ele>
        <time>2018-06-03T15:58:55Z</time>
      </trkpt>
      <trkpt lat="50.65204" lon="3.05187">
        <ele>45.8</ele>
        <time>2018-06-03T15:58:59Z</time>
      </trkpt>
      <trkpt lat="50.65196" lon="3.05172">
        <ele>45.8</ele>
        <time>2018-06-03T15:59:03Z</time>
      </trkpt>
      <trkpt lat="50.65196" lon="3.05172">
        <ele>46.2</ele>
        <time>2018-06-03T15:59:07Z</time>
      </trkpt>
      <trkpt lat="50.65196" lon="3.05172">
        <ele>45.6</ele>
        <time>2018-06-03T15:59:11Z</time>
      </trkpt>
      <trkpt lat="50.6519" lon="3.05163">
        <ele>45.6</ele>
        <time>2018-06-03T15:59:15Z</time>
      </trkpt>
      <trkpt lat="50.65185" lon="3.05166">
        <ele>44.6</ele>
        <time>2018-06-03T15:59:19Z</time>
      </trkpt>
      <trkpt lat="50.65178" lon="3.05172">
        <ele>44.8</ele>
        <time>2018-06-03T15:59:23Z</time>
      </trkpt>
      <trkpt lat="50.6517" lon="3.05175">
        <ele>45</ele>
        <time>2018-06-03T15:59:27Z</time>
      </trkpt>
      <trkpt lat="50.6516" lon="3.05162">
        <ele>44.4</ele>
        <time>2018-06-03T15:59:31Z</time>
      </trkpt>
      <trkpt lat="50.6515" lon="3.05147">
        <ele>44.4</ele>
        <time>2018-06-03T15:59:35Z</time>
      </trkpt>
      <trkpt lat="50.65142" lon="3.05131">
        <ele>44.4</ele>
        <time>2018-06-03T15:59:39Z</time>
      </trkpt>
      <trkpt lat="50.65132" lon="3.05111">
        <ele>43.8</ele>
        <time>2018-06-03T15:59:43Z</time>
      </trkpt>
      <trkpt lat="50.6512" lon="3.05087">
        <ele>43</ele>
        <time>2018-06-03T15:59:47Z</time>
      </trkpt>
      <trkpt lat="50.65106" lon="3.05059">
        <ele>42</ele>
        <time>2018-06-03T15:59:51Z</time>
      </trkpt>
      <trkpt lat="50.6509" lon="3.05028">
        <ele>42.4</ele>
        <time>2018-06-03T15:59:55Z</time>
      </trkpt>
      <trkpt lat="50.65076" lon="3.04997">
        <ele>42.4</ele>
        <time>2018-06-03T15:59:59Z</time>
      </trkpt>
      <trkpt lat="50.65062" lon="3.04969">
        <ele>41.8</ele>
        <time>2018-06-03T16:00:03Z</time>
      </trkpt>
      <trkpt lat="50.65049" lon="3.04942">
        <ele>42.2</ele>
        <time>2018-06-03T16:00:07Z</time>
      </trkpt>
      <trkpt lat="50.65037" lon="3.04915">
        <ele>42.2</ele>
        <time>2018-06-03T16:00:11Z</time>
      </trkpt>
      <trkpt lat="50.65023" lon="3.04891">
        <ele>42.4</ele>
        <time>2018-06-03T16:00:15Z</time>
      </trkpt>
      <trkpt lat="50.6501" lon="3.04866">
        <ele>44</ele>
        <time>2018-06-03T16:00:19Z</time>
      </trkpt>
      <trkpt lat="50.64998" lon="3.04844">
        <ele>44.8</ele>
        <time>2018-06-03T16:00:23Z</time>
      </trkpt>
      <trkpt lat="50.64988" lon="3.04825">
        <ele>45.6</ele>
        <time>2018-06-03T16:00:27Z</time>
      </trkpt>
      <trkpt lat="50.64978" lon="3.0481">
        <ele>46.4</ele>
        <time>2018-06-03T16:00:31Z</time>
      </trkpt>
      <trkpt lat="50.64969" lon="3.04794">
        <ele>46.2</ele>
        <time>2018-06-03T16:00:35Z</time>
      </trkpt>
      <trkpt lat="50.6496" lon="3.04776">
        <ele>45.6</ele>
        <time>2018-06-03T16:00:39Z</time>
      </trkpt>
      <trkpt lat="50.64947" lon="3.04754">
        <ele>45</ele>
        <time>2018-06-03T16:00:43Z</time>
      </trkpt>
      <trkpt lat="50.64932" lon="3.04728">
        <ele>43.8</ele>
        <time>2018-06-03T16:00:47Z</time>
      </trkpt>
      <trkpt lat="50.64917" lon="3.04698">
        <ele>43.2</ele>
        <time>2018-06-03T16:00:51Z</time>
      </trkpt>
      <trkpt lat="50.64904" lon="3.04669">
        <ele>43</ele>
        <time>2018-06-03T16:00:55Z</time>
      </trkpt>
      <trkpt lat="50.6489" lon="3.04645">
        <ele>43</ele>
        <time>2018-06-03T16:00:59Z</time>
      </trkpt>
      <trkpt lat="50.64876" lon="3.04623">
        <ele>43.6</ele>
        <time>2018-06-03T16:01:03Z</time>
      </trkpt>
      <trkpt lat="50.64862" lon="3.046">
        <ele>44.2</ele>
        <time>2018-06-03T16:01:07Z</time>
      </trkpt>
      <trkpt lat="50.64849" lon="3.04576">
        <ele>44.8</ele>
        <time>2018-06-03T16:01:11Z</time>
      </trkpt>
      <trkpt lat="50.64837" lon="3.0455">
        <ele>45.4</ele>
        <time>2018-06-03T16:01:15Z</time>
      </trkpt>
      <trkpt lat="50.64834" lon="3.04561">
        <ele>46</ele>
        <time>2018-06-03T16:01:19Z</time>
      </trkpt>
      <trkpt lat="50.6484" lon="3.04577">
        <ele>46.2</ele>
        <time>2018-06-03T16:01:23Z</time>
      </trkpt>
      <trkpt lat="50.64848" lon="3.04593">
        <ele>46.4</ele>
        <time>2018-06-03T16:01:27Z</time>
      </trkpt>
      <trkpt lat="50.64857" lon="3.04608">
        <ele>46.6</ele>
        <time>2018-06-03T16:01:31Z</time>
      </trkpt>
      <trkpt lat="50.64866" lon="3.04625">
        <ele>47</ele>
        <time>2018-06-03T16:01:35Z</time>
      </trkpt>
      <trkpt lat="50.64874" lon="3.0464">
        <ele>48.2</ele>
        <time>2018-06-03T16:01:39Z</time>
      </trkpt>
      <trkpt lat="50.6488" lon="3.04656">
        <ele>48.4</ele>
        <time>2018-06-03T16:01:43Z</time>
      </trkpt>
      <trkpt lat="50.64881" lon="3.04678">
        <ele>48.2</ele>
        <time>2018-06-03T16:01:47Z</time>
      </trkpt>
      <trkpt lat="50.64872" lon="3.04695">
        <ele>48.4</ele>
        <time>2018-06-03T16:01:51Z</time>
      </trkpt>
      <trkpt lat="50.64862" lon="3.04709">
        <ele>49</ele>
        <time>2018-06-03T16:01:55Z</time>
      </trkpt>
      <trkpt lat="50.64852" lon="3.04722">
        <ele>48.8</ele>
        <time>2018-06-03T16:01:59Z</time>
      </trkpt>
      <trkpt lat="50.64844" lon="3.04733">
        <ele>49.2</ele>
        <time>2018-06-03T16:02:03Z</time>
      </trkpt>
      <trkpt lat="50.64837" lon="3.04744">
        <ele>49</ele>
        <time>2018-06-03T16:02:07Z</time>
      </trkpt>
      <trkpt lat="50.64828" lon="3.04757">
        <ele>50</ele>
        <time>2018-06-03T16:02:11Z</time>
      </trkpt>
      <trkpt lat="50.64816" lon="3.0477">
        <ele>49.6</ele>
        <time>2018-06-03T16:02:15Z</time>
      </trkpt>
      <trkpt lat="50.64805" lon="3.04784">
        <ele>49.6</ele>
        <time>2018-06-03T16:02:19Z</time>
      </trkpt>
      <trkpt lat="50.64794" lon="3.04799">
        <ele>49.6</ele>
        <time>2018-06-03T16:02:23Z</time>
      </trkpt>
      <trkpt lat="50.64782" lon="3.04812">
        <ele>49.2</ele>
        <time>2018-06-03T16:02:27Z</time>
      </trkpt>
      <trkpt lat="50.64771" lon="3.04825">
        <ele>49</ele>
        <time>2018-06-03T16:02:31Z</time>
      </trkpt>
      <trkpt lat="50.64759" lon="3.04836">
        <ele>49.6</ele>
        <time>2018-06-03T16:02:35Z</time>
      </trkpt>
      <trkpt lat="50.64744" lon="3.04845">
        <ele>49</ele>
        <time>2018-06-03T16:02:39Z</time>
      </trkpt>
      <trkpt lat="50.64732" lon="3.0486">
        <ele>48.6</ele>
        <time>2018-06-03T16:02:43Z</time>
      </trkpt>
      <trkpt lat="50.64717" lon="3.04873">
        <ele>48</ele>
        <time>2018-06-03T16:02:47Z</time>
      </trkpt>
      <trkpt lat="50.647" lon="3.04884">
        <ele>47.6</ele>
        <time>2018-06-03T16:02:51Z</time>
      </trkpt>
      <trkpt lat="50.64681" lon="3.04897">
        <ele>47</ele>
        <time>2018-06-03T16:02:55Z</time>
      </trkpt>
      <trkpt lat="50.64662" lon="3.04908">
        <ele>47.2</ele>
        <time>2018-06-03T16:02:59Z</time>
      </trkpt>
      <trkpt lat="50.64643" lon="3.04921">
        <ele>47.2</ele>
        <time>2018-06-03T16:03:03Z</time>
      </trkpt>
      <trkpt lat="50.64624" lon="3.04936">
        <ele>47</ele>
        <time>2018-06-03T16:03:07Z</time>
      </trkpt>
      <trkpt lat="50.64606" lon="3.04952">
        <ele>46.2</ele>
        <time>2018-06-03T16:03:11Z</time>
      </trkpt>
      <trkpt lat="50.64589" lon="3.04968">
        <ele>46.8</ele>
        <time>2018-06-03T16:03:15Z</time>
      </trkpt>
      <trkpt lat="50.64574" lon="3.04985">
        <ele>46.6</ele>
        <time>2018-06-03T16:03:19Z</time>
      </trkpt>
      <trkpt lat="50.64562" lon="3.04999">
        <ele>46.4</ele>
        <time>2018-06-03T16:03:23Z</time>
      </trkpt>
      <trkpt lat="50.64547" lon="3.05017">
        <ele>46.4</ele>
        <time>2018-06-03T16:03:27Z</time>
      </trkpt>
      <trkpt lat="50.64532" lon="3.05035">
        <ele>45.6</ele>
        <time>2018-06-03T16:03:31Z</time>
      </trkpt>
      <trkpt lat="50.64518" lon="3.05052">
        <ele>45.6</ele>
        <time>2018-06-03T16:03:35Z</time>
      </trkpt>
      <trkpt lat="50.64505" lon="3.05069">
        <ele>45.6</ele>
        <time>2018-06-03T16:03:39Z</time>
      </trkpt>
      <trkpt lat="50.64493" lon="3.05083">
        <ele>45.4</ele>
        <time>2018-06-03T16:03:43Z</time>
      </trkpt>
      <trkpt lat="50.6448" lon="3.05099">
        <ele>45.2</ele>
        <time>2018-06-03T16:03:47Z</time>
      </trkpt>
      <trkpt lat="50.64469" lon="3.05115">
        <ele>45.2</ele>
        <time>2018-06-03T16:03:51Z</time>
      </trkpt>
      <trkpt lat="50.64456" lon="3.05129">
        <ele>45.2</ele>
        <time>2018-06-03T16:03:55Z</time>
      </trkpt>
      <trkpt lat="50.64441" lon="3.05149">
        <ele>45.2</ele>
        <time>2018-06-03T16:03:59Z</time>
      </trkpt>
      <trkpt lat="50.64425" lon="3.05168">
        <ele>45.2</ele>
        <time>2018-06-03T16:04:03Z</time>
      </trkpt>
      <trkpt lat="50.64411" lon="3.05188">
        <ele>45.2</ele>
        <time>2018-06-03T16:04:07Z</time>
      </trkpt>
      <trkpt lat="50.64393" lon="3.05204">
        <ele>44.4</ele>
        <time>2018-06-03T16:04:11Z</time>
      </trkpt>
      <trkpt lat="50.64376" lon="3.05227">
        <ele>44.6</ele>
        <time>2018-06-03T16:04:15Z</time>
      </trkpt>
      <trkpt lat="50.64364" lon="3.05248">
        <ele>44.8</ele>
        <time>2018-06-03T16:04:19Z</time>
      </trkpt>
      <trkpt lat="50.6435" lon="3.05265">
        <ele>44.6</ele>
        <time>2018-06-03T16:04:23Z</time>
      </trkpt>
      <trkpt lat="50.64337" lon="3.05281">
        <ele>44.4</ele>
        <time>2018-06-03T16:04:27Z</time>
      </trkpt>
      <trkpt lat="50.64316" lon="3.053">
        <ele>44.4</ele>
        <time>2018-06-03T16:04:31Z</time>
      </trkpt>
      <trkpt lat="50.64292" lon="3.05307">
        <ele>44.6</ele>
        <time>2018-06-03T16:04:35Z</time>
      </trkpt>
      <trkpt lat="50.6427" lon="3.05314">
        <ele>44.2</ele>
        <time>2018-06-03T16:04:39Z</time>
      </trkpt>
      <trkpt lat="50.64249" lon="3.05316">
        <ele>44.2</ele>
        <time>2018-06-03T16:04:43Z</time>
      </trkpt>
      <trkpt lat="50.64228" lon="3.05319">
        <ele>44</ele>
        <time>2018-06-03T16:04:47Z</time>
      </trkpt>
      <trkpt lat="50.64207" lon="3.05323">
        <ele>44.2</ele>
        <time>2018-06-03T16:04:51Z</time>
      </trkpt>
      <trkpt lat="50.64183" lon="3.05324">
        <ele>44.2</ele>
        <time>2018-06-03T16:04:55Z</time>
      </trkpt>
      <trkpt lat="50.64159" lon="3.05329">
        <ele>44.4</ele>
        <time>2018-06-03T16:04:59Z</time>
      </trkpt>
      <trkpt lat="50.64136" lon="3.05331">
        <ele>44.2</ele>
        <time>2018-06-03T16:05:03Z</time>
      </trkpt>
      <trkpt lat="50.64114" lon="3.05332">
        <ele>44.6</ele>
        <time>2018-06-03T16:05:07Z</time>
      </trkpt>
      <trkpt lat="50.64093" lon="3.05333">
        <ele>44.8</ele>
        <time>2018-06-03T16:05:11Z</time>
      </trkpt>
      <trkpt lat="50.64074" lon="3.05334">
        <ele>44.6</ele>
        <time>2018-06-03T16:05:15Z</time>
      </trkpt>
      <trkpt lat="50.64054" lon="3.05336">
        <ele>44.4</ele>
        <time>2018-06-03T16:05:19Z</time>
      </trkpt>
      <trkpt lat="50.64031" lon="3.05338">
        <ele>44.6</ele>
        <time>2018-06-03T16:05:23Z</time>
      </trkpt>
      <trkpt lat="50.6401" lon="3.05341">
        <ele>44.8</ele>
        <time>2018-06-03T16:05:27Z</time>
      </trkpt>
      <trkpt lat="50.6399" lon="3.05341">
        <ele>44.6</ele>
        <time>2018-06-03T16:05:31Z</time>
      </trkpt>
      <trkpt lat="50.63971" lon="3.05339">
        <ele>44.4</ele>
        <time>2018-06-03T16:05:35Z</time>
      </trkpt>
      <trkpt lat="50.63951" lon="3.05333">
        <ele>44.2</ele>
        <time>2018-06-03T16:05:39Z</time>
      </trkpt>
      <trkpt lat="50.6393" lon="3.05326">
        <ele>44.2</ele>
        <time>2018-06-03T16:05:43Z</time>
      </trkpt>
      <trkpt lat="50.63913" lon="3.05323">
        <ele>45</ele>
        <time>2018-06-03T16:05:47Z</time>
      </trkpt>
      <trkpt lat="50.63899" lon="3.05314">
        <ele>45.2</ele>
        <time>2018-06-03T16:05:51Z</time>
      </trkpt>
      <trkpt lat="50.63885" lon="3.05301">
        <ele>45.6</ele>
        <time>2018-06-03T16:05:55Z</time>
      </trkpt>
      <trkpt lat="50.63871" lon="3.05287">
        <ele>45.6</ele>
        <time>2018-06-03T16:05:59Z</time>
      </trkpt>
      <trkpt lat="50.63858" lon="3.05272">
        <ele>46</ele>
        <time>2018-06-03T16:06:03Z</time>
      </trkpt>
      <trkpt lat="50.63847" lon="3.05259">
        <ele>45.8</ele>
        <time>2018-06-03T16:06:07Z</time>
      </trkpt>
      <trkpt lat="50.63847" lon="3.05259">
        <ele>46.4</ele>
        <time>2018-06-03T16:06:11Z</time>
      </trkpt>
      <trkpt lat="50.63845" lon="3.05258">
        <ele>46.4</ele>
        <time>2018-06-03T16:06:15Z</time>
      </trkpt>
      <trkpt lat="50.63839" lon="3.05253">
        <ele>46.4</ele>
        <time>2018-06-03T16:06:19Z</time>
      </trkpt>
      <trkpt lat="50.63829" lon="3.05244">
        <ele>46.4</ele>
        <time>2018-06-03T16:06:23Z</time>
      </trkpt>
      <trkpt lat="50.63819" lon="3.05234">
        <ele>46.2</ele>
        <time>2018-06-03T16:06:27Z</time>
      </trkpt>
      <trkpt lat="50.6381" lon="3.05225">
        <ele>46.8</ele>
        <time>2018-06-03T16:06:31Z</time>
      </trkpt>
      <trkpt lat="50.63799" lon="3.05214">
        <ele>46.6</ele>
        <time>2018-06-03T16:06:35Z</time>
      </trkpt>
      <trkpt lat="50.63787" lon="3.05203">
        <ele>46.4</ele>
        <time>2018-06-03T16:06:39Z</time>
      </trkpt>
      <trkpt lat="50.63776" lon="3.05193">
        <ele>46.4</ele>
        <time>2018-06-03T16:06:43Z</time>
      </trkpt>
      <trkpt lat="50.63766" lon="3.05183">
        <ele>46.2</ele>
        <time>2018-06-03T16:06:47Z</time>
      </trkpt>
      <trkpt lat="50.63755" lon="3.05173">
        <ele>46.2</ele>
        <time>2018-06-03T16:06:51Z</time>
      </trkpt>
      <trkpt lat="50.63747" lon="3.05161">
        <ele>46.4</ele>
        <time>2018-06-03T16:06:55Z</time>
      </trkpt>
      <trkpt lat="50.6374" lon="3.05157">
        <ele>46</ele>
        <time>2018-06-03T16:06:59Z</time>
      </trkpt>
      <trkpt lat="50.63733" lon="3.05153">
        <ele>46</ele>
        <time>2018-06-03T16:07:03Z</time>
      </trkpt>
      <trkpt lat="50.63724" lon="3.05152">
        <ele>45.4</ele>
        <time>2018-06-03T16:07:07Z</time>
      </trkpt>
      <trkpt lat="50.63725" lon="3.05165">
        <ele>45.8</ele>
        <time>2018-06-03T16:07:11Z</time>
      </trkpt>
      <trkpt lat="50.63719" lon="3.05185">
        <ele>45.8</ele>
        <time>2018-06-03T16:07:15Z</time>
      </trkpt>
      <trkpt lat="50.63711" lon="3.05203">
        <ele>46.2</ele>
        <time>2018-06-03T16:07:19Z</time>
      </trkpt>
      <trkpt lat="50.63701" lon="3.05221">
        <ele>46</ele>
        <time>2018-06-03T16:07:23Z</time>
      </trkpt>
      <trkpt lat="50.63688" lon="3.05241">
        <ele>46</ele>
        <time>2018-06-03T16:07:27Z</time>
      </trkpt>
      <trkpt lat="50.63677" lon="3.05261">
        <ele>45.6</ele>
        <time>2018-06-03T16:07:31Z</time>
      </trkpt>
      <trkpt lat="50.63669" lon="3.0529">
        <ele>46.2</ele>
        <time>2018-06-03T16:07:35Z</time>
      </trkpt>
      <trkpt lat="50.63657" lon="3.05315">
        <ele>46.2</ele>
        <time>2018-06-03T16:07:39Z</time>
      </trkpt>
      <trkpt lat="50.63641" lon="3.05337">
        <ele>46.4</ele>
        <time>2018-06-03T16:07:43Z</time>
      </trkpt>
      <trkpt lat="50.63627" lon="3.05357">
        <ele>46.2</ele>
        <time>2018-06-03T16:07:47Z</time>
      </trkpt>
      <trkpt lat="50.63612" lon="3.05378">
        <ele>46</ele>
        <time>2018-06-03T16:07:51Z</time>
      </trkpt>
      <trkpt lat="50.63594" lon="3.05404">
        <ele>46.2</ele>
        <time>2018-06-03T16:07:55Z</time>
      </trkpt>
      <trkpt lat="50.63578" lon="3.05428">
        <ele>45.8</ele>
        <time>2018-06-03T16:07:59Z</time>
      </trkpt>
      <trkpt lat="50.63567" lon="3.05455">
        <ele>45.4</ele>
        <time>2018-06-03T16:08:03Z</time>
      </trkpt>
      <trkpt lat="50.63556" lon="3.05484">
        <ele>45.4</ele>
        <time>2018-06-03T16:08:07Z</time>
      </trkpt>
      <trkpt lat="50.63544" lon="3.05513">
        <ele>45.8</ele>
        <time>2018-06-03T16:08:11Z</time>
      </trkpt>
      <trkpt lat="50.63526" lon="3.05537">
        <ele>46</ele>
        <time>2018-06-03T16:08:15Z</time>
      </trkpt>
      <trkpt lat="50.63515" lon="3.05557">
        <ele>45.6</ele>
        <time>2018-06-03T16:08:19Z</time>
      </trkpt>
      <trkpt lat="50.63504" lon="3.05584">
        <ele>45.4</ele>
        <time>2018-06-03T16:08:23Z</time>
      </trkpt>
      <trkpt lat="50.63494" lon="3.05607">
        <ele>45.2</ele>
        <time>2018-06-03T16:08:27Z</time>
      </trkpt>
      <trkpt lat="50.63474" lon="3.0563">
        <ele>45.4</ele>
        <time>2018-06-03T16:08:31Z</time>
      </trkpt>
      <trkpt lat="50.63458" lon="3.05656">
        <ele>46.2</ele>
        <time>2018-06-03T16:08:35Z</time>
      </trkpt>
      <trkpt lat="50.63445" lon="3.05681">
        <ele>45.6</ele>
        <time>2018-06-03T16:08:39Z</time>
      </trkpt>
      <trkpt lat="50.63432" lon="3.05709">
        <ele>45.4</ele>
        <time>2018-06-03T16:08:43Z</time>
      </trkpt>
      <trkpt lat="50.63422" lon="3.05728">
        <ele>45.6</ele>
        <time>2018-06-03T16:08:47Z</time>
      </trkpt>
      <trkpt lat="50.63405" lon="3.05751">
        <ele>46</ele>
        <time>2018-06-03T16:08:51Z</time>
      </trkpt>
      <trkpt lat="50.63383" lon="3.05797">
        <ele>45.6</ele>
        <time>2018-06-03T16:08:55Z</time>
      </trkpt>
      <trkpt lat="50.63363" lon="3.0583">
        <ele>46</ele>
        <time>2018-06-03T16:08:59Z</time>
      </trkpt>
      <trkpt lat="50.6335" lon="3.05861">
        <ele>46.2</ele>
        <time>2018-06-03T16:09:03Z</time>
      </trkpt>
      <trkpt lat="50.63339" lon="3.05885">
        <ele>46.2</ele>
        <time>2018-06-03T16:09:07Z</time>
      </trkpt>
      <trkpt lat="50.63324" lon="3.05912">
        <ele>46</ele>
        <time>2018-06-03T16:09:11Z</time>
      </trkpt>
      <trkpt lat="50.63309" lon="3.05926">
        <ele>46.2</ele>
        <time>2018-06-03T16:09:15Z</time>
      </trkpt>
      <trkpt lat="50.63295" lon="3.05947">
        <ele>45.8</ele>
        <time>2018-06-03T16:09:19Z</time>
      </trkpt>
      <trkpt lat="50.63289" lon="3.05977">
        <ele>46</ele>
        <time>2018-06-03T16:09:23Z</time>
      </trkpt>
      <trkpt lat="50.63284" lon="3.06">
        <ele>45.8</ele>
        <time>2018-06-03T16:09:27Z</time>
      </trkpt>
      <trkpt lat="50.63274" lon="3.06022">
        <ele>46.2</ele>
        <time>2018-06-03T16:09:31Z</time>
      </trkpt>
      <trkpt lat="50.63265" lon="3.0604">
        <ele>46</ele>
        <time>2018-06-03T16:09:35Z</time>
      </trkpt>
      <trkpt lat="50.63246" lon="3.06054">
        <ele>45.4</ele>
        <time>2018-06-03T16:09:39Z</time>
      </trkpt>
      <trkpt lat="50.6323" lon="3.06071">
        <ele>45.8</ele>
        <time>2018-06-03T16:09:43Z</time>
      </trkpt>
      <trkpt lat="50.63218" lon="3.06093">
        <ele>46.4</ele>
        <time>2018-06-03T16:09:47Z</time>
      </trkpt>
      <trkpt lat="50.63208" lon="3.06111">
        <ele>46</ele>
        <time>2018-06-03T16:09:51Z</time>
      </trkpt>
      <trkpt lat="50.63198" lon="3.06131">
        <ele>46</ele>
        <time>2018-06-03T16:09:55Z</time>
      </trkpt>
      <trkpt lat="50.63193" lon="3.06141">
        <ele>46</ele>
        <time>2018-06-03T16:09:59Z</time>
      </trkpt>
      <trkpt lat="50.63185" lon="3.06153">
        <ele>46.2</ele>
        <time>2018-06-03T16:10:03Z</time>
      </trkpt>
      <trkpt lat="50.63177" lon="3.06169">
        <ele>47</ele>
        <time>2018-06-03T16:10:07Z</time>
      </trkpt>
      <trkpt lat="50.63167" lon="3.06189">
        <ele>46.6</ele>
        <time>2018-06-03T16:10:11Z</time>
      </trkpt>
      <trkpt lat="50.63155" lon="3.06209">
        <ele>46.4</ele>
        <time>2018-06-03T16:10:15Z</time>
      </trkpt>
      <trkpt lat="50.63142" lon="3.06232">
        <ele>46.4</ele>
        <time>2018-06-03T16:10:19Z</time>
      </trkpt>
      <trkpt lat="50.6313" lon="3.06256">
        <ele>46.4</ele>
        <time>2018-06-03T16:10:23Z</time>
      </trkpt>
      <trkpt lat="50.63121" lon="3.06279">
        <ele>47</ele>
        <time>2018-06-03T16:10:27Z</time>
      </trkpt>
      <trkpt lat="50.63112" lon="3.06301">
        <ele>46.8</ele>
        <time>2018-06-03T16:10:31Z</time>
      </trkpt>
      <trkpt lat="50.63098" lon="3.06323">
        <ele>46.6</ele>
        <time>2018-06-03T16:10:35Z</time>
      </trkpt>
      <trkpt lat="50.63088" lon="3.06343">
        <ele>46.8</ele>
        <time>2018-06-03T16:10:39Z</time>
      </trkpt>
      <trkpt lat="50.63074" lon="3.06357">
        <ele>46.8</ele>
        <time>2018-06-03T16:10:43Z</time>
      </trkpt>
      <trkpt lat="50.63059" lon="3.06379">
        <ele>47</ele>
        <time>2018-06-03T16:10:47Z</time>
      </trkpt>
      <trkpt lat="50.63044" lon="3.064">
        <ele>47.2</ele>
        <time>2018-06-03T16:10:51Z</time>
      </trkpt>
      <trkpt lat="50.6303" lon="3.06432">
        <ele>47</ele>
        <time>2018-06-03T16:10:55Z</time>
      </trkpt>
      <trkpt lat="50.63016" lon="3.06459">
        <ele>47.2</ele>
        <time>2018-06-03T16:10:59Z</time>
      </trkpt>
      <trkpt lat="50.62997" lon="3.06489">
        <ele>47.4</ele>
        <time>2018-06-03T16:11:03Z</time>
      </trkpt>
      <trkpt lat="50.62982" lon="3.06517">
        <ele>47.4</ele>
        <time>2018-06-03T16:11:07Z</time>
      </trkpt>
      <trkpt lat="50.62969" lon="3.06542">
        <ele>48.2</ele>
        <time>2018-06-03T16:11:11Z</time>
      </trkpt>
      <trkpt lat="50.62957" lon="3.06568">
        <ele>48</ele>
        <time>2018-06-03T16:11:15Z</time>
      </trkpt>
      <trkpt lat="50.62947" lon="3.06591">
        <ele>47.6</ele>
        <time>2018-06-03T16:11:19Z</time>
      </trkpt>
      <trkpt lat="50.62931" lon="3.06617">
        <ele>47.8</ele>
        <time>2018-06-03T16:11:23Z</time>
      </trkpt>
      <trkpt lat="50.62916" lon="3.06643">
        <ele>48</ele>
        <time>2018-06-03T16:11:27Z</time>
      </trkpt>
      <trkpt lat="50.62903" lon="3.06666">
        <ele>47.8</ele>
        <time>2018-06-03T16:11:31Z</time>
      </trkpt>
      <trkpt lat="50.62895" lon="3.06691">
        <ele>48</ele>
        <time>2018-06-03T16:11:35Z</time>
      </trkpt>
      <trkpt lat="50.62884" lon="3.06719">
        <ele>48.2</ele>
        <time>2018-06-03T16:11:39Z</time>
      </trkpt>
      <trkpt lat="50.62864" lon="3.06745">
        <ele>49</ele>
        <time>2018-06-03T16:11:43Z</time>
      </trkpt>
      <trkpt lat="50.62857" lon="3.06768">
        <ele>48.8</ele>
        <time>2018-06-03T16:11:47Z</time>
      </trkpt>
      <trkpt lat="50.62842" lon="3.06787">
        <ele>48.6</ele>
        <time>2018-06-03T16:11:51Z</time>
      </trkpt>
      <trkpt lat="50.62831" lon="3.06805">
        <ele>48.6</ele>
        <time>2018-06-03T16:11:55Z</time>
      </trkpt>
      <trkpt lat="50.62822" lon="3.06817">
        <ele>48.6</ele>
        <time>2018-06-03T16:11:59Z</time>
      </trkpt>
      <trkpt lat="50.62811" lon="3.06822">
        <ele>48.8</ele>
        <time>2018-06-03T16:12:03Z</time>
      </trkpt>
      <trkpt lat="50.62798" lon="3.06821">
        <ele>48.2</ele>
        <time>2018-06-03T16:12:07Z</time>
      </trkpt>
      <trkpt lat="50.62786" lon="3.06824">
        <ele>48.6</ele>
        <time>2018-06-03T16:12:11Z</time>
      </trkpt>
      <trkpt lat="50.62773" lon="3.06822">
        <ele>48.8</ele>
        <time>2018-06-03T16:12:15Z</time>
      </trkpt>
      <trkpt lat="50.62756" lon="3.06819">
        <ele>49.8</ele>
        <time>2018-06-03T16:12:19Z</time>
      </trkpt>
      <trkpt lat="50.6274" lon="3.06818">
        <ele>49.2</ele>
        <time>2018-06-03T16:12:23Z</time>
      </trkpt>
      <trkpt lat="50.62728" lon="3.06815">
        <ele>49</ele>
        <time>2018-06-03T16:12:27Z</time>
      </trkpt>
      <trkpt lat="50.62716" lon="3.06811">
        <ele>49</ele>
        <time>2018-06-03T16:12:31Z</time>
      </trkpt>
      <trkpt lat="50.62702" lon="3.06813">
        <ele>49.2</ele>
        <time>2018-06-03T16:12:35Z</time>
      </trkpt>
      <trkpt lat="50.62688" lon="3.06814">
        <ele>48.8</ele>
        <time>2018-06-03T16:12:39Z</time>
      </trkpt>
      <trkpt lat="50.62678" lon="3.06817">
        <ele>48.4</ele>
        <time>2018-06-03T16:12:43Z</time>
      </trkpt>
      <trkpt lat="50.6267" lon="3.06815">
        <ele>48.8</ele>
        <time>2018-06-03T16:12:47Z</time>
      </trkpt>
      <trkpt lat="50.6266" lon="3.06816">
        <ele>48.8</ele>
        <time>2018-06-03T16:12:51Z</time>
      </trkpt>
      <trkpt lat="50.62649" lon="3.06817">
        <ele>48.8</ele>
        <time>2018-06-03T16:12:55Z</time>
      </trkpt>
      <trkpt lat="50.62637" lon="3.06818">
        <ele>49</ele>
        <time>2018-06-03T16:12:59Z</time>
      </trkpt>
      <trkpt lat="50.62622" lon="3.06824">
        <ele>49</ele>
        <time>2018-06-03T16:13:03Z</time>
      </trkpt>
      <trkpt lat="50.62607" lon="3.06823">
        <ele>49</ele>
        <time>2018-06-03T16:13:07Z</time>
      </trkpt>
      <trkpt lat="50.62591" lon="3.06822">
        <ele>49</ele>
        <time>2018-06-03T16:13:11Z</time>
      </trkpt>
      <trkpt lat="50.62575" lon="3.06822">
        <ele>49</ele>
        <time>2018-06-03T16:13:15Z</time>
      </trkpt>
      <trkpt lat="50.6256" lon="3.06818">
        <ele>49</ele>
        <time>2018-06-03T16:13:19Z</time>
      </trkpt>
      <trkpt lat="50.62545" lon="3.06812">
        <ele>48.8</ele>
        <time>2018-06-03T16:13:23Z</time>
      </trkpt>
      <trkpt lat="50.62529" lon="3.06811">
        <ele>49</ele>
        <time>2018-06-03T16:13:27Z</time>
      </trkpt>
      <trkpt lat="50.62512" lon="3.06812">
        <ele>48.6</ele>
        <time>2018-06-03T16:13:31Z</time>
      </trkpt>
      <trkpt lat="50.62496" lon="3.06816">
        <ele>48.2</ele>
        <time>2018-06-03T16:13:35Z</time>
      </trkpt>
      <trkpt lat="50.62482" lon="3.06819">
        <ele>48.8</ele>
        <time>2018-06-03T16:13:39Z</time>
      </trkpt>
      <trkpt lat="50.62471" lon="3.06817">
        <ele>48.8</ele>
        <time>2018-06-03T16:13:43Z</time>
      </trkpt>
      <trkpt lat="50.62464" lon="3.06809">
        <ele>48.8</ele>
        <time>2018-06-03T16:13:47Z</time>
      </trkpt>
      <trkpt lat="50.62459" lon="3.06805">
        <ele>48.8</ele>
        <time>2018-06-03T16:13:51Z</time>
      </trkpt>
      <trkpt lat="50.62452" lon="3.06809">
        <ele>48.6</ele>
        <time>2018-06-03T16:13:55Z</time>
      </trkpt>
      <trkpt lat="50.62443" lon="3.06814">
        <ele>48.8</ele>
        <time>2018-06-03T16:13:59Z</time>
      </trkpt>
      <trkpt lat="50.62434" lon="3.06819">
        <ele>49</ele>
        <time>2018-06-03T16:14:03Z</time>
      </trkpt>
      <trkpt lat="50.62426" lon="3.06818">
        <ele>48.8</ele>
        <time>2018-06-03T16:14:07Z</time>
      </trkpt>
      <trkpt lat="50.62417" lon="3.06827">
        <ele>49</ele>
        <time>2018-06-03T16:14:11Z</time>
      </trkpt>
      <trkpt lat="50.62409" lon="3.06845">
        <ele>49.2</ele>
        <time>2018-06-03T16:14:15Z</time>
      </trkpt>
      <trkpt lat="50.624" lon="3.06863">
        <ele>48.6</ele>
        <time>2018-06-03T16:14:19Z</time>
      </trkpt>
      <trkpt lat="50.6239" lon="3.06883">
        <ele>49.4</ele>
        <time>2018-06-03T16:14:23Z</time>
      </trkpt>
      <trkpt lat="50.6238" lon="3.06903">
        <ele>49</ele>
        <time>2018-06-03T16:14:27Z</time>
      </trkpt>
      <trkpt lat="50.62372" lon="3.06922">
        <ele>49</ele>
        <time>2018-06-03T16:14:31Z</time>
      </trkpt>
      <trkpt lat="50.62361" lon="3.06942">
        <ele>49</ele>
        <time>2018-06-03T16:14:35Z</time>
      </trkpt>
      <trkpt lat="50.62348" lon="3.06963">
        <ele>49</ele>
        <time>2018-06-03T16:14:39Z</time>
      </trkpt>
      <trkpt lat="50.62336" lon="3.06987">
        <ele>49.2</ele>
        <time>2018-06-03T16:14:43Z</time>
      </trkpt>
      <trkpt lat="50.62323" lon="3.0701">
        <ele>49.4</ele>
        <time>2018-06-03T16:14:47Z</time>
      </trkpt>
      <trkpt lat="50.62311" lon="3.07033">
        <ele>50</ele>
        <time>2018-06-03T16:14:51Z</time>
      </trkpt>
      <trkpt lat="50.62299" lon="3.07057">
        <ele>50</ele>
        <time>2018-06-03T16:14:55Z</time>
      </trkpt>
      <trkpt lat="50.62286" lon="3.0708">
        <ele>50</ele>
        <time>2018-06-03T16:14:59Z</time>
      </trkpt>
      <trkpt lat="50.62273" lon="3.07103">
        <ele>50</ele>
        <time>2018-06-03T16:15:03Z</time>
      </trkpt>
      <trkpt lat="50.62261" lon="3.07128">
        <ele>50</ele>
        <time>2018-06-03T16:15:07Z</time>
      </trkpt>
      <trkpt lat="50.62249" lon="3.07151">
        <ele>50.4</ele>
        <time>2018-06-03T16:15:11Z</time>
      </trkpt>
      <trkpt lat="50.6224" lon="3.07175">
        <ele>49.6</ele>
        <time>2018-06-03T16:15:15Z</time>
      </trkpt>
      <trkpt lat="50.62226" lon="3.07192">
        <ele>50.2</ele>
        <time>2018-06-03T16:15:19Z</time>
      </trkpt>
      <trkpt lat="50.62206" lon="3.07202">
        <ele>49.8</ele>
        <time>2018-06-03T16:15:23Z</time>
      </trkpt>
      <trkpt lat="50.62187" lon="3.07212">
        <ele>49.6</ele>
        <time>2018-06-03T16:15:27Z</time>
      </trkpt>
      <trkpt lat="50.62167" lon="3.07221">
        <ele>50</ele>
        <time>2018-06-03T16:15:31Z</time>
      </trkpt>
      <trkpt lat="50.62148" lon="3.07228">
        <ele>50</ele>
        <time>2018-06-03T16:15:35Z</time>
      </trkpt>
      <trkpt lat="50.6213" lon="3.07238">
        <ele>50</ele>
        <time>2018-06-03T16:15:39Z</time>
      </trkpt>
      <trkpt lat="50.6211" lon="3.07246">
        <ele>50</ele>
        <time>2018-06-03T16:15:43Z</time>
      </trkpt>
      <trkpt lat="50.62091" lon="3.07255">
        <ele>50</ele>
        <time>2018-06-03T16:15:47Z</time>
      </trkpt>
      <trkpt lat="50.6207" lon="3.07264">
        <ele>50.2</ele>
        <time>2018-06-03T16:15:51Z</time>
      </trkpt>
      <trkpt lat="50.62048" lon="3.07273">
        <ele>50.4</ele>
        <time>2018-06-03T16:15:55Z</time>
      </trkpt>
      <trkpt lat="50.62027" lon="3.07281">
        <ele>51</ele>
        <time>2018-06-03T16:15:59Z</time>
      </trkpt>
      <trkpt lat="50.62006" lon="3.07289">
        <ele>50.4</ele>
        <time>2018-06-03T16:16:03Z</time>
      </trkpt>
      <trkpt lat="50.61985" lon="3.07297">
        <ele>50.4</ele>
        <time>2018-06-03T16:16:07Z</time>
      </trkpt>
      <trkpt lat="50.61964" lon="3.07304">
        <ele>50.4</ele>
        <time>2018-06-03T16:16:11Z</time>
      </trkpt>
      <trkpt lat="50.61943" lon="3.07311">
        <ele>51</ele>
        <time>2018-06-03T16:16:15Z</time>
      </trkpt>
      <trkpt lat="50.61922" lon="3.07319">
        <ele>51.4</ele>
        <time>2018-06-03T16:16:19Z</time>
      </trkpt>
      <trkpt lat="50.61903" lon="3.07329">
        <ele>52.4</ele>
        <time>2018-06-03T16:16:23Z</time>
      </trkpt>
      <trkpt lat="50.61883" lon="3.07334">
        <ele>50.4</ele>
        <time>2018-06-03T16:16:27Z</time>
      </trkpt>
      <trkpt lat="50.61867" lon="3.07339">
        <ele>51.4</ele>
        <time>2018-06-03T16:16:31Z</time>
      </trkpt>
      <trkpt lat="50.61853" lon="3.07344">
        <ele>51.2</ele>
        <time>2018-06-03T16:16:35Z</time>
      </trkpt>
      <trkpt lat="50.61842" lon="3.07347">
        <ele>51</ele>
        <time>2018-06-03T16:16:39Z</time>
      </trkpt>
      <trkpt lat="50.61842" lon="3.07347">
        <ele>50.8</ele>
        <time>2018-06-03T16:16:43Z</time>
      </trkpt>
      <trkpt lat="50.61842" lon="3.07347">
        <ele>51</ele>
        <time>2018-06-03T16:16:47Z</time>
      </trkpt>
      <trkpt lat="50.61842" lon="3.07347">
        <ele>51</ele>
        <time>2018-06-03T16:16:51Z</time>
      </trkpt>
      <trkpt lat="50.61834" lon="3.07351">
        <ele>51</ele>
        <time>2018-06-03T16:16:55Z</time>
      </trkpt>
      <trkpt lat="50.61824" lon="3.07354">
        <ele>51.8</ele>
        <time>2018-06-03T16:16:59Z</time>
      </trkpt>
      <trkpt lat="50.6181" lon="3.07358">
        <ele>51.4</ele>
        <time>2018-06-03T16:17:03Z</time>
      </trkpt>
      <trkpt lat="50.61795" lon="3.07365">
        <ele>51.8</ele>
        <time>2018-06-03T16:17:07Z</time>
      </trkpt>
      <trkpt lat="50.61777" lon="3.0737">
        <ele>52.2</ele>
        <time>2018-06-03T16:17:11Z</time>
      </trkpt>
      <trkpt lat="50.61759" lon="3.07374">
        <ele>52.8</ele>
        <time>2018-06-03T16:17:15Z</time>
      </trkpt>
      <trkpt lat="50.6174" lon="3.07379">
        <ele>52.6</ele>
        <time>2018-06-03T16:17:19Z</time>
      </trkpt>
      <trkpt lat="50.6172" lon="3.07386">
        <ele>53.8</ele>
        <time>2018-06-03T16:17:23Z</time>
      </trkpt>
      <trkpt lat="50.61701" lon="3.07394">
        <ele>53.2</ele>
        <time>2018-06-03T16:17:27Z</time>
      </trkpt>
      <trkpt lat="50.61683" lon="3.074">
        <ele>54.6</ele>
        <time>2018-06-03T16:17:31Z</time>
      </trkpt>
      <trkpt lat="50.61665" lon="3.07408">
        <ele>53</ele>
        <time>2018-06-03T16:17:35Z</time>
      </trkpt>
      <trkpt lat="50.61645" lon="3.07412">
        <ele>53.4</ele>
        <time>2018-06-03T16:17:39Z</time>
      </trkpt>
      <trkpt lat="50.61626" lon="3.07416">
        <ele>53.2</ele>
        <time>2018-06-03T16:17:43Z</time>
      </trkpt>
      <trkpt lat="50.61607" lon="3.07422">
        <ele>53.2</ele>
        <time>2018-06-03T16:17:47Z</time>
      </trkpt>
      <trkpt lat="50.61587" lon="3.07428">
        <ele>53</ele>
        <time>2018-06-03T16:17:51Z</time>
      </trkpt>
      <trkpt lat="50.61567" lon="3.07435">
        <ele>53</ele>
        <time>2018-06-03T16:17:55Z</time>
      </trkpt>
      <trkpt lat="50.61547" lon="3.07443">
        <ele>53</ele>
        <time>2018-06-03T16:17:59Z</time>
      </trkpt>
      <trkpt lat="50.61527" lon="3.0745">
        <ele>53</ele>
        <time>2018-06-03T16:18:03Z</time>
      </trkpt>
      <trkpt lat="50.61507" lon="3.07456">
        <ele>53</ele>
        <time>2018-06-03T16:18:07Z</time>
      </trkpt>
      <trkpt lat="50.61488" lon="3.07461">
        <ele>53.2</ele>
        <time>2018-06-03T16:18:11Z</time>
      </trkpt>
      <trkpt lat="50.61469" lon="3.07466">
        <ele>53.4</ele>
        <time>2018-06-03T16:18:15Z</time>
      </trkpt>
      <trkpt lat="50.61449" lon="3.07469">
        <ele>53.4</ele>
        <time>2018-06-03T16:18:19Z</time>
      </trkpt>
      <trkpt lat="50.61429" lon="3.07473">
        <ele>53.2</ele>
        <time>2018-06-03T16:18:23Z</time>
      </trkpt>
      <trkpt lat="50.61409" lon="3.07473">
        <ele>53</ele>
        <time>2018-06-03T16:18:27Z</time>
      </trkpt>
      <trkpt lat="50.61388" lon="3.07469">
        <ele>53.2</ele>
        <time>2018-06-03T16:18:31Z</time>
      </trkpt>
      <trkpt lat="50.61366" lon="3.07473">
        <ele>53.6</ele>
        <time>2018-06-03T16:18:35Z</time>
      </trkpt>
      <trkpt lat="50.61345" lon="3.07478">
        <ele>53.6</ele>
        <time>2018-06-03T16:18:39Z</time>
      </trkpt>
      <trkpt lat="50.61324" lon="3.07481">
        <ele>53.8</ele>
        <time>2018-06-03T16:18:43Z</time>
      </trkpt>
      <trkpt lat="50.61303" lon="3.07485">
        <ele>54.8</ele>
        <time>2018-06-03T16:18:47Z</time>
      </trkpt>
      <trkpt lat="50.61282" lon="3.07488">
        <ele>54.2</ele>
        <time>2018-06-03T16:18:51Z</time>
      </trkpt>
      <trkpt lat="50.61262" lon="3.0749">
        <ele>54.4</ele>
        <time>2018-06-03T16:18:55Z</time>
      </trkpt>
      <trkpt lat="50.6124" lon="3.07493">
        <ele>54.2</ele>
        <time>2018-06-03T16:18:59Z</time>
      </trkpt>
      <trkpt lat="50.61223" lon="3.07498">
        <ele>54.8</ele>
        <time>2018-06-03T16:19:03Z</time>
      </trkpt>
      <trkpt lat="50.61215" lon="3.0748">
        <ele>54.8</ele>
        <time>2018-06-03T16:19:07Z</time>
      </trkpt>
      <trkpt lat="50.61207" lon="3.0746">
        <ele>55.4</ele>
        <time>2018-06-03T16:19:11Z</time>
      </trkpt>
      <trkpt lat="50.61194" lon="3.07449">
        <ele>55.8</ele>
        <time>2018-06-03T16:19:15Z</time>
      </trkpt>
      <trkpt lat="50.61183" lon="3.07437">
        <ele>55.4</ele>
        <time>2018-06-03T16:19:19Z</time>
      </trkpt>
      <trkpt lat="50.61172" lon="3.07427">
        <ele>55.4</ele>
        <time>2018-06-03T16:19:23Z</time>
      </trkpt>
      <trkpt lat="50.61162" lon="3.07419">
        <ele>55.2</ele>
        <time>2018-06-03T16:19:27Z</time>
      </trkpt>
      <trkpt lat="50.61154" lon="3.0741">
        <ele>55.4</ele>
        <time>2018-06-03T16:19:31Z</time>
      </trkpt>
      <trkpt lat="50.61147" lon="3.07404">
        <ele>55</ele>
        <time>2018-06-03T16:19:35Z</time>
      </trkpt>
      <trkpt lat="50.61147" lon="3.07404">
        <ele>55.2</ele>
        <time>2018-06-03T16:19:39Z</time>
      </trkpt>
      <trkpt lat="50.61147" lon="3.07404">
        <ele>55</ele>
        <time>2018-06-03T16:19:43Z</time>
      </trkpt>
      <trkpt lat="50.61144" lon="3.07401">
        <ele>55.8</ele>
        <time>2018-06-03T16:19:47Z</time>
      </trkpt>
      <trkpt lat="50.61147" lon="3.07394">
        <ele>55.4</ele>
        <time>2018-06-03T16:19:51Z</time>
      </trkpt>
      <trkpt lat="50.61147" lon="3.07394">
        <ele>55.4</ele>
        <time>2018-06-03T16:19:55Z</time>
      </trkpt>
      <trkpt lat="50.61149" lon="3.07393">
        <ele>54.6</ele>
        <time>2018-06-03T16:19:59Z</time>
      </trkpt>
      <trkpt lat="50.61149" lon="3.07392">
        <ele>55.4</ele>
        <time>2018-06-03T16:20:03Z</time>
      </trkpt>
      <trkpt lat="50.61149" lon="3.07392">
        <ele>55.4</ele>
        <time>2018-06-03T16:20:07Z</time>
      </trkpt>
      <trkpt lat="50.61151" lon="3.07389">
        <ele>55.4</ele>
        <time>2018-06-03T16:20:11Z</time>
      </trkpt>
      <trkpt lat="50.61151" lon="3.07388">
        <ele>55.4</ele>
        <time>2018-06-03T16:20:15Z</time>
      </trkpt>
      <trkpt lat="50.6115" lon="3.07385">
        <ele>55</ele>
        <time>2018-06-03T16:20:19Z</time>
      </trkpt>
      <trkpt lat="50.6115" lon="3.07385">
        <ele>55.6</ele>
        <time>2018-06-03T16:20:23Z</time>
      </trkpt>
    </trkseg>
  </trk>
</gpx>